<?xml version="1.0" encoding="UTF-8" standalone="no" ?>
<gpx xmlns="http://www.topografix.com/GPX/1/1" xmlns:xsi="http://www.w3.org/2001/XMLSchema-instance" xsi:schemaLocation="http://www.topografix.com/GPX/1/1 http://www.topografix.com/GPX/1/1/gpx.xsd" version="1.1" creator="VisuGPX - https://www.visugpx.com">
  <metadata>
    <name>Jas de Sylvain</name>
    <desc><![CDATA[Départ de Cuges.
Trajet long un peu difficile.]]></desc>
  </metadata>
  <trk>
    <name><![CDATA[Jas de Sylvain_1]]></name>
    <trkseg>
      <trkpt lat="43.27727" lon="5.70102">
        <ele>205.7</ele>
        <time>2021-03-31T08:27:53Z</time>
      </trkpt>
      <trkpt lat="43.27725" lon="5.70108">
        <ele>205.9</ele>
        <time>2021-03-31T08:28:25Z</time>
      </trkpt>
      <trkpt lat="43.27728" lon="5.70104">
        <ele>205.8</ele>
        <time>2021-03-31T08:29:07Z</time>
      </trkpt>
      <trkpt lat="43.27725" lon="5.70109">
        <ele>205.9</ele>
        <time>2021-03-31T08:30:31Z</time>
      </trkpt>
      <trkpt lat="43.27729" lon="5.70104">
        <ele>205.9</ele>
        <time>2021-03-31T08:30:51Z</time>
      </trkpt>
      <trkpt lat="43.27732" lon="5.701">
        <ele>205.8</ele>
        <time>2021-03-31T08:31:13Z</time>
      </trkpt>
      <trkpt lat="43.27736" lon="5.70096">
        <ele>205.8</ele>
        <time>2021-03-31T08:32:15Z</time>
      </trkpt>
      <trkpt lat="43.2774" lon="5.70093">
        <ele>205.9</ele>
        <time>2021-03-31T08:32:51Z</time>
      </trkpt>
      <trkpt lat="43.27747" lon="5.70096">
        <ele>206.2</ele>
        <time>2021-03-31T08:33:01Z</time>
      </trkpt>
      <trkpt lat="43.27753" lon="5.70097">
        <ele>206.4</ele>
        <time>2021-03-31T08:33:05Z</time>
      </trkpt>
      <trkpt lat="43.27757" lon="5.70097">
        <ele>206.6</ele>
        <time>2021-03-31T08:33:09Z</time>
      </trkpt>
      <trkpt lat="43.27762" lon="5.70095">
        <ele>206.8</ele>
        <time>2021-03-31T08:33:13Z</time>
      </trkpt>
      <trkpt lat="43.27767" lon="5.70093">
        <ele>207</ele>
        <time>2021-03-31T08:33:17Z</time>
      </trkpt>
      <trkpt lat="43.27773" lon="5.70093">
        <ele>207.2</ele>
        <time>2021-03-31T08:33:21Z</time>
      </trkpt>
      <trkpt lat="43.27777" lon="5.70093">
        <ele>207.4</ele>
        <time>2021-03-31T08:33:25Z</time>
      </trkpt>
      <trkpt lat="43.27783" lon="5.70095">
        <ele>207.7</ele>
        <time>2021-03-31T08:33:31Z</time>
      </trkpt>
      <trkpt lat="43.27789" lon="5.70097">
        <ele>208</ele>
        <time>2021-03-31T08:33:37Z</time>
      </trkpt>
      <trkpt lat="43.27794" lon="5.70099">
        <ele>208.2</ele>
        <time>2021-03-31T08:33:41Z</time>
      </trkpt>
      <trkpt lat="43.27801" lon="5.70101">
        <ele>208.5</ele>
        <time>2021-03-31T08:33:47Z</time>
      </trkpt>
      <trkpt lat="43.27805" lon="5.70102">
        <ele>208.7</ele>
        <time>2021-03-31T08:33:51Z</time>
      </trkpt>
      <trkpt lat="43.2781" lon="5.70106">
        <ele>208.8</ele>
        <time>2021-03-31T08:33:55Z</time>
      </trkpt>
      <trkpt lat="43.27815" lon="5.70109">
        <ele>209</ele>
        <time>2021-03-31T08:33:59Z</time>
      </trkpt>
      <trkpt lat="43.27819" lon="5.70114">
        <ele>209.1</ele>
        <time>2021-03-31T08:34:03Z</time>
      </trkpt>
      <trkpt lat="43.27823" lon="5.70118">
        <ele>209.2</ele>
        <time>2021-03-31T08:34:07Z</time>
      </trkpt>
      <trkpt lat="43.27827" lon="5.70122">
        <ele>209.3</ele>
        <time>2021-03-31T08:34:11Z</time>
      </trkpt>
      <trkpt lat="43.27831" lon="5.70125">
        <ele>209.4</ele>
        <time>2021-03-31T08:34:15Z</time>
      </trkpt>
      <trkpt lat="43.27836" lon="5.70127">
        <ele>209.8</ele>
        <time>2021-03-31T08:34:19Z</time>
      </trkpt>
      <trkpt lat="43.27839" lon="5.70131">
        <ele>210.2</ele>
        <time>2021-03-31T08:34:23Z</time>
      </trkpt>
      <trkpt lat="43.27843" lon="5.70134">
        <ele>210.6</ele>
        <time>2021-03-31T08:34:27Z</time>
      </trkpt>
      <trkpt lat="43.27847" lon="5.70137">
        <ele>211.1</ele>
        <time>2021-03-31T08:34:31Z</time>
      </trkpt>
      <trkpt lat="43.27853" lon="5.70142">
        <ele>211.5</ele>
        <time>2021-03-31T08:34:37Z</time>
      </trkpt>
      <trkpt lat="43.27856" lon="5.70147">
        <ele>211.8</ele>
        <time>2021-03-31T08:34:41Z</time>
      </trkpt>
      <trkpt lat="43.27861" lon="5.70149">
        <ele>212.2</ele>
        <time>2021-03-31T08:34:45Z</time>
      </trkpt>
      <trkpt lat="43.27866" lon="5.70153">
        <ele>212.5</ele>
        <time>2021-03-31T08:34:49Z</time>
      </trkpt>
      <trkpt lat="43.27869" lon="5.70156">
        <ele>212.6</ele>
        <time>2021-03-31T08:34:53Z</time>
      </trkpt>
      <trkpt lat="43.27873" lon="5.70161">
        <ele>212.7</ele>
        <time>2021-03-31T08:34:57Z</time>
      </trkpt>
      <trkpt lat="43.27876" lon="5.70165">
        <ele>212.7</ele>
        <time>2021-03-31T08:35:01Z</time>
      </trkpt>
      <trkpt lat="43.2788" lon="5.70169">
        <ele>213</ele>
        <time>2021-03-31T08:35:05Z</time>
      </trkpt>
      <trkpt lat="43.27883" lon="5.70174">
        <ele>213.4</ele>
        <time>2021-03-31T08:35:09Z</time>
      </trkpt>
      <trkpt lat="43.27886" lon="5.70179">
        <ele>213.8</ele>
        <time>2021-03-31T08:35:13Z</time>
      </trkpt>
      <trkpt lat="43.2789" lon="5.70186">
        <ele>214.4</ele>
        <time>2021-03-31T08:35:19Z</time>
      </trkpt>
      <trkpt lat="43.27893" lon="5.70194">
        <ele>214.8</ele>
        <time>2021-03-31T08:35:25Z</time>
      </trkpt>
      <trkpt lat="43.27896" lon="5.70199">
        <ele>215.2</ele>
        <time>2021-03-31T08:35:29Z</time>
      </trkpt>
      <trkpt lat="43.27898" lon="5.70206">
        <ele>215.6</ele>
        <time>2021-03-31T08:35:35Z</time>
      </trkpt>
      <trkpt lat="43.279" lon="5.70214">
        <ele>216</ele>
        <time>2021-03-31T08:35:41Z</time>
      </trkpt>
      <trkpt lat="43.27899" lon="5.70221">
        <ele>216.1</ele>
        <time>2021-03-31T08:35:47Z</time>
      </trkpt>
      <trkpt lat="43.27896" lon="5.70225">
        <ele>216</ele>
        <time>2021-03-31T08:35:51Z</time>
      </trkpt>
      <trkpt lat="43.27891" lon="5.70228">
        <ele>215.8</ele>
        <time>2021-03-31T08:35:55Z</time>
      </trkpt>
      <trkpt lat="43.27887" lon="5.70233">
        <ele>215.7</ele>
        <time>2021-03-31T08:35:59Z</time>
      </trkpt>
      <trkpt lat="43.27882" lon="5.7024">
        <ele>215.6</ele>
        <time>2021-03-31T08:36:05Z</time>
      </trkpt>
      <trkpt lat="43.27877" lon="5.70245">
        <ele>215.5</ele>
        <time>2021-03-31T08:36:09Z</time>
      </trkpt>
      <trkpt lat="43.27873" lon="5.70251">
        <ele>215.5</ele>
        <time>2021-03-31T08:36:15Z</time>
      </trkpt>
      <trkpt lat="43.2787" lon="5.70256">
        <ele>216.3</ele>
        <time>2021-03-31T08:36:19Z</time>
      </trkpt>
      <trkpt lat="43.27872" lon="5.70265">
        <ele>217.9</ele>
        <time>2021-03-31T08:36:25Z</time>
      </trkpt>
      <trkpt lat="43.27873" lon="5.70275">
        <ele>219.6</ele>
        <time>2021-03-31T08:36:31Z</time>
      </trkpt>
      <trkpt lat="43.27873" lon="5.70283">
        <ele>221.1</ele>
        <time>2021-03-31T08:36:35Z</time>
      </trkpt>
      <trkpt lat="43.27874" lon="5.70292">
        <ele>222.5</ele>
        <time>2021-03-31T08:36:39Z</time>
      </trkpt>
      <trkpt lat="43.27875" lon="5.70298">
        <ele>223.6</ele>
        <time>2021-03-31T08:36:43Z</time>
      </trkpt>
      <trkpt lat="43.27877" lon="5.70305">
        <ele>224.7</ele>
        <time>2021-03-31T08:36:47Z</time>
      </trkpt>
      <trkpt lat="43.27878" lon="5.70311">
        <ele>225.7</ele>
        <time>2021-03-31T08:36:51Z</time>
      </trkpt>
      <trkpt lat="43.2788" lon="5.70318">
        <ele>226.8</ele>
        <time>2021-03-31T08:36:55Z</time>
      </trkpt>
      <trkpt lat="43.27883" lon="5.70325">
        <ele>227.7</ele>
        <time>2021-03-31T08:36:59Z</time>
      </trkpt>
      <trkpt lat="43.27885" lon="5.70333">
        <ele>228.8</ele>
        <time>2021-03-31T08:37:03Z</time>
      </trkpt>
      <trkpt lat="43.27888" lon="5.70338">
        <ele>229.6</ele>
        <time>2021-03-31T08:37:07Z</time>
      </trkpt>
      <trkpt lat="43.27892" lon="5.70343">
        <ele>230</ele>
        <time>2021-03-31T08:37:11Z</time>
      </trkpt>
      <trkpt lat="43.27896" lon="5.70346">
        <ele>230.3</ele>
        <time>2021-03-31T08:37:15Z</time>
      </trkpt>
      <trkpt lat="43.279" lon="5.7035">
        <ele>230.5</ele>
        <time>2021-03-31T08:37:19Z</time>
      </trkpt>
      <trkpt lat="43.27903" lon="5.70354">
        <ele>230.8</ele>
        <time>2021-03-31T08:37:23Z</time>
      </trkpt>
      <trkpt lat="43.27908" lon="5.70356">
        <ele>230.5</ele>
        <time>2021-03-31T08:37:27Z</time>
      </trkpt>
      <trkpt lat="43.27912" lon="5.7036">
        <ele>230.6</ele>
        <time>2021-03-31T08:37:31Z</time>
      </trkpt>
      <trkpt lat="43.27918" lon="5.70366">
        <ele>230.9</ele>
        <time>2021-03-31T08:37:37Z</time>
      </trkpt>
      <trkpt lat="43.27921" lon="5.70371">
        <ele>231.5</ele>
        <time>2021-03-31T08:37:41Z</time>
      </trkpt>
      <trkpt lat="43.27924" lon="5.70375">
        <ele>231.9</ele>
        <time>2021-03-31T08:37:45Z</time>
      </trkpt>
      <trkpt lat="43.27928" lon="5.7038">
        <ele>232.3</ele>
        <time>2021-03-31T08:37:49Z</time>
      </trkpt>
      <trkpt lat="43.27931" lon="5.70384">
        <ele>232.5</ele>
        <time>2021-03-31T08:37:53Z</time>
      </trkpt>
      <trkpt lat="43.27935" lon="5.70389">
        <ele>232.8</ele>
        <time>2021-03-31T08:37:57Z</time>
      </trkpt>
      <trkpt lat="43.27938" lon="5.70394">
        <ele>233.1</ele>
        <time>2021-03-31T08:38:01Z</time>
      </trkpt>
      <trkpt lat="43.27942" lon="5.70398">
        <ele>233.2</ele>
        <time>2021-03-31T08:38:05Z</time>
      </trkpt>
      <trkpt lat="43.27947" lon="5.70402">
        <ele>233.2</ele>
        <time>2021-03-31T08:38:09Z</time>
      </trkpt>
      <trkpt lat="43.27948" lon="5.70409">
        <ele>233.5</ele>
        <time>2021-03-31T08:38:15Z</time>
      </trkpt>
      <trkpt lat="43.27949" lon="5.70419">
        <ele>234.2</ele>
        <time>2021-03-31T08:38:21Z</time>
      </trkpt>
      <trkpt lat="43.27949" lon="5.70425">
        <ele>235.1</ele>
        <time>2021-03-31T08:38:25Z</time>
      </trkpt>
      <trkpt lat="43.27949" lon="5.70433">
        <ele>236.4</ele>
        <time>2021-03-31T08:38:31Z</time>
      </trkpt>
      <trkpt lat="43.27951" lon="5.70439">
        <ele>237.1</ele>
        <time>2021-03-31T08:38:35Z</time>
      </trkpt>
      <trkpt lat="43.27953" lon="5.70446">
        <ele>237.7</ele>
        <time>2021-03-31T08:38:39Z</time>
      </trkpt>
      <trkpt lat="43.27952" lon="5.70454">
        <ele>239.1</ele>
        <time>2021-03-31T08:38:45Z</time>
      </trkpt>
      <trkpt lat="43.27953" lon="5.70461">
        <ele>240</ele>
        <time>2021-03-31T08:38:51Z</time>
      </trkpt>
      <trkpt lat="43.27956" lon="5.70466">
        <ele>240.2</ele>
        <time>2021-03-31T08:38:55Z</time>
      </trkpt>
      <trkpt lat="43.27958" lon="5.70473">
        <ele>241</ele>
        <time>2021-03-31T08:38:59Z</time>
      </trkpt>
      <trkpt lat="43.27957" lon="5.70482">
        <ele>242.2</ele>
        <time>2021-03-31T08:39:05Z</time>
      </trkpt>
      <trkpt lat="43.2796" lon="5.70489">
        <ele>242.7</ele>
        <time>2021-03-31T08:39:13Z</time>
      </trkpt>
      <trkpt lat="43.27963" lon="5.70494">
        <ele>242.7</ele>
        <time>2021-03-31T08:39:21Z</time>
      </trkpt>
      <trkpt lat="43.27969" lon="5.70499">
        <ele>241.8</ele>
        <time>2021-03-31T08:39:47Z</time>
      </trkpt>
      <trkpt lat="43.27974" lon="5.70503">
        <ele>242</ele>
        <time>2021-03-31T08:39:51Z</time>
      </trkpt>
      <trkpt lat="43.27975" lon="5.70509">
        <ele>243.4</ele>
        <time>2021-03-31T08:40:09Z</time>
      </trkpt>
      <trkpt lat="43.27979" lon="5.70514">
        <ele>243.9</ele>
        <time>2021-03-31T08:40:17Z</time>
      </trkpt>
      <trkpt lat="43.27985" lon="5.70519">
        <ele>244.3</ele>
        <time>2021-03-31T08:40:23Z</time>
      </trkpt>
      <trkpt lat="43.27989" lon="5.70524">
        <ele>245.2</ele>
        <time>2021-03-31T08:40:31Z</time>
      </trkpt>
      <trkpt lat="43.27993" lon="5.70527">
        <ele>245.3</ele>
        <time>2021-03-31T08:40:37Z</time>
      </trkpt>
      <trkpt lat="43.27997" lon="5.70531">
        <ele>245.7</ele>
        <time>2021-03-31T08:40:45Z</time>
      </trkpt>
      <trkpt lat="43.28001" lon="5.70528">
        <ele>243.9</ele>
        <time>2021-03-31T08:41:11Z</time>
      </trkpt>
      <trkpt lat="43.27996" lon="5.70532">
        <ele>246.1</ele>
        <time>2021-03-31T08:41:59Z</time>
      </trkpt>
      <trkpt lat="43.27991" lon="5.70529">
        <ele>246.3</ele>
        <time>2021-03-31T08:42:05Z</time>
      </trkpt>
      <trkpt lat="43.27986" lon="5.70526">
        <ele>246.2</ele>
        <time>2021-03-31T08:42:13Z</time>
      </trkpt>
      <trkpt lat="43.27983" lon="5.70522">
        <ele>245.8</ele>
        <time>2021-03-31T08:42:19Z</time>
      </trkpt>
      <trkpt lat="43.27978" lon="5.70518">
        <ele>245.5</ele>
        <time>2021-03-31T08:42:25Z</time>
      </trkpt>
      <trkpt lat="43.27975" lon="5.70513">
        <ele>244.6</ele>
        <time>2021-03-31T08:42:31Z</time>
      </trkpt>
      <trkpt lat="43.2797" lon="5.70509">
        <ele>244.6</ele>
        <time>2021-03-31T08:42:39Z</time>
      </trkpt>
      <trkpt lat="43.27965" lon="5.70506">
        <ele>244.6</ele>
        <time>2021-03-31T08:42:45Z</time>
      </trkpt>
      <trkpt lat="43.27959" lon="5.70503">
        <ele>245.1</ele>
        <time>2021-03-31T08:42:51Z</time>
      </trkpt>
      <trkpt lat="43.27955" lon="5.70499">
        <ele>245.1</ele>
        <time>2021-03-31T08:42:57Z</time>
      </trkpt>
      <trkpt lat="43.2795" lon="5.70496">
        <ele>245.8</ele>
        <time>2021-03-31T08:43:05Z</time>
      </trkpt>
      <trkpt lat="43.27945" lon="5.70489">
        <ele>245.7</ele>
        <time>2021-03-31T08:43:11Z</time>
      </trkpt>
      <trkpt lat="43.27941" lon="5.70484">
        <ele>245.8</ele>
        <time>2021-03-31T08:43:17Z</time>
      </trkpt>
      <trkpt lat="43.27936" lon="5.70479">
        <ele>245.9</ele>
        <time>2021-03-31T08:43:23Z</time>
      </trkpt>
      <trkpt lat="43.27931" lon="5.70476">
        <ele>246.4</ele>
        <time>2021-03-31T08:43:27Z</time>
      </trkpt>
      <trkpt lat="43.27926" lon="5.70474">
        <ele>247</ele>
        <time>2021-03-31T08:43:31Z</time>
      </trkpt>
      <trkpt lat="43.27919" lon="5.70472">
        <ele>247.9</ele>
        <time>2021-03-31T08:43:37Z</time>
      </trkpt>
      <trkpt lat="43.27914" lon="5.70471">
        <ele>248.7</ele>
        <time>2021-03-31T08:43:43Z</time>
      </trkpt>
      <trkpt lat="43.27909" lon="5.70472">
        <ele>249.8</ele>
        <time>2021-03-31T08:43:53Z</time>
      </trkpt>
      <trkpt lat="43.27904" lon="5.70472">
        <ele>250.8</ele>
        <time>2021-03-31T08:44:01Z</time>
      </trkpt>
      <trkpt lat="43.27899" lon="5.70472">
        <ele>251.7</ele>
        <time>2021-03-31T08:44:07Z</time>
      </trkpt>
      <trkpt lat="43.27893" lon="5.70471">
        <ele>252.7</ele>
        <time>2021-03-31T08:44:13Z</time>
      </trkpt>
      <trkpt lat="43.27888" lon="5.70472">
        <ele>253.9</ele>
        <time>2021-03-31T08:44:19Z</time>
      </trkpt>
      <trkpt lat="43.27883" lon="5.70473">
        <ele>254.9</ele>
        <time>2021-03-31T08:44:25Z</time>
      </trkpt>
      <trkpt lat="43.27878" lon="5.70473">
        <ele>256.1</ele>
        <time>2021-03-31T08:44:31Z</time>
      </trkpt>
      <trkpt lat="43.27872" lon="5.70474">
        <ele>257.2</ele>
        <time>2021-03-31T08:44:37Z</time>
      </trkpt>
      <trkpt lat="43.27867" lon="5.70476">
        <ele>258.7</ele>
        <time>2021-03-31T08:44:43Z</time>
      </trkpt>
      <trkpt lat="43.27861" lon="5.70475">
        <ele>259.6</ele>
        <time>2021-03-31T08:44:51Z</time>
      </trkpt>
      <trkpt lat="43.27855" lon="5.70477">
        <ele>261</ele>
        <time>2021-03-31T08:44:57Z</time>
      </trkpt>
      <trkpt lat="43.2785" lon="5.70476">
        <ele>261.8</ele>
        <time>2021-03-31T08:45:01Z</time>
      </trkpt>
      <trkpt lat="43.27844" lon="5.70476">
        <ele>262.9</ele>
        <time>2021-03-31T08:45:07Z</time>
      </trkpt>
      <trkpt lat="43.27839" lon="5.70475">
        <ele>263.8</ele>
        <time>2021-03-31T08:45:13Z</time>
      </trkpt>
      <trkpt lat="43.27834" lon="5.70475">
        <ele>264.7</ele>
        <time>2021-03-31T08:45:19Z</time>
      </trkpt>
      <trkpt lat="43.27828" lon="5.70474">
        <ele>264.7</ele>
        <time>2021-03-31T08:45:25Z</time>
      </trkpt>
      <trkpt lat="43.27825" lon="5.70469">
        <ele>263.9</ele>
        <time>2021-03-31T08:45:33Z</time>
      </trkpt>
      <trkpt lat="43.27821" lon="5.70464">
        <ele>263.1</ele>
        <time>2021-03-31T08:45:39Z</time>
      </trkpt>
      <trkpt lat="43.27817" lon="5.70459">
        <ele>262.5</ele>
        <time>2021-03-31T08:45:43Z</time>
      </trkpt>
      <trkpt lat="43.27811" lon="5.70456">
        <ele>262.2</ele>
        <time>2021-03-31T08:45:49Z</time>
      </trkpt>
      <trkpt lat="43.27806" lon="5.70453">
        <ele>261.9</ele>
        <time>2021-03-31T08:45:53Z</time>
      </trkpt>
      <trkpt lat="43.27801" lon="5.70449">
        <ele>261.7</ele>
        <time>2021-03-31T08:45:59Z</time>
      </trkpt>
      <trkpt lat="43.27794" lon="5.70446">
        <ele>261.6</ele>
        <time>2021-03-31T08:46:05Z</time>
      </trkpt>
      <trkpt lat="43.2779" lon="5.70442">
        <ele>261.3</ele>
        <time>2021-03-31T08:46:09Z</time>
      </trkpt>
      <trkpt lat="43.27784" lon="5.7044">
        <ele>261.4</ele>
        <time>2021-03-31T08:46:15Z</time>
      </trkpt>
      <trkpt lat="43.2778" lon="5.70438">
        <ele>261.4</ele>
        <time>2021-03-31T08:46:21Z</time>
      </trkpt>
      <trkpt lat="43.27776" lon="5.70435">
        <ele>261.4</ele>
        <time>2021-03-31T08:46:27Z</time>
      </trkpt>
      <trkpt lat="43.27774" lon="5.70428">
        <ele>260.9</ele>
        <time>2021-03-31T08:46:33Z</time>
      </trkpt>
      <trkpt lat="43.2777" lon="5.70432">
        <ele>261.5</ele>
        <time>2021-03-31T08:46:39Z</time>
      </trkpt>
      <trkpt lat="43.27765" lon="5.70434">
        <ele>262</ele>
        <time>2021-03-31T08:46:47Z</time>
      </trkpt>
      <trkpt lat="43.2776" lon="5.70435">
        <ele>262.3</ele>
        <time>2021-03-31T08:46:53Z</time>
      </trkpt>
      <trkpt lat="43.27753" lon="5.70434">
        <ele>262.7</ele>
        <time>2021-03-31T08:47:01Z</time>
      </trkpt>
      <trkpt lat="43.27747" lon="5.70433">
        <ele>261.7</ele>
        <time>2021-03-31T08:47:09Z</time>
      </trkpt>
      <trkpt lat="43.27741" lon="5.70431">
        <ele>259.6</ele>
        <time>2021-03-31T08:47:15Z</time>
      </trkpt>
      <trkpt lat="43.27735" lon="5.70431">
        <ele>257.6</ele>
        <time>2021-03-31T08:47:21Z</time>
      </trkpt>
      <trkpt lat="43.2773" lon="5.70429">
        <ele>255.8</ele>
        <time>2021-03-31T08:47:31Z</time>
      </trkpt>
      <trkpt lat="43.2773" lon="5.70437">
        <ele>255.8</ele>
        <time>2021-03-31T08:49:05Z</time>
      </trkpt>
      <trkpt lat="43.27734" lon="5.70435">
        <ele>257.4</ele>
        <time>2021-03-31T08:49:23Z</time>
      </trkpt>
      <trkpt lat="43.27738" lon="5.70443">
        <ele>259.1</ele>
        <time>2021-03-31T08:51:45Z</time>
      </trkpt>
      <trkpt lat="43.27742" lon="5.70449">
        <ele>260.8</ele>
        <time>2021-03-31T08:51:53Z</time>
      </trkpt>
      <trkpt lat="43.27745" lon="5.70454">
        <ele>261.8</ele>
        <time>2021-03-31T08:51:59Z</time>
      </trkpt>
      <trkpt lat="43.27749" lon="5.70458">
        <ele>263.5</ele>
        <time>2021-03-31T08:52:05Z</time>
      </trkpt>
      <trkpt lat="43.27753" lon="5.70463">
        <ele>264.2</ele>
        <time>2021-03-31T08:52:17Z</time>
      </trkpt>
      <trkpt lat="43.27758" lon="5.70465">
        <ele>264.2</ele>
        <time>2021-03-31T08:52:23Z</time>
      </trkpt>
      <trkpt lat="43.27763" lon="5.70464">
        <ele>264.1</ele>
        <time>2021-03-31T08:52:27Z</time>
      </trkpt>
      <trkpt lat="43.27767" lon="5.70467">
        <ele>264.2</ele>
        <time>2021-03-31T08:52:33Z</time>
      </trkpt>
      <trkpt lat="43.27771" lon="5.70471">
        <ele>264.5</ele>
        <time>2021-03-31T08:52:47Z</time>
      </trkpt>
      <trkpt lat="43.27776" lon="5.70475">
        <ele>264.8</ele>
        <time>2021-03-31T08:52:53Z</time>
      </trkpt>
      <trkpt lat="43.27781" lon="5.70476">
        <ele>264.9</ele>
        <time>2021-03-31T08:52:57Z</time>
      </trkpt>
      <trkpt lat="43.27784" lon="5.70481">
        <ele>265.4</ele>
        <time>2021-03-31T08:53:07Z</time>
      </trkpt>
      <trkpt lat="43.27787" lon="5.70487">
        <ele>266</ele>
        <time>2021-03-31T08:53:13Z</time>
      </trkpt>
      <trkpt lat="43.27788" lon="5.70496">
        <ele>267</ele>
        <time>2021-03-31T08:53:19Z</time>
      </trkpt>
      <trkpt lat="43.27788" lon="5.70502">
        <ele>267.4</ele>
        <time>2021-03-31T08:53:23Z</time>
      </trkpt>
      <trkpt lat="43.27788" lon="5.7051">
        <ele>267.5</ele>
        <time>2021-03-31T08:53:29Z</time>
      </trkpt>
      <trkpt lat="43.27789" lon="5.70518">
        <ele>267.6</ele>
        <time>2021-03-31T08:53:35Z</time>
      </trkpt>
      <trkpt lat="43.2779" lon="5.70524">
        <ele>267.8</ele>
        <time>2021-03-31T08:53:41Z</time>
      </trkpt>
      <trkpt lat="43.27791" lon="5.70532">
        <ele>268</ele>
        <time>2021-03-31T08:53:49Z</time>
      </trkpt>
      <trkpt lat="43.27794" lon="5.70538">
        <ele>268.4</ele>
        <time>2021-03-31T08:53:55Z</time>
      </trkpt>
      <trkpt lat="43.27794" lon="5.70544">
        <ele>268.7</ele>
        <time>2021-03-31T08:54:01Z</time>
      </trkpt>
      <trkpt lat="43.27794" lon="5.70552">
        <ele>268.8</ele>
        <time>2021-03-31T08:54:13Z</time>
      </trkpt>
      <trkpt lat="43.27793" lon="5.70558">
        <ele>268.8</ele>
        <time>2021-03-31T08:54:21Z</time>
      </trkpt>
      <trkpt lat="43.27794" lon="5.70565">
        <ele>269.1</ele>
        <time>2021-03-31T08:54:27Z</time>
      </trkpt>
      <trkpt lat="43.27797" lon="5.70573">
        <ele>269.8</ele>
        <time>2021-03-31T08:54:33Z</time>
      </trkpt>
      <trkpt lat="43.27799" lon="5.70579">
        <ele>270.4</ele>
        <time>2021-03-31T08:54:39Z</time>
      </trkpt>
      <trkpt lat="43.27801" lon="5.70587">
        <ele>271.2</ele>
        <time>2021-03-31T08:54:47Z</time>
      </trkpt>
      <trkpt lat="43.27802" lon="5.70594">
        <ele>271.9</ele>
        <time>2021-03-31T08:54:53Z</time>
      </trkpt>
      <trkpt lat="43.27803" lon="5.706">
        <ele>272.6</ele>
        <time>2021-03-31T08:54:59Z</time>
      </trkpt>
      <trkpt lat="43.27804" lon="5.70608">
        <ele>273.5</ele>
        <time>2021-03-31T08:55:07Z</time>
      </trkpt>
      <trkpt lat="43.27806" lon="5.70615">
        <ele>274.6</ele>
        <time>2021-03-31T08:55:15Z</time>
      </trkpt>
      <trkpt lat="43.27809" lon="5.70622">
        <ele>275.8</ele>
        <time>2021-03-31T08:55:23Z</time>
      </trkpt>
      <trkpt lat="43.27811" lon="5.70627">
        <ele>276.9</ele>
        <time>2021-03-31T08:55:29Z</time>
      </trkpt>
      <trkpt lat="43.27813" lon="5.70633">
        <ele>278.2</ele>
        <time>2021-03-31T08:55:35Z</time>
      </trkpt>
      <trkpt lat="43.27817" lon="5.70638">
        <ele>279.7</ele>
        <time>2021-03-31T08:55:41Z</time>
      </trkpt>
      <trkpt lat="43.27819" lon="5.70643">
        <ele>281.1</ele>
        <time>2021-03-31T08:55:47Z</time>
      </trkpt>
      <trkpt lat="43.27821" lon="5.7065">
        <ele>282.6</ele>
        <time>2021-03-31T08:55:55Z</time>
      </trkpt>
      <trkpt lat="43.27824" lon="5.70657">
        <ele>284.4</ele>
        <time>2021-03-31T08:56:03Z</time>
      </trkpt>
      <trkpt lat="43.27826" lon="5.70663">
        <ele>285.9</ele>
        <time>2021-03-31T08:56:11Z</time>
      </trkpt>
      <trkpt lat="43.2783" lon="5.70668">
        <ele>287.9</ele>
        <time>2021-03-31T08:56:21Z</time>
      </trkpt>
      <trkpt lat="43.27834" lon="5.70673">
        <ele>289.4</ele>
        <time>2021-03-31T08:56:29Z</time>
      </trkpt>
      <trkpt lat="43.27837" lon="5.70679">
        <ele>290.3</ele>
        <time>2021-03-31T08:56:37Z</time>
      </trkpt>
      <trkpt lat="43.2784" lon="5.70684">
        <ele>291.4</ele>
        <time>2021-03-31T08:56:45Z</time>
      </trkpt>
      <trkpt lat="43.27843" lon="5.7069">
        <ele>292.4</ele>
        <time>2021-03-31T08:56:53Z</time>
      </trkpt>
      <trkpt lat="43.27848" lon="5.70695">
        <ele>293.9</ele>
        <time>2021-03-31T08:57:01Z</time>
      </trkpt>
      <trkpt lat="43.27851" lon="5.70701">
        <ele>295.3</ele>
        <time>2021-03-31T08:57:09Z</time>
      </trkpt>
      <trkpt lat="43.27854" lon="5.70708">
        <ele>296.5</ele>
        <time>2021-03-31T08:57:17Z</time>
      </trkpt>
      <trkpt lat="43.27855" lon="5.70714">
        <ele>297.5</ele>
        <time>2021-03-31T08:57:29Z</time>
      </trkpt>
      <trkpt lat="43.27857" lon="5.70721">
        <ele>298.7</ele>
        <time>2021-03-31T08:57:43Z</time>
      </trkpt>
      <trkpt lat="43.2786" lon="5.70726">
        <ele>300.3</ele>
        <time>2021-03-31T08:58:11Z</time>
      </trkpt>
      <trkpt lat="43.27864" lon="5.70729">
        <ele>301.9</ele>
        <time>2021-03-31T08:59:01Z</time>
      </trkpt>
      <trkpt lat="43.27868" lon="5.70726">
        <ele>302.9</ele>
        <time>2021-03-31T08:59:45Z</time>
      </trkpt>
      <trkpt lat="43.27872" lon="5.70721">
        <ele>303.4</ele>
        <time>2021-03-31T09:00:25Z</time>
      </trkpt>
      <trkpt lat="43.27877" lon="5.70717">
        <ele>304.5</ele>
        <time>2021-03-31T09:00:37Z</time>
      </trkpt>
      <trkpt lat="43.27883" lon="5.70716">
        <ele>305.8</ele>
        <time>2021-03-31T09:00:45Z</time>
      </trkpt>
      <trkpt lat="43.27887" lon="5.70718">
        <ele>307.6</ele>
        <time>2021-03-31T09:00:51Z</time>
      </trkpt>
      <trkpt lat="43.27893" lon="5.70717">
        <ele>309.1</ele>
        <time>2021-03-31T09:00:57Z</time>
      </trkpt>
      <trkpt lat="43.279" lon="5.70716">
        <ele>311</ele>
        <time>2021-03-31T09:01:03Z</time>
      </trkpt>
      <trkpt lat="43.27905" lon="5.70712">
        <ele>311.5</ele>
        <time>2021-03-31T09:01:11Z</time>
      </trkpt>
      <trkpt lat="43.2791" lon="5.70706">
        <ele>311.6</ele>
        <time>2021-03-31T09:01:17Z</time>
      </trkpt>
      <trkpt lat="43.27915" lon="5.70702">
        <ele>312.1</ele>
        <time>2021-03-31T09:01:23Z</time>
      </trkpt>
      <trkpt lat="43.2792" lon="5.70702">
        <ele>312.5</ele>
        <time>2021-03-31T09:01:31Z</time>
      </trkpt>
      <trkpt lat="43.2792" lon="5.70708">
        <ele>314</ele>
        <time>2021-03-31T09:01:37Z</time>
      </trkpt>
      <trkpt lat="43.27917" lon="5.70714">
        <ele>315.3</ele>
        <time>2021-03-31T09:01:45Z</time>
      </trkpt>
      <trkpt lat="43.27913" lon="5.70719">
        <ele>315.3</ele>
        <time>2021-03-31T09:01:53Z</time>
      </trkpt>
      <trkpt lat="43.27908" lon="5.70723">
        <ele>315</ele>
        <time>2021-03-31T09:01:59Z</time>
      </trkpt>
      <trkpt lat="43.27904" lon="5.70728">
        <ele>314.7</ele>
        <time>2021-03-31T09:02:05Z</time>
      </trkpt>
      <trkpt lat="43.279" lon="5.70732">
        <ele>314.2</ele>
        <time>2021-03-31T09:02:11Z</time>
      </trkpt>
      <trkpt lat="43.27896" lon="5.70737">
        <ele>313.8</ele>
        <time>2021-03-31T09:02:17Z</time>
      </trkpt>
      <trkpt lat="43.27897" lon="5.70744">
        <ele>315.4</ele>
        <time>2021-03-31T09:02:23Z</time>
      </trkpt>
      <trkpt lat="43.27901" lon="5.70748">
        <ele>317.8</ele>
        <time>2021-03-31T09:02:29Z</time>
      </trkpt>
      <trkpt lat="43.27906" lon="5.70749">
        <ele>319.9</ele>
        <time>2021-03-31T09:02:35Z</time>
      </trkpt>
      <trkpt lat="43.27913" lon="5.70747">
        <ele>321.8</ele>
        <time>2021-03-31T09:02:41Z</time>
      </trkpt>
      <trkpt lat="43.27918" lon="5.70744">
        <ele>322.7</ele>
        <time>2021-03-31T09:02:47Z</time>
      </trkpt>
      <trkpt lat="43.27922" lon="5.70741">
        <ele>322.3</ele>
        <time>2021-03-31T09:02:51Z</time>
      </trkpt>
      <trkpt lat="43.27926" lon="5.70738">
        <ele>321.9</ele>
        <time>2021-03-31T09:02:55Z</time>
      </trkpt>
      <trkpt lat="43.27931" lon="5.70735">
        <ele>321.4</ele>
        <time>2021-03-31T09:03:01Z</time>
      </trkpt>
      <trkpt lat="43.27936" lon="5.7073">
        <ele>320.5</ele>
        <time>2021-03-31T09:03:07Z</time>
      </trkpt>
      <trkpt lat="43.27941" lon="5.70726">
        <ele>319.6</ele>
        <time>2021-03-31T09:03:13Z</time>
      </trkpt>
      <trkpt lat="43.27946" lon="5.70724">
        <ele>319.5</ele>
        <time>2021-03-31T09:03:21Z</time>
      </trkpt>
      <trkpt lat="43.27947" lon="5.70731">
        <ele>321.5</ele>
        <time>2021-03-31T09:03:33Z</time>
      </trkpt>
      <trkpt lat="43.27943" lon="5.70737">
        <ele>322.7</ele>
        <time>2021-03-31T09:03:39Z</time>
      </trkpt>
      <trkpt lat="43.2794" lon="5.70743">
        <ele>324.3</ele>
        <time>2021-03-31T09:03:45Z</time>
      </trkpt>
      <trkpt lat="43.27937" lon="5.70749">
        <ele>325.7</ele>
        <time>2021-03-31T09:03:51Z</time>
      </trkpt>
      <trkpt lat="43.27935" lon="5.70755">
        <ele>326.3</ele>
        <time>2021-03-31T09:03:57Z</time>
      </trkpt>
      <trkpt lat="43.27931" lon="5.70759">
        <ele>326.5</ele>
        <time>2021-03-31T09:04:03Z</time>
      </trkpt>
      <trkpt lat="43.27926" lon="5.70764">
        <ele>326.5</ele>
        <time>2021-03-31T09:04:11Z</time>
      </trkpt>
      <trkpt lat="43.27922" lon="5.70769">
        <ele>326.5</ele>
        <time>2021-03-31T09:04:17Z</time>
      </trkpt>
      <trkpt lat="43.2792" lon="5.70777">
        <ele>327.1</ele>
        <time>2021-03-31T09:04:23Z</time>
      </trkpt>
      <trkpt lat="43.27921" lon="5.70783">
        <ele>327.9</ele>
        <time>2021-03-31T09:04:27Z</time>
      </trkpt>
      <trkpt lat="43.27925" lon="5.70787">
        <ele>328.9</ele>
        <time>2021-03-31T09:04:33Z</time>
      </trkpt>
      <trkpt lat="43.27931" lon="5.70784">
        <ele>329.4</ele>
        <time>2021-03-31T09:04:39Z</time>
      </trkpt>
      <trkpt lat="43.27935" lon="5.7078">
        <ele>329.6</ele>
        <time>2021-03-31T09:04:45Z</time>
      </trkpt>
      <trkpt lat="43.2794" lon="5.70778">
        <ele>330</ele>
        <time>2021-03-31T09:04:51Z</time>
      </trkpt>
      <trkpt lat="43.27945" lon="5.70777">
        <ele>330.6</ele>
        <time>2021-03-31T09:04:57Z</time>
      </trkpt>
      <trkpt lat="43.2795" lon="5.70776">
        <ele>331</ele>
        <time>2021-03-31T09:05:03Z</time>
      </trkpt>
      <trkpt lat="43.27955" lon="5.70773">
        <ele>331.2</ele>
        <time>2021-03-31T09:05:07Z</time>
      </trkpt>
      <trkpt lat="43.27959" lon="5.7077">
        <ele>331.3</ele>
        <time>2021-03-31T09:05:11Z</time>
      </trkpt>
      <trkpt lat="43.27964" lon="5.70767">
        <ele>331.4</ele>
        <time>2021-03-31T09:05:17Z</time>
      </trkpt>
      <trkpt lat="43.27968" lon="5.70763">
        <ele>331.2</ele>
        <time>2021-03-31T09:05:23Z</time>
      </trkpt>
      <trkpt lat="43.27973" lon="5.7076">
        <ele>331.2</ele>
        <time>2021-03-31T09:05:29Z</time>
      </trkpt>
      <trkpt lat="43.27977" lon="5.70761">
        <ele>331.9</ele>
        <time>2021-03-31T09:05:39Z</time>
      </trkpt>
      <trkpt lat="43.27977" lon="5.70767">
        <ele>333</ele>
        <time>2021-03-31T09:05:49Z</time>
      </trkpt>
      <trkpt lat="43.27973" lon="5.70773">
        <ele>333.8</ele>
        <time>2021-03-31T09:05:55Z</time>
      </trkpt>
      <trkpt lat="43.27969" lon="5.70779">
        <ele>334.3</ele>
        <time>2021-03-31T09:06:01Z</time>
      </trkpt>
      <trkpt lat="43.27964" lon="5.70783">
        <ele>334.3</ele>
        <time>2021-03-31T09:06:07Z</time>
      </trkpt>
      <trkpt lat="43.27959" lon="5.70786">
        <ele>333.9</ele>
        <time>2021-03-31T09:06:13Z</time>
      </trkpt>
      <trkpt lat="43.27953" lon="5.70789">
        <ele>333.5</ele>
        <time>2021-03-31T09:06:19Z</time>
      </trkpt>
      <trkpt lat="43.2795" lon="5.70797">
        <ele>334.3</ele>
        <time>2021-03-31T09:06:25Z</time>
      </trkpt>
      <trkpt lat="43.27951" lon="5.70804">
        <ele>335.4</ele>
        <time>2021-03-31T09:06:29Z</time>
      </trkpt>
      <trkpt lat="43.27956" lon="5.70808">
        <ele>336.8</ele>
        <time>2021-03-31T09:06:33Z</time>
      </trkpt>
      <trkpt lat="43.27961" lon="5.70808">
        <ele>337.9</ele>
        <time>2021-03-31T09:06:39Z</time>
      </trkpt>
      <trkpt lat="43.27966" lon="5.70806">
        <ele>338.6</ele>
        <time>2021-03-31T09:06:45Z</time>
      </trkpt>
      <trkpt lat="43.27971" lon="5.70806">
        <ele>339.5</ele>
        <time>2021-03-31T09:06:51Z</time>
      </trkpt>
      <trkpt lat="43.27976" lon="5.70807">
        <ele>340.6</ele>
        <time>2021-03-31T09:06:57Z</time>
      </trkpt>
      <trkpt lat="43.27982" lon="5.70809">
        <ele>341.9</ele>
        <time>2021-03-31T09:07:03Z</time>
      </trkpt>
      <trkpt lat="43.27987" lon="5.7081">
        <ele>343.2</ele>
        <time>2021-03-31T09:07:09Z</time>
      </trkpt>
      <trkpt lat="43.27993" lon="5.70812">
        <ele>344.6</ele>
        <time>2021-03-31T09:07:15Z</time>
      </trkpt>
      <trkpt lat="43.27999" lon="5.70811">
        <ele>345.6</ele>
        <time>2021-03-31T09:07:21Z</time>
      </trkpt>
      <trkpt lat="43.28004" lon="5.70811">
        <ele>345.5</ele>
        <time>2021-03-31T09:07:27Z</time>
      </trkpt>
      <trkpt lat="43.2801" lon="5.70812">
        <ele>345.2</ele>
        <time>2021-03-31T09:07:33Z</time>
      </trkpt>
      <trkpt lat="43.28016" lon="5.70815">
        <ele>345.2</ele>
        <time>2021-03-31T09:07:41Z</time>
      </trkpt>
      <trkpt lat="43.28021" lon="5.70817">
        <ele>345.2</ele>
        <time>2021-03-31T09:07:47Z</time>
      </trkpt>
      <trkpt lat="43.28026" lon="5.7082">
        <ele>345.4</ele>
        <time>2021-03-31T09:07:53Z</time>
      </trkpt>
      <trkpt lat="43.28031" lon="5.70823">
        <ele>345.8</ele>
        <time>2021-03-31T09:07:59Z</time>
      </trkpt>
      <trkpt lat="43.28037" lon="5.70827">
        <ele>346.5</ele>
        <time>2021-03-31T09:08:05Z</time>
      </trkpt>
      <trkpt lat="43.28041" lon="5.70831">
        <ele>347.4</ele>
        <time>2021-03-31T09:08:11Z</time>
      </trkpt>
      <trkpt lat="43.28043" lon="5.70838">
        <ele>348.3</ele>
        <time>2021-03-31T09:08:17Z</time>
      </trkpt>
      <trkpt lat="43.28046" lon="5.70844">
        <ele>348.8</ele>
        <time>2021-03-31T09:08:23Z</time>
      </trkpt>
      <trkpt lat="43.28049" lon="5.70851">
        <ele>349.5</ele>
        <time>2021-03-31T09:08:29Z</time>
      </trkpt>
      <trkpt lat="43.28052" lon="5.70859">
        <ele>350.2</ele>
        <time>2021-03-31T09:08:35Z</time>
      </trkpt>
      <trkpt lat="43.28054" lon="5.70867">
        <ele>351.1</ele>
        <time>2021-03-31T09:08:41Z</time>
      </trkpt>
      <trkpt lat="43.28056" lon="5.70873">
        <ele>351.8</ele>
        <time>2021-03-31T09:08:45Z</time>
      </trkpt>
      <trkpt lat="43.2806" lon="5.70881">
        <ele>352.6</ele>
        <time>2021-03-31T09:08:51Z</time>
      </trkpt>
      <trkpt lat="43.28063" lon="5.70888">
        <ele>353.6</ele>
        <time>2021-03-31T09:08:57Z</time>
      </trkpt>
      <trkpt lat="43.28066" lon="5.70896">
        <ele>354.6</ele>
        <time>2021-03-31T09:09:03Z</time>
      </trkpt>
      <trkpt lat="43.28069" lon="5.70904">
        <ele>355.7</ele>
        <time>2021-03-31T09:09:09Z</time>
      </trkpt>
      <trkpt lat="43.28072" lon="5.70911">
        <ele>356.8</ele>
        <time>2021-03-31T09:09:15Z</time>
      </trkpt>
      <trkpt lat="43.28075" lon="5.70919">
        <ele>357.7</ele>
        <time>2021-03-31T09:09:21Z</time>
      </trkpt>
      <trkpt lat="43.28077" lon="5.70926">
        <ele>358</ele>
        <time>2021-03-31T09:09:27Z</time>
      </trkpt>
      <trkpt lat="43.28078" lon="5.70935">
        <ele>358.2</ele>
        <time>2021-03-31T09:09:33Z</time>
      </trkpt>
      <trkpt lat="43.28081" lon="5.70943">
        <ele>358.5</ele>
        <time>2021-03-31T09:09:39Z</time>
      </trkpt>
      <trkpt lat="43.28083" lon="5.70949">
        <ele>358.7</ele>
        <time>2021-03-31T09:09:43Z</time>
      </trkpt>
      <trkpt lat="43.28084" lon="5.70957">
        <ele>358.8</ele>
        <time>2021-03-31T09:09:49Z</time>
      </trkpt>
      <trkpt lat="43.28086" lon="5.70965">
        <ele>358.5</ele>
        <time>2021-03-31T09:09:55Z</time>
      </trkpt>
      <trkpt lat="43.28089" lon="5.70972">
        <ele>358.1</ele>
        <time>2021-03-31T09:10:01Z</time>
      </trkpt>
      <trkpt lat="43.2809" lon="5.70981">
        <ele>358.1</ele>
        <time>2021-03-31T09:10:07Z</time>
      </trkpt>
      <trkpt lat="43.28092" lon="5.70989">
        <ele>358.1</ele>
        <time>2021-03-31T09:10:13Z</time>
      </trkpt>
      <trkpt lat="43.28093" lon="5.70995">
        <ele>357.9</ele>
        <time>2021-03-31T09:10:19Z</time>
      </trkpt>
      <trkpt lat="43.28095" lon="5.71001">
        <ele>357.8</ele>
        <time>2021-03-31T09:10:25Z</time>
      </trkpt>
      <trkpt lat="43.28095" lon="5.71008">
        <ele>358.4</ele>
        <time>2021-03-31T09:10:33Z</time>
      </trkpt>
      <trkpt lat="43.28096" lon="5.71015">
        <ele>358.7</ele>
        <time>2021-03-31T09:10:43Z</time>
      </trkpt>
      <trkpt lat="43.28099" lon="5.7102">
        <ele>358.7</ele>
        <time>2021-03-31T09:11:29Z</time>
      </trkpt>
      <trkpt lat="43.28102" lon="5.71026">
        <ele>358.8</ele>
        <time>2021-03-31T09:14:21Z</time>
      </trkpt>
      <trkpt lat="43.28102" lon="5.71035">
        <ele>359.5</ele>
        <time>2021-03-31T09:14:27Z</time>
      </trkpt>
      <trkpt lat="43.28103" lon="5.71041">
        <ele>360</ele>
        <time>2021-03-31T09:14:33Z</time>
      </trkpt>
      <trkpt lat="43.28104" lon="5.7105">
        <ele>360.6</ele>
        <time>2021-03-31T09:14:39Z</time>
      </trkpt>
      <trkpt lat="43.28107" lon="5.71055">
        <ele>360.8</ele>
        <time>2021-03-31T09:14:45Z</time>
      </trkpt>
      <trkpt lat="43.28109" lon="5.71063">
        <ele>361.4</ele>
        <time>2021-03-31T09:14:51Z</time>
      </trkpt>
      <trkpt lat="43.28111" lon="5.71072">
        <ele>362.2</ele>
        <time>2021-03-31T09:14:57Z</time>
      </trkpt>
      <trkpt lat="43.28113" lon="5.7108">
        <ele>362.9</ele>
        <time>2021-03-31T09:15:03Z</time>
      </trkpt>
      <trkpt lat="43.28114" lon="5.71089">
        <ele>363.4</ele>
        <time>2021-03-31T09:15:09Z</time>
      </trkpt>
      <trkpt lat="43.28116" lon="5.71097">
        <ele>363.7</ele>
        <time>2021-03-31T09:15:15Z</time>
      </trkpt>
      <trkpt lat="43.28119" lon="5.71105">
        <ele>364</ele>
        <time>2021-03-31T09:15:21Z</time>
      </trkpt>
      <trkpt lat="43.28122" lon="5.71112">
        <ele>364.4</ele>
        <time>2021-03-31T09:15:27Z</time>
      </trkpt>
      <trkpt lat="43.28125" lon="5.71117">
        <ele>364.7</ele>
        <time>2021-03-31T09:15:31Z</time>
      </trkpt>
      <trkpt lat="43.28128" lon="5.71124">
        <ele>365.2</ele>
        <time>2021-03-31T09:15:37Z</time>
      </trkpt>
      <trkpt lat="43.28131" lon="5.71129">
        <ele>365.7</ele>
        <time>2021-03-31T09:15:43Z</time>
      </trkpt>
      <trkpt lat="43.28134" lon="5.71136">
        <ele>366.3</ele>
        <time>2021-03-31T09:15:49Z</time>
      </trkpt>
      <trkpt lat="43.28136" lon="5.71143">
        <ele>367</ele>
        <time>2021-03-31T09:15:55Z</time>
      </trkpt>
      <trkpt lat="43.28139" lon="5.71149">
        <ele>367.7</ele>
        <time>2021-03-31T09:16:03Z</time>
      </trkpt>
      <trkpt lat="43.28144" lon="5.71154">
        <ele>368.6</ele>
        <time>2021-03-31T09:16:09Z</time>
      </trkpt>
      <trkpt lat="43.28149" lon="5.71158">
        <ele>369.4</ele>
        <time>2021-03-31T09:16:15Z</time>
      </trkpt>
      <trkpt lat="43.28153" lon="5.7116">
        <ele>369.9</ele>
        <time>2021-03-31T09:16:21Z</time>
      </trkpt>
      <trkpt lat="43.28159" lon="5.71159">
        <ele>370.3</ele>
        <time>2021-03-31T09:16:29Z</time>
      </trkpt>
      <trkpt lat="43.28164" lon="5.71156">
        <ele>370.3</ele>
        <time>2021-03-31T09:16:35Z</time>
      </trkpt>
      <trkpt lat="43.28169" lon="5.71152">
        <ele>370.2</ele>
        <time>2021-03-31T09:16:41Z</time>
      </trkpt>
      <trkpt lat="43.28173" lon="5.71146">
        <ele>369.6</ele>
        <time>2021-03-31T09:16:47Z</time>
      </trkpt>
      <trkpt lat="43.28179" lon="5.71141">
        <ele>369.5</ele>
        <time>2021-03-31T09:16:53Z</time>
      </trkpt>
      <trkpt lat="43.28182" lon="5.71135">
        <ele>368.8</ele>
        <time>2021-03-31T09:16:59Z</time>
      </trkpt>
      <trkpt lat="43.28187" lon="5.7113">
        <ele>368.4</ele>
        <time>2021-03-31T09:17:05Z</time>
      </trkpt>
      <trkpt lat="43.28192" lon="5.71125">
        <ele>367.7</ele>
        <time>2021-03-31T09:17:11Z</time>
      </trkpt>
      <trkpt lat="43.28198" lon="5.71121">
        <ele>367.5</ele>
        <time>2021-03-31T09:17:17Z</time>
      </trkpt>
      <trkpt lat="43.28203" lon="5.71119">
        <ele>367.4</ele>
        <time>2021-03-31T09:17:23Z</time>
      </trkpt>
      <trkpt lat="43.28208" lon="5.71118">
        <ele>367.5</ele>
        <time>2021-03-31T09:17:27Z</time>
      </trkpt>
      <trkpt lat="43.28213" lon="5.71117">
        <ele>367.7</ele>
        <time>2021-03-31T09:17:31Z</time>
      </trkpt>
      <trkpt lat="43.28219" lon="5.71118">
        <ele>368.2</ele>
        <time>2021-03-31T09:17:37Z</time>
      </trkpt>
      <trkpt lat="43.28224" lon="5.71118">
        <ele>368.5</ele>
        <time>2021-03-31T09:17:43Z</time>
      </trkpt>
      <trkpt lat="43.2823" lon="5.71117">
        <ele>368.6</ele>
        <time>2021-03-31T09:17:49Z</time>
      </trkpt>
      <trkpt lat="43.28236" lon="5.71114">
        <ele>368.3</ele>
        <time>2021-03-31T09:17:55Z</time>
      </trkpt>
      <trkpt lat="43.28242" lon="5.71112">
        <ele>368.2</ele>
        <time>2021-03-31T09:18:01Z</time>
      </trkpt>
      <trkpt lat="43.28248" lon="5.71112">
        <ele>368.4</ele>
        <time>2021-03-31T09:18:07Z</time>
      </trkpt>
      <trkpt lat="43.28253" lon="5.71113">
        <ele>368.5</ele>
        <time>2021-03-31T09:18:13Z</time>
      </trkpt>
      <trkpt lat="43.28259" lon="5.71115">
        <ele>368.3</ele>
        <time>2021-03-31T09:18:19Z</time>
      </trkpt>
      <trkpt lat="43.28264" lon="5.71118">
        <ele>368.3</ele>
        <time>2021-03-31T09:18:25Z</time>
      </trkpt>
      <trkpt lat="43.2827" lon="5.71122">
        <ele>369</ele>
        <time>2021-03-31T09:18:31Z</time>
      </trkpt>
      <trkpt lat="43.28275" lon="5.71127">
        <ele>369.9</ele>
        <time>2021-03-31T09:18:37Z</time>
      </trkpt>
      <trkpt lat="43.28279" lon="5.71133">
        <ele>371</ele>
        <time>2021-03-31T09:18:43Z</time>
      </trkpt>
      <trkpt lat="43.28284" lon="5.71138">
        <ele>372.1</ele>
        <time>2021-03-31T09:18:49Z</time>
      </trkpt>
      <trkpt lat="43.28288" lon="5.71143">
        <ele>373.4</ele>
        <time>2021-03-31T09:18:55Z</time>
      </trkpt>
      <trkpt lat="43.28293" lon="5.71149">
        <ele>374.7</ele>
        <time>2021-03-31T09:19:01Z</time>
      </trkpt>
      <trkpt lat="43.28297" lon="5.71154">
        <ele>376.1</ele>
        <time>2021-03-31T09:19:07Z</time>
      </trkpt>
      <trkpt lat="43.28303" lon="5.71159">
        <ele>377.2</ele>
        <time>2021-03-31T09:19:13Z</time>
      </trkpt>
      <trkpt lat="43.28308" lon="5.71163">
        <ele>378.4</ele>
        <time>2021-03-31T09:19:19Z</time>
      </trkpt>
      <trkpt lat="43.28312" lon="5.71165">
        <ele>378.8</ele>
        <time>2021-03-31T09:19:23Z</time>
      </trkpt>
      <trkpt lat="43.28317" lon="5.71168">
        <ele>379.2</ele>
        <time>2021-03-31T09:19:27Z</time>
      </trkpt>
      <trkpt lat="43.28321" lon="5.7117">
        <ele>379.4</ele>
        <time>2021-03-31T09:19:31Z</time>
      </trkpt>
      <trkpt lat="43.28326" lon="5.71173">
        <ele>379.7</ele>
        <time>2021-03-31T09:19:35Z</time>
      </trkpt>
      <trkpt lat="43.2833" lon="5.71175">
        <ele>379.9</ele>
        <time>2021-03-31T09:19:39Z</time>
      </trkpt>
      <trkpt lat="43.28336" lon="5.71179">
        <ele>380.1</ele>
        <time>2021-03-31T09:19:45Z</time>
      </trkpt>
      <trkpt lat="43.28341" lon="5.71183">
        <ele>379.8</ele>
        <time>2021-03-31T09:19:51Z</time>
      </trkpt>
      <trkpt lat="43.28347" lon="5.71186">
        <ele>379.3</ele>
        <time>2021-03-31T09:19:57Z</time>
      </trkpt>
      <trkpt lat="43.28352" lon="5.71188">
        <ele>379</ele>
        <time>2021-03-31T09:20:01Z</time>
      </trkpt>
      <trkpt lat="43.28356" lon="5.7119">
        <ele>378.8</ele>
        <time>2021-03-31T09:20:05Z</time>
      </trkpt>
      <trkpt lat="43.2836" lon="5.71193">
        <ele>378.8</ele>
        <time>2021-03-31T09:20:09Z</time>
      </trkpt>
      <trkpt lat="43.28364" lon="5.71196">
        <ele>378.8</ele>
        <time>2021-03-31T09:20:13Z</time>
      </trkpt>
      <trkpt lat="43.28368" lon="5.71199">
        <ele>378.9</ele>
        <time>2021-03-31T09:20:17Z</time>
      </trkpt>
      <trkpt lat="43.28372" lon="5.71202">
        <ele>379.1</ele>
        <time>2021-03-31T09:20:21Z</time>
      </trkpt>
      <trkpt lat="43.28377" lon="5.71204">
        <ele>379.2</ele>
        <time>2021-03-31T09:20:25Z</time>
      </trkpt>
      <trkpt lat="43.28381" lon="5.71207">
        <ele>379.3</ele>
        <time>2021-03-31T09:20:29Z</time>
      </trkpt>
      <trkpt lat="43.28385" lon="5.71209">
        <ele>379.3</ele>
        <time>2021-03-31T09:20:33Z</time>
      </trkpt>
      <trkpt lat="43.28391" lon="5.71212">
        <ele>379.3</ele>
        <time>2021-03-31T09:20:39Z</time>
      </trkpt>
      <trkpt lat="43.28395" lon="5.71214">
        <ele>379.3</ele>
        <time>2021-03-31T09:20:43Z</time>
      </trkpt>
      <trkpt lat="43.28401" lon="5.71218">
        <ele>379.7</ele>
        <time>2021-03-31T09:20:49Z</time>
      </trkpt>
      <trkpt lat="43.28407" lon="5.71222">
        <ele>380.3</ele>
        <time>2021-03-31T09:20:55Z</time>
      </trkpt>
      <trkpt lat="43.28413" lon="5.71226">
        <ele>381.2</ele>
        <time>2021-03-31T09:21:01Z</time>
      </trkpt>
      <trkpt lat="43.28417" lon="5.71229">
        <ele>381.7</ele>
        <time>2021-03-31T09:21:05Z</time>
      </trkpt>
      <trkpt lat="43.28423" lon="5.71232">
        <ele>381</ele>
        <time>2021-03-31T09:21:11Z</time>
      </trkpt>
      <trkpt lat="43.28429" lon="5.71235">
        <ele>380.7</ele>
        <time>2021-03-31T09:21:17Z</time>
      </trkpt>
      <trkpt lat="43.28433" lon="5.71238">
        <ele>380.9</ele>
        <time>2021-03-31T09:21:21Z</time>
      </trkpt>
      <trkpt lat="43.28439" lon="5.71244">
        <ele>381.5</ele>
        <time>2021-03-31T09:21:27Z</time>
      </trkpt>
      <trkpt lat="43.28443" lon="5.71247">
        <ele>381.7</ele>
        <time>2021-03-31T09:21:31Z</time>
      </trkpt>
      <trkpt lat="43.28447" lon="5.7125">
        <ele>381.8</ele>
        <time>2021-03-31T09:21:35Z</time>
      </trkpt>
      <trkpt lat="43.28451" lon="5.71253">
        <ele>381.3</ele>
        <time>2021-03-31T09:21:39Z</time>
      </trkpt>
      <trkpt lat="43.28457" lon="5.71258">
        <ele>380.7</ele>
        <time>2021-03-31T09:21:45Z</time>
      </trkpt>
      <trkpt lat="43.2846" lon="5.71261">
        <ele>380.4</ele>
        <time>2021-03-31T09:21:49Z</time>
      </trkpt>
      <trkpt lat="43.28466" lon="5.71266">
        <ele>380.1</ele>
        <time>2021-03-31T09:21:55Z</time>
      </trkpt>
      <trkpt lat="43.2847" lon="5.7127">
        <ele>380</ele>
        <time>2021-03-31T09:21:59Z</time>
      </trkpt>
      <trkpt lat="43.28475" lon="5.71276">
        <ele>380.2</ele>
        <time>2021-03-31T09:22:05Z</time>
      </trkpt>
      <trkpt lat="43.2848" lon="5.71281">
        <ele>380.3</ele>
        <time>2021-03-31T09:22:11Z</time>
      </trkpt>
      <trkpt lat="43.28486" lon="5.71286">
        <ele>380.5</ele>
        <time>2021-03-31T09:22:17Z</time>
      </trkpt>
      <trkpt lat="43.2849" lon="5.71289">
        <ele>380.6</ele>
        <time>2021-03-31T09:22:21Z</time>
      </trkpt>
      <trkpt lat="43.28496" lon="5.71294">
        <ele>380.6</ele>
        <time>2021-03-31T09:22:27Z</time>
      </trkpt>
      <trkpt lat="43.28502" lon="5.71296">
        <ele>380.2</ele>
        <time>2021-03-31T09:22:33Z</time>
      </trkpt>
      <trkpt lat="43.28509" lon="5.71299">
        <ele>379.1</ele>
        <time>2021-03-31T09:22:39Z</time>
      </trkpt>
      <trkpt lat="43.28515" lon="5.71301">
        <ele>378.2</ele>
        <time>2021-03-31T09:22:45Z</time>
      </trkpt>
      <trkpt lat="43.28521" lon="5.71304">
        <ele>377.1</ele>
        <time>2021-03-31T09:22:51Z</time>
      </trkpt>
      <trkpt lat="43.28527" lon="5.71306">
        <ele>376.3</ele>
        <time>2021-03-31T09:22:57Z</time>
      </trkpt>
      <trkpt lat="43.28532" lon="5.71308">
        <ele>375.7</ele>
        <time>2021-03-31T09:23:01Z</time>
      </trkpt>
      <trkpt lat="43.28538" lon="5.7131">
        <ele>374.9</ele>
        <time>2021-03-31T09:23:07Z</time>
      </trkpt>
      <trkpt lat="43.28542" lon="5.71312">
        <ele>374.1</ele>
        <time>2021-03-31T09:23:11Z</time>
      </trkpt>
      <trkpt lat="43.28549" lon="5.71313">
        <ele>372.7</ele>
        <time>2021-03-31T09:23:17Z</time>
      </trkpt>
      <trkpt lat="43.28554" lon="5.71313">
        <ele>371.7</ele>
        <time>2021-03-31T09:23:21Z</time>
      </trkpt>
      <trkpt lat="43.28561" lon="5.71316">
        <ele>370.9</ele>
        <time>2021-03-31T09:23:27Z</time>
      </trkpt>
      <trkpt lat="43.28567" lon="5.71319">
        <ele>370.2</ele>
        <time>2021-03-31T09:23:33Z</time>
      </trkpt>
      <trkpt lat="43.28571" lon="5.71321">
        <ele>369.7</ele>
        <time>2021-03-31T09:23:37Z</time>
      </trkpt>
      <trkpt lat="43.28576" lon="5.71323">
        <ele>369.5</ele>
        <time>2021-03-31T09:23:41Z</time>
      </trkpt>
      <trkpt lat="43.28581" lon="5.71327">
        <ele>369.6</ele>
        <time>2021-03-31T09:23:47Z</time>
      </trkpt>
      <trkpt lat="43.28586" lon="5.71332">
        <ele>369.3</ele>
        <time>2021-03-31T09:23:53Z</time>
      </trkpt>
      <trkpt lat="43.28591" lon="5.71337">
        <ele>367.8</ele>
        <time>2021-03-31T09:23:59Z</time>
      </trkpt>
      <trkpt lat="43.28595" lon="5.71343">
        <ele>366.3</ele>
        <time>2021-03-31T09:24:05Z</time>
      </trkpt>
      <trkpt lat="43.28599" lon="5.7135">
        <ele>365.1</ele>
        <time>2021-03-31T09:24:11Z</time>
      </trkpt>
      <trkpt lat="43.28602" lon="5.71355">
        <ele>364.3</ele>
        <time>2021-03-31T09:24:15Z</time>
      </trkpt>
      <trkpt lat="43.28605" lon="5.71362">
        <ele>363.6</ele>
        <time>2021-03-31T09:24:21Z</time>
      </trkpt>
      <trkpt lat="43.28607" lon="5.71371">
        <ele>363.9</ele>
        <time>2021-03-31T09:24:27Z</time>
      </trkpt>
      <trkpt lat="43.28606" lon="5.7138">
        <ele>365.1</ele>
        <time>2021-03-31T09:24:33Z</time>
      </trkpt>
      <trkpt lat="43.28606" lon="5.71389">
        <ele>366.4</ele>
        <time>2021-03-31T09:24:39Z</time>
      </trkpt>
      <trkpt lat="43.28605" lon="5.71398">
        <ele>367.8</ele>
        <time>2021-03-31T09:24:45Z</time>
      </trkpt>
      <trkpt lat="43.28604" lon="5.71407">
        <ele>369.3</ele>
        <time>2021-03-31T09:24:51Z</time>
      </trkpt>
      <trkpt lat="43.28602" lon="5.71416">
        <ele>371</ele>
        <time>2021-03-31T09:24:57Z</time>
      </trkpt>
      <trkpt lat="43.28602" lon="5.71425">
        <ele>371.8</ele>
        <time>2021-03-31T09:25:03Z</time>
      </trkpt>
      <trkpt lat="43.28601" lon="5.71432">
        <ele>372.3</ele>
        <time>2021-03-31T09:25:07Z</time>
      </trkpt>
      <trkpt lat="43.28601" lon="5.71438">
        <ele>372.9</ele>
        <time>2021-03-31T09:25:11Z</time>
      </trkpt>
      <trkpt lat="43.28601" lon="5.71446">
        <ele>373.3</ele>
        <time>2021-03-31T09:25:17Z</time>
      </trkpt>
      <trkpt lat="43.286" lon="5.71456">
        <ele>374</ele>
        <time>2021-03-31T09:25:23Z</time>
      </trkpt>
      <trkpt lat="43.28601" lon="5.71465">
        <ele>374.3</ele>
        <time>2021-03-31T09:25:29Z</time>
      </trkpt>
      <trkpt lat="43.28603" lon="5.71474">
        <ele>374.1</ele>
        <time>2021-03-31T09:25:35Z</time>
      </trkpt>
      <trkpt lat="43.28606" lon="5.7148">
        <ele>373.3</ele>
        <time>2021-03-31T09:25:39Z</time>
      </trkpt>
      <trkpt lat="43.2861" lon="5.71485">
        <ele>372.5</ele>
        <time>2021-03-31T09:25:43Z</time>
      </trkpt>
      <trkpt lat="43.28614" lon="5.71491">
        <ele>371.4</ele>
        <time>2021-03-31T09:25:49Z</time>
      </trkpt>
      <trkpt lat="43.28618" lon="5.71495">
        <ele>370.3</ele>
        <time>2021-03-31T09:25:53Z</time>
      </trkpt>
      <trkpt lat="43.28622" lon="5.71499">
        <ele>369.4</ele>
        <time>2021-03-31T09:25:57Z</time>
      </trkpt>
      <trkpt lat="43.28627" lon="5.71505">
        <ele>367.4</ele>
        <time>2021-03-31T09:26:03Z</time>
      </trkpt>
      <trkpt lat="43.28631" lon="5.7151">
        <ele>366.3</ele>
        <time>2021-03-31T09:26:07Z</time>
      </trkpt>
      <trkpt lat="43.28634" lon="5.71515">
        <ele>365.2</ele>
        <time>2021-03-31T09:26:11Z</time>
      </trkpt>
      <trkpt lat="43.28637" lon="5.71522">
        <ele>364.1</ele>
        <time>2021-03-31T09:26:17Z</time>
      </trkpt>
      <trkpt lat="43.28641" lon="5.7153">
        <ele>363.1</ele>
        <time>2021-03-31T09:26:23Z</time>
      </trkpt>
      <trkpt lat="43.28643" lon="5.71536">
        <ele>362.5</ele>
        <time>2021-03-31T09:26:27Z</time>
      </trkpt>
      <trkpt lat="43.28646" lon="5.71541">
        <ele>362</ele>
        <time>2021-03-31T09:26:31Z</time>
      </trkpt>
      <trkpt lat="43.28649" lon="5.71546">
        <ele>361.4</ele>
        <time>2021-03-31T09:26:35Z</time>
      </trkpt>
      <trkpt lat="43.28653" lon="5.71554">
        <ele>360.9</ele>
        <time>2021-03-31T09:26:41Z</time>
      </trkpt>
      <trkpt lat="43.28657" lon="5.71561">
        <ele>360.7</ele>
        <time>2021-03-31T09:26:47Z</time>
      </trkpt>
      <trkpt lat="43.28659" lon="5.71566">
        <ele>360.6</ele>
        <time>2021-03-31T09:26:51Z</time>
      </trkpt>
      <trkpt lat="43.28663" lon="5.71573">
        <ele>360.5</ele>
        <time>2021-03-31T09:26:57Z</time>
      </trkpt>
      <trkpt lat="43.28667" lon="5.71578">
        <ele>360.7</ele>
        <time>2021-03-31T09:27:01Z</time>
      </trkpt>
      <trkpt lat="43.2867" lon="5.71583">
        <ele>360.8</ele>
        <time>2021-03-31T09:27:05Z</time>
      </trkpt>
      <trkpt lat="43.28672" lon="5.71589">
        <ele>359.8</ele>
        <time>2021-03-31T09:27:09Z</time>
      </trkpt>
      <trkpt lat="43.28675" lon="5.71595">
        <ele>358.8</ele>
        <time>2021-03-31T09:27:13Z</time>
      </trkpt>
      <trkpt lat="43.28678" lon="5.71603">
        <ele>357.6</ele>
        <time>2021-03-31T09:27:19Z</time>
      </trkpt>
      <trkpt lat="43.28681" lon="5.71611">
        <ele>356.6</ele>
        <time>2021-03-31T09:27:25Z</time>
      </trkpt>
      <trkpt lat="43.28684" lon="5.71618">
        <ele>355.9</ele>
        <time>2021-03-31T09:27:31Z</time>
      </trkpt>
      <trkpt lat="43.28686" lon="5.71623">
        <ele>355.7</ele>
        <time>2021-03-31T09:27:35Z</time>
      </trkpt>
      <trkpt lat="43.2869" lon="5.7163">
        <ele>355.5</ele>
        <time>2021-03-31T09:27:41Z</time>
      </trkpt>
      <trkpt lat="43.28694" lon="5.71635">
        <ele>355.7</ele>
        <time>2021-03-31T09:27:47Z</time>
      </trkpt>
      <trkpt lat="43.28698" lon="5.7164">
        <ele>356.2</ele>
        <time>2021-03-31T09:28:35Z</time>
      </trkpt>
      <trkpt lat="43.28702" lon="5.71645">
        <ele>356.6</ele>
        <time>2021-03-31T09:28:43Z</time>
      </trkpt>
      <trkpt lat="43.28705" lon="5.71649">
        <ele>357.3</ele>
        <time>2021-03-31T09:28:49Z</time>
      </trkpt>
      <trkpt lat="43.28709" lon="5.71653">
        <ele>358.3</ele>
        <time>2021-03-31T09:28:55Z</time>
      </trkpt>
      <trkpt lat="43.28713" lon="5.71657">
        <ele>359.4</ele>
        <time>2021-03-31T09:29:03Z</time>
      </trkpt>
      <trkpt lat="43.28718" lon="5.7166">
        <ele>360.8</ele>
        <time>2021-03-31T09:29:41Z</time>
      </trkpt>
      <trkpt lat="43.28723" lon="5.71659">
        <ele>362.3</ele>
        <time>2021-03-31T09:29:49Z</time>
      </trkpt>
      <trkpt lat="43.28729" lon="5.71658">
        <ele>363.6</ele>
        <time>2021-03-31T09:29:55Z</time>
      </trkpt>
      <trkpt lat="43.28734" lon="5.71656">
        <ele>364.8</ele>
        <time>2021-03-31T09:30:01Z</time>
      </trkpt>
      <trkpt lat="43.2874" lon="5.71653">
        <ele>366.1</ele>
        <time>2021-03-31T09:30:07Z</time>
      </trkpt>
      <trkpt lat="43.28745" lon="5.71651">
        <ele>367</ele>
        <time>2021-03-31T09:30:11Z</time>
      </trkpt>
      <trkpt lat="43.28751" lon="5.71648">
        <ele>367.7</ele>
        <time>2021-03-31T09:30:17Z</time>
      </trkpt>
      <trkpt lat="43.28756" lon="5.71643">
        <ele>367.1</ele>
        <time>2021-03-31T09:30:23Z</time>
      </trkpt>
      <trkpt lat="43.2876" lon="5.7164">
        <ele>366.7</ele>
        <time>2021-03-31T09:30:27Z</time>
      </trkpt>
      <trkpt lat="43.28764" lon="5.71636">
        <ele>366.2</ele>
        <time>2021-03-31T09:30:31Z</time>
      </trkpt>
      <trkpt lat="43.28769" lon="5.7163">
        <ele>365.3</ele>
        <time>2021-03-31T09:30:37Z</time>
      </trkpt>
      <trkpt lat="43.28774" lon="5.71626">
        <ele>364.5</ele>
        <time>2021-03-31T09:30:43Z</time>
      </trkpt>
      <trkpt lat="43.28778" lon="5.71629">
        <ele>365.5</ele>
        <time>2021-03-31T09:30:51Z</time>
      </trkpt>
      <trkpt lat="43.28775" lon="5.71634">
        <ele>366.4</ele>
        <time>2021-03-31T09:30:55Z</time>
      </trkpt>
      <trkpt lat="43.28771" lon="5.71638">
        <ele>367.2</ele>
        <time>2021-03-31T09:30:59Z</time>
      </trkpt>
      <trkpt lat="43.28767" lon="5.71643">
        <ele>367.9</ele>
        <time>2021-03-31T09:31:03Z</time>
      </trkpt>
      <trkpt lat="43.28762" lon="5.71649">
        <ele>368.8</ele>
        <time>2021-03-31T09:31:09Z</time>
      </trkpt>
      <trkpt lat="43.28759" lon="5.71654">
        <ele>369.5</ele>
        <time>2021-03-31T09:31:13Z</time>
      </trkpt>
      <trkpt lat="43.28756" lon="5.71662">
        <ele>370.7</ele>
        <time>2021-03-31T09:31:19Z</time>
      </trkpt>
      <trkpt lat="43.28753" lon="5.71669">
        <ele>371</ele>
        <time>2021-03-31T09:31:25Z</time>
      </trkpt>
      <trkpt lat="43.28753" lon="5.71677">
        <ele>370.1</ele>
        <time>2021-03-31T09:31:31Z</time>
      </trkpt>
      <trkpt lat="43.28758" lon="5.7168">
        <ele>370.4</ele>
        <time>2021-03-31T09:31:37Z</time>
      </trkpt>
      <trkpt lat="43.28764" lon="5.71676">
        <ele>371.7</ele>
        <time>2021-03-31T09:31:43Z</time>
      </trkpt>
      <trkpt lat="43.28768" lon="5.71673">
        <ele>372.5</ele>
        <time>2021-03-31T09:31:47Z</time>
      </trkpt>
      <trkpt lat="43.28772" lon="5.71667">
        <ele>373.4</ele>
        <time>2021-03-31T09:31:53Z</time>
      </trkpt>
      <trkpt lat="43.28777" lon="5.71662">
        <ele>372.9</ele>
        <time>2021-03-31T09:31:59Z</time>
      </trkpt>
      <trkpt lat="43.28782" lon="5.71658">
        <ele>372.4</ele>
        <time>2021-03-31T09:32:05Z</time>
      </trkpt>
      <trkpt lat="43.28788" lon="5.71654">
        <ele>371.9</ele>
        <time>2021-03-31T09:32:11Z</time>
      </trkpt>
      <trkpt lat="43.28793" lon="5.71653">
        <ele>372.2</ele>
        <time>2021-03-31T09:32:17Z</time>
      </trkpt>
      <trkpt lat="43.28795" lon="5.71659">
        <ele>373.9</ele>
        <time>2021-03-31T09:32:23Z</time>
      </trkpt>
      <trkpt lat="43.28793" lon="5.71666">
        <ele>375.5</ele>
        <time>2021-03-31T09:32:29Z</time>
      </trkpt>
      <trkpt lat="43.28789" lon="5.71672">
        <ele>375.3</ele>
        <time>2021-03-31T09:32:35Z</time>
      </trkpt>
      <trkpt lat="43.28786" lon="5.71676">
        <ele>374.8</ele>
        <time>2021-03-31T09:32:39Z</time>
      </trkpt>
      <trkpt lat="43.28783" lon="5.71684">
        <ele>374.3</ele>
        <time>2021-03-31T09:32:45Z</time>
      </trkpt>
      <trkpt lat="43.28783" lon="5.71692">
        <ele>374</ele>
        <time>2021-03-31T09:32:51Z</time>
      </trkpt>
      <trkpt lat="43.28787" lon="5.71695">
        <ele>374.9</ele>
        <time>2021-03-31T09:32:57Z</time>
      </trkpt>
      <trkpt lat="43.28792" lon="5.7169">
        <ele>375.8</ele>
        <time>2021-03-31T09:33:03Z</time>
      </trkpt>
      <trkpt lat="43.28795" lon="5.71685">
        <ele>376.3</ele>
        <time>2021-03-31T09:33:07Z</time>
      </trkpt>
      <trkpt lat="43.28798" lon="5.7168">
        <ele>376.6</ele>
        <time>2021-03-31T09:33:11Z</time>
      </trkpt>
      <trkpt lat="43.28803" lon="5.71676">
        <ele>377.2</ele>
        <time>2021-03-31T09:33:17Z</time>
      </trkpt>
      <trkpt lat="43.28807" lon="5.71678">
        <ele>377.9</ele>
        <time>2021-03-31T09:33:23Z</time>
      </trkpt>
      <trkpt lat="43.28807" lon="5.71686">
        <ele>378.3</ele>
        <time>2021-03-31T09:33:29Z</time>
      </trkpt>
      <trkpt lat="43.28803" lon="5.71693">
        <ele>378.1</ele>
        <time>2021-03-31T09:33:35Z</time>
      </trkpt>
      <trkpt lat="43.28803" lon="5.71701">
        <ele>378.4</ele>
        <time>2021-03-31T09:33:41Z</time>
      </trkpt>
      <trkpt lat="43.28808" lon="5.71701">
        <ele>379.7</ele>
        <time>2021-03-31T09:33:49Z</time>
      </trkpt>
      <trkpt lat="43.28814" lon="5.71698">
        <ele>380.6</ele>
        <time>2021-03-31T09:33:55Z</time>
      </trkpt>
      <trkpt lat="43.2882" lon="5.71695">
        <ele>381.5</ele>
        <time>2021-03-31T09:34:01Z</time>
      </trkpt>
      <trkpt lat="43.28825" lon="5.71694">
        <ele>382.7</ele>
        <time>2021-03-31T09:34:07Z</time>
      </trkpt>
      <trkpt lat="43.28831" lon="5.71697">
        <ele>384.2</ele>
        <time>2021-03-31T09:34:13Z</time>
      </trkpt>
      <trkpt lat="43.28837" lon="5.71701">
        <ele>385.5</ele>
        <time>2021-03-31T09:34:19Z</time>
      </trkpt>
      <trkpt lat="43.28842" lon="5.71705">
        <ele>386.5</ele>
        <time>2021-03-31T09:34:25Z</time>
      </trkpt>
      <trkpt lat="43.28847" lon="5.71708">
        <ele>387.4</ele>
        <time>2021-03-31T09:34:31Z</time>
      </trkpt>
      <trkpt lat="43.28852" lon="5.71712">
        <ele>388.5</ele>
        <time>2021-03-31T09:34:37Z</time>
      </trkpt>
      <trkpt lat="43.28857" lon="5.71717">
        <ele>389.5</ele>
        <time>2021-03-31T09:34:43Z</time>
      </trkpt>
      <trkpt lat="43.28862" lon="5.7172">
        <ele>390.6</ele>
        <time>2021-03-31T09:34:49Z</time>
      </trkpt>
      <trkpt lat="43.28867" lon="5.71725">
        <ele>391.7</ele>
        <time>2021-03-31T09:34:55Z</time>
      </trkpt>
      <trkpt lat="43.28872" lon="5.7173">
        <ele>392.9</ele>
        <time>2021-03-31T09:35:01Z</time>
      </trkpt>
      <trkpt lat="43.28876" lon="5.71735">
        <ele>394.1</ele>
        <time>2021-03-31T09:35:07Z</time>
      </trkpt>
      <trkpt lat="43.28882" lon="5.7174">
        <ele>395.3</ele>
        <time>2021-03-31T09:35:13Z</time>
      </trkpt>
      <trkpt lat="43.28887" lon="5.71745">
        <ele>396.6</ele>
        <time>2021-03-31T09:35:19Z</time>
      </trkpt>
      <trkpt lat="43.2889" lon="5.71749">
        <ele>397.6</ele>
        <time>2021-03-31T09:35:23Z</time>
      </trkpt>
      <trkpt lat="43.28894" lon="5.71756">
        <ele>398.8</ele>
        <time>2021-03-31T09:35:29Z</time>
      </trkpt>
      <trkpt lat="43.28899" lon="5.71763">
        <ele>400</ele>
        <time>2021-03-31T09:35:35Z</time>
      </trkpt>
      <trkpt lat="43.28902" lon="5.7177">
        <ele>401.4</ele>
        <time>2021-03-31T09:35:41Z</time>
      </trkpt>
      <trkpt lat="43.28907" lon="5.71776">
        <ele>402.9</ele>
        <time>2021-03-31T09:35:47Z</time>
      </trkpt>
      <trkpt lat="43.28911" lon="5.71783">
        <ele>404.5</ele>
        <time>2021-03-31T09:35:53Z</time>
      </trkpt>
      <trkpt lat="43.28914" lon="5.71787">
        <ele>405.8</ele>
        <time>2021-03-31T09:35:57Z</time>
      </trkpt>
      <trkpt lat="43.28918" lon="5.71794">
        <ele>407.4</ele>
        <time>2021-03-31T09:36:03Z</time>
      </trkpt>
      <trkpt lat="43.28922" lon="5.718">
        <ele>408.5</ele>
        <time>2021-03-31T09:36:09Z</time>
      </trkpt>
      <trkpt lat="43.28927" lon="5.71806">
        <ele>409.5</ele>
        <time>2021-03-31T09:36:15Z</time>
      </trkpt>
      <trkpt lat="43.28932" lon="5.71812">
        <ele>410.4</ele>
        <time>2021-03-31T09:36:21Z</time>
      </trkpt>
      <trkpt lat="43.28936" lon="5.71819">
        <ele>411.3</ele>
        <time>2021-03-31T09:36:27Z</time>
      </trkpt>
      <trkpt lat="43.28939" lon="5.71826">
        <ele>412.2</ele>
        <time>2021-03-31T09:36:33Z</time>
      </trkpt>
      <trkpt lat="43.28944" lon="5.71832">
        <ele>412.9</ele>
        <time>2021-03-31T09:36:39Z</time>
      </trkpt>
      <trkpt lat="43.28948" lon="5.71839">
        <ele>413.3</ele>
        <time>2021-03-31T09:36:45Z</time>
      </trkpt>
      <trkpt lat="43.28952" lon="5.71845">
        <ele>413.6</ele>
        <time>2021-03-31T09:36:51Z</time>
      </trkpt>
      <trkpt lat="43.28956" lon="5.71852">
        <ele>414</ele>
        <time>2021-03-31T09:36:57Z</time>
      </trkpt>
      <trkpt lat="43.28959" lon="5.71858">
        <ele>414.4</ele>
        <time>2021-03-31T09:37:03Z</time>
      </trkpt>
      <trkpt lat="43.28962" lon="5.71865">
        <ele>414.9</ele>
        <time>2021-03-31T09:37:09Z</time>
      </trkpt>
      <trkpt lat="43.28965" lon="5.71873">
        <ele>415.5</ele>
        <time>2021-03-31T09:37:15Z</time>
      </trkpt>
      <trkpt lat="43.28967" lon="5.71879">
        <ele>415.9</ele>
        <time>2021-03-31T09:37:19Z</time>
      </trkpt>
      <trkpt lat="43.28971" lon="5.71886">
        <ele>416.4</ele>
        <time>2021-03-31T09:37:25Z</time>
      </trkpt>
      <trkpt lat="43.28974" lon="5.71892">
        <ele>416.9</ele>
        <time>2021-03-31T09:37:29Z</time>
      </trkpt>
      <trkpt lat="43.28976" lon="5.71897">
        <ele>417.4</ele>
        <time>2021-03-31T09:37:33Z</time>
      </trkpt>
      <trkpt lat="43.2898" lon="5.71904">
        <ele>417.9</ele>
        <time>2021-03-31T09:37:39Z</time>
      </trkpt>
      <trkpt lat="43.28984" lon="5.71911">
        <ele>418.5</ele>
        <time>2021-03-31T09:37:45Z</time>
      </trkpt>
      <trkpt lat="43.28987" lon="5.71916">
        <ele>419</ele>
        <time>2021-03-31T09:37:49Z</time>
      </trkpt>
      <trkpt lat="43.28989" lon="5.71922">
        <ele>419</ele>
        <time>2021-03-31T09:37:53Z</time>
      </trkpt>
      <trkpt lat="43.28991" lon="5.71927">
        <ele>419.1</ele>
        <time>2021-03-31T09:37:57Z</time>
      </trkpt>
      <trkpt lat="43.28993" lon="5.71933">
        <ele>419.3</ele>
        <time>2021-03-31T09:38:01Z</time>
      </trkpt>
      <trkpt lat="43.28996" lon="5.71938">
        <ele>419.5</ele>
        <time>2021-03-31T09:38:05Z</time>
      </trkpt>
      <trkpt lat="43.28998" lon="5.71943">
        <ele>419.9</ele>
        <time>2021-03-31T09:38:09Z</time>
      </trkpt>
      <trkpt lat="43.29001" lon="5.7195">
        <ele>420.4</ele>
        <time>2021-03-31T09:38:15Z</time>
      </trkpt>
      <trkpt lat="43.29004" lon="5.71957">
        <ele>421.2</ele>
        <time>2021-03-31T09:38:21Z</time>
      </trkpt>
      <trkpt lat="43.29007" lon="5.71964">
        <ele>422</ele>
        <time>2021-03-31T09:38:27Z</time>
      </trkpt>
      <trkpt lat="43.29009" lon="5.71969">
        <ele>422.7</ele>
        <time>2021-03-31T09:38:31Z</time>
      </trkpt>
      <trkpt lat="43.29013" lon="5.71976">
        <ele>423.6</ele>
        <time>2021-03-31T09:38:37Z</time>
      </trkpt>
      <trkpt lat="43.29017" lon="5.7198">
        <ele>424.5</ele>
        <time>2021-03-31T09:38:43Z</time>
      </trkpt>
      <trkpt lat="43.2902" lon="5.71985">
        <ele>425.4</ele>
        <time>2021-03-31T09:38:49Z</time>
      </trkpt>
      <trkpt lat="43.29025" lon="5.7199">
        <ele>426.5</ele>
        <time>2021-03-31T09:38:55Z</time>
      </trkpt>
      <trkpt lat="43.2903" lon="5.71994">
        <ele>427.5</ele>
        <time>2021-03-31T09:39:01Z</time>
      </trkpt>
      <trkpt lat="43.29034" lon="5.71998">
        <ele>428.5</ele>
        <time>2021-03-31T09:39:07Z</time>
      </trkpt>
      <trkpt lat="43.29039" lon="5.72002">
        <ele>429.4</ele>
        <time>2021-03-31T09:39:13Z</time>
      </trkpt>
      <trkpt lat="43.29042" lon="5.72007">
        <ele>430</ele>
        <time>2021-03-31T09:39:19Z</time>
      </trkpt>
      <trkpt lat="43.29046" lon="5.72011">
        <ele>430.8</ele>
        <time>2021-03-31T09:39:25Z</time>
      </trkpt>
      <trkpt lat="43.29049" lon="5.72017">
        <ele>431.5</ele>
        <time>2021-03-31T09:39:41Z</time>
      </trkpt>
      <trkpt lat="43.29053" lon="5.7202">
        <ele>432.4</ele>
        <time>2021-03-31T09:40:05Z</time>
      </trkpt>
      <trkpt lat="43.29058" lon="5.72025">
        <ele>433.5</ele>
        <time>2021-03-31T09:40:11Z</time>
      </trkpt>
      <trkpt lat="43.29062" lon="5.72029">
        <ele>434.6</ele>
        <time>2021-03-31T09:40:17Z</time>
      </trkpt>
      <trkpt lat="43.29066" lon="5.72032">
        <ele>435.8</ele>
        <time>2021-03-31T09:40:23Z</time>
      </trkpt>
      <trkpt lat="43.2907" lon="5.72036">
        <ele>437.1</ele>
        <time>2021-03-31T09:40:29Z</time>
      </trkpt>
      <trkpt lat="43.29075" lon="5.7204">
        <ele>438.5</ele>
        <time>2021-03-31T09:40:35Z</time>
      </trkpt>
      <trkpt lat="43.29079" lon="5.72042">
        <ele>439.8</ele>
        <time>2021-03-31T09:40:41Z</time>
      </trkpt>
      <trkpt lat="43.29085" lon="5.72043">
        <ele>441.5</ele>
        <time>2021-03-31T09:40:47Z</time>
      </trkpt>
      <trkpt lat="43.2909" lon="5.72045">
        <ele>442.7</ele>
        <time>2021-03-31T09:40:53Z</time>
      </trkpt>
      <trkpt lat="43.29095" lon="5.72045">
        <ele>444</ele>
        <time>2021-03-31T09:40:59Z</time>
      </trkpt>
      <trkpt lat="43.29099" lon="5.72043">
        <ele>444.9</ele>
        <time>2021-03-31T09:41:03Z</time>
      </trkpt>
      <trkpt lat="43.29105" lon="5.7204">
        <ele>446</ele>
        <time>2021-03-31T09:41:09Z</time>
      </trkpt>
      <trkpt lat="43.29109" lon="5.7204">
        <ele>447.2</ele>
        <time>2021-03-31T09:41:15Z</time>
      </trkpt>
      <trkpt lat="43.29113" lon="5.72045">
        <ele>448.2</ele>
        <time>2021-03-31T09:41:23Z</time>
      </trkpt>
      <trkpt lat="43.2911" lon="5.72052">
        <ele>447.6</ele>
        <time>2021-03-31T09:41:29Z</time>
      </trkpt>
      <trkpt lat="43.29106" lon="5.72055">
        <ele>446.9</ele>
        <time>2021-03-31T09:41:33Z</time>
      </trkpt>
      <trkpt lat="43.29101" lon="5.72057">
        <ele>445.9</ele>
        <time>2021-03-31T09:41:39Z</time>
      </trkpt>
      <trkpt lat="43.29095" lon="5.72059">
        <ele>444.8</ele>
        <time>2021-03-31T09:41:45Z</time>
      </trkpt>
      <trkpt lat="43.29091" lon="5.72059">
        <ele>443.8</ele>
        <time>2021-03-31T09:41:49Z</time>
      </trkpt>
      <trkpt lat="43.29085" lon="5.72059">
        <ele>442.7</ele>
        <time>2021-03-31T09:41:53Z</time>
      </trkpt>
      <trkpt lat="43.2908" lon="5.72061">
        <ele>441.2</ele>
        <time>2021-03-31T09:41:59Z</time>
      </trkpt>
      <trkpt lat="43.29074" lon="5.72062">
        <ele>439.4</ele>
        <time>2021-03-31T09:42:05Z</time>
      </trkpt>
      <trkpt lat="43.2907" lon="5.72065">
        <ele>438.1</ele>
        <time>2021-03-31T09:42:11Z</time>
      </trkpt>
      <trkpt lat="43.29071" lon="5.72072">
        <ele>438.9</ele>
        <time>2021-03-31T09:42:19Z</time>
      </trkpt>
      <trkpt lat="43.29075" lon="5.72077">
        <ele>440.5</ele>
        <time>2021-03-31T09:42:25Z</time>
      </trkpt>
      <trkpt lat="43.2908" lon="5.72078">
        <ele>442.5</ele>
        <time>2021-03-31T09:42:31Z</time>
      </trkpt>
      <trkpt lat="43.29085" lon="5.72078">
        <ele>444</ele>
        <time>2021-03-31T09:42:37Z</time>
      </trkpt>
      <trkpt lat="43.29091" lon="5.72077">
        <ele>445</ele>
        <time>2021-03-31T09:42:43Z</time>
      </trkpt>
      <trkpt lat="43.29097" lon="5.72076">
        <ele>445.9</ele>
        <time>2021-03-31T09:42:49Z</time>
      </trkpt>
      <trkpt lat="43.29102" lon="5.72075">
        <ele>446.8</ele>
        <time>2021-03-31T09:42:55Z</time>
      </trkpt>
      <trkpt lat="43.29106" lon="5.72073">
        <ele>447.5</ele>
        <time>2021-03-31T09:43:01Z</time>
      </trkpt>
      <trkpt lat="43.29111" lon="5.72072">
        <ele>448.5</ele>
        <time>2021-03-31T09:43:07Z</time>
      </trkpt>
      <trkpt lat="43.29116" lon="5.7207">
        <ele>449.4</ele>
        <time>2021-03-31T09:43:13Z</time>
      </trkpt>
      <trkpt lat="43.29122" lon="5.72069">
        <ele>450.4</ele>
        <time>2021-03-31T09:43:21Z</time>
      </trkpt>
      <trkpt lat="43.29128" lon="5.72069">
        <ele>451.6</ele>
        <time>2021-03-31T09:43:27Z</time>
      </trkpt>
      <trkpt lat="43.29133" lon="5.72067">
        <ele>452.5</ele>
        <time>2021-03-31T09:43:33Z</time>
      </trkpt>
      <trkpt lat="43.29137" lon="5.72064">
        <ele>453.4</ele>
        <time>2021-03-31T09:44:53Z</time>
      </trkpt>
      <trkpt lat="43.29139" lon="5.72056">
        <ele>453.9</ele>
        <time>2021-03-31T09:45:31Z</time>
      </trkpt>
      <trkpt lat="43.29142" lon="5.72048">
        <ele>454.9</ele>
        <time>2021-03-31T09:45:37Z</time>
      </trkpt>
      <trkpt lat="43.29143" lon="5.72039">
        <ele>455.3</ele>
        <time>2021-03-31T09:45:43Z</time>
      </trkpt>
      <trkpt lat="43.29144" lon="5.72032">
        <ele>455.8</ele>
        <time>2021-03-31T09:45:47Z</time>
      </trkpt>
      <trkpt lat="43.29143" lon="5.72022">
        <ele>455.9</ele>
        <time>2021-03-31T09:45:53Z</time>
      </trkpt>
      <trkpt lat="43.29141" lon="5.72016">
        <ele>455.7</ele>
        <time>2021-03-31T09:45:57Z</time>
      </trkpt>
      <trkpt lat="43.29141" lon="5.72009">
        <ele>455.8</ele>
        <time>2021-03-31T09:46:01Z</time>
      </trkpt>
      <trkpt lat="43.29141" lon="5.72003">
        <ele>456</ele>
        <time>2021-03-31T09:46:05Z</time>
      </trkpt>
      <trkpt lat="43.29142" lon="5.71994">
        <ele>456.2</ele>
        <time>2021-03-31T09:46:11Z</time>
      </trkpt>
      <trkpt lat="43.29143" lon="5.71985">
        <ele>456.3</ele>
        <time>2021-03-31T09:46:17Z</time>
      </trkpt>
      <trkpt lat="43.29144" lon="5.71978">
        <ele>456.3</ele>
        <time>2021-03-31T09:46:21Z</time>
      </trkpt>
      <trkpt lat="43.29144" lon="5.71971">
        <ele>456.3</ele>
        <time>2021-03-31T09:46:25Z</time>
      </trkpt>
      <trkpt lat="43.29147" lon="5.71963">
        <ele>456.8</ele>
        <time>2021-03-31T09:46:31Z</time>
      </trkpt>
      <trkpt lat="43.29149" lon="5.71956">
        <ele>457.4</ele>
        <time>2021-03-31T09:46:37Z</time>
      </trkpt>
      <trkpt lat="43.29153" lon="5.71948">
        <ele>458.3</ele>
        <time>2021-03-31T09:46:43Z</time>
      </trkpt>
      <trkpt lat="43.29156" lon="5.71941">
        <ele>459.3</ele>
        <time>2021-03-31T09:46:49Z</time>
      </trkpt>
      <trkpt lat="43.29161" lon="5.71934">
        <ele>460.5</ele>
        <time>2021-03-31T09:46:55Z</time>
      </trkpt>
      <trkpt lat="43.29163" lon="5.71929">
        <ele>461.1</ele>
        <time>2021-03-31T09:46:59Z</time>
      </trkpt>
      <trkpt lat="43.29166" lon="5.71923">
        <ele>461.9</ele>
        <time>2021-03-31T09:47:03Z</time>
      </trkpt>
      <trkpt lat="43.29168" lon="5.71918">
        <ele>462.8</ele>
        <time>2021-03-31T09:47:07Z</time>
      </trkpt>
      <trkpt lat="43.29172" lon="5.7191">
        <ele>464.6</ele>
        <time>2021-03-31T09:47:13Z</time>
      </trkpt>
      <trkpt lat="43.29175" lon="5.71903">
        <ele>466.3</ele>
        <time>2021-03-31T09:47:19Z</time>
      </trkpt>
      <trkpt lat="43.29177" lon="5.71898">
        <ele>467.5</ele>
        <time>2021-03-31T09:47:23Z</time>
      </trkpt>
      <trkpt lat="43.29181" lon="5.71891">
        <ele>469.2</ele>
        <time>2021-03-31T09:47:29Z</time>
      </trkpt>
      <trkpt lat="43.29184" lon="5.71886">
        <ele>470.5</ele>
        <time>2021-03-31T09:47:33Z</time>
      </trkpt>
      <trkpt lat="43.29187" lon="5.71878">
        <ele>471.8</ele>
        <time>2021-03-31T09:47:39Z</time>
      </trkpt>
      <trkpt lat="43.2919" lon="5.71871">
        <ele>473.2</ele>
        <time>2021-03-31T09:47:45Z</time>
      </trkpt>
      <trkpt lat="43.29194" lon="5.71867">
        <ele>474.3</ele>
        <time>2021-03-31T09:47:49Z</time>
      </trkpt>
      <trkpt lat="43.29198" lon="5.71861">
        <ele>475.5</ele>
        <time>2021-03-31T09:47:55Z</time>
      </trkpt>
      <trkpt lat="43.29201" lon="5.71855">
        <ele>476.5</ele>
        <time>2021-03-31T09:48:01Z</time>
      </trkpt>
      <trkpt lat="43.29206" lon="5.71852">
        <ele>477.8</ele>
        <time>2021-03-31T09:48:07Z</time>
      </trkpt>
      <trkpt lat="43.29209" lon="5.71856">
        <ele>479</ele>
        <time>2021-03-31T09:48:13Z</time>
      </trkpt>
      <trkpt lat="43.29209" lon="5.71864">
        <ele>479.1</ele>
        <time>2021-03-31T09:48:19Z</time>
      </trkpt>
      <trkpt lat="43.29206" lon="5.7187">
        <ele>478.3</ele>
        <time>2021-03-31T09:48:25Z</time>
      </trkpt>
      <trkpt lat="43.29203" lon="5.71876">
        <ele>477.4</ele>
        <time>2021-03-31T09:48:31Z</time>
      </trkpt>
      <trkpt lat="43.292" lon="5.71883">
        <ele>476.6</ele>
        <time>2021-03-31T09:48:37Z</time>
      </trkpt>
      <trkpt lat="43.29197" lon="5.7189">
        <ele>475.5</ele>
        <time>2021-03-31T09:48:43Z</time>
      </trkpt>
      <trkpt lat="43.29195" lon="5.71897">
        <ele>474.7</ele>
        <time>2021-03-31T09:48:49Z</time>
      </trkpt>
      <trkpt lat="43.29193" lon="5.71904">
        <ele>473.9</ele>
        <time>2021-03-31T09:48:55Z</time>
      </trkpt>
      <trkpt lat="43.2919" lon="5.71913">
        <ele>472.6</ele>
        <time>2021-03-31T09:49:01Z</time>
      </trkpt>
      <trkpt lat="43.29189" lon="5.71921">
        <ele>471.8</ele>
        <time>2021-03-31T09:49:07Z</time>
      </trkpt>
      <trkpt lat="43.29187" lon="5.71929">
        <ele>471.3</ele>
        <time>2021-03-31T09:49:13Z</time>
      </trkpt>
      <trkpt lat="43.29186" lon="5.71938">
        <ele>470.9</ele>
        <time>2021-03-31T09:49:19Z</time>
      </trkpt>
      <trkpt lat="43.29183" lon="5.71946">
        <ele>469.9</ele>
        <time>2021-03-31T09:49:25Z</time>
      </trkpt>
      <trkpt lat="43.29182" lon="5.71955">
        <ele>469.4</ele>
        <time>2021-03-31T09:49:31Z</time>
      </trkpt>
      <trkpt lat="43.29181" lon="5.71964">
        <ele>469.2</ele>
        <time>2021-03-31T09:49:37Z</time>
      </trkpt>
      <trkpt lat="43.29181" lon="5.71972">
        <ele>469.5</ele>
        <time>2021-03-31T09:49:43Z</time>
      </trkpt>
      <trkpt lat="43.29183" lon="5.7198">
        <ele>470.4</ele>
        <time>2021-03-31T09:49:49Z</time>
      </trkpt>
      <trkpt lat="43.29186" lon="5.71988">
        <ele>471.7</ele>
        <time>2021-03-31T09:49:55Z</time>
      </trkpt>
      <trkpt lat="43.29188" lon="5.71994">
        <ele>472.8</ele>
        <time>2021-03-31T09:49:59Z</time>
      </trkpt>
      <trkpt lat="43.29191" lon="5.72001">
        <ele>474.2</ele>
        <time>2021-03-31T09:50:05Z</time>
      </trkpt>
      <trkpt lat="43.29194" lon="5.72008">
        <ele>474.4</ele>
        <time>2021-03-31T09:50:11Z</time>
      </trkpt>
      <trkpt lat="43.29198" lon="5.72014">
        <ele>474.9</ele>
        <time>2021-03-31T09:50:17Z</time>
      </trkpt>
      <trkpt lat="43.29202" lon="5.7202">
        <ele>475.4</ele>
        <time>2021-03-31T09:50:23Z</time>
      </trkpt>
      <trkpt lat="43.29205" lon="5.72025">
        <ele>475.9</ele>
        <time>2021-03-31T09:50:29Z</time>
      </trkpt>
      <trkpt lat="43.29209" lon="5.72031">
        <ele>476.3</ele>
        <time>2021-03-31T09:50:35Z</time>
      </trkpt>
      <trkpt lat="43.29213" lon="5.72036">
        <ele>476.4</ele>
        <time>2021-03-31T09:50:41Z</time>
      </trkpt>
      <trkpt lat="43.29217" lon="5.72042">
        <ele>476.5</ele>
        <time>2021-03-31T09:50:47Z</time>
      </trkpt>
      <trkpt lat="43.2922" lon="5.72048">
        <ele>476.4</ele>
        <time>2021-03-31T09:50:53Z</time>
      </trkpt>
      <trkpt lat="43.29224" lon="5.72052">
        <ele>476.5</ele>
        <time>2021-03-31T09:50:59Z</time>
      </trkpt>
      <trkpt lat="43.29229" lon="5.72056">
        <ele>477.1</ele>
        <time>2021-03-31T09:51:05Z</time>
      </trkpt>
      <trkpt lat="43.29233" lon="5.72055">
        <ele>478.6</ele>
        <time>2021-03-31T09:51:11Z</time>
      </trkpt>
      <trkpt lat="43.29233" lon="5.72047">
        <ele>480.5</ele>
        <time>2021-03-31T09:51:19Z</time>
      </trkpt>
      <trkpt lat="43.29231" lon="5.72041">
        <ele>481.2</ele>
        <time>2021-03-31T09:51:25Z</time>
      </trkpt>
      <trkpt lat="43.29228" lon="5.72034">
        <ele>481.8</ele>
        <time>2021-03-31T09:51:31Z</time>
      </trkpt>
      <trkpt lat="43.29226" lon="5.72028">
        <ele>482.4</ele>
        <time>2021-03-31T09:51:37Z</time>
      </trkpt>
      <trkpt lat="43.29224" lon="5.72023">
        <ele>482.9</ele>
        <time>2021-03-31T09:51:43Z</time>
      </trkpt>
      <trkpt lat="43.29221" lon="5.72017">
        <ele>483.2</ele>
        <time>2021-03-31T09:51:59Z</time>
      </trkpt>
      <trkpt lat="43.2922" lon="5.7201">
        <ele>484.2</ele>
        <time>2021-03-31T09:52:05Z</time>
      </trkpt>
      <trkpt lat="43.29219" lon="5.72004">
        <ele>485.2</ele>
        <time>2021-03-31T09:52:11Z</time>
      </trkpt>
      <trkpt lat="43.29219" lon="5.71997">
        <ele>486.1</ele>
        <time>2021-03-31T09:52:17Z</time>
      </trkpt>
      <trkpt lat="43.2922" lon="5.7199">
        <ele>486.4</ele>
        <time>2021-03-31T09:52:23Z</time>
      </trkpt>
      <trkpt lat="43.29222" lon="5.71984">
        <ele>487</ele>
        <time>2021-03-31T09:52:29Z</time>
      </trkpt>
      <trkpt lat="43.29223" lon="5.71976">
        <ele>487.6</ele>
        <time>2021-03-31T09:52:37Z</time>
      </trkpt>
      <trkpt lat="43.29225" lon="5.7197">
        <ele>488.1</ele>
        <time>2021-03-31T09:52:43Z</time>
      </trkpt>
      <trkpt lat="43.29227" lon="5.71963">
        <ele>489</ele>
        <time>2021-03-31T09:52:49Z</time>
      </trkpt>
      <trkpt lat="43.29229" lon="5.71957">
        <ele>489.8</ele>
        <time>2021-03-31T09:52:55Z</time>
      </trkpt>
      <trkpt lat="43.29231" lon="5.7195">
        <ele>490.7</ele>
        <time>2021-03-31T09:53:01Z</time>
      </trkpt>
      <trkpt lat="43.29233" lon="5.71944">
        <ele>491.5</ele>
        <time>2021-03-31T09:53:07Z</time>
      </trkpt>
      <trkpt lat="43.29235" lon="5.71937">
        <ele>492.4</ele>
        <time>2021-03-31T09:53:13Z</time>
      </trkpt>
      <trkpt lat="43.29237" lon="5.71931">
        <ele>493.4</ele>
        <time>2021-03-31T09:53:19Z</time>
      </trkpt>
      <trkpt lat="43.29239" lon="5.71923">
        <ele>494.3</ele>
        <time>2021-03-31T09:53:25Z</time>
      </trkpt>
      <trkpt lat="43.29241" lon="5.71917">
        <ele>495.1</ele>
        <time>2021-03-31T09:53:31Z</time>
      </trkpt>
      <trkpt lat="43.29243" lon="5.71911">
        <ele>495.4</ele>
        <time>2021-03-31T09:53:37Z</time>
      </trkpt>
      <trkpt lat="43.29246" lon="5.71905">
        <ele>495.8</ele>
        <time>2021-03-31T09:53:43Z</time>
      </trkpt>
      <trkpt lat="43.29249" lon="5.719">
        <ele>496.5</ele>
        <time>2021-03-31T09:53:49Z</time>
      </trkpt>
      <trkpt lat="43.29253" lon="5.71895">
        <ele>496.8</ele>
        <time>2021-03-31T09:53:55Z</time>
      </trkpt>
      <trkpt lat="43.29256" lon="5.71891">
        <ele>497.1</ele>
        <time>2021-03-31T09:54:01Z</time>
      </trkpt>
      <trkpt lat="43.2926" lon="5.71886">
        <ele>497.5</ele>
        <time>2021-03-31T09:54:07Z</time>
      </trkpt>
      <trkpt lat="43.29264" lon="5.71882">
        <ele>498.1</ele>
        <time>2021-03-31T09:54:13Z</time>
      </trkpt>
      <trkpt lat="43.29268" lon="5.71877">
        <ele>498.5</ele>
        <time>2021-03-31T09:54:19Z</time>
      </trkpt>
      <trkpt lat="43.29272" lon="5.71872">
        <ele>498.9</ele>
        <time>2021-03-31T09:54:25Z</time>
      </trkpt>
      <trkpt lat="43.29276" lon="5.71868">
        <ele>499.3</ele>
        <time>2021-03-31T09:54:31Z</time>
      </trkpt>
      <trkpt lat="43.29279" lon="5.71862">
        <ele>499.5</ele>
        <time>2021-03-31T09:54:37Z</time>
      </trkpt>
      <trkpt lat="43.29283" lon="5.71855">
        <ele>499.7</ele>
        <time>2021-03-31T09:54:43Z</time>
      </trkpt>
      <trkpt lat="43.29286" lon="5.71849">
        <ele>500</ele>
        <time>2021-03-31T09:54:49Z</time>
      </trkpt>
      <trkpt lat="43.29289" lon="5.71843">
        <ele>500.2</ele>
        <time>2021-03-31T09:54:55Z</time>
      </trkpt>
      <trkpt lat="43.29292" lon="5.71838">
        <ele>500.5</ele>
        <time>2021-03-31T09:55:01Z</time>
      </trkpt>
      <trkpt lat="43.29296" lon="5.71834">
        <ele>501.2</ele>
        <time>2021-03-31T09:55:07Z</time>
      </trkpt>
      <trkpt lat="43.293" lon="5.71832">
        <ele>502.4</ele>
        <time>2021-03-31T09:55:13Z</time>
      </trkpt>
      <trkpt lat="43.29304" lon="5.71832">
        <ele>503.7</ele>
        <time>2021-03-31T09:55:21Z</time>
      </trkpt>
      <trkpt lat="43.2931" lon="5.71832">
        <ele>505.4</ele>
        <time>2021-03-31T09:55:43Z</time>
      </trkpt>
      <trkpt lat="43.29316" lon="5.71833">
        <ele>507</ele>
        <time>2021-03-31T09:55:49Z</time>
      </trkpt>
      <trkpt lat="43.29321" lon="5.71833">
        <ele>508.5</ele>
        <time>2021-03-31T09:55:55Z</time>
      </trkpt>
      <trkpt lat="43.29327" lon="5.71832">
        <ele>510</ele>
        <time>2021-03-31T09:56:01Z</time>
      </trkpt>
      <trkpt lat="43.29331" lon="5.71831">
        <ele>511.4</ele>
        <time>2021-03-31T09:56:07Z</time>
      </trkpt>
      <trkpt lat="43.29336" lon="5.71829">
        <ele>512.4</ele>
        <time>2021-03-31T09:56:13Z</time>
      </trkpt>
      <trkpt lat="43.29341" lon="5.71824">
        <ele>513.4</ele>
        <time>2021-03-31T09:56:19Z</time>
      </trkpt>
      <trkpt lat="43.29345" lon="5.71821">
        <ele>514.3</ele>
        <time>2021-03-31T09:56:25Z</time>
      </trkpt>
      <trkpt lat="43.29349" lon="5.71816">
        <ele>515</ele>
        <time>2021-03-31T09:56:31Z</time>
      </trkpt>
      <trkpt lat="43.29352" lon="5.71811">
        <ele>515.5</ele>
        <time>2021-03-31T09:56:37Z</time>
      </trkpt>
      <trkpt lat="43.29356" lon="5.71806">
        <ele>516.1</ele>
        <time>2021-03-31T09:56:43Z</time>
      </trkpt>
      <trkpt lat="43.29358" lon="5.718">
        <ele>516.4</ele>
        <time>2021-03-31T09:56:49Z</time>
      </trkpt>
      <trkpt lat="43.2936" lon="5.71794">
        <ele>516.7</ele>
        <time>2021-03-31T09:56:55Z</time>
      </trkpt>
      <trkpt lat="43.29363" lon="5.71789">
        <ele>517.2</ele>
        <time>2021-03-31T09:57:01Z</time>
      </trkpt>
      <trkpt lat="43.29366" lon="5.71783">
        <ele>517.6</ele>
        <time>2021-03-31T09:57:07Z</time>
      </trkpt>
      <trkpt lat="43.2937" lon="5.71779">
        <ele>518.2</ele>
        <time>2021-03-31T09:57:13Z</time>
      </trkpt>
      <trkpt lat="43.29375" lon="5.71776">
        <ele>519.2</ele>
        <time>2021-03-31T09:57:21Z</time>
      </trkpt>
      <trkpt lat="43.2938" lon="5.71774">
        <ele>520.2</ele>
        <time>2021-03-31T09:57:29Z</time>
      </trkpt>
      <trkpt lat="43.29384" lon="5.71771">
        <ele>521</ele>
        <time>2021-03-31T09:57:35Z</time>
      </trkpt>
      <trkpt lat="43.29389" lon="5.71769">
        <ele>522</ele>
        <time>2021-03-31T09:57:41Z</time>
      </trkpt>
      <trkpt lat="43.29395" lon="5.71768">
        <ele>523.2</ele>
        <time>2021-03-31T09:57:49Z</time>
      </trkpt>
      <trkpt lat="43.294" lon="5.71765">
        <ele>524.1</ele>
        <time>2021-03-31T09:57:55Z</time>
      </trkpt>
      <trkpt lat="43.29404" lon="5.71762">
        <ele>524.8</ele>
        <time>2021-03-31T09:58:01Z</time>
      </trkpt>
      <trkpt lat="43.29408" lon="5.71758">
        <ele>525.5</ele>
        <time>2021-03-31T09:58:07Z</time>
      </trkpt>
      <trkpt lat="43.29413" lon="5.71754">
        <ele>526.4</ele>
        <time>2021-03-31T09:58:13Z</time>
      </trkpt>
      <trkpt lat="43.29417" lon="5.71751">
        <ele>527.1</ele>
        <time>2021-03-31T09:58:19Z</time>
      </trkpt>
      <trkpt lat="43.29422" lon="5.71747">
        <ele>527.8</ele>
        <time>2021-03-31T09:58:25Z</time>
      </trkpt>
      <trkpt lat="43.29426" lon="5.71742">
        <ele>528.6</ele>
        <time>2021-03-31T09:58:31Z</time>
      </trkpt>
      <trkpt lat="43.29429" lon="5.71736">
        <ele>529.3</ele>
        <time>2021-03-31T09:58:39Z</time>
      </trkpt>
      <trkpt lat="43.29433" lon="5.7173">
        <ele>530</ele>
        <time>2021-03-31T09:58:45Z</time>
      </trkpt>
      <trkpt lat="43.29437" lon="5.71725">
        <ele>530.7</ele>
        <time>2021-03-31T09:58:51Z</time>
      </trkpt>
      <trkpt lat="43.29439" lon="5.71716">
        <ele>531.2</ele>
        <time>2021-03-31T09:58:57Z</time>
      </trkpt>
      <trkpt lat="43.29442" lon="5.71708">
        <ele>531.7</ele>
        <time>2021-03-31T09:59:03Z</time>
      </trkpt>
      <trkpt lat="43.29445" lon="5.71702">
        <ele>532.2</ele>
        <time>2021-03-31T09:59:09Z</time>
      </trkpt>
      <trkpt lat="43.29449" lon="5.71696">
        <ele>532.7</ele>
        <time>2021-03-31T09:59:15Z</time>
      </trkpt>
      <trkpt lat="43.29451" lon="5.71688">
        <ele>533.1</ele>
        <time>2021-03-31T09:59:21Z</time>
      </trkpt>
      <trkpt lat="43.29453" lon="5.71681">
        <ele>533.4</ele>
        <time>2021-03-31T09:59:27Z</time>
      </trkpt>
      <trkpt lat="43.29454" lon="5.71673">
        <ele>533.6</ele>
        <time>2021-03-31T09:59:33Z</time>
      </trkpt>
      <trkpt lat="43.29455" lon="5.71667">
        <ele>533.8</ele>
        <time>2021-03-31T09:59:39Z</time>
      </trkpt>
      <trkpt lat="43.29457" lon="5.7166">
        <ele>534.2</ele>
        <time>2021-03-31T09:59:45Z</time>
      </trkpt>
      <trkpt lat="43.29459" lon="5.71654">
        <ele>534.6</ele>
        <time>2021-03-31T09:59:51Z</time>
      </trkpt>
      <trkpt lat="43.29462" lon="5.71647">
        <ele>534.9</ele>
        <time>2021-03-31T09:59:57Z</time>
      </trkpt>
      <trkpt lat="43.29465" lon="5.71641">
        <ele>535.1</ele>
        <time>2021-03-31T10:00:03Z</time>
      </trkpt>
      <trkpt lat="43.29468" lon="5.71634">
        <ele>535.3</ele>
        <time>2021-03-31T10:00:09Z</time>
      </trkpt>
      <trkpt lat="43.29472" lon="5.71628">
        <ele>535.4</ele>
        <time>2021-03-31T10:00:15Z</time>
      </trkpt>
      <trkpt lat="43.29475" lon="5.71621">
        <ele>535.5</ele>
        <time>2021-03-31T10:00:21Z</time>
      </trkpt>
      <trkpt lat="43.29477" lon="5.71615">
        <ele>535.5</ele>
        <time>2021-03-31T10:00:27Z</time>
      </trkpt>
      <trkpt lat="43.2948" lon="5.7161">
        <ele>535.5</ele>
        <time>2021-03-31T10:00:33Z</time>
      </trkpt>
      <trkpt lat="43.29483" lon="5.71606">
        <ele>535.3</ele>
        <time>2021-03-31T10:00:39Z</time>
      </trkpt>
      <trkpt lat="43.29486" lon="5.71601">
        <ele>535.2</ele>
        <time>2021-03-31T10:00:45Z</time>
      </trkpt>
      <trkpt lat="43.29488" lon="5.71595">
        <ele>535.1</ele>
        <time>2021-03-31T10:00:51Z</time>
      </trkpt>
      <trkpt lat="43.29491" lon="5.71589">
        <ele>534.8</ele>
        <time>2021-03-31T10:00:57Z</time>
      </trkpt>
      <trkpt lat="43.29494" lon="5.71584">
        <ele>534.5</ele>
        <time>2021-03-31T10:01:05Z</time>
      </trkpt>
      <trkpt lat="43.29497" lon="5.71579">
        <ele>534.3</ele>
        <time>2021-03-31T10:02:59Z</time>
      </trkpt>
      <trkpt lat="43.29502" lon="5.71579">
        <ele>534</ele>
        <time>2021-03-31T10:07:47Z</time>
      </trkpt>
      <trkpt lat="43.29506" lon="5.71575">
        <ele>533.9</ele>
        <time>2021-03-31T10:08:23Z</time>
      </trkpt>
      <trkpt lat="43.29509" lon="5.71568">
        <ele>533.8</ele>
        <time>2021-03-31T10:08:29Z</time>
      </trkpt>
      <trkpt lat="43.29512" lon="5.71562">
        <ele>533.5</ele>
        <time>2021-03-31T10:08:35Z</time>
      </trkpt>
      <trkpt lat="43.29508" lon="5.71564">
        <ele>533.8</ele>
        <time>2021-03-31T10:08:47Z</time>
      </trkpt>
      <trkpt lat="43.29504" lon="5.71567">
        <ele>534</ele>
        <time>2021-03-31T10:08:51Z</time>
      </trkpt>
      <trkpt lat="43.29499" lon="5.71572">
        <ele>534.2</ele>
        <time>2021-03-31T10:08:57Z</time>
      </trkpt>
      <trkpt lat="43.29499" lon="5.71579">
        <ele>534.2</ele>
        <time>2021-03-31T10:10:51Z</time>
      </trkpt>
      <trkpt lat="43.29502" lon="5.71585">
        <ele>534</ele>
        <time>2021-03-31T10:25:37Z</time>
      </trkpt>
      <trkpt lat="43.29505" lon="5.71592">
        <ele>534.1</ele>
        <time>2021-03-31T10:25:43Z</time>
      </trkpt>
      <trkpt lat="43.29506" lon="5.71601">
        <ele>534.4</ele>
        <time>2021-03-31T10:25:49Z</time>
      </trkpt>
      <trkpt lat="43.29507" lon="5.7161">
        <ele>534.7</ele>
        <time>2021-03-31T10:25:55Z</time>
      </trkpt>
      <trkpt lat="43.29507" lon="5.71619">
        <ele>534.9</ele>
        <time>2021-03-31T10:26:01Z</time>
      </trkpt>
      <trkpt lat="43.29506" lon="5.71625">
        <ele>535.1</ele>
        <time>2021-03-31T10:26:05Z</time>
      </trkpt>
      <trkpt lat="43.29506" lon="5.71632">
        <ele>535.3</ele>
        <time>2021-03-31T10:26:09Z</time>
      </trkpt>
      <trkpt lat="43.29505" lon="5.71638">
        <ele>535.5</ele>
        <time>2021-03-31T10:26:13Z</time>
      </trkpt>
      <trkpt lat="43.29503" lon="5.71644">
        <ele>535.6</ele>
        <time>2021-03-31T10:26:17Z</time>
      </trkpt>
      <trkpt lat="43.29501" lon="5.71652">
        <ele>535.7</ele>
        <time>2021-03-31T10:26:23Z</time>
      </trkpt>
      <trkpt lat="43.29499" lon="5.71661">
        <ele>535.8</ele>
        <time>2021-03-31T10:26:29Z</time>
      </trkpt>
      <trkpt lat="43.29497" lon="5.7167">
        <ele>535.9</ele>
        <time>2021-03-31T10:26:35Z</time>
      </trkpt>
      <trkpt lat="43.29497" lon="5.71676">
        <ele>536.1</ele>
        <time>2021-03-31T10:26:39Z</time>
      </trkpt>
      <trkpt lat="43.29498" lon="5.71682">
        <ele>536.3</ele>
        <time>2021-03-31T10:26:43Z</time>
      </trkpt>
      <trkpt lat="43.295" lon="5.71689">
        <ele>536.5</ele>
        <time>2021-03-31T10:26:47Z</time>
      </trkpt>
      <trkpt lat="43.29503" lon="5.71695">
        <ele>536.8</ele>
        <time>2021-03-31T10:26:51Z</time>
      </trkpt>
      <trkpt lat="43.29506" lon="5.717">
        <ele>537.1</ele>
        <time>2021-03-31T10:26:55Z</time>
      </trkpt>
      <trkpt lat="43.29509" lon="5.71705">
        <ele>537.5</ele>
        <time>2021-03-31T10:26:59Z</time>
      </trkpt>
      <trkpt lat="43.29512" lon="5.71709">
        <ele>537.8</ele>
        <time>2021-03-31T10:27:03Z</time>
      </trkpt>
      <trkpt lat="43.29517" lon="5.71716">
        <ele>538.2</ele>
        <time>2021-03-31T10:27:09Z</time>
      </trkpt>
      <trkpt lat="43.29521" lon="5.7172">
        <ele>538.5</ele>
        <time>2021-03-31T10:27:13Z</time>
      </trkpt>
      <trkpt lat="43.29526" lon="5.71725">
        <ele>538.9</ele>
        <time>2021-03-31T10:27:19Z</time>
      </trkpt>
      <trkpt lat="43.29531" lon="5.71729">
        <ele>539.4</ele>
        <time>2021-03-31T10:27:25Z</time>
      </trkpt>
      <trkpt lat="43.29537" lon="5.71731">
        <ele>539.7</ele>
        <time>2021-03-31T10:27:31Z</time>
      </trkpt>
      <trkpt lat="43.29543" lon="5.7173">
        <ele>540.1</ele>
        <time>2021-03-31T10:27:37Z</time>
      </trkpt>
      <trkpt lat="43.2955" lon="5.71728">
        <ele>540.5</ele>
        <time>2021-03-31T10:27:43Z</time>
      </trkpt>
      <trkpt lat="43.29555" lon="5.71727">
        <ele>540.7</ele>
        <time>2021-03-31T10:27:47Z</time>
      </trkpt>
      <trkpt lat="43.29561" lon="5.71724">
        <ele>541.1</ele>
        <time>2021-03-31T10:27:53Z</time>
      </trkpt>
      <trkpt lat="43.29567" lon="5.71723">
        <ele>541.4</ele>
        <time>2021-03-31T10:27:59Z</time>
      </trkpt>
      <trkpt lat="43.29574" lon="5.7172">
        <ele>541.7</ele>
        <time>2021-03-31T10:28:05Z</time>
      </trkpt>
      <trkpt lat="43.29578" lon="5.71719">
        <ele>542</ele>
        <time>2021-03-31T10:28:09Z</time>
      </trkpt>
      <trkpt lat="43.29584" lon="5.71717">
        <ele>542.2</ele>
        <time>2021-03-31T10:28:15Z</time>
      </trkpt>
      <trkpt lat="43.29589" lon="5.71716">
        <ele>542.5</ele>
        <time>2021-03-31T10:28:19Z</time>
      </trkpt>
      <trkpt lat="43.29593" lon="5.71714">
        <ele>542.7</ele>
        <time>2021-03-31T10:28:23Z</time>
      </trkpt>
      <trkpt lat="43.29599" lon="5.71712">
        <ele>542.9</ele>
        <time>2021-03-31T10:28:29Z</time>
      </trkpt>
      <trkpt lat="43.29606" lon="5.71711">
        <ele>543.2</ele>
        <time>2021-03-31T10:28:35Z</time>
      </trkpt>
      <trkpt lat="43.29611" lon="5.7171">
        <ele>543.5</ele>
        <time>2021-03-31T10:28:41Z</time>
      </trkpt>
      <trkpt lat="43.29616" lon="5.71708">
        <ele>543.8</ele>
        <time>2021-03-31T10:28:45Z</time>
      </trkpt>
      <trkpt lat="43.29621" lon="5.71705">
        <ele>544</ele>
        <time>2021-03-31T10:28:51Z</time>
      </trkpt>
      <trkpt lat="43.29626" lon="5.71705">
        <ele>544.2</ele>
        <time>2021-03-31T10:28:55Z</time>
      </trkpt>
      <trkpt lat="43.29631" lon="5.71704">
        <ele>544.5</ele>
        <time>2021-03-31T10:28:59Z</time>
      </trkpt>
      <trkpt lat="43.29636" lon="5.71703">
        <ele>544.7</ele>
        <time>2021-03-31T10:29:03Z</time>
      </trkpt>
      <trkpt lat="43.2964" lon="5.717">
        <ele>544.9</ele>
        <time>2021-03-31T10:29:07Z</time>
      </trkpt>
      <trkpt lat="43.29647" lon="5.71698">
        <ele>545.3</ele>
        <time>2021-03-31T10:29:13Z</time>
      </trkpt>
      <trkpt lat="43.29653" lon="5.71697">
        <ele>545.6</ele>
        <time>2021-03-31T10:29:19Z</time>
      </trkpt>
      <trkpt lat="43.29658" lon="5.71696">
        <ele>545.9</ele>
        <time>2021-03-31T10:29:23Z</time>
      </trkpt>
      <trkpt lat="43.29664" lon="5.71695">
        <ele>546.2</ele>
        <time>2021-03-31T10:29:29Z</time>
      </trkpt>
      <trkpt lat="43.2967" lon="5.71695">
        <ele>546.8</ele>
        <time>2021-03-31T10:29:35Z</time>
      </trkpt>
      <trkpt lat="43.29677" lon="5.71696">
        <ele>547.6</ele>
        <time>2021-03-31T10:29:41Z</time>
      </trkpt>
      <trkpt lat="43.29683" lon="5.71699">
        <ele>548.5</ele>
        <time>2021-03-31T10:29:47Z</time>
      </trkpt>
      <trkpt lat="43.29689" lon="5.71703">
        <ele>549.2</ele>
        <time>2021-03-31T10:29:53Z</time>
      </trkpt>
      <trkpt lat="43.29695" lon="5.71706">
        <ele>549.9</ele>
        <time>2021-03-31T10:29:59Z</time>
      </trkpt>
      <trkpt lat="43.29699" lon="5.71711">
        <ele>550.3</ele>
        <time>2021-03-31T10:30:05Z</time>
      </trkpt>
      <trkpt lat="43.29703" lon="5.71715">
        <ele>550.8</ele>
        <time>2021-03-31T10:30:15Z</time>
      </trkpt>
      <trkpt lat="43.29706" lon="5.71723">
        <ele>551.1</ele>
        <time>2021-03-31T10:30:21Z</time>
      </trkpt>
      <trkpt lat="43.29709" lon="5.71729">
        <ele>551.3</ele>
        <time>2021-03-31T10:30:25Z</time>
      </trkpt>
      <trkpt lat="43.29713" lon="5.71737">
        <ele>551.6</ele>
        <time>2021-03-31T10:30:31Z</time>
      </trkpt>
      <trkpt lat="43.29717" lon="5.71745">
        <ele>551.9</ele>
        <time>2021-03-31T10:30:37Z</time>
      </trkpt>
      <trkpt lat="43.2972" lon="5.7175">
        <ele>552.1</ele>
        <time>2021-03-31T10:30:41Z</time>
      </trkpt>
      <trkpt lat="43.29723" lon="5.71754">
        <ele>551.8</ele>
        <time>2021-03-31T10:30:45Z</time>
      </trkpt>
      <trkpt lat="43.29729" lon="5.71757">
        <ele>552</ele>
        <time>2021-03-31T10:30:51Z</time>
      </trkpt>
      <trkpt lat="43.29733" lon="5.71753">
        <ele>553</ele>
        <time>2021-03-31T10:30:57Z</time>
      </trkpt>
      <trkpt lat="43.29733" lon="5.71746">
        <ele>553.4</ele>
        <time>2021-03-31T10:31:01Z</time>
      </trkpt>
      <trkpt lat="43.29733" lon="5.7174">
        <ele>553.6</ele>
        <time>2021-03-31T10:31:05Z</time>
      </trkpt>
      <trkpt lat="43.29732" lon="5.71733">
        <ele>553.7</ele>
        <time>2021-03-31T10:31:09Z</time>
      </trkpt>
      <trkpt lat="43.29732" lon="5.71725">
        <ele>553.9</ele>
        <time>2021-03-31T10:31:15Z</time>
      </trkpt>
      <trkpt lat="43.29733" lon="5.71717">
        <ele>554.2</ele>
        <time>2021-03-31T10:31:21Z</time>
      </trkpt>
      <trkpt lat="43.29734" lon="5.7171">
        <ele>554.6</ele>
        <time>2021-03-31T10:31:27Z</time>
      </trkpt>
      <trkpt lat="43.29736" lon="5.71703">
        <ele>555</ele>
        <time>2021-03-31T10:31:33Z</time>
      </trkpt>
      <trkpt lat="43.2974" lon="5.71697">
        <ele>555.6</ele>
        <time>2021-03-31T10:31:39Z</time>
      </trkpt>
      <trkpt lat="43.29744" lon="5.71691">
        <ele>556.3</ele>
        <time>2021-03-31T10:31:45Z</time>
      </trkpt>
      <trkpt lat="43.29747" lon="5.71686">
        <ele>556.9</ele>
        <time>2021-03-31T10:31:51Z</time>
      </trkpt>
      <trkpt lat="43.29752" lon="5.7168">
        <ele>557.8</ele>
        <time>2021-03-31T10:31:57Z</time>
      </trkpt>
      <trkpt lat="43.29757" lon="5.71676">
        <ele>558.7</ele>
        <time>2021-03-31T10:32:03Z</time>
      </trkpt>
      <trkpt lat="43.29761" lon="5.71672">
        <ele>559.5</ele>
        <time>2021-03-31T10:32:07Z</time>
      </trkpt>
      <trkpt lat="43.29765" lon="5.71668">
        <ele>560.5</ele>
        <time>2021-03-31T10:32:13Z</time>
      </trkpt>
      <trkpt lat="43.2977" lon="5.71663">
        <ele>561.2</ele>
        <time>2021-03-31T10:32:19Z</time>
      </trkpt>
      <trkpt lat="43.29774" lon="5.71657">
        <ele>561.8</ele>
        <time>2021-03-31T10:32:25Z</time>
      </trkpt>
      <trkpt lat="43.29778" lon="5.71651">
        <ele>562.4</ele>
        <time>2021-03-31T10:32:31Z</time>
      </trkpt>
      <trkpt lat="43.29783" lon="5.71647">
        <ele>563.2</ele>
        <time>2021-03-31T10:32:37Z</time>
      </trkpt>
      <trkpt lat="43.29787" lon="5.71642">
        <ele>563.9</ele>
        <time>2021-03-31T10:32:43Z</time>
      </trkpt>
      <trkpt lat="43.29792" lon="5.71636">
        <ele>564.9</ele>
        <time>2021-03-31T10:32:49Z</time>
      </trkpt>
      <trkpt lat="43.29797" lon="5.71631">
        <ele>566</ele>
        <time>2021-03-31T10:32:55Z</time>
      </trkpt>
      <trkpt lat="43.298" lon="5.71623">
        <ele>566.6</ele>
        <time>2021-03-31T10:33:01Z</time>
      </trkpt>
      <trkpt lat="43.29803" lon="5.71616">
        <ele>567.4</ele>
        <time>2021-03-31T10:33:07Z</time>
      </trkpt>
      <trkpt lat="43.29804" lon="5.71609">
        <ele>567.7</ele>
        <time>2021-03-31T10:33:11Z</time>
      </trkpt>
      <trkpt lat="43.29806" lon="5.71603">
        <ele>568.2</ele>
        <time>2021-03-31T10:33:17Z</time>
      </trkpt>
      <trkpt lat="43.29811" lon="5.71606">
        <ele>569.3</ele>
        <time>2021-03-31T10:33:27Z</time>
      </trkpt>
      <trkpt lat="43.29811" lon="5.71613">
        <ele>569.2</ele>
        <time>2021-03-31T10:33:33Z</time>
      </trkpt>
      <trkpt lat="43.29811" lon="5.7162">
        <ele>569.1</ele>
        <time>2021-03-31T10:33:39Z</time>
      </trkpt>
      <trkpt lat="43.29811" lon="5.71627">
        <ele>568.9</ele>
        <time>2021-03-31T10:33:45Z</time>
      </trkpt>
      <trkpt lat="43.29813" lon="5.71635">
        <ele>569.3</ele>
        <time>2021-03-31T10:33:51Z</time>
      </trkpt>
      <trkpt lat="43.29816" lon="5.71641">
        <ele>569.7</ele>
        <time>2021-03-31T10:33:57Z</time>
      </trkpt>
      <trkpt lat="43.2982" lon="5.71647">
        <ele>570.5</ele>
        <time>2021-03-31T10:34:03Z</time>
      </trkpt>
      <trkpt lat="43.29825" lon="5.71651">
        <ele>571.2</ele>
        <time>2021-03-31T10:34:09Z</time>
      </trkpt>
      <trkpt lat="43.2983" lon="5.71655">
        <ele>571.9</ele>
        <time>2021-03-31T10:34:15Z</time>
      </trkpt>
      <trkpt lat="43.29834" lon="5.71659">
        <ele>572.5</ele>
        <time>2021-03-31T10:34:21Z</time>
      </trkpt>
      <trkpt lat="43.29839" lon="5.71661">
        <ele>573</ele>
        <time>2021-03-31T10:34:27Z</time>
      </trkpt>
      <trkpt lat="43.29844" lon="5.71663">
        <ele>573.5</ele>
        <time>2021-03-31T10:34:33Z</time>
      </trkpt>
      <trkpt lat="43.29851" lon="5.71662">
        <ele>574.4</ele>
        <time>2021-03-31T10:34:39Z</time>
      </trkpt>
      <trkpt lat="43.29856" lon="5.71659">
        <ele>575.3</ele>
        <time>2021-03-31T10:34:47Z</time>
      </trkpt>
      <trkpt lat="43.29856" lon="5.71652">
        <ele>575.8</ele>
        <time>2021-03-31T10:34:53Z</time>
      </trkpt>
      <trkpt lat="43.29856" lon="5.71646">
        <ele>576.2</ele>
        <time>2021-03-31T10:34:59Z</time>
      </trkpt>
      <trkpt lat="43.29853" lon="5.7164">
        <ele>576.3</ele>
        <time>2021-03-31T10:35:05Z</time>
      </trkpt>
      <trkpt lat="43.2985" lon="5.71634">
        <ele>576.2</ele>
        <time>2021-03-31T10:35:23Z</time>
      </trkpt>
      <trkpt lat="43.29849" lon="5.71627">
        <ele>576.4</ele>
        <time>2021-03-31T10:35:29Z</time>
      </trkpt>
      <trkpt lat="43.29851" lon="5.7162">
        <ele>577.2</ele>
        <time>2021-03-31T10:35:35Z</time>
      </trkpt>
      <trkpt lat="43.29852" lon="5.71613">
        <ele>577.9</ele>
        <time>2021-03-31T10:35:41Z</time>
      </trkpt>
      <trkpt lat="43.29853" lon="5.71605">
        <ele>578.8</ele>
        <time>2021-03-31T10:35:47Z</time>
      </trkpt>
      <trkpt lat="43.29855" lon="5.71598">
        <ele>579.7</ele>
        <time>2021-03-31T10:35:53Z</time>
      </trkpt>
      <trkpt lat="43.29857" lon="5.71591">
        <ele>580.6</ele>
        <time>2021-03-31T10:35:59Z</time>
      </trkpt>
      <trkpt lat="43.2986" lon="5.71584">
        <ele>581.8</ele>
        <time>2021-03-31T10:36:05Z</time>
      </trkpt>
      <trkpt lat="43.29863" lon="5.71576">
        <ele>582.3</ele>
        <time>2021-03-31T10:36:11Z</time>
      </trkpt>
      <trkpt lat="43.29864" lon="5.71568">
        <ele>582.5</ele>
        <time>2021-03-31T10:36:17Z</time>
      </trkpt>
      <trkpt lat="43.29867" lon="5.71561">
        <ele>583.1</ele>
        <time>2021-03-31T10:36:23Z</time>
      </trkpt>
      <trkpt lat="43.29869" lon="5.71554">
        <ele>583.5</ele>
        <time>2021-03-31T10:36:29Z</time>
      </trkpt>
      <trkpt lat="43.2987" lon="5.71546">
        <ele>583.7</ele>
        <time>2021-03-31T10:36:35Z</time>
      </trkpt>
      <trkpt lat="43.29873" lon="5.71538">
        <ele>584.3</ele>
        <time>2021-03-31T10:36:41Z</time>
      </trkpt>
      <trkpt lat="43.29876" lon="5.71531">
        <ele>584.8</ele>
        <time>2021-03-31T10:36:47Z</time>
      </trkpt>
      <trkpt lat="43.29878" lon="5.71524">
        <ele>585.4</ele>
        <time>2021-03-31T10:36:53Z</time>
      </trkpt>
      <trkpt lat="43.29881" lon="5.71517">
        <ele>586</ele>
        <time>2021-03-31T10:36:59Z</time>
      </trkpt>
      <trkpt lat="43.29884" lon="5.71509">
        <ele>586.8</ele>
        <time>2021-03-31T10:37:05Z</time>
      </trkpt>
      <trkpt lat="43.29888" lon="5.71502">
        <ele>587.8</ele>
        <time>2021-03-31T10:37:11Z</time>
      </trkpt>
      <trkpt lat="43.29892" lon="5.71496">
        <ele>588.6</ele>
        <time>2021-03-31T10:37:17Z</time>
      </trkpt>
      <trkpt lat="43.29895" lon="5.71488">
        <ele>589.1</ele>
        <time>2021-03-31T10:37:23Z</time>
      </trkpt>
      <trkpt lat="43.29898" lon="5.71481">
        <ele>589.6</ele>
        <time>2021-03-31T10:37:29Z</time>
      </trkpt>
      <trkpt lat="43.29901" lon="5.71475">
        <ele>590</ele>
        <time>2021-03-31T10:37:35Z</time>
      </trkpt>
      <trkpt lat="43.29905" lon="5.71468">
        <ele>590.6</ele>
        <time>2021-03-31T10:37:41Z</time>
      </trkpt>
      <trkpt lat="43.29909" lon="5.71463">
        <ele>591.4</ele>
        <time>2021-03-31T10:37:47Z</time>
      </trkpt>
      <trkpt lat="43.29914" lon="5.71462">
        <ele>592.6</ele>
        <time>2021-03-31T10:37:53Z</time>
      </trkpt>
      <trkpt lat="43.29918" lon="5.71467">
        <ele>593.6</ele>
        <time>2021-03-31T10:37:59Z</time>
      </trkpt>
      <trkpt lat="43.29918" lon="5.71474">
        <ele>594.1</ele>
        <time>2021-03-31T10:38:05Z</time>
      </trkpt>
      <trkpt lat="43.29918" lon="5.71482">
        <ele>594.4</ele>
        <time>2021-03-31T10:38:11Z</time>
      </trkpt>
      <trkpt lat="43.29918" lon="5.71488">
        <ele>594.6</ele>
        <time>2021-03-31T10:38:19Z</time>
      </trkpt>
      <trkpt lat="43.29917" lon="5.71496">
        <ele>594.9</ele>
        <time>2021-03-31T10:38:25Z</time>
      </trkpt>
      <trkpt lat="43.29917" lon="5.71504">
        <ele>595</ele>
        <time>2021-03-31T10:38:31Z</time>
      </trkpt>
      <trkpt lat="43.29917" lon="5.71513">
        <ele>595</ele>
        <time>2021-03-31T10:38:37Z</time>
      </trkpt>
      <trkpt lat="43.2992" lon="5.71521">
        <ele>595.3</ele>
        <time>2021-03-31T10:38:43Z</time>
      </trkpt>
      <trkpt lat="43.29923" lon="5.71527">
        <ele>595.8</ele>
        <time>2021-03-31T10:38:49Z</time>
      </trkpt>
      <trkpt lat="43.29928" lon="5.71532">
        <ele>596.6</ele>
        <time>2021-03-31T10:38:55Z</time>
      </trkpt>
      <trkpt lat="43.29934" lon="5.71537">
        <ele>597.4</ele>
        <time>2021-03-31T10:39:01Z</time>
      </trkpt>
      <trkpt lat="43.29939" lon="5.71539">
        <ele>598.2</ele>
        <time>2021-03-31T10:39:07Z</time>
      </trkpt>
      <trkpt lat="43.29946" lon="5.7154">
        <ele>599.3</ele>
        <time>2021-03-31T10:39:13Z</time>
      </trkpt>
      <trkpt lat="43.29952" lon="5.71542">
        <ele>600.3</ele>
        <time>2021-03-31T10:39:19Z</time>
      </trkpt>
      <trkpt lat="43.29958" lon="5.71544">
        <ele>601.1</ele>
        <time>2021-03-31T10:39:25Z</time>
      </trkpt>
      <trkpt lat="43.29962" lon="5.71545">
        <ele>601.7</ele>
        <time>2021-03-31T10:39:31Z</time>
      </trkpt>
      <trkpt lat="43.29968" lon="5.71546">
        <ele>602.5</ele>
        <time>2021-03-31T10:39:37Z</time>
      </trkpt>
      <trkpt lat="43.29972" lon="5.71547">
        <ele>603.2</ele>
        <time>2021-03-31T10:39:41Z</time>
      </trkpt>
      <trkpt lat="43.29978" lon="5.71548">
        <ele>604</ele>
        <time>2021-03-31T10:39:47Z</time>
      </trkpt>
      <trkpt lat="43.29983" lon="5.71548">
        <ele>604.9</ele>
        <time>2021-03-31T10:39:53Z</time>
      </trkpt>
      <trkpt lat="43.29988" lon="5.71547">
        <ele>605.7</ele>
        <time>2021-03-31T10:39:59Z</time>
      </trkpt>
      <trkpt lat="43.29993" lon="5.71545">
        <ele>606.7</ele>
        <time>2021-03-31T10:40:05Z</time>
      </trkpt>
      <trkpt lat="43.29999" lon="5.71542">
        <ele>607.8</ele>
        <time>2021-03-31T10:40:11Z</time>
      </trkpt>
      <trkpt lat="43.30004" lon="5.71538">
        <ele>608.6</ele>
        <time>2021-03-31T10:40:17Z</time>
      </trkpt>
      <trkpt lat="43.30009" lon="5.71536">
        <ele>609.3</ele>
        <time>2021-03-31T10:40:23Z</time>
      </trkpt>
      <trkpt lat="43.30015" lon="5.71534">
        <ele>609.9</ele>
        <time>2021-03-31T10:40:29Z</time>
      </trkpt>
      <trkpt lat="43.3002" lon="5.71536">
        <ele>610.2</ele>
        <time>2021-03-31T10:40:35Z</time>
      </trkpt>
      <trkpt lat="43.30026" lon="5.71538">
        <ele>610.6</ele>
        <time>2021-03-31T10:40:41Z</time>
      </trkpt>
      <trkpt lat="43.30025" lon="5.71546">
        <ele>609.9</ele>
        <time>2021-03-31T10:43:43Z</time>
      </trkpt>
      <trkpt lat="43.30026" lon="5.71553">
        <ele>609.5</ele>
        <time>2021-03-31T10:43:49Z</time>
      </trkpt>
      <trkpt lat="43.30028" lon="5.71559">
        <ele>609.2</ele>
        <time>2021-03-31T10:43:55Z</time>
      </trkpt>
      <trkpt lat="43.30032" lon="5.71566">
        <ele>609.1</ele>
        <time>2021-03-31T10:44:01Z</time>
      </trkpt>
      <trkpt lat="43.30036" lon="5.71572">
        <ele>608.9</ele>
        <time>2021-03-31T10:44:07Z</time>
      </trkpt>
      <trkpt lat="43.3004" lon="5.71579">
        <ele>608.7</ele>
        <time>2021-03-31T10:44:13Z</time>
      </trkpt>
      <trkpt lat="43.30043" lon="5.71586">
        <ele>608.1</ele>
        <time>2021-03-31T10:44:19Z</time>
      </trkpt>
      <trkpt lat="43.30046" lon="5.71592">
        <ele>607.5</ele>
        <time>2021-03-31T10:44:23Z</time>
      </trkpt>
      <trkpt lat="43.30049" lon="5.71596">
        <ele>607</ele>
        <time>2021-03-31T10:44:27Z</time>
      </trkpt>
      <trkpt lat="43.30052" lon="5.71604">
        <ele>605.9</ele>
        <time>2021-03-31T10:44:33Z</time>
      </trkpt>
      <trkpt lat="43.30055" lon="5.71613">
        <ele>604.8</ele>
        <time>2021-03-31T10:44:39Z</time>
      </trkpt>
      <trkpt lat="43.30056" lon="5.7162">
        <ele>603.7</ele>
        <time>2021-03-31T10:44:45Z</time>
      </trkpt>
      <trkpt lat="43.30056" lon="5.71628">
        <ele>602.4</ele>
        <time>2021-03-31T10:44:51Z</time>
      </trkpt>
      <trkpt lat="43.30056" lon="5.71636">
        <ele>601</ele>
        <time>2021-03-31T10:44:57Z</time>
      </trkpt>
      <trkpt lat="43.30057" lon="5.71644">
        <ele>599.9</ele>
        <time>2021-03-31T10:45:03Z</time>
      </trkpt>
      <trkpt lat="43.3006" lon="5.71652">
        <ele>598.9</ele>
        <time>2021-03-31T10:45:09Z</time>
      </trkpt>
      <trkpt lat="43.30064" lon="5.71656">
        <ele>598.5</ele>
        <time>2021-03-31T10:45:13Z</time>
      </trkpt>
      <trkpt lat="43.30069" lon="5.71661">
        <ele>598.4</ele>
        <time>2021-03-31T10:45:19Z</time>
      </trkpt>
      <trkpt lat="43.30076" lon="5.71663">
        <ele>598.8</ele>
        <time>2021-03-31T10:45:25Z</time>
      </trkpt>
      <trkpt lat="43.3008" lon="5.71664">
        <ele>599.2</ele>
        <time>2021-03-31T10:45:29Z</time>
      </trkpt>
      <trkpt lat="43.30085" lon="5.71664">
        <ele>599.6</ele>
        <time>2021-03-31T10:45:33Z</time>
      </trkpt>
      <trkpt lat="43.3009" lon="5.71664">
        <ele>600.3</ele>
        <time>2021-03-31T10:45:37Z</time>
      </trkpt>
      <trkpt lat="43.30096" lon="5.71664">
        <ele>600.9</ele>
        <time>2021-03-31T10:45:41Z</time>
      </trkpt>
      <trkpt lat="43.301" lon="5.71663">
        <ele>601.6</ele>
        <time>2021-03-31T10:45:45Z</time>
      </trkpt>
      <trkpt lat="43.30106" lon="5.71662">
        <ele>602.3</ele>
        <time>2021-03-31T10:45:51Z</time>
      </trkpt>
      <trkpt lat="43.30111" lon="5.71661">
        <ele>603</ele>
        <time>2021-03-31T10:45:57Z</time>
      </trkpt>
      <trkpt lat="43.30117" lon="5.71656">
        <ele>604.2</ele>
        <time>2021-03-31T10:46:03Z</time>
      </trkpt>
      <trkpt lat="43.30122" lon="5.71653">
        <ele>605.1</ele>
        <time>2021-03-31T10:46:09Z</time>
      </trkpt>
      <trkpt lat="43.30129" lon="5.71649">
        <ele>606.1</ele>
        <time>2021-03-31T10:46:15Z</time>
      </trkpt>
      <trkpt lat="43.30135" lon="5.71645">
        <ele>606.9</ele>
        <time>2021-03-31T10:46:21Z</time>
      </trkpt>
      <trkpt lat="43.30141" lon="5.71643">
        <ele>607.6</ele>
        <time>2021-03-31T10:46:27Z</time>
      </trkpt>
      <trkpt lat="43.30146" lon="5.71646">
        <ele>607.8</ele>
        <time>2021-03-31T10:46:33Z</time>
      </trkpt>
      <trkpt lat="43.30146" lon="5.71653">
        <ele>607.4</ele>
        <time>2021-03-31T10:46:39Z</time>
      </trkpt>
      <trkpt lat="43.30144" lon="5.71662">
        <ele>606.6</ele>
        <time>2021-03-31T10:46:45Z</time>
      </trkpt>
      <trkpt lat="43.30142" lon="5.71668">
        <ele>606.1</ele>
        <time>2021-03-31T10:46:49Z</time>
      </trkpt>
      <trkpt lat="43.3014" lon="5.71673">
        <ele>606</ele>
        <time>2021-03-31T10:46:53Z</time>
      </trkpt>
      <trkpt lat="43.30137" lon="5.71678">
        <ele>605.8</ele>
        <time>2021-03-31T10:46:57Z</time>
      </trkpt>
      <trkpt lat="43.30134" lon="5.71684">
        <ele>605.6</ele>
        <time>2021-03-31T10:47:01Z</time>
      </trkpt>
      <trkpt lat="43.30131" lon="5.71689">
        <ele>605.2</ele>
        <time>2021-03-31T10:47:05Z</time>
      </trkpt>
      <trkpt lat="43.30127" lon="5.71694">
        <ele>604.7</ele>
        <time>2021-03-31T10:47:09Z</time>
      </trkpt>
      <trkpt lat="43.30123" lon="5.71699">
        <ele>604.1</ele>
        <time>2021-03-31T10:47:13Z</time>
      </trkpt>
      <trkpt lat="43.3012" lon="5.71704">
        <ele>603.5</ele>
        <time>2021-03-31T10:47:17Z</time>
      </trkpt>
      <trkpt lat="43.30118" lon="5.7171">
        <ele>603.1</ele>
        <time>2021-03-31T10:47:21Z</time>
      </trkpt>
      <trkpt lat="43.30116" lon="5.71717">
        <ele>602.7</ele>
        <time>2021-03-31T10:47:25Z</time>
      </trkpt>
      <trkpt lat="43.30115" lon="5.71722">
        <ele>602.3</ele>
        <time>2021-03-31T10:47:29Z</time>
      </trkpt>
      <trkpt lat="43.30112" lon="5.71728">
        <ele>601.7</ele>
        <time>2021-03-31T10:47:33Z</time>
      </trkpt>
      <trkpt lat="43.30108" lon="5.71735">
        <ele>600.4</ele>
        <time>2021-03-31T10:47:39Z</time>
      </trkpt>
      <trkpt lat="43.30103" lon="5.71741">
        <ele>598.9</ele>
        <time>2021-03-31T10:47:45Z</time>
      </trkpt>
      <trkpt lat="43.30099" lon="5.71746">
        <ele>597.6</ele>
        <time>2021-03-31T10:47:49Z</time>
      </trkpt>
      <trkpt lat="43.30095" lon="5.71752">
        <ele>596.5</ele>
        <time>2021-03-31T10:47:53Z</time>
      </trkpt>
      <trkpt lat="43.30092" lon="5.71758">
        <ele>595.9</ele>
        <time>2021-03-31T10:47:57Z</time>
      </trkpt>
      <trkpt lat="43.30089" lon="5.71764">
        <ele>595.5</ele>
        <time>2021-03-31T10:48:01Z</time>
      </trkpt>
      <trkpt lat="43.30087" lon="5.7177">
        <ele>595.2</ele>
        <time>2021-03-31T10:48:05Z</time>
      </trkpt>
      <trkpt lat="43.30086" lon="5.71777">
        <ele>595.2</ele>
        <time>2021-03-31T10:48:09Z</time>
      </trkpt>
      <trkpt lat="43.30084" lon="5.71784">
        <ele>595.3</ele>
        <time>2021-03-31T10:48:13Z</time>
      </trkpt>
      <trkpt lat="43.30084" lon="5.71792">
        <ele>595.7</ele>
        <time>2021-03-31T10:48:17Z</time>
      </trkpt>
      <trkpt lat="43.30083" lon="5.71799">
        <ele>595.9</ele>
        <time>2021-03-31T10:48:21Z</time>
      </trkpt>
      <trkpt lat="43.30083" lon="5.71806">
        <ele>596.2</ele>
        <time>2021-03-31T10:48:25Z</time>
      </trkpt>
      <trkpt lat="43.30082" lon="5.71814">
        <ele>596.3</ele>
        <time>2021-03-31T10:48:29Z</time>
      </trkpt>
      <trkpt lat="43.30081" lon="5.71821">
        <ele>596.5</ele>
        <time>2021-03-31T10:48:33Z</time>
      </trkpt>
      <trkpt lat="43.3008" lon="5.71827">
        <ele>596.7</ele>
        <time>2021-03-31T10:48:37Z</time>
      </trkpt>
      <trkpt lat="43.3008" lon="5.71834">
        <ele>597</ele>
        <time>2021-03-31T10:48:41Z</time>
      </trkpt>
      <trkpt lat="43.30081" lon="5.71841">
        <ele>597.3</ele>
        <time>2021-03-31T10:48:45Z</time>
      </trkpt>
      <trkpt lat="43.30083" lon="5.71847">
        <ele>598</ele>
        <time>2021-03-31T10:48:49Z</time>
      </trkpt>
      <trkpt lat="43.30085" lon="5.71854">
        <ele>598.7</ele>
        <time>2021-03-31T10:48:53Z</time>
      </trkpt>
      <trkpt lat="43.30088" lon="5.7186">
        <ele>599.3</ele>
        <time>2021-03-31T10:48:57Z</time>
      </trkpt>
      <trkpt lat="43.30091" lon="5.71866">
        <ele>599.9</ele>
        <time>2021-03-31T10:49:01Z</time>
      </trkpt>
      <trkpt lat="43.30093" lon="5.71873">
        <ele>600.5</ele>
        <time>2021-03-31T10:49:05Z</time>
      </trkpt>
      <trkpt lat="43.30095" lon="5.7188">
        <ele>600.9</ele>
        <time>2021-03-31T10:49:09Z</time>
      </trkpt>
      <trkpt lat="43.30096" lon="5.71886">
        <ele>601.1</ele>
        <time>2021-03-31T10:49:13Z</time>
      </trkpt>
      <trkpt lat="43.30096" lon="5.71893">
        <ele>601.3</ele>
        <time>2021-03-31T10:49:17Z</time>
      </trkpt>
      <trkpt lat="43.30097" lon="5.719">
        <ele>601.5</ele>
        <time>2021-03-31T10:49:21Z</time>
      </trkpt>
      <trkpt lat="43.30097" lon="5.71907">
        <ele>601.5</ele>
        <time>2021-03-31T10:49:25Z</time>
      </trkpt>
      <trkpt lat="43.30096" lon="5.71914">
        <ele>601.3</ele>
        <time>2021-03-31T10:49:29Z</time>
      </trkpt>
      <trkpt lat="43.30094" lon="5.71921">
        <ele>601</ele>
        <time>2021-03-31T10:49:33Z</time>
      </trkpt>
      <trkpt lat="43.30092" lon="5.71928">
        <ele>600.6</ele>
        <time>2021-03-31T10:49:37Z</time>
      </trkpt>
      <trkpt lat="43.30089" lon="5.71933">
        <ele>599.9</ele>
        <time>2021-03-31T10:49:41Z</time>
      </trkpt>
      <trkpt lat="43.30085" lon="5.71939">
        <ele>599.3</ele>
        <time>2021-03-31T10:49:45Z</time>
      </trkpt>
      <trkpt lat="43.30082" lon="5.71944">
        <ele>598.6</ele>
        <time>2021-03-31T10:49:49Z</time>
      </trkpt>
      <trkpt lat="43.30078" lon="5.71952">
        <ele>597.7</ele>
        <time>2021-03-31T10:49:55Z</time>
      </trkpt>
      <trkpt lat="43.30076" lon="5.71958">
        <ele>597.3</ele>
        <time>2021-03-31T10:49:59Z</time>
      </trkpt>
      <trkpt lat="43.30075" lon="5.71965">
        <ele>597.1</ele>
        <time>2021-03-31T10:50:03Z</time>
      </trkpt>
      <trkpt lat="43.30075" lon="5.71972">
        <ele>597</ele>
        <time>2021-03-31T10:50:07Z</time>
      </trkpt>
      <trkpt lat="43.30075" lon="5.7198">
        <ele>597.1</ele>
        <time>2021-03-31T10:50:11Z</time>
      </trkpt>
      <trkpt lat="43.30075" lon="5.71986">
        <ele>597.3</ele>
        <time>2021-03-31T10:50:15Z</time>
      </trkpt>
      <trkpt lat="43.30076" lon="5.71993">
        <ele>597.5</ele>
        <time>2021-03-31T10:50:19Z</time>
      </trkpt>
      <trkpt lat="43.30077" lon="5.71999">
        <ele>597.8</ele>
        <time>2021-03-31T08:39:21Z</time>
      </trkpt>
      <trkpt lat="43.30079" lon="5.72006">
        <ele>597.4</ele>
        <time>2021-03-31T10:50:27Z</time>
      </trkpt>
      <trkpt lat="43.30081" lon="5.72012">
        <ele>597</ele>
        <time>2021-03-31T10:50:39Z</time>
      </trkpt>
      <trkpt lat="43.30085" lon="5.72017">
        <ele>596.9</ele>
        <time>2021-03-31T10:50:45Z</time>
      </trkpt>
      <trkpt lat="43.30089" lon="5.72022">
        <ele>596.7</ele>
        <time>2021-03-31T10:50:49Z</time>
      </trkpt>
      <trkpt lat="43.30093" lon="5.72028">
        <ele>596.5</ele>
        <time>2021-03-31T10:50:55Z</time>
      </trkpt>
      <trkpt lat="43.30097" lon="5.72034">
        <ele>596.2</ele>
        <time>2021-03-31T10:51:01Z</time>
      </trkpt>
      <trkpt lat="43.30102" lon="5.72039">
        <ele>596</ele>
        <time>2021-03-31T10:51:07Z</time>
      </trkpt>
      <trkpt lat="43.30106" lon="5.72044">
        <ele>595.8</ele>
        <time>2021-03-31T10:51:11Z</time>
      </trkpt>
      <trkpt lat="43.30109" lon="5.72048">
        <ele>595.5</ele>
        <time>2021-03-31T10:51:15Z</time>
      </trkpt>
      <trkpt lat="43.30115" lon="5.72053">
        <ele>595.6</ele>
        <time>2021-03-31T10:51:21Z</time>
      </trkpt>
      <trkpt lat="43.3012" lon="5.72059">
        <ele>595.3</ele>
        <time>2021-03-31T10:51:27Z</time>
      </trkpt>
      <trkpt lat="43.30124" lon="5.72062">
        <ele>595.3</ele>
        <time>2021-03-31T10:51:31Z</time>
      </trkpt>
      <trkpt lat="43.30128" lon="5.72065">
        <ele>595.3</ele>
        <time>2021-03-31T10:51:35Z</time>
      </trkpt>
      <trkpt lat="43.30133" lon="5.72067">
        <ele>595.6</ele>
        <time>2021-03-31T10:51:39Z</time>
      </trkpt>
      <trkpt lat="43.30137" lon="5.72071">
        <ele>595.6</ele>
        <time>2021-03-31T10:51:43Z</time>
      </trkpt>
      <trkpt lat="43.30141" lon="5.72075">
        <ele>595.5</ele>
        <time>2021-03-31T10:51:47Z</time>
      </trkpt>
      <trkpt lat="43.30145" lon="5.72078">
        <ele>595.4</ele>
        <time>2021-03-31T10:51:51Z</time>
      </trkpt>
      <trkpt lat="43.3015" lon="5.72082">
        <ele>595.3</ele>
        <time>2021-03-31T10:51:55Z</time>
      </trkpt>
      <trkpt lat="43.30154" lon="5.72086">
        <ele>595.2</ele>
        <time>2021-03-31T10:51:59Z</time>
      </trkpt>
      <trkpt lat="43.30158" lon="5.7209">
        <ele>594.9</ele>
        <time>2021-03-31T10:52:03Z</time>
      </trkpt>
      <trkpt lat="43.30164" lon="5.72094">
        <ele>594.8</ele>
        <time>2021-03-31T10:52:09Z</time>
      </trkpt>
      <trkpt lat="43.30168" lon="5.72097">
        <ele>594.6</ele>
        <time>2021-03-31T10:52:13Z</time>
      </trkpt>
      <trkpt lat="43.30172" lon="5.721">
        <ele>594.2</ele>
        <time>2021-03-31T10:52:17Z</time>
      </trkpt>
      <trkpt lat="43.30178" lon="5.72102">
        <ele>594</ele>
        <time>2021-03-31T10:52:21Z</time>
      </trkpt>
      <trkpt lat="43.30183" lon="5.72103">
        <ele>593.9</ele>
        <time>2021-03-31T10:52:25Z</time>
      </trkpt>
      <trkpt lat="43.3019" lon="5.72103">
        <ele>594</ele>
        <time>2021-03-31T10:52:31Z</time>
      </trkpt>
      <trkpt lat="43.30196" lon="5.72103">
        <ele>594.1</ele>
        <time>2021-03-31T10:52:37Z</time>
      </trkpt>
      <trkpt lat="43.30203" lon="5.72102">
        <ele>594.2</ele>
        <time>2021-03-31T10:52:43Z</time>
      </trkpt>
      <trkpt lat="43.30209" lon="5.721">
        <ele>594.5</ele>
        <time>2021-03-31T10:52:49Z</time>
      </trkpt>
      <trkpt lat="43.30214" lon="5.721">
        <ele>594.6</ele>
        <time>2021-03-31T10:52:53Z</time>
      </trkpt>
      <trkpt lat="43.30219" lon="5.72099">
        <ele>594.7</ele>
        <time>2021-03-31T10:52:57Z</time>
      </trkpt>
      <trkpt lat="43.30225" lon="5.72099">
        <ele>594.7</ele>
        <time>2021-03-31T10:53:03Z</time>
      </trkpt>
      <trkpt lat="43.30232" lon="5.72098">
        <ele>594.8</ele>
        <time>2021-03-31T10:53:09Z</time>
      </trkpt>
      <trkpt lat="43.30237" lon="5.72098">
        <ele>594.8</ele>
        <time>2021-03-31T10:53:13Z</time>
      </trkpt>
      <trkpt lat="43.30243" lon="5.72097">
        <ele>594.8</ele>
        <time>2021-03-31T10:53:19Z</time>
      </trkpt>
      <trkpt lat="43.30248" lon="5.72096">
        <ele>594.9</ele>
        <time>2021-03-31T10:53:23Z</time>
      </trkpt>
      <trkpt lat="43.30254" lon="5.72096">
        <ele>595</ele>
        <time>2021-03-31T10:53:27Z</time>
      </trkpt>
      <trkpt lat="43.30258" lon="5.72095">
        <ele>595.2</ele>
        <time>2021-03-31T10:53:31Z</time>
      </trkpt>
      <trkpt lat="43.30263" lon="5.72095">
        <ele>595.4</ele>
        <time>2021-03-31T10:53:35Z</time>
      </trkpt>
      <trkpt lat="43.30269" lon="5.72094">
        <ele>595.7</ele>
        <time>2021-03-31T10:53:41Z</time>
      </trkpt>
      <trkpt lat="43.30274" lon="5.72094">
        <ele>595.9</ele>
        <time>2021-03-31T10:53:45Z</time>
      </trkpt>
      <trkpt lat="43.30279" lon="5.72095">
        <ele>596.1</ele>
        <time>2021-03-31T10:53:49Z</time>
      </trkpt>
      <trkpt lat="43.30283" lon="5.72097">
        <ele>596.4</ele>
        <time>2021-03-31T10:53:53Z</time>
      </trkpt>
      <trkpt lat="43.30288" lon="5.72098">
        <ele>596.6</ele>
        <time>2021-03-31T10:53:57Z</time>
      </trkpt>
      <trkpt lat="43.30293" lon="5.721">
        <ele>596.9</ele>
        <time>2021-03-31T10:54:01Z</time>
      </trkpt>
      <trkpt lat="43.30298" lon="5.72101">
        <ele>597.1</ele>
        <time>2021-03-31T10:54:05Z</time>
      </trkpt>
      <trkpt lat="43.30303" lon="5.72106">
        <ele>597.5</ele>
        <time>2021-03-31T10:54:11Z</time>
      </trkpt>
      <trkpt lat="43.30304" lon="5.72114">
        <ele>597.8</ele>
        <time>2021-03-31T10:54:17Z</time>
      </trkpt>
      <trkpt lat="43.30298" lon="5.72117">
        <ele>597.5</ele>
        <time>2021-03-31T10:54:23Z</time>
      </trkpt>
      <trkpt lat="43.30292" lon="5.72118">
        <ele>597.2</ele>
        <time>2021-03-31T10:54:27Z</time>
      </trkpt>
      <trkpt lat="43.30287" lon="5.72119">
        <ele>596.9</ele>
        <time>2021-03-31T10:54:31Z</time>
      </trkpt>
      <trkpt lat="43.30282" lon="5.7212">
        <ele>596.6</ele>
        <time>2021-03-31T10:54:35Z</time>
      </trkpt>
      <trkpt lat="43.30278" lon="5.72121">
        <ele>596.3</ele>
        <time>2021-03-31T10:54:39Z</time>
      </trkpt>
      <trkpt lat="43.30273" lon="5.72123">
        <ele>596</ele>
        <time>2021-03-31T10:54:43Z</time>
      </trkpt>
      <trkpt lat="43.30268" lon="5.72126">
        <ele>595.7</ele>
        <time>2021-03-31T10:54:47Z</time>
      </trkpt>
      <trkpt lat="43.30264" lon="5.72129">
        <ele>595.4</ele>
        <time>2021-03-31T10:54:51Z</time>
      </trkpt>
      <trkpt lat="43.3026" lon="5.72132">
        <ele>595.1</ele>
        <time>2021-03-31T10:54:55Z</time>
      </trkpt>
      <trkpt lat="43.30256" lon="5.72136">
        <ele>594.8</ele>
        <time>2021-03-31T10:54:59Z</time>
      </trkpt>
      <trkpt lat="43.30253" lon="5.72141">
        <ele>594.5</ele>
        <time>2021-03-31T10:55:03Z</time>
      </trkpt>
      <trkpt lat="43.30248" lon="5.72147">
        <ele>594.1</ele>
        <time>2021-03-31T10:55:09Z</time>
      </trkpt>
      <trkpt lat="43.30244" lon="5.72155">
        <ele>593.5</ele>
        <time>2021-03-31T10:55:15Z</time>
      </trkpt>
      <trkpt lat="43.30241" lon="5.7216">
        <ele>593</ele>
        <time>2021-03-31T10:55:19Z</time>
      </trkpt>
      <trkpt lat="43.30238" lon="5.72168">
        <ele>592.6</ele>
        <time>2021-03-31T10:55:25Z</time>
      </trkpt>
      <trkpt lat="43.30235" lon="5.72174">
        <ele>592.9</ele>
        <time>2021-03-31T10:55:29Z</time>
      </trkpt>
      <trkpt lat="43.30232" lon="5.72179">
        <ele>593.1</ele>
        <time>2021-03-31T10:55:33Z</time>
      </trkpt>
      <trkpt lat="43.30229" lon="5.72184">
        <ele>593.4</ele>
        <time>2021-03-31T10:55:37Z</time>
      </trkpt>
      <trkpt lat="43.30226" lon="5.7219">
        <ele>593.6</ele>
        <time>2021-03-31T10:55:41Z</time>
      </trkpt>
      <trkpt lat="43.30223" lon="5.72195">
        <ele>593.9</ele>
        <time>2021-03-31T10:55:45Z</time>
      </trkpt>
      <trkpt lat="43.3022" lon="5.722">
        <ele>593.9</ele>
        <time>2021-03-31T10:55:49Z</time>
      </trkpt>
      <trkpt lat="43.30217" lon="5.72205">
        <ele>594</ele>
        <time>2021-03-31T10:55:53Z</time>
      </trkpt>
      <trkpt lat="43.30212" lon="5.72212">
        <ele>594</ele>
        <time>2021-03-31T10:55:59Z</time>
      </trkpt>
      <trkpt lat="43.30209" lon="5.72217">
        <ele>593.9</ele>
        <time>2021-03-31T10:56:03Z</time>
      </trkpt>
      <trkpt lat="43.30205" lon="5.72221">
        <ele>593.7</ele>
        <time>2021-03-31T10:56:07Z</time>
      </trkpt>
      <trkpt lat="43.30202" lon="5.72226">
        <ele>593.6</ele>
        <time>2021-03-31T10:56:11Z</time>
      </trkpt>
      <trkpt lat="43.30198" lon="5.72231">
        <ele>593.6</ele>
        <time>2021-03-31T10:56:15Z</time>
      </trkpt>
      <trkpt lat="43.30195" lon="5.72235">
        <ele>593.3</ele>
        <time>2021-03-31T10:56:19Z</time>
      </trkpt>
      <trkpt lat="43.30191" lon="5.7224">
        <ele>593</ele>
        <time>2021-03-31T10:56:23Z</time>
      </trkpt>
      <trkpt lat="43.30188" lon="5.72244">
        <ele>592.8</ele>
        <time>2021-03-31T10:56:27Z</time>
      </trkpt>
      <trkpt lat="43.30185" lon="5.72249">
        <ele>592.5</ele>
        <time>2021-03-31T10:56:31Z</time>
      </trkpt>
      <trkpt lat="43.30181" lon="5.72252">
        <ele>592.2</ele>
        <time>2021-03-31T10:56:35Z</time>
      </trkpt>
      <trkpt lat="43.30177" lon="5.72256">
        <ele>591.7</ele>
        <time>2021-03-31T10:56:39Z</time>
      </trkpt>
      <trkpt lat="43.30172" lon="5.72259">
        <ele>591.2</ele>
        <time>2021-03-31T10:56:43Z</time>
      </trkpt>
      <trkpt lat="43.30166" lon="5.72264">
        <ele>590.5</ele>
        <time>2021-03-31T10:56:49Z</time>
      </trkpt>
      <trkpt lat="43.30162" lon="5.72267">
        <ele>590.1</ele>
        <time>2021-03-31T10:56:53Z</time>
      </trkpt>
      <trkpt lat="43.30157" lon="5.72271">
        <ele>589.7</ele>
        <time>2021-03-31T10:56:57Z</time>
      </trkpt>
      <trkpt lat="43.30154" lon="5.72275">
        <ele>589.5</ele>
        <time>2021-03-31T10:57:01Z</time>
      </trkpt>
      <trkpt lat="43.3015" lon="5.72279">
        <ele>589.3</ele>
        <time>2021-03-31T10:57:05Z</time>
      </trkpt>
      <trkpt lat="43.30146" lon="5.72283">
        <ele>589.2</ele>
        <time>2021-03-31T10:57:09Z</time>
      </trkpt>
      <trkpt lat="43.3014" lon="5.72288">
        <ele>588.7</ele>
        <time>2021-03-31T10:57:15Z</time>
      </trkpt>
      <trkpt lat="43.30134" lon="5.72292">
        <ele>588</ele>
        <time>2021-03-31T10:57:21Z</time>
      </trkpt>
      <trkpt lat="43.3013" lon="5.72295">
        <ele>587.5</ele>
        <time>2021-03-31T10:57:25Z</time>
      </trkpt>
      <trkpt lat="43.30124" lon="5.72297">
        <ele>586.7</ele>
        <time>2021-03-31T10:57:31Z</time>
      </trkpt>
      <trkpt lat="43.30117" lon="5.72299">
        <ele>585.7</ele>
        <time>2021-03-31T10:57:37Z</time>
      </trkpt>
      <trkpt lat="43.30113" lon="5.72301">
        <ele>585.1</ele>
        <time>2021-03-31T10:57:41Z</time>
      </trkpt>
      <trkpt lat="43.30107" lon="5.72303">
        <ele>584.3</ele>
        <time>2021-03-31T10:57:47Z</time>
      </trkpt>
      <trkpt lat="43.30101" lon="5.72306">
        <ele>583.6</ele>
        <time>2021-03-31T10:57:53Z</time>
      </trkpt>
      <trkpt lat="43.30096" lon="5.72308">
        <ele>583</ele>
        <time>2021-03-31T10:57:57Z</time>
      </trkpt>
      <trkpt lat="43.30091" lon="5.72309">
        <ele>582.3</ele>
        <time>2021-03-31T10:58:01Z</time>
      </trkpt>
      <trkpt lat="43.30086" lon="5.72312">
        <ele>581.7</ele>
        <time>2021-03-31T10:58:05Z</time>
      </trkpt>
      <trkpt lat="43.30082" lon="5.72315">
        <ele>581.3</ele>
        <time>2021-03-31T10:58:09Z</time>
      </trkpt>
      <trkpt lat="43.30079" lon="5.72321">
        <ele>581.4</ele>
        <time>2021-03-31T10:58:13Z</time>
      </trkpt>
      <trkpt lat="43.30077" lon="5.72328">
        <ele>582.1</ele>
        <time>2021-03-31T10:58:17Z</time>
      </trkpt>
      <trkpt lat="43.30078" lon="5.72337">
        <ele>582.7</ele>
        <time>2021-03-31T10:58:21Z</time>
      </trkpt>
      <trkpt lat="43.30079" lon="5.72344">
        <ele>582.6</ele>
        <time>2021-03-31T10:58:25Z</time>
      </trkpt>
      <trkpt lat="43.3008" lon="5.72351">
        <ele>582.6</ele>
        <time>2021-03-31T10:58:29Z</time>
      </trkpt>
      <trkpt lat="43.30082" lon="5.72358">
        <ele>582.6</ele>
        <time>2021-03-31T10:58:33Z</time>
      </trkpt>
      <trkpt lat="43.30085" lon="5.72364">
        <ele>582.7</ele>
        <time>2021-03-31T10:58:37Z</time>
      </trkpt>
      <trkpt lat="43.30087" lon="5.7237">
        <ele>582.8</ele>
        <time>2021-03-31T10:58:41Z</time>
      </trkpt>
      <trkpt lat="43.30089" lon="5.72376">
        <ele>582.9</ele>
        <time>2021-03-31T10:58:45Z</time>
      </trkpt>
      <trkpt lat="43.30091" lon="5.72382">
        <ele>582.9</ele>
        <time>2021-03-31T10:58:49Z</time>
      </trkpt>
      <trkpt lat="43.30093" lon="5.72388">
        <ele>583</ele>
        <time>2021-03-31T10:58:53Z</time>
      </trkpt>
      <trkpt lat="43.30096" lon="5.72394">
        <ele>583.1</ele>
        <time>2021-03-31T10:58:57Z</time>
      </trkpt>
      <trkpt lat="43.30098" lon="5.724">
        <ele>583.2</ele>
        <time>2021-03-31T10:59:01Z</time>
      </trkpt>
      <trkpt lat="43.30101" lon="5.72405">
        <ele>583.3</ele>
        <time>2021-03-31T10:59:05Z</time>
      </trkpt>
      <trkpt lat="43.30104" lon="5.72409">
        <ele>583.7</ele>
        <time>2021-03-31T10:59:09Z</time>
      </trkpt>
      <trkpt lat="43.30108" lon="5.72413">
        <ele>584</ele>
        <time>2021-03-31T10:59:13Z</time>
      </trkpt>
      <trkpt lat="43.30113" lon="5.72418">
        <ele>584.5</ele>
        <time>2021-03-31T10:59:19Z</time>
      </trkpt>
      <trkpt lat="43.30118" lon="5.72421">
        <ele>584.8</ele>
        <time>2021-03-31T10:59:23Z</time>
      </trkpt>
      <trkpt lat="43.30122" lon="5.72424">
        <ele>585</ele>
        <time>2021-03-31T10:59:27Z</time>
      </trkpt>
      <trkpt lat="43.30126" lon="5.72427">
        <ele>585.5</ele>
        <time>2021-03-31T10:59:31Z</time>
      </trkpt>
      <trkpt lat="43.3013" lon="5.7243">
        <ele>585.6</ele>
        <time>2021-03-31T10:59:35Z</time>
      </trkpt>
      <trkpt lat="43.30135" lon="5.72434">
        <ele>585.9</ele>
        <time>2021-03-31T10:59:39Z</time>
      </trkpt>
      <trkpt lat="43.30139" lon="5.72436">
        <ele>586.2</ele>
        <time>2021-03-31T10:59:43Z</time>
      </trkpt>
      <trkpt lat="43.30143" lon="5.7244">
        <ele>586.5</ele>
        <time>2021-03-31T10:59:47Z</time>
      </trkpt>
      <trkpt lat="43.30149" lon="5.72444">
        <ele>587</ele>
        <time>2021-03-31T10:59:53Z</time>
      </trkpt>
      <trkpt lat="43.30155" lon="5.72448">
        <ele>587.3</ele>
        <time>2021-03-31T10:59:59Z</time>
      </trkpt>
      <trkpt lat="43.30159" lon="5.72451">
        <ele>587.6</ele>
        <time>2021-03-31T11:00:03Z</time>
      </trkpt>
      <trkpt lat="43.30163" lon="5.72454">
        <ele>588</ele>
        <time>2021-03-31T11:00:07Z</time>
      </trkpt>
      <trkpt lat="43.30169" lon="5.72458">
        <ele>588.3</ele>
        <time>2021-03-31T11:00:13Z</time>
      </trkpt>
      <trkpt lat="43.30175" lon="5.72461">
        <ele>588.7</ele>
        <time>2021-03-31T11:00:19Z</time>
      </trkpt>
      <trkpt lat="43.30179" lon="5.72465">
        <ele>588.9</ele>
        <time>2021-03-31T11:00:23Z</time>
      </trkpt>
      <trkpt lat="43.30183" lon="5.72469">
        <ele>589</ele>
        <time>2021-03-31T11:00:27Z</time>
      </trkpt>
      <trkpt lat="43.30187" lon="5.72472">
        <ele>589.1</ele>
        <time>2021-03-31T11:00:31Z</time>
      </trkpt>
      <trkpt lat="43.30191" lon="5.72476">
        <ele>589.3</ele>
        <time>2021-03-31T11:00:35Z</time>
      </trkpt>
      <trkpt lat="43.30195" lon="5.7248">
        <ele>589.3</ele>
        <time>2021-03-31T11:00:39Z</time>
      </trkpt>
      <trkpt lat="43.302" lon="5.72486">
        <ele>589.5</ele>
        <time>2021-03-31T11:00:45Z</time>
      </trkpt>
      <trkpt lat="43.30204" lon="5.7249">
        <ele>589.5</ele>
        <time>2021-03-31T11:00:49Z</time>
      </trkpt>
      <trkpt lat="43.3021" lon="5.72496">
        <ele>589.7</ele>
        <time>2021-03-31T11:00:55Z</time>
      </trkpt>
      <trkpt lat="43.30214" lon="5.725">
        <ele>589.8</ele>
        <time>2021-03-31T11:00:59Z</time>
      </trkpt>
      <trkpt lat="43.30217" lon="5.72504">
        <ele>590.3</ele>
        <time>2021-03-31T11:01:03Z</time>
      </trkpt>
      <trkpt lat="43.30222" lon="5.72508">
        <ele>590.9</ele>
        <time>2021-03-31T11:01:07Z</time>
      </trkpt>
      <trkpt lat="43.30226" lon="5.72511">
        <ele>591.4</ele>
        <time>2021-03-31T11:01:11Z</time>
      </trkpt>
      <trkpt lat="43.3023" lon="5.72516">
        <ele>592.1</ele>
        <time>2021-03-31T11:01:17Z</time>
      </trkpt>
      <trkpt lat="43.30234" lon="5.7252">
        <ele>592.6</ele>
        <time>2021-03-31T11:01:21Z</time>
      </trkpt>
      <trkpt lat="43.30238" lon="5.72523">
        <ele>593.1</ele>
        <time>2021-03-31T11:01:25Z</time>
      </trkpt>
      <trkpt lat="43.30243" lon="5.72524">
        <ele>593.7</ele>
        <time>2021-03-31T11:01:35Z</time>
      </trkpt>
      <trkpt lat="43.30248" lon="5.72523">
        <ele>594.4</ele>
        <time>2021-03-31T11:01:43Z</time>
      </trkpt>
      <trkpt lat="43.30252" lon="5.72524">
        <ele>595</ele>
        <time>2021-03-31T11:01:49Z</time>
      </trkpt>
      <trkpt lat="43.30257" lon="5.72523">
        <ele>595.7</ele>
        <time>2021-03-31T11:01:55Z</time>
      </trkpt>
      <trkpt lat="43.30262" lon="5.72523">
        <ele>596.4</ele>
        <time>2021-03-31T11:02:01Z</time>
      </trkpt>
      <trkpt lat="43.30268" lon="5.72524">
        <ele>597.2</ele>
        <time>2021-03-31T11:02:07Z</time>
      </trkpt>
      <trkpt lat="43.30274" lon="5.72523">
        <ele>598</ele>
        <time>2021-03-31T11:02:13Z</time>
      </trkpt>
      <trkpt lat="43.30278" lon="5.72523">
        <ele>598.7</ele>
        <time>2021-03-31T11:02:19Z</time>
      </trkpt>
      <trkpt lat="43.30281" lon="5.72529">
        <ele>599</ele>
        <time>2021-03-31T11:02:25Z</time>
      </trkpt>
      <trkpt lat="43.30281" lon="5.72537">
        <ele>598.9</ele>
        <time>2021-03-31T11:02:31Z</time>
      </trkpt>
      <trkpt lat="43.30279" lon="5.72545">
        <ele>598.7</ele>
        <time>2021-03-31T11:02:37Z</time>
      </trkpt>
      <trkpt lat="43.30278" lon="5.72553">
        <ele>598.5</ele>
        <time>2021-03-31T11:02:43Z</time>
      </trkpt>
      <trkpt lat="43.30277" lon="5.72559">
        <ele>598.4</ele>
        <time>2021-03-31T11:02:47Z</time>
      </trkpt>
      <trkpt lat="43.30277" lon="5.72566">
        <ele>598.2</ele>
        <time>2021-03-31T11:02:51Z</time>
      </trkpt>
      <trkpt lat="43.30276" lon="5.72575">
        <ele>598.2</ele>
        <time>2021-03-31T11:02:57Z</time>
      </trkpt>
      <trkpt lat="43.30276" lon="5.72582">
        <ele>598</ele>
        <time>2021-03-31T11:03:03Z</time>
      </trkpt>
      <trkpt lat="43.30277" lon="5.72591">
        <ele>598.6</ele>
        <time>2021-03-31T11:03:09Z</time>
      </trkpt>
      <trkpt lat="43.30279" lon="5.72597">
        <ele>599.3</ele>
        <time>2021-03-31T11:03:13Z</time>
      </trkpt>
      <trkpt lat="43.30282" lon="5.72604">
        <ele>600.2</ele>
        <time>2021-03-31T11:03:19Z</time>
      </trkpt>
      <trkpt lat="43.30284" lon="5.7261">
        <ele>600.9</ele>
        <time>2021-03-31T11:03:23Z</time>
      </trkpt>
      <trkpt lat="43.30287" lon="5.72615">
        <ele>601.6</ele>
        <time>2021-03-31T11:03:27Z</time>
      </trkpt>
      <trkpt lat="43.3029" lon="5.72622">
        <ele>602.4</ele>
        <time>2021-03-31T11:03:33Z</time>
      </trkpt>
      <trkpt lat="43.30293" lon="5.72629">
        <ele>603</ele>
        <time>2021-03-31T11:03:39Z</time>
      </trkpt>
      <trkpt lat="43.30295" lon="5.72634">
        <ele>603.7</ele>
        <time>2021-03-31T11:03:45Z</time>
      </trkpt>
      <trkpt lat="43.30298" lon="5.72639">
        <ele>604.3</ele>
        <time>2021-03-31T11:03:51Z</time>
      </trkpt>
      <trkpt lat="43.30301" lon="5.72645">
        <ele>604.9</ele>
        <time>2021-03-31T11:03:57Z</time>
      </trkpt>
      <trkpt lat="43.30303" lon="5.72652">
        <ele>605.4</ele>
        <time>2021-03-31T11:04:03Z</time>
      </trkpt>
      <trkpt lat="43.30307" lon="5.72659">
        <ele>606.1</ele>
        <time>2021-03-31T11:04:11Z</time>
      </trkpt>
      <trkpt lat="43.3031" lon="5.72665">
        <ele>606.7</ele>
        <time>2021-03-31T11:04:17Z</time>
      </trkpt>
      <trkpt lat="43.30315" lon="5.72671">
        <ele>607.4</ele>
        <time>2021-03-31T11:04:23Z</time>
      </trkpt>
      <trkpt lat="43.3032" lon="5.72674">
        <ele>608.1</ele>
        <time>2021-03-31T11:04:29Z</time>
      </trkpt>
      <trkpt lat="43.30325" lon="5.72677">
        <ele>608.8</ele>
        <time>2021-03-31T11:04:35Z</time>
      </trkpt>
      <trkpt lat="43.3033" lon="5.72677">
        <ele>609.3</ele>
        <time>2021-03-31T11:04:41Z</time>
      </trkpt>
      <trkpt lat="43.30335" lon="5.72676">
        <ele>609.8</ele>
        <time>2021-03-31T11:04:47Z</time>
      </trkpt>
      <trkpt lat="43.30341" lon="5.72676">
        <ele>610.5</ele>
        <time>2021-03-31T11:04:53Z</time>
      </trkpt>
      <trkpt lat="43.30345" lon="5.72675">
        <ele>611</ele>
        <time>2021-03-31T11:04:59Z</time>
      </trkpt>
      <trkpt lat="43.3035" lon="5.72676">
        <ele>611.7</ele>
        <time>2021-03-31T11:05:03Z</time>
      </trkpt>
      <trkpt lat="43.30355" lon="5.72676">
        <ele>612.4</ele>
        <time>2021-03-31T11:05:09Z</time>
      </trkpt>
      <trkpt lat="43.30361" lon="5.72678">
        <ele>613.2</ele>
        <time>2021-03-31T11:05:15Z</time>
      </trkpt>
      <trkpt lat="43.30367" lon="5.7268">
        <ele>614.1</ele>
        <time>2021-03-31T11:05:21Z</time>
      </trkpt>
      <trkpt lat="43.30372" lon="5.72682">
        <ele>614.9</ele>
        <time>2021-03-31T11:05:27Z</time>
      </trkpt>
      <trkpt lat="43.30377" lon="5.72684">
        <ele>615.5</ele>
        <time>2021-03-31T11:05:33Z</time>
      </trkpt>
      <trkpt lat="43.30381" lon="5.72688">
        <ele>616.3</ele>
        <time>2021-03-31T11:05:39Z</time>
      </trkpt>
      <trkpt lat="43.30385" lon="5.72691">
        <ele>617</ele>
        <time>2021-03-31T11:05:45Z</time>
      </trkpt>
      <trkpt lat="43.3039" lon="5.72695">
        <ele>617.7</ele>
        <time>2021-03-31T11:05:51Z</time>
      </trkpt>
      <trkpt lat="43.30394" lon="5.72701">
        <ele>618.4</ele>
        <time>2021-03-31T11:05:57Z</time>
      </trkpt>
      <trkpt lat="43.30398" lon="5.72704">
        <ele>619.1</ele>
        <time>2021-03-31T11:06:05Z</time>
      </trkpt>
      <trkpt lat="43.30403" lon="5.72702">
        <ele>619.7</ele>
        <time>2021-03-31T11:06:27Z</time>
      </trkpt>
      <trkpt lat="43.30408" lon="5.72703">
        <ele>620.2</ele>
        <time>2021-03-31T11:06:35Z</time>
      </trkpt>
      <trkpt lat="43.30413" lon="5.72702">
        <ele>620.8</ele>
        <time>2021-03-31T11:06:41Z</time>
      </trkpt>
      <trkpt lat="43.30417" lon="5.727">
        <ele>621.3</ele>
        <time>2021-03-31T11:06:49Z</time>
      </trkpt>
      <trkpt lat="43.30422" lon="5.72697">
        <ele>622.3</ele>
        <time>2021-03-31T11:06:59Z</time>
      </trkpt>
      <trkpt lat="43.30426" lon="5.72695">
        <ele>623.3</ele>
        <time>2021-03-31T11:07:05Z</time>
      </trkpt>
      <trkpt lat="43.30431" lon="5.72693">
        <ele>624.4</ele>
        <time>2021-03-31T11:07:15Z</time>
      </trkpt>
      <trkpt lat="43.30436" lon="5.72695">
        <ele>625.7</ele>
        <time>2021-03-31T11:07:25Z</time>
      </trkpt>
      <trkpt lat="43.30439" lon="5.727">
        <ele>626.5</ele>
        <time>2021-03-31T11:07:49Z</time>
      </trkpt>
      <trkpt lat="43.3044" lon="5.72694">
        <ele>626.6</ele>
        <time>2021-03-31T11:15:51Z</time>
      </trkpt>
      <trkpt lat="43.30444" lon="5.72691">
        <ele>627.6</ele>
        <time>2021-03-31T11:16:39Z</time>
      </trkpt>
      <trkpt lat="43.30446" lon="5.72684">
        <ele>627.7</ele>
        <time>2021-03-31T11:16:55Z</time>
      </trkpt>
      <trkpt lat="43.30443" lon="5.72678">
        <ele>627</ele>
        <time>2021-03-31T11:17:11Z</time>
      </trkpt>
      <trkpt lat="43.30446" lon="5.72673">
        <ele>627.6</ele>
        <time>2021-03-31T11:17:23Z</time>
      </trkpt>
      <trkpt lat="43.30451" lon="5.7267">
        <ele>628.6</ele>
        <time>2021-03-31T11:17:29Z</time>
      </trkpt>
      <trkpt lat="43.30456" lon="5.72668">
        <ele>630</ele>
        <time>2021-03-31T11:17:39Z</time>
      </trkpt>
      <trkpt lat="43.30461" lon="5.72672">
        <ele>631.3</ele>
        <time>2021-03-31T11:17:47Z</time>
      </trkpt>
      <trkpt lat="43.30466" lon="5.72672">
        <ele>632.6</ele>
        <time>2021-03-31T11:17:57Z</time>
      </trkpt>
      <trkpt lat="43.30471" lon="5.72673">
        <ele>633.7</ele>
        <time>2021-03-31T11:18:05Z</time>
      </trkpt>
      <trkpt lat="43.30475" lon="5.72671">
        <ele>634.8</ele>
        <time>2021-03-31T11:18:45Z</time>
      </trkpt>
      <trkpt lat="43.30473" lon="5.72663">
        <ele>634.2</ele>
        <time>2021-03-31T11:18:55Z</time>
      </trkpt>
      <trkpt lat="43.30473" lon="5.72655">
        <ele>634.2</ele>
        <time>2021-03-31T11:19:01Z</time>
      </trkpt>
      <trkpt lat="43.30472" lon="5.72646">
        <ele>633.8</ele>
        <time>2021-03-31T11:19:07Z</time>
      </trkpt>
      <trkpt lat="43.3047" lon="5.7264">
        <ele>633.3</ele>
        <time>2021-03-31T11:19:11Z</time>
      </trkpt>
      <trkpt lat="43.30469" lon="5.72635">
        <ele>632.8</ele>
        <time>2021-03-31T11:19:15Z</time>
      </trkpt>
      <trkpt lat="43.30467" lon="5.72629">
        <ele>632.4</ele>
        <time>2021-03-31T11:19:23Z</time>
      </trkpt>
      <trkpt lat="43.30465" lon="5.72621">
        <ele>631.9</ele>
        <time>2021-03-31T11:19:29Z</time>
      </trkpt>
      <trkpt lat="43.30464" lon="5.72614">
        <ele>631.6</ele>
        <time>2021-03-31T11:19:33Z</time>
      </trkpt>
      <trkpt lat="43.30463" lon="5.72608">
        <ele>631.3</ele>
        <time>2021-03-31T11:19:37Z</time>
      </trkpt>
      <trkpt lat="43.30463" lon="5.726">
        <ele>631.2</ele>
        <time>2021-03-31T11:19:43Z</time>
      </trkpt>
      <trkpt lat="43.30463" lon="5.72591">
        <ele>631.1</ele>
        <time>2021-03-31T11:19:49Z</time>
      </trkpt>
      <trkpt lat="43.30462" lon="5.72584">
        <ele>630.9</ele>
        <time>2021-03-31T11:19:53Z</time>
      </trkpt>
      <trkpt lat="43.30461" lon="5.72577">
        <ele>630.4</ele>
        <time>2021-03-31T11:19:57Z</time>
      </trkpt>
      <trkpt lat="43.30462" lon="5.7257">
        <ele>630.2</ele>
        <time>2021-03-31T11:20:01Z</time>
      </trkpt>
      <trkpt lat="43.30463" lon="5.72561">
        <ele>630</ele>
        <time>2021-03-31T11:20:07Z</time>
      </trkpt>
      <trkpt lat="43.30464" lon="5.72555">
        <ele>629.9</ele>
        <time>2021-03-31T11:20:11Z</time>
      </trkpt>
      <trkpt lat="43.30465" lon="5.72549">
        <ele>629.9</ele>
        <time>2021-03-31T11:20:15Z</time>
      </trkpt>
      <trkpt lat="43.30468" lon="5.72543">
        <ele>630.1</ele>
        <time>2021-03-31T11:20:19Z</time>
      </trkpt>
      <trkpt lat="43.3047" lon="5.72535">
        <ele>630.3</ele>
        <time>2021-03-31T11:20:25Z</time>
      </trkpt>
      <trkpt lat="43.30471" lon="5.72528">
        <ele>630.3</ele>
        <time>2021-03-31T11:20:29Z</time>
      </trkpt>
      <trkpt lat="43.30473" lon="5.7252">
        <ele>630.3</ele>
        <time>2021-03-31T11:20:35Z</time>
      </trkpt>
      <trkpt lat="43.30476" lon="5.72515">
        <ele>630.6</ele>
        <time>2021-03-31T11:20:39Z</time>
      </trkpt>
      <trkpt lat="43.30478" lon="5.72509">
        <ele>630.9</ele>
        <time>2021-03-31T11:20:43Z</time>
      </trkpt>
      <trkpt lat="43.30482" lon="5.72502">
        <ele>631.6</ele>
        <time>2021-03-31T11:20:49Z</time>
      </trkpt>
      <trkpt lat="43.30485" lon="5.72497">
        <ele>632</ele>
        <time>2021-03-31T11:20:53Z</time>
      </trkpt>
      <trkpt lat="43.30488" lon="5.72492">
        <ele>632.3</ele>
        <time>2021-03-31T11:20:57Z</time>
      </trkpt>
      <trkpt lat="43.3049" lon="5.72485">
        <ele>632.3</ele>
        <time>2021-03-31T11:21:03Z</time>
      </trkpt>
      <trkpt lat="43.30493" lon="5.72477">
        <ele>632.1</ele>
        <time>2021-03-31T11:21:09Z</time>
      </trkpt>
      <trkpt lat="43.30493" lon="5.7247">
        <ele>631.7</ele>
        <time>2021-03-31T11:21:13Z</time>
      </trkpt>
      <trkpt lat="43.30494" lon="5.72461">
        <ele>631.1</ele>
        <time>2021-03-31T11:21:19Z</time>
      </trkpt>
      <trkpt lat="43.30495" lon="5.72453">
        <ele>630.5</ele>
        <time>2021-03-31T11:21:25Z</time>
      </trkpt>
      <trkpt lat="43.30496" lon="5.72447">
        <ele>630.2</ele>
        <time>2021-03-31T11:21:29Z</time>
      </trkpt>
      <trkpt lat="43.30499" lon="5.72438">
        <ele>629.9</ele>
        <time>2021-03-31T11:21:35Z</time>
      </trkpt>
      <trkpt lat="43.30502" lon="5.7243">
        <ele>630</ele>
        <time>2021-03-31T11:21:41Z</time>
      </trkpt>
      <trkpt lat="43.30504" lon="5.72424">
        <ele>630.2</ele>
        <time>2021-03-31T11:21:45Z</time>
      </trkpt>
      <trkpt lat="43.30507" lon="5.72416">
        <ele>630.3</ele>
        <time>2021-03-31T11:21:51Z</time>
      </trkpt>
      <trkpt lat="43.30506" lon="5.72407">
        <ele>630.3</ele>
        <time>2021-03-31T11:21:57Z</time>
      </trkpt>
      <trkpt lat="43.30505" lon="5.724">
        <ele>630.3</ele>
        <time>2021-03-31T11:22:01Z</time>
      </trkpt>
      <trkpt lat="43.30504" lon="5.72394">
        <ele>630</ele>
        <time>2021-03-31T11:22:05Z</time>
      </trkpt>
      <trkpt lat="43.30503" lon="5.72387">
        <ele>630</ele>
        <time>2021-03-31T11:22:09Z</time>
      </trkpt>
      <trkpt lat="43.30502" lon="5.7238">
        <ele>629.8</ele>
        <time>2021-03-31T11:22:13Z</time>
      </trkpt>
      <trkpt lat="43.305" lon="5.72374">
        <ele>629.6</ele>
        <time>2021-03-31T11:22:17Z</time>
      </trkpt>
      <trkpt lat="43.30499" lon="5.72365">
        <ele>629.8</ele>
        <time>2021-03-31T11:22:23Z</time>
      </trkpt>
      <trkpt lat="43.30498" lon="5.72359">
        <ele>629.9</ele>
        <time>2021-03-31T11:22:27Z</time>
      </trkpt>
      <trkpt lat="43.30497" lon="5.72352">
        <ele>630.1</ele>
        <time>2021-03-31T11:22:31Z</time>
      </trkpt>
      <trkpt lat="43.30495" lon="5.72345">
        <ele>630.2</ele>
        <time>2021-03-31T11:22:35Z</time>
      </trkpt>
      <trkpt lat="43.30492" lon="5.7234">
        <ele>630.2</ele>
        <time>2021-03-31T11:22:39Z</time>
      </trkpt>
      <trkpt lat="43.3049" lon="5.72335">
        <ele>630.3</ele>
        <time>2021-03-31T11:22:43Z</time>
      </trkpt>
      <trkpt lat="43.30487" lon="5.7233">
        <ele>629.9</ele>
        <time>2021-03-31T11:22:47Z</time>
      </trkpt>
      <trkpt lat="43.30484" lon="5.72326">
        <ele>629.4</ele>
        <time>2021-03-31T11:22:51Z</time>
      </trkpt>
      <trkpt lat="43.3048" lon="5.72321">
        <ele>628.8</ele>
        <time>2021-03-31T11:22:55Z</time>
      </trkpt>
      <trkpt lat="43.30477" lon="5.72316">
        <ele>628.3</ele>
        <time>2021-03-31T11:22:59Z</time>
      </trkpt>
      <trkpt lat="43.30473" lon="5.72312">
        <ele>627.7</ele>
        <time>2021-03-31T11:23:03Z</time>
      </trkpt>
      <trkpt lat="43.30471" lon="5.72307">
        <ele>627.1</ele>
        <time>2021-03-31T11:23:07Z</time>
      </trkpt>
      <trkpt lat="43.3047" lon="5.72298">
        <ele>626.4</ele>
        <time>2021-03-31T11:23:13Z</time>
      </trkpt>
      <trkpt lat="43.30472" lon="5.72289">
        <ele>625.8</ele>
        <time>2021-03-31T11:23:19Z</time>
      </trkpt>
      <trkpt lat="43.30473" lon="5.72282">
        <ele>625.3</ele>
        <time>2021-03-31T11:23:25Z</time>
      </trkpt>
      <trkpt lat="43.30477" lon="5.72275">
        <ele>624.9</ele>
        <time>2021-03-31T11:23:31Z</time>
      </trkpt>
      <trkpt lat="43.3048" lon="5.72268">
        <ele>624.5</ele>
        <time>2021-03-31T11:23:37Z</time>
      </trkpt>
      <trkpt lat="43.30484" lon="5.72263">
        <ele>624.3</ele>
        <time>2021-03-31T11:23:41Z</time>
      </trkpt>
      <trkpt lat="43.30488" lon="5.7226">
        <ele>624.3</ele>
        <time>2021-03-31T11:23:45Z</time>
      </trkpt>
      <trkpt lat="43.30493" lon="5.72258">
        <ele>624.3</ele>
        <time>2021-03-31T11:23:49Z</time>
      </trkpt>
      <trkpt lat="43.30499" lon="5.72255">
        <ele>624.4</ele>
        <time>2021-03-31T11:23:55Z</time>
      </trkpt>
      <trkpt lat="43.30504" lon="5.72253">
        <ele>625</ele>
        <time>2021-03-31T11:23:59Z</time>
      </trkpt>
      <trkpt lat="43.30508" lon="5.72251">
        <ele>625.8</ele>
        <time>2021-03-31T11:24:03Z</time>
      </trkpt>
      <trkpt lat="43.30513" lon="5.7225">
        <ele>626.6</ele>
        <time>2021-03-31T11:24:07Z</time>
      </trkpt>
      <trkpt lat="43.30518" lon="5.72248">
        <ele>627.4</ele>
        <time>2021-03-31T11:24:11Z</time>
      </trkpt>
      <trkpt lat="43.30522" lon="5.72245">
        <ele>628.1</ele>
        <time>2021-03-31T11:24:15Z</time>
      </trkpt>
      <trkpt lat="43.30528" lon="5.72243">
        <ele>629.1</ele>
        <time>2021-03-31T11:24:21Z</time>
      </trkpt>
      <trkpt lat="43.30533" lon="5.7224">
        <ele>630</ele>
        <time>2021-03-31T11:24:27Z</time>
      </trkpt>
      <trkpt lat="43.30539" lon="5.72236">
        <ele>631</ele>
        <time>2021-03-31T11:24:33Z</time>
      </trkpt>
      <trkpt lat="43.30544" lon="5.72234">
        <ele>631.9</ele>
        <time>2021-03-31T11:24:37Z</time>
      </trkpt>
      <trkpt lat="43.30548" lon="5.72231">
        <ele>632.5</ele>
        <time>2021-03-31T11:24:41Z</time>
      </trkpt>
      <trkpt lat="43.30552" lon="5.72226">
        <ele>633.1</ele>
        <time>2021-03-31T11:24:45Z</time>
      </trkpt>
      <trkpt lat="43.30555" lon="5.72221">
        <ele>633.6</ele>
        <time>2021-03-31T11:24:49Z</time>
      </trkpt>
      <trkpt lat="43.30558" lon="5.72216">
        <ele>633.9</ele>
        <time>2021-03-31T11:24:53Z</time>
      </trkpt>
      <trkpt lat="43.30562" lon="5.72208">
        <ele>634.2</ele>
        <time>2021-03-31T11:24:59Z</time>
      </trkpt>
      <trkpt lat="43.30566" lon="5.72203">
        <ele>634.8</ele>
        <time>2021-03-31T11:25:03Z</time>
      </trkpt>
      <trkpt lat="43.30569" lon="5.72196">
        <ele>635.2</ele>
        <time>2021-03-31T11:25:09Z</time>
      </trkpt>
      <trkpt lat="43.3057" lon="5.72189">
        <ele>635.1</ele>
        <time>2021-03-31T11:25:13Z</time>
      </trkpt>
      <trkpt lat="43.3057" lon="5.72182">
        <ele>634.7</ele>
        <time>2021-03-31T11:25:17Z</time>
      </trkpt>
      <trkpt lat="43.30569" lon="5.72175">
        <ele>634.1</ele>
        <time>2021-03-31T11:25:21Z</time>
      </trkpt>
      <trkpt lat="43.30564" lon="5.72168">
        <ele>632.5</ele>
        <time>2021-03-31T11:25:27Z</time>
      </trkpt>
      <trkpt lat="43.3056" lon="5.72165">
        <ele>631.7</ele>
        <time>2021-03-31T11:25:31Z</time>
      </trkpt>
      <trkpt lat="43.30556" lon="5.72162">
        <ele>631</ele>
        <time>2021-03-31T11:25:35Z</time>
      </trkpt>
      <trkpt lat="43.30552" lon="5.72159">
        <ele>630.3</ele>
        <time>2021-03-31T11:25:39Z</time>
      </trkpt>
      <trkpt lat="43.30548" lon="5.72156">
        <ele>629.6</ele>
        <time>2021-03-31T11:25:43Z</time>
      </trkpt>
      <trkpt lat="43.30544" lon="5.72152">
        <ele>628.9</ele>
        <time>2021-03-31T11:25:47Z</time>
      </trkpt>
      <trkpt lat="43.30539" lon="5.72149">
        <ele>628.1</ele>
        <time>2021-03-31T11:25:51Z</time>
      </trkpt>
      <trkpt lat="43.30536" lon="5.72144">
        <ele>627.7</ele>
        <time>2021-03-31T11:25:55Z</time>
      </trkpt>
      <trkpt lat="43.30532" lon="5.72137">
        <ele>627.4</ele>
        <time>2021-03-31T11:26:01Z</time>
      </trkpt>
      <trkpt lat="43.3053" lon="5.72129">
        <ele>627.4</ele>
        <time>2021-03-31T11:26:07Z</time>
      </trkpt>
      <trkpt lat="43.30527" lon="5.72121">
        <ele>627.3</ele>
        <time>2021-03-31T11:26:13Z</time>
      </trkpt>
      <trkpt lat="43.30524" lon="5.72114">
        <ele>626.9</ele>
        <time>2021-03-31T11:26:19Z</time>
      </trkpt>
      <trkpt lat="43.30521" lon="5.72106">
        <ele>626.7</ele>
        <time>2021-03-31T11:26:25Z</time>
      </trkpt>
      <trkpt lat="43.30519" lon="5.72098">
        <ele>626.8</ele>
        <time>2021-03-31T11:26:31Z</time>
      </trkpt>
      <trkpt lat="43.30519" lon="5.72088">
        <ele>627.4</ele>
        <time>2021-03-31T11:26:37Z</time>
      </trkpt>
      <trkpt lat="43.30519" lon="5.72082">
        <ele>628.2</ele>
        <time>2021-03-31T11:26:41Z</time>
      </trkpt>
      <trkpt lat="43.30519" lon="5.72075">
        <ele>628.9</ele>
        <time>2021-03-31T11:26:45Z</time>
      </trkpt>
      <trkpt lat="43.30519" lon="5.72067">
        <ele>629.5</ele>
        <time>2021-03-31T11:26:51Z</time>
      </trkpt>
      <trkpt lat="43.30518" lon="5.72058">
        <ele>630.2</ele>
        <time>2021-03-31T11:26:57Z</time>
      </trkpt>
      <trkpt lat="43.30517" lon="5.72049">
        <ele>630.9</ele>
        <time>2021-03-31T11:27:03Z</time>
      </trkpt>
      <trkpt lat="43.30516" lon="5.7204">
        <ele>631.5</ele>
        <time>2021-03-31T11:27:09Z</time>
      </trkpt>
      <trkpt lat="43.30516" lon="5.72034">
        <ele>632.3</ele>
        <time>2021-03-31T11:27:13Z</time>
      </trkpt>
      <trkpt lat="43.30517" lon="5.72028">
        <ele>633.3</ele>
        <time>2021-03-31T11:27:17Z</time>
      </trkpt>
      <trkpt lat="43.30518" lon="5.72019">
        <ele>634.4</ele>
        <time>2021-03-31T11:27:23Z</time>
      </trkpt>
      <trkpt lat="43.30519" lon="5.72011">
        <ele>635.6</ele>
        <time>2021-03-31T11:27:29Z</time>
      </trkpt>
      <trkpt lat="43.30519" lon="5.72004">
        <ele>636.4</ele>
        <time>2021-03-31T11:27:35Z</time>
      </trkpt>
      <trkpt lat="43.30519" lon="5.71995">
        <ele>637.5</ele>
        <time>2021-03-31T11:27:41Z</time>
      </trkpt>
      <trkpt lat="43.30519" lon="5.71987">
        <ele>638.4</ele>
        <time>2021-03-31T11:27:47Z</time>
      </trkpt>
      <trkpt lat="43.30518" lon="5.71981">
        <ele>638.9</ele>
        <time>2021-03-31T11:27:51Z</time>
      </trkpt>
      <trkpt lat="43.30518" lon="5.71974">
        <ele>639.5</ele>
        <time>2021-03-31T11:27:55Z</time>
      </trkpt>
      <trkpt lat="43.30514" lon="5.71967">
        <ele>639.4</ele>
        <time>2021-03-31T11:28:01Z</time>
      </trkpt>
      <trkpt lat="43.3051" lon="5.7196">
        <ele>639</ele>
        <time>2021-03-31T11:28:07Z</time>
      </trkpt>
      <trkpt lat="43.30506" lon="5.71953">
        <ele>638.4</ele>
        <time>2021-03-31T11:28:13Z</time>
      </trkpt>
      <trkpt lat="43.30501" lon="5.71947">
        <ele>637.8</ele>
        <time>2021-03-31T11:28:19Z</time>
      </trkpt>
      <trkpt lat="43.30498" lon="5.71942">
        <ele>637.8</ele>
        <time>2021-03-31T11:28:23Z</time>
      </trkpt>
      <trkpt lat="43.30496" lon="5.71936">
        <ele>638.3</ele>
        <time>2021-03-31T11:28:27Z</time>
      </trkpt>
      <trkpt lat="43.30494" lon="5.71928">
        <ele>639.1</ele>
        <time>2021-03-31T11:28:33Z</time>
      </trkpt>
      <trkpt lat="43.30491" lon="5.71921">
        <ele>639.7</ele>
        <time>2021-03-31T11:28:39Z</time>
      </trkpt>
      <trkpt lat="43.30488" lon="5.71915">
        <ele>640.3</ele>
        <time>2021-03-31T11:28:45Z</time>
      </trkpt>
      <trkpt lat="43.30485" lon="5.71908">
        <ele>640.8</ele>
        <time>2021-03-31T11:28:51Z</time>
      </trkpt>
      <trkpt lat="43.30481" lon="5.71902">
        <ele>641.1</ele>
        <time>2021-03-31T11:28:57Z</time>
      </trkpt>
      <trkpt lat="43.30478" lon="5.71895">
        <ele>641.5</ele>
        <time>2021-03-31T11:29:03Z</time>
      </trkpt>
      <trkpt lat="43.30474" lon="5.71891">
        <ele>641.6</ele>
        <time>2021-03-31T11:29:07Z</time>
      </trkpt>
      <trkpt lat="43.30471" lon="5.71886">
        <ele>641.8</ele>
        <time>2021-03-31T11:29:11Z</time>
      </trkpt>
      <trkpt lat="43.30468" lon="5.71881">
        <ele>641.9</ele>
        <time>2021-03-31T11:29:15Z</time>
      </trkpt>
      <trkpt lat="43.30464" lon="5.71876">
        <ele>642</ele>
        <time>2021-03-31T11:29:21Z</time>
      </trkpt>
      <trkpt lat="43.30459" lon="5.7187">
        <ele>642</ele>
        <time>2021-03-31T11:29:27Z</time>
      </trkpt>
      <trkpt lat="43.30455" lon="5.71865">
        <ele>642</ele>
        <time>2021-03-31T11:29:31Z</time>
      </trkpt>
      <trkpt lat="43.30451" lon="5.71861">
        <ele>641.9</ele>
        <time>2021-03-31T11:29:35Z</time>
      </trkpt>
      <trkpt lat="43.30447" lon="5.71854">
        <ele>642.1</ele>
        <time>2021-03-31T11:29:41Z</time>
      </trkpt>
      <trkpt lat="43.30445" lon="5.71848">
        <ele>642.3</ele>
        <time>2021-03-31T11:29:45Z</time>
      </trkpt>
      <trkpt lat="43.30445" lon="5.71841">
        <ele>642.8</ele>
        <time>2021-03-31T11:29:49Z</time>
      </trkpt>
      <trkpt lat="43.30444" lon="5.71832">
        <ele>643.3</ele>
        <time>2021-03-31T11:29:55Z</time>
      </trkpt>
      <trkpt lat="43.30444" lon="5.71825">
        <ele>643.5</ele>
        <time>2021-03-31T11:29:59Z</time>
      </trkpt>
      <trkpt lat="43.30442" lon="5.71817">
        <ele>643.4</ele>
        <time>2021-03-31T11:30:05Z</time>
      </trkpt>
      <trkpt lat="43.3044" lon="5.7181">
        <ele>643.4</ele>
        <time>2021-03-31T11:30:09Z</time>
      </trkpt>
      <trkpt lat="43.30439" lon="5.71804">
        <ele>643.4</ele>
        <time>2021-03-31T11:30:13Z</time>
      </trkpt>
      <trkpt lat="43.30437" lon="5.71798">
        <ele>643.3</ele>
        <time>2021-03-31T11:30:17Z</time>
      </trkpt>
      <trkpt lat="43.30435" lon="5.71789">
        <ele>643.2</ele>
        <time>2021-03-31T11:30:23Z</time>
      </trkpt>
      <trkpt lat="43.30433" lon="5.71783">
        <ele>643.1</ele>
        <time>2021-03-31T11:30:27Z</time>
      </trkpt>
      <trkpt lat="43.30432" lon="5.71777">
        <ele>643</ele>
        <time>2021-03-31T11:30:31Z</time>
      </trkpt>
      <trkpt lat="43.3043" lon="5.71771">
        <ele>642.8</ele>
        <time>2021-03-31T11:30:35Z</time>
      </trkpt>
      <trkpt lat="43.30428" lon="5.71765">
        <ele>642.6</ele>
        <time>2021-03-31T11:30:39Z</time>
      </trkpt>
      <trkpt lat="43.30426" lon="5.71759">
        <ele>642.5</ele>
        <time>2021-03-31T11:30:43Z</time>
      </trkpt>
      <trkpt lat="43.30425" lon="5.71752">
        <ele>642.4</ele>
        <time>2021-03-31T11:30:47Z</time>
      </trkpt>
      <trkpt lat="43.30425" lon="5.71746">
        <ele>642.6</ele>
        <time>2021-03-31T11:30:51Z</time>
      </trkpt>
      <trkpt lat="43.30425" lon="5.71739">
        <ele>642.9</ele>
        <time>2021-03-31T11:30:55Z</time>
      </trkpt>
      <trkpt lat="43.30425" lon="5.71733">
        <ele>643.1</ele>
        <time>2021-03-31T11:30:59Z</time>
      </trkpt>
      <trkpt lat="43.30424" lon="5.71727">
        <ele>643.3</ele>
        <time>2021-03-31T11:31:03Z</time>
      </trkpt>
      <trkpt lat="43.30424" lon="5.71719">
        <ele>643.7</ele>
        <time>2021-03-31T11:31:09Z</time>
      </trkpt>
      <trkpt lat="43.30423" lon="5.7171">
        <ele>643.9</ele>
        <time>2021-03-31T11:31:15Z</time>
      </trkpt>
      <trkpt lat="43.30421" lon="5.71702">
        <ele>644.1</ele>
        <time>2021-03-31T11:31:21Z</time>
      </trkpt>
      <trkpt lat="43.3042" lon="5.71694">
        <ele>644.2</ele>
        <time>2021-03-31T11:31:27Z</time>
      </trkpt>
      <trkpt lat="43.30418" lon="5.71687">
        <ele>644.3</ele>
        <time>2021-03-31T11:31:31Z</time>
      </trkpt>
      <trkpt lat="43.30418" lon="5.7168">
        <ele>644.6</ele>
        <time>2021-03-31T11:31:35Z</time>
      </trkpt>
      <trkpt lat="43.30417" lon="5.71671">
        <ele>644.9</ele>
        <time>2021-03-31T11:31:41Z</time>
      </trkpt>
      <trkpt lat="43.30417" lon="5.71665">
        <ele>645.1</ele>
        <time>2021-03-31T11:31:45Z</time>
      </trkpt>
      <trkpt lat="43.30417" lon="5.71656">
        <ele>644.9</ele>
        <time>2021-03-31T11:31:51Z</time>
      </trkpt>
      <trkpt lat="43.30417" lon="5.71647">
        <ele>644.8</ele>
        <time>2021-03-31T11:31:57Z</time>
      </trkpt>
      <trkpt lat="43.30417" lon="5.71639">
        <ele>644.8</ele>
        <time>2021-03-31T11:32:03Z</time>
      </trkpt>
      <trkpt lat="43.30418" lon="5.71631">
        <ele>644.9</ele>
        <time>2021-03-31T11:32:09Z</time>
      </trkpt>
      <trkpt lat="43.3042" lon="5.71622">
        <ele>645.1</ele>
        <time>2021-03-31T11:32:15Z</time>
      </trkpt>
      <trkpt lat="43.30422" lon="5.71615">
        <ele>645.3</ele>
        <time>2021-03-31T11:32:21Z</time>
      </trkpt>
      <trkpt lat="43.30425" lon="5.7161">
        <ele>645.7</ele>
        <time>2021-03-31T11:32:27Z</time>
      </trkpt>
      <trkpt lat="43.30428" lon="5.71606">
        <ele>646.2</ele>
        <time>2021-03-31T11:32:33Z</time>
      </trkpt>
      <trkpt lat="43.30432" lon="5.716">
        <ele>646.8</ele>
        <time>2021-03-31T11:32:39Z</time>
      </trkpt>
      <trkpt lat="43.30437" lon="5.71595">
        <ele>647.6</ele>
        <time>2021-03-31T11:32:45Z</time>
      </trkpt>
      <trkpt lat="43.30442" lon="5.71591">
        <ele>648.3</ele>
        <time>2021-03-31T11:32:51Z</time>
      </trkpt>
      <trkpt lat="43.30446" lon="5.71585">
        <ele>649</ele>
        <time>2021-03-31T11:32:59Z</time>
      </trkpt>
      <trkpt lat="43.30451" lon="5.71581">
        <ele>649.8</ele>
        <time>2021-03-31T11:33:05Z</time>
      </trkpt>
      <trkpt lat="43.30455" lon="5.71577">
        <ele>650.4</ele>
        <time>2021-03-31T11:33:09Z</time>
      </trkpt>
      <trkpt lat="43.30458" lon="5.71572">
        <ele>651</ele>
        <time>2021-03-31T11:33:13Z</time>
      </trkpt>
      <trkpt lat="43.30461" lon="5.71567">
        <ele>651.6</ele>
        <time>2021-03-31T11:33:19Z</time>
      </trkpt>
      <trkpt lat="43.30465" lon="5.7156">
        <ele>652.2</ele>
        <time>2021-03-31T11:33:25Z</time>
      </trkpt>
      <trkpt lat="43.30466" lon="5.71554">
        <ele>652.5</ele>
        <time>2021-03-31T11:33:29Z</time>
      </trkpt>
      <trkpt lat="43.30468" lon="5.71547">
        <ele>652.8</ele>
        <time>2021-03-31T11:33:33Z</time>
      </trkpt>
      <trkpt lat="43.30468" lon="5.7154">
        <ele>652.9</ele>
        <time>2021-03-31T11:33:37Z</time>
      </trkpt>
      <trkpt lat="43.30468" lon="5.71534">
        <ele>653</ele>
        <time>2021-03-31T11:33:41Z</time>
      </trkpt>
      <trkpt lat="43.3047" lon="5.71525">
        <ele>653.4</ele>
        <time>2021-03-31T11:33:47Z</time>
      </trkpt>
      <trkpt lat="43.30472" lon="5.71519">
        <ele>653.8</ele>
        <time>2021-03-31T11:33:51Z</time>
      </trkpt>
      <trkpt lat="43.30474" lon="5.71512">
        <ele>654.3</ele>
        <time>2021-03-31T11:33:57Z</time>
      </trkpt>
      <trkpt lat="43.30476" lon="5.71506">
        <ele>654.7</ele>
        <time>2021-03-31T11:34:01Z</time>
      </trkpt>
      <trkpt lat="43.30478" lon="5.71497">
        <ele>655.2</ele>
        <time>2021-03-31T11:34:07Z</time>
      </trkpt>
      <trkpt lat="43.30477" lon="5.71489">
        <ele>655.4</ele>
        <time>2021-03-31T11:34:15Z</time>
      </trkpt>
      <trkpt lat="43.30476" lon="5.71483">
        <ele>655.5</ele>
        <time>2021-03-31T11:34:19Z</time>
      </trkpt>
      <trkpt lat="43.30475" lon="5.71476">
        <ele>655.5</ele>
        <time>2021-03-31T11:34:23Z</time>
      </trkpt>
      <trkpt lat="43.30474" lon="5.71469">
        <ele>655.5</ele>
        <time>2021-03-31T11:34:27Z</time>
      </trkpt>
      <trkpt lat="43.30472" lon="5.71461">
        <ele>655.3</ele>
        <time>2021-03-31T11:34:33Z</time>
      </trkpt>
      <trkpt lat="43.30469" lon="5.71455">
        <ele>655</ele>
        <time>2021-03-31T11:34:39Z</time>
      </trkpt>
      <trkpt lat="43.30467" lon="5.71449">
        <ele>654.7</ele>
        <time>2021-03-31T11:34:43Z</time>
      </trkpt>
      <trkpt lat="43.30465" lon="5.71441">
        <ele>654.4</ele>
        <time>2021-03-31T11:34:49Z</time>
      </trkpt>
      <trkpt lat="43.30464" lon="5.71434">
        <ele>654.3</ele>
        <time>2021-03-31T11:34:53Z</time>
      </trkpt>
      <trkpt lat="43.30463" lon="5.71428">
        <ele>654.3</ele>
        <time>2021-03-31T11:34:57Z</time>
      </trkpt>
      <trkpt lat="43.30462" lon="5.71422">
        <ele>654.2</ele>
        <time>2021-03-31T11:35:01Z</time>
      </trkpt>
      <trkpt lat="43.30461" lon="5.71416">
        <ele>654.2</ele>
        <time>2021-03-31T11:35:05Z</time>
      </trkpt>
      <trkpt lat="43.3046" lon="5.71407">
        <ele>654.3</ele>
        <time>2021-03-31T11:35:11Z</time>
      </trkpt>
      <trkpt lat="43.30459" lon="5.71398">
        <ele>654.2</ele>
        <time>2021-03-31T11:35:17Z</time>
      </trkpt>
      <trkpt lat="43.30457" lon="5.71391">
        <ele>654.1</ele>
        <time>2021-03-31T11:35:21Z</time>
      </trkpt>
      <trkpt lat="43.30456" lon="5.71384">
        <ele>654</ele>
        <time>2021-03-31T11:35:25Z</time>
      </trkpt>
      <trkpt lat="43.30455" lon="5.71378">
        <ele>653.9</ele>
        <time>2021-03-31T11:35:29Z</time>
      </trkpt>
      <trkpt lat="43.30453" lon="5.71372">
        <ele>653.5</ele>
        <time>2021-03-31T11:35:33Z</time>
      </trkpt>
      <trkpt lat="43.30448" lon="5.71365">
        <ele>652.6</ele>
        <time>2021-03-31T11:35:39Z</time>
      </trkpt>
      <trkpt lat="43.30446" lon="5.7136">
        <ele>652</ele>
        <time>2021-03-31T11:35:43Z</time>
      </trkpt>
      <trkpt lat="43.30443" lon="5.71355">
        <ele>651.4</ele>
        <time>2021-03-31T11:35:47Z</time>
      </trkpt>
      <trkpt lat="43.3044" lon="5.71349">
        <ele>650.7</ele>
        <time>2021-03-31T11:35:51Z</time>
      </trkpt>
      <trkpt lat="43.30438" lon="5.71344">
        <ele>650</ele>
        <time>2021-03-31T11:35:55Z</time>
      </trkpt>
      <trkpt lat="43.30435" lon="5.71335">
        <ele>649.5</ele>
        <time>2021-03-31T11:36:01Z</time>
      </trkpt>
      <trkpt lat="43.30433" lon="5.71327">
        <ele>649.1</ele>
        <time>2021-03-31T11:36:07Z</time>
      </trkpt>
      <trkpt lat="43.30432" lon="5.71319">
        <ele>649.1</ele>
        <time>2021-03-31T11:36:13Z</time>
      </trkpt>
      <trkpt lat="43.30431" lon="5.71312">
        <ele>649.1</ele>
        <time>2021-03-31T11:36:17Z</time>
      </trkpt>
      <trkpt lat="43.3043" lon="5.71304">
        <ele>649</ele>
        <time>2021-03-31T11:36:23Z</time>
      </trkpt>
      <trkpt lat="43.3043" lon="5.71297">
        <ele>649.2</ele>
        <time>2021-03-31T11:36:31Z</time>
      </trkpt>
      <trkpt lat="43.30429" lon="5.71291">
        <ele>649.3</ele>
        <time>2021-03-31T11:36:37Z</time>
      </trkpt>
      <trkpt lat="43.30429" lon="5.71284">
        <ele>649.4</ele>
        <time>2021-03-31T11:36:43Z</time>
      </trkpt>
      <trkpt lat="43.30429" lon="5.71277">
        <ele>649.7</ele>
        <time>2021-03-31T11:36:49Z</time>
      </trkpt>
      <trkpt lat="43.30428" lon="5.7127">
        <ele>649.8</ele>
        <time>2021-03-31T11:36:55Z</time>
      </trkpt>
      <trkpt lat="43.30427" lon="5.71264">
        <ele>649.8</ele>
        <time>2021-03-31T11:37:53Z</time>
      </trkpt>
      <trkpt lat="43.30429" lon="5.71258">
        <ele>650.7</ele>
        <time>2021-03-31T11:38:01Z</time>
      </trkpt>
      <trkpt lat="43.30432" lon="5.71252">
        <ele>651.6</ele>
        <time>2021-03-31T11:38:09Z</time>
      </trkpt>
      <trkpt lat="43.30432" lon="5.71245">
        <ele>652.1</ele>
        <time>2021-03-31T11:38:17Z</time>
      </trkpt>
      <trkpt lat="43.30432" lon="5.71237">
        <ele>652.7</ele>
        <time>2021-03-31T11:38:27Z</time>
      </trkpt>
      <trkpt lat="43.30432" lon="5.7123">
        <ele>653.1</ele>
        <time>2021-03-31T11:38:33Z</time>
      </trkpt>
      <trkpt lat="43.30433" lon="5.71222">
        <ele>653.8</ele>
        <time>2021-03-31T11:38:41Z</time>
      </trkpt>
      <trkpt lat="43.30434" lon="5.71216">
        <ele>654.6</ele>
        <time>2021-03-31T11:38:47Z</time>
      </trkpt>
      <trkpt lat="43.30436" lon="5.7121">
        <ele>655.5</ele>
        <time>2021-03-31T11:38:53Z</time>
      </trkpt>
      <trkpt lat="43.30436" lon="5.71203">
        <ele>655.9</ele>
        <time>2021-03-31T11:38:59Z</time>
      </trkpt>
      <trkpt lat="43.30437" lon="5.71195">
        <ele>656.9</ele>
        <time>2021-03-31T11:39:05Z</time>
      </trkpt>
      <trkpt lat="43.3044" lon="5.71189">
        <ele>658</ele>
        <time>2021-03-31T11:39:17Z</time>
      </trkpt>
      <trkpt lat="43.30441" lon="5.71183">
        <ele>658.8</ele>
        <time>2021-03-31T11:39:27Z</time>
      </trkpt>
      <trkpt lat="43.30443" lon="5.71175">
        <ele>659.6</ele>
        <time>2021-03-31T11:39:33Z</time>
      </trkpt>
      <trkpt lat="43.30445" lon="5.7117">
        <ele>660.5</ele>
        <time>2021-03-31T11:39:41Z</time>
      </trkpt>
      <trkpt lat="43.30446" lon="5.71163">
        <ele>661.3</ele>
        <time>2021-03-31T11:39:49Z</time>
      </trkpt>
      <trkpt lat="43.30448" lon="5.71156">
        <ele>662</ele>
        <time>2021-03-31T11:39:59Z</time>
      </trkpt>
      <trkpt lat="43.30452" lon="5.71155">
        <ele>663.3</ele>
        <time>2021-03-31T11:40:09Z</time>
      </trkpt>
      <trkpt lat="43.30454" lon="5.71148">
        <ele>664.1</ele>
        <time>2021-03-31T11:41:07Z</time>
      </trkpt>
      <trkpt lat="43.30455" lon="5.7114">
        <ele>664.7</ele>
        <time>2021-03-31T11:41:13Z</time>
      </trkpt>
      <trkpt lat="43.30456" lon="5.71132">
        <ele>665.2</ele>
        <time>2021-03-31T11:41:19Z</time>
      </trkpt>
      <trkpt lat="43.30458" lon="5.71125">
        <ele>666.1</ele>
        <time>2021-03-31T11:41:25Z</time>
      </trkpt>
      <trkpt lat="43.30459" lon="5.71117">
        <ele>666.9</ele>
        <time>2021-03-31T11:41:31Z</time>
      </trkpt>
      <trkpt lat="43.30463" lon="5.71111">
        <ele>668.1</ele>
        <time>2021-03-31T11:41:37Z</time>
      </trkpt>
      <trkpt lat="43.30466" lon="5.71106">
        <ele>669.1</ele>
        <time>2021-03-31T11:41:43Z</time>
      </trkpt>
      <trkpt lat="43.30469" lon="5.71099">
        <ele>670.2</ele>
        <time>2021-03-31T11:41:49Z</time>
      </trkpt>
      <trkpt lat="43.3047" lon="5.71093">
        <ele>670.8</ele>
        <time>2021-03-31T11:41:55Z</time>
      </trkpt>
      <trkpt lat="43.30473" lon="5.71086">
        <ele>671.7</ele>
        <time>2021-03-31T11:42:01Z</time>
      </trkpt>
      <trkpt lat="43.30476" lon="5.7108">
        <ele>672.9</ele>
        <time>2021-03-31T11:42:07Z</time>
      </trkpt>
      <trkpt lat="43.30479" lon="5.71074">
        <ele>674.5</ele>
        <time>2021-03-31T11:42:13Z</time>
      </trkpt>
      <trkpt lat="43.30482" lon="5.71068">
        <ele>676.1</ele>
        <time>2021-03-31T11:42:21Z</time>
      </trkpt>
      <trkpt lat="43.30486" lon="5.71062">
        <ele>677.9</ele>
        <time>2021-03-31T11:42:29Z</time>
      </trkpt>
      <trkpt lat="43.30487" lon="5.71056">
        <ele>679</ele>
        <time>2021-03-31T11:42:35Z</time>
      </trkpt>
      <trkpt lat="43.30488" lon="5.71049">
        <ele>680</ele>
        <time>2021-03-31T11:42:43Z</time>
      </trkpt>
      <trkpt lat="43.30489" lon="5.71043">
        <ele>681</ele>
        <time>2021-03-31T11:43:01Z</time>
      </trkpt>
      <trkpt lat="43.30486" lon="5.7105">
        <ele>679.4</ele>
        <time>2021-03-31T11:43:25Z</time>
      </trkpt>
      <trkpt lat="43.30489" lon="5.71056">
        <ele>679.5</ele>
        <time>2021-03-31T11:43:37Z</time>
      </trkpt>
      <trkpt lat="43.30485" lon="5.71061">
        <ele>677.7</ele>
        <time>2021-03-31T11:44:05Z</time>
      </trkpt>
      <trkpt lat="43.30489" lon="5.71056">
        <ele>679.3</ele>
        <time>2021-03-31T11:44:29Z</time>
      </trkpt>
      <trkpt lat="43.30484" lon="5.71055">
        <ele>678.1</ele>
        <time>2021-03-31T11:54:51Z</time>
      </trkpt>
      <trkpt lat="43.30489" lon="5.71058">
        <ele>679.2</ele>
        <time>2021-03-31T11:55:33Z</time>
      </trkpt>
      <trkpt lat="43.30484" lon="5.71057">
        <ele>677.8</ele>
        <time>2021-03-31T11:55:43Z</time>
      </trkpt>
      <trkpt lat="43.30488" lon="5.71052">
        <ele>679.7</ele>
        <time>2021-03-31T13:08:17Z</time>
      </trkpt>
      <trkpt lat="43.30486" lon="5.71046">
        <ele>679.9</ele>
        <time>2021-03-31T13:08:31Z</time>
      </trkpt>
      <trkpt lat="43.30482" lon="5.71045">
        <ele>678.6</ele>
        <time>2021-03-31T13:10:05Z</time>
      </trkpt>
      <trkpt lat="43.30484" lon="5.71051">
        <ele>678.5</ele>
        <time>2021-03-31T13:11:25Z</time>
      </trkpt>
      <trkpt lat="43.30488" lon="5.71053">
        <ele>679.6</ele>
        <time>2021-03-31T13:11:43Z</time>
      </trkpt>
      <trkpt lat="43.30489" lon="5.71059">
        <ele>679</ele>
        <time>2021-03-31T13:14:09Z</time>
      </trkpt>
      <trkpt lat="43.30484" lon="5.71065">
        <ele>677</ele>
        <time>2021-03-31T13:14:15Z</time>
      </trkpt>
      <trkpt lat="43.3048" lon="5.7107">
        <ele>675.3</ele>
        <time>2021-03-31T13:14:21Z</time>
      </trkpt>
      <trkpt lat="43.30476" lon="5.71075">
        <ele>673.7</ele>
        <time>2021-03-31T13:14:27Z</time>
      </trkpt>
      <trkpt lat="43.30474" lon="5.71082">
        <ele>672.3</ele>
        <time>2021-03-31T13:14:33Z</time>
      </trkpt>
      <trkpt lat="43.30472" lon="5.71088">
        <ele>671.5</ele>
        <time>2021-03-31T13:14:39Z</time>
      </trkpt>
      <trkpt lat="43.3047" lon="5.71094">
        <ele>670.7</ele>
        <time>2021-03-31T13:14:47Z</time>
      </trkpt>
      <trkpt lat="43.30469" lon="5.71102">
        <ele>670.1</ele>
        <time>2021-03-31T13:14:55Z</time>
      </trkpt>
      <trkpt lat="43.30466" lon="5.71108">
        <ele>669.1</ele>
        <time>2021-03-31T13:15:01Z</time>
      </trkpt>
      <trkpt lat="43.30464" lon="5.71113">
        <ele>668.2</ele>
        <time>2021-03-31T13:15:07Z</time>
      </trkpt>
      <trkpt lat="43.3046" lon="5.7112">
        <ele>667</ele>
        <time>2021-03-31T13:15:15Z</time>
      </trkpt>
      <trkpt lat="43.30459" lon="5.71127">
        <ele>666.3</ele>
        <time>2021-03-31T13:15:21Z</time>
      </trkpt>
      <trkpt lat="43.30456" lon="5.71133">
        <ele>665.4</ele>
        <time>2021-03-31T13:15:27Z</time>
      </trkpt>
      <trkpt lat="43.30454" lon="5.7114">
        <ele>664.5</ele>
        <time>2021-03-31T13:15:33Z</time>
      </trkpt>
      <trkpt lat="43.30452" lon="5.71147">
        <ele>663.5</ele>
        <time>2021-03-31T13:15:39Z</time>
      </trkpt>
      <trkpt lat="43.30449" lon="5.71154">
        <ele>662.6</ele>
        <time>2021-03-31T13:15:45Z</time>
      </trkpt>
      <trkpt lat="43.30447" lon="5.7116">
        <ele>661.8</ele>
        <time>2021-03-31T13:15:51Z</time>
      </trkpt>
      <trkpt lat="43.30446" lon="5.71167">
        <ele>661.2</ele>
        <time>2021-03-31T13:15:57Z</time>
      </trkpt>
      <trkpt lat="43.30444" lon="5.71174">
        <ele>660.1</ele>
        <time>2021-03-31T13:16:03Z</time>
      </trkpt>
      <trkpt lat="43.30441" lon="5.71182">
        <ele>658.7</ele>
        <time>2021-03-31T13:16:09Z</time>
      </trkpt>
      <trkpt lat="43.30437" lon="5.71189">
        <ele>657.4</ele>
        <time>2021-03-31T13:16:13Z</time>
      </trkpt>
      <trkpt lat="43.30436" lon="5.71196">
        <ele>656.6</ele>
        <time>2021-03-31T13:16:17Z</time>
      </trkpt>
      <trkpt lat="43.30436" lon="5.71202">
        <ele>656</ele>
        <time>2021-03-31T13:16:21Z</time>
      </trkpt>
      <trkpt lat="43.30433" lon="5.7121">
        <ele>654.8</ele>
        <time>2021-03-31T13:16:27Z</time>
      </trkpt>
      <trkpt lat="43.3043" lon="5.71217">
        <ele>653.5</ele>
        <time>2021-03-31T13:16:33Z</time>
      </trkpt>
      <trkpt lat="43.30426" lon="5.7122">
        <ele>651.9</ele>
        <time>2021-03-31T13:16:47Z</time>
      </trkpt>
      <trkpt lat="43.30419" lon="5.7122">
        <ele>649.9</ele>
        <time>2021-03-31T13:16:53Z</time>
      </trkpt>
      <trkpt lat="43.30415" lon="5.71217">
        <ele>649</ele>
        <time>2021-03-31T13:16:57Z</time>
      </trkpt>
      <trkpt lat="43.3041" lon="5.7121">
        <ele>648.7</ele>
        <time>2021-03-31T13:17:01Z</time>
      </trkpt>
      <trkpt lat="43.30407" lon="5.712">
        <ele>648.8</ele>
        <time>2021-03-31T13:17:05Z</time>
      </trkpt>
      <trkpt lat="43.30404" lon="5.71192">
        <ele>648.9</ele>
        <time>2021-03-31T13:17:09Z</time>
      </trkpt>
      <trkpt lat="43.30401" lon="5.71186">
        <ele>648.7</ele>
        <time>2021-03-31T13:17:13Z</time>
      </trkpt>
      <trkpt lat="43.30396" lon="5.71182">
        <ele>648.2</ele>
        <time>2021-03-31T13:17:17Z</time>
      </trkpt>
      <trkpt lat="43.3039" lon="5.71178">
        <ele>647.4</ele>
        <time>2021-03-31T13:17:21Z</time>
      </trkpt>
      <trkpt lat="43.30386" lon="5.71172">
        <ele>647.1</ele>
        <time>2021-03-31T13:17:25Z</time>
      </trkpt>
      <trkpt lat="43.30382" lon="5.71167">
        <ele>646.7</ele>
        <time>2021-03-31T13:17:29Z</time>
      </trkpt>
      <trkpt lat="43.30378" lon="5.71161">
        <ele>646.3</ele>
        <time>2021-03-31T13:17:33Z</time>
      </trkpt>
      <trkpt lat="43.30376" lon="5.71154">
        <ele>646.2</ele>
        <time>2021-03-31T13:17:37Z</time>
      </trkpt>
      <trkpt lat="43.30373" lon="5.71147">
        <ele>645.9</ele>
        <time>2021-03-31T13:17:41Z</time>
      </trkpt>
      <trkpt lat="43.30371" lon="5.71139">
        <ele>645.8</ele>
        <time>2021-03-31T13:17:45Z</time>
      </trkpt>
      <trkpt lat="43.3037" lon="5.71131">
        <ele>645.8</ele>
        <time>2021-03-31T13:17:49Z</time>
      </trkpt>
      <trkpt lat="43.3037" lon="5.71124">
        <ele>646.1</ele>
        <time>2021-03-31T13:17:53Z</time>
      </trkpt>
      <trkpt lat="43.30369" lon="5.71115">
        <ele>646.2</ele>
        <time>2021-03-31T13:17:57Z</time>
      </trkpt>
      <trkpt lat="43.3037" lon="5.71108">
        <ele>646.5</ele>
        <time>2021-03-31T13:18:01Z</time>
      </trkpt>
      <trkpt lat="43.30371" lon="5.711">
        <ele>647.1</ele>
        <time>2021-03-31T11:23:07Z</time>
      </trkpt>
      <trkpt lat="43.30371" lon="5.71092">
        <ele>647.4</ele>
        <time>2021-03-31T13:18:09Z</time>
      </trkpt>
      <trkpt lat="43.30371" lon="5.71084">
        <ele>647.7</ele>
        <time>2021-03-31T13:18:13Z</time>
      </trkpt>
      <trkpt lat="43.30373" lon="5.71076">
        <ele>648</ele>
        <time>2021-03-31T13:18:17Z</time>
      </trkpt>
      <trkpt lat="43.30374" lon="5.71069">
        <ele>648.5</ele>
        <time>2021-03-31T13:18:21Z</time>
      </trkpt>
      <trkpt lat="43.30376" lon="5.71061">
        <ele>648.9</ele>
        <time>2021-03-31T13:18:25Z</time>
      </trkpt>
      <trkpt lat="43.30377" lon="5.71054">
        <ele>649.3</ele>
        <time>2021-03-31T13:18:29Z</time>
      </trkpt>
      <trkpt lat="43.3038" lon="5.71047">
        <ele>649.9</ele>
        <time>2021-03-31T13:18:33Z</time>
      </trkpt>
      <trkpt lat="43.30382" lon="5.7104">
        <ele>650.5</ele>
        <time>2021-03-31T13:18:37Z</time>
      </trkpt>
      <trkpt lat="43.30384" lon="5.71034">
        <ele>651.2</ele>
        <time>2021-03-31T13:18:41Z</time>
      </trkpt>
      <trkpt lat="43.30385" lon="5.71026">
        <ele>651.6</ele>
        <time>2021-03-31T13:18:45Z</time>
      </trkpt>
      <trkpt lat="43.30385" lon="5.71017">
        <ele>651.7</ele>
        <time>2021-03-31T13:18:49Z</time>
      </trkpt>
      <trkpt lat="43.30384" lon="5.71009">
        <ele>651.5</ele>
        <time>2021-03-31T13:18:53Z</time>
      </trkpt>
      <trkpt lat="43.30383" lon="5.71001">
        <ele>651.4</ele>
        <time>2021-03-31T13:18:57Z</time>
      </trkpt>
      <trkpt lat="43.30383" lon="5.70992">
        <ele>651.9</ele>
        <time>2021-03-31T13:19:01Z</time>
      </trkpt>
      <trkpt lat="43.30383" lon="5.70985">
        <ele>652.3</ele>
        <time>2021-03-31T13:19:05Z</time>
      </trkpt>
      <trkpt lat="43.30382" lon="5.70975">
        <ele>652.7</ele>
        <time>2021-03-31T13:19:09Z</time>
      </trkpt>
      <trkpt lat="43.30382" lon="5.70968">
        <ele>653.1</ele>
        <time>2021-03-31T13:19:13Z</time>
      </trkpt>
      <trkpt lat="43.30383" lon="5.7096">
        <ele>653.8</ele>
        <time>2021-03-31T13:19:17Z</time>
      </trkpt>
      <trkpt lat="43.30383" lon="5.70952">
        <ele>654.2</ele>
        <time>2021-03-31T13:19:21Z</time>
      </trkpt>
      <trkpt lat="43.30382" lon="5.70944">
        <ele>654.4</ele>
        <time>2021-03-31T13:19:25Z</time>
      </trkpt>
      <trkpt lat="43.30381" lon="5.70937">
        <ele>654.5</ele>
        <time>2021-03-31T13:19:29Z</time>
      </trkpt>
      <trkpt lat="43.30379" lon="5.70929">
        <ele>654.5</ele>
        <time>2021-03-31T13:19:33Z</time>
      </trkpt>
      <trkpt lat="43.30377" lon="5.70922">
        <ele>654.2</ele>
        <time>2021-03-31T13:19:37Z</time>
      </trkpt>
      <trkpt lat="43.30374" lon="5.70915">
        <ele>653.8</ele>
        <time>2021-03-31T13:19:41Z</time>
      </trkpt>
      <trkpt lat="43.30371" lon="5.70908">
        <ele>653.5</ele>
        <time>2021-03-31T13:19:45Z</time>
      </trkpt>
      <trkpt lat="43.30368" lon="5.70902">
        <ele>653</ele>
        <time>2021-03-31T13:19:49Z</time>
      </trkpt>
      <trkpt lat="43.30363" lon="5.70896">
        <ele>652.1</ele>
        <time>2021-03-31T13:19:53Z</time>
      </trkpt>
      <trkpt lat="43.30358" lon="5.70891">
        <ele>651.2</ele>
        <time>2021-03-31T13:19:57Z</time>
      </trkpt>
      <trkpt lat="43.30353" lon="5.70886">
        <ele>650.2</ele>
        <time>2021-03-31T13:20:01Z</time>
      </trkpt>
      <trkpt lat="43.30349" lon="5.70881">
        <ele>649.3</ele>
        <time>2021-03-31T13:20:05Z</time>
      </trkpt>
      <trkpt lat="43.30344" lon="5.70876">
        <ele>648.4</ele>
        <time>2021-03-31T13:20:09Z</time>
      </trkpt>
      <trkpt lat="43.3034" lon="5.70872">
        <ele>647.5</ele>
        <time>2021-03-31T13:20:13Z</time>
      </trkpt>
      <trkpt lat="43.30335" lon="5.70867">
        <ele>646.8</ele>
        <time>2021-03-31T13:20:17Z</time>
      </trkpt>
      <trkpt lat="43.30332" lon="5.70861">
        <ele>646.3</ele>
        <time>2021-03-31T13:20:21Z</time>
      </trkpt>
      <trkpt lat="43.30328" lon="5.70855">
        <ele>646</ele>
        <time>2021-03-31T13:20:25Z</time>
      </trkpt>
      <trkpt lat="43.30324" lon="5.70849">
        <ele>645.7</ele>
        <time>2021-03-31T13:20:29Z</time>
      </trkpt>
      <trkpt lat="43.30321" lon="5.70842">
        <ele>645.4</ele>
        <time>2021-03-31T13:20:33Z</time>
      </trkpt>
      <trkpt lat="43.30317" lon="5.70835">
        <ele>645.2</ele>
        <time>2021-03-31T13:20:37Z</time>
      </trkpt>
      <trkpt lat="43.30314" lon="5.70827">
        <ele>644.9</ele>
        <time>2021-03-31T13:20:41Z</time>
      </trkpt>
      <trkpt lat="43.30311" lon="5.7082">
        <ele>644.4</ele>
        <time>2021-03-31T13:20:45Z</time>
      </trkpt>
      <trkpt lat="43.30309" lon="5.70813">
        <ele>644</ele>
        <time>2021-03-31T13:20:49Z</time>
      </trkpt>
      <trkpt lat="43.30307" lon="5.70807">
        <ele>643.7</ele>
        <time>2021-03-31T13:20:53Z</time>
      </trkpt>
      <trkpt lat="43.30306" lon="5.708">
        <ele>643.6</ele>
        <time>2021-03-31T13:20:57Z</time>
      </trkpt>
      <trkpt lat="43.30304" lon="5.70793">
        <ele>643.5</ele>
        <time>2021-03-31T13:21:01Z</time>
      </trkpt>
      <trkpt lat="43.30303" lon="5.70784">
        <ele>643.4</ele>
        <time>2021-03-31T13:21:07Z</time>
      </trkpt>
      <trkpt lat="43.30301" lon="5.70777">
        <ele>643.2</ele>
        <time>2021-03-31T13:21:11Z</time>
      </trkpt>
      <trkpt lat="43.30301" lon="5.7077">
        <ele>643.4</ele>
        <time>2021-03-31T13:21:15Z</time>
      </trkpt>
      <trkpt lat="43.30301" lon="5.70763">
        <ele>643.6</ele>
        <time>2021-03-31T13:21:19Z</time>
      </trkpt>
      <trkpt lat="43.30302" lon="5.70756">
        <ele>643.9</ele>
        <time>2021-03-31T13:21:23Z</time>
      </trkpt>
      <trkpt lat="43.30304" lon="5.7075">
        <ele>644.6</ele>
        <time>2021-03-31T13:21:31Z</time>
      </trkpt>
      <trkpt lat="43.30308" lon="5.70749">
        <ele>645.8</ele>
        <time>2021-03-31T13:21:57Z</time>
      </trkpt>
      <trkpt lat="43.30313" lon="5.70748">
        <ele>647</ele>
        <time>2021-03-31T13:22:07Z</time>
      </trkpt>
      <trkpt lat="43.30317" lon="5.70746">
        <ele>648.1</ele>
        <time>2021-03-31T13:22:17Z</time>
      </trkpt>
      <trkpt lat="43.3032" lon="5.70741">
        <ele>649</ele>
        <time>2021-03-31T13:22:25Z</time>
      </trkpt>
      <trkpt lat="43.30323" lon="5.70736">
        <ele>650</ele>
        <time>2021-03-31T13:22:35Z</time>
      </trkpt>
      <trkpt lat="43.30328" lon="5.70732">
        <ele>651.4</ele>
        <time>2021-03-31T13:22:49Z</time>
      </trkpt>
      <trkpt lat="43.30332" lon="5.7073">
        <ele>652.6</ele>
        <time>2021-03-31T13:23:05Z</time>
      </trkpt>
      <trkpt lat="43.30337" lon="5.70727">
        <ele>654.1</ele>
        <time>2021-03-31T13:23:21Z</time>
      </trkpt>
      <trkpt lat="43.30331" lon="5.70726">
        <ele>652.7</ele>
        <time>2021-03-31T13:24:13Z</time>
      </trkpt>
      <trkpt lat="43.30325" lon="5.70725">
        <ele>651.1</ele>
        <time>2021-03-31T13:24:23Z</time>
      </trkpt>
      <trkpt lat="43.30322" lon="5.7073">
        <ele>649.9</ele>
        <time>2021-03-31T13:24:49Z</time>
      </trkpt>
      <trkpt lat="43.30321" lon="5.70736">
        <ele>649.4</ele>
        <time>2021-03-31T13:25:39Z</time>
      </trkpt>
      <trkpt lat="43.30317" lon="5.7074">
        <ele>648.3</ele>
        <time>2021-03-31T13:25:57Z</time>
      </trkpt>
      <trkpt lat="43.30322" lon="5.7074">
        <ele>649.5</ele>
        <time>2021-03-31T13:26:15Z</time>
      </trkpt>
      <trkpt lat="43.30323" lon="5.70733">
        <ele>650</ele>
        <time>2021-03-31T13:26:23Z</time>
      </trkpt>
      <trkpt lat="43.30324" lon="5.70727">
        <ele>650.6</ele>
        <time>2021-03-31T13:26:31Z</time>
      </trkpt>
      <trkpt lat="43.30325" lon="5.70721">
        <ele>651.2</ele>
        <time>2021-03-31T13:27:15Z</time>
      </trkpt>
      <trkpt lat="43.30326" lon="5.70714">
        <ele>651.7</ele>
        <time>2021-03-31T13:27:31Z</time>
      </trkpt>
      <trkpt lat="43.30322" lon="5.7071">
        <ele>650.8</ele>
        <time>2021-03-31T13:28:01Z</time>
      </trkpt>
      <trkpt lat="43.30327" lon="5.70706">
        <ele>652.2</ele>
        <time>2021-03-31T13:28:09Z</time>
      </trkpt>
      <trkpt lat="43.30331" lon="5.70706">
        <ele>653.5</ele>
        <time>2021-03-31T13:28:25Z</time>
      </trkpt>
      <trkpt lat="43.3033" lon="5.70712">
        <ele>653</ele>
        <time>2021-03-31T13:28:47Z</time>
      </trkpt>
      <trkpt lat="43.30326" lon="5.70711">
        <ele>651.7</ele>
        <time>2021-03-31T13:29:49Z</time>
      </trkpt>
      <trkpt lat="43.30321" lon="5.70712">
        <ele>650.4</ele>
        <time>2021-03-31T13:30:07Z</time>
      </trkpt>
      <trkpt lat="43.3032" lon="5.70719">
        <ele>649.8</ele>
        <time>2021-03-31T13:30:17Z</time>
      </trkpt>
      <trkpt lat="43.30317" lon="5.70724">
        <ele>648.9</ele>
        <time>2021-03-31T13:30:27Z</time>
      </trkpt>
      <trkpt lat="43.30318" lon="5.70731">
        <ele>648.9</ele>
        <time>2021-03-31T13:30:37Z</time>
      </trkpt>
      <trkpt lat="43.30323" lon="5.70733">
        <ele>650.1</ele>
        <time>2021-03-31T13:31:37Z</time>
      </trkpt>
      <trkpt lat="43.30321" lon="5.70739">
        <ele>649.2</ele>
        <time>2021-03-31T13:33:09Z</time>
      </trkpt>
      <trkpt lat="43.30317" lon="5.70744">
        <ele>648</ele>
        <time>2021-03-31T13:33:19Z</time>
      </trkpt>
      <trkpt lat="43.30313" lon="5.70747">
        <ele>646.9</ele>
        <time>2021-03-31T13:33:29Z</time>
      </trkpt>
      <trkpt lat="43.30308" lon="5.70749">
        <ele>645.7</ele>
        <time>2021-03-31T13:33:37Z</time>
      </trkpt>
      <trkpt lat="43.30304" lon="5.70751">
        <ele>644.5</ele>
        <time>2021-03-31T13:33:55Z</time>
      </trkpt>
      <trkpt lat="43.30304" lon="5.70744">
        <ele>644.8</ele>
        <time>2021-03-31T13:34:01Z</time>
      </trkpt>
      <trkpt lat="43.30305" lon="5.70737">
        <ele>645.1</ele>
        <time>2021-03-31T13:34:07Z</time>
      </trkpt>
      <trkpt lat="43.30305" lon="5.70728">
        <ele>645.5</ele>
        <time>2021-03-31T13:34:13Z</time>
      </trkpt>
      <trkpt lat="43.30307" lon="5.70719">
        <ele>646.3</ele>
        <time>2021-03-31T13:34:19Z</time>
      </trkpt>
      <trkpt lat="43.30309" lon="5.70713">
        <ele>647.1</ele>
        <time>2021-03-31T13:34:23Z</time>
      </trkpt>
      <trkpt lat="43.3031" lon="5.70706">
        <ele>647.4</ele>
        <time>2021-03-31T13:34:27Z</time>
      </trkpt>
      <trkpt lat="43.30311" lon="5.707">
        <ele>647.9</ele>
        <time>2021-03-31T13:34:31Z</time>
      </trkpt>
      <trkpt lat="43.3031" lon="5.70693">
        <ele>648</ele>
        <time>2021-03-31T13:34:35Z</time>
      </trkpt>
      <trkpt lat="43.30309" lon="5.70684">
        <ele>648</ele>
        <time>2021-03-31T13:34:41Z</time>
      </trkpt>
      <trkpt lat="43.30308" lon="5.70678">
        <ele>647.7</ele>
        <time>2021-03-31T13:34:45Z</time>
      </trkpt>
      <trkpt lat="43.30306" lon="5.70672">
        <ele>647.3</ele>
        <time>2021-03-31T13:34:49Z</time>
      </trkpt>
      <trkpt lat="43.30305" lon="5.70666">
        <ele>647.4</ele>
        <time>2021-03-31T13:34:53Z</time>
      </trkpt>
      <trkpt lat="43.30305" lon="5.70659">
        <ele>647.6</ele>
        <time>2021-03-31T13:34:57Z</time>
      </trkpt>
      <trkpt lat="43.30303" lon="5.70652">
        <ele>647.7</ele>
        <time>2021-03-31T13:35:01Z</time>
      </trkpt>
      <trkpt lat="43.30303" lon="5.70643">
        <ele>648.1</ele>
        <time>2021-03-31T13:35:07Z</time>
      </trkpt>
      <trkpt lat="43.30302" lon="5.70637">
        <ele>648.3</ele>
        <time>2021-03-31T13:35:11Z</time>
      </trkpt>
      <trkpt lat="43.30301" lon="5.70629">
        <ele>648.5</ele>
        <time>2021-03-31T13:35:15Z</time>
      </trkpt>
      <trkpt lat="43.303" lon="5.70623">
        <ele>648.6</ele>
        <time>2021-03-31T13:35:19Z</time>
      </trkpt>
      <trkpt lat="43.30299" lon="5.70617">
        <ele>648.6</ele>
        <time>2021-03-31T13:35:23Z</time>
      </trkpt>
      <trkpt lat="43.30298" lon="5.7061">
        <ele>648.6</ele>
        <time>2021-03-31T13:35:27Z</time>
      </trkpt>
      <trkpt lat="43.30297" lon="5.70603">
        <ele>648.6</ele>
        <time>2021-03-31T13:35:31Z</time>
      </trkpt>
      <trkpt lat="43.30296" lon="5.70596">
        <ele>648.7</ele>
        <time>2021-03-31T13:35:35Z</time>
      </trkpt>
      <trkpt lat="43.30295" lon="5.70589">
        <ele>648.7</ele>
        <time>2021-03-31T13:35:39Z</time>
      </trkpt>
      <trkpt lat="43.30293" lon="5.70582">
        <ele>648.7</ele>
        <time>2021-03-31T13:35:43Z</time>
      </trkpt>
      <trkpt lat="43.30292" lon="5.70575">
        <ele>648.7</ele>
        <time>2021-03-31T13:35:47Z</time>
      </trkpt>
      <trkpt lat="43.30291" lon="5.70569">
        <ele>648.9</ele>
        <time>2021-03-31T13:35:51Z</time>
      </trkpt>
      <trkpt lat="43.3029" lon="5.70562">
        <ele>649</ele>
        <time>2021-03-31T13:35:55Z</time>
      </trkpt>
      <trkpt lat="43.30288" lon="5.70555">
        <ele>649.1</ele>
        <time>2021-03-31T13:35:59Z</time>
      </trkpt>
      <trkpt lat="43.30287" lon="5.70547">
        <ele>649.1</ele>
        <time>2021-03-31T13:36:03Z</time>
      </trkpt>
      <trkpt lat="43.30285" lon="5.70541">
        <ele>649</ele>
        <time>2021-03-31T13:36:07Z</time>
      </trkpt>
      <trkpt lat="43.30283" lon="5.70534">
        <ele>649</ele>
        <time>2021-03-31T13:36:11Z</time>
      </trkpt>
      <trkpt lat="43.30282" lon="5.70526">
        <ele>649</ele>
        <time>2021-03-31T13:36:15Z</time>
      </trkpt>
      <trkpt lat="43.30281" lon="5.70519">
        <ele>649.2</ele>
        <time>2021-03-31T13:36:19Z</time>
      </trkpt>
      <trkpt lat="43.30279" lon="5.70511">
        <ele>649.1</ele>
        <time>2021-03-31T13:26:31Z</time>
      </trkpt>
      <trkpt lat="43.30276" lon="5.70504">
        <ele>648.8</ele>
        <time>2021-03-31T13:36:27Z</time>
      </trkpt>
      <trkpt lat="43.30274" lon="5.70495">
        <ele>648.8</ele>
        <time>2021-03-31T13:36:33Z</time>
      </trkpt>
      <trkpt lat="43.30273" lon="5.70488">
        <ele>648.6</ele>
        <time>2021-03-31T13:36:37Z</time>
      </trkpt>
      <trkpt lat="43.30272" lon="5.7048">
        <ele>648.5</ele>
        <time>2021-03-31T13:36:41Z</time>
      </trkpt>
      <trkpt lat="43.30272" lon="5.70473">
        <ele>649.1</ele>
        <time>2021-03-31T13:36:45Z</time>
      </trkpt>
      <trkpt lat="43.30272" lon="5.70463">
        <ele>649.4</ele>
        <time>2021-03-31T13:36:51Z</time>
      </trkpt>
      <trkpt lat="43.30269" lon="5.70455">
        <ele>649</ele>
        <time>2021-03-31T13:36:55Z</time>
      </trkpt>
      <trkpt lat="43.30268" lon="5.70448">
        <ele>648.9</ele>
        <time>2021-03-31T13:36:59Z</time>
      </trkpt>
      <trkpt lat="43.30267" lon="5.70439">
        <ele>649.1</ele>
        <time>2021-03-31T13:37:03Z</time>
      </trkpt>
      <trkpt lat="43.30267" lon="5.70431">
        <ele>649.3</ele>
        <time>2021-03-31T13:37:07Z</time>
      </trkpt>
      <trkpt lat="43.30267" lon="5.70424">
        <ele>649.9</ele>
        <time>2021-03-31T13:37:11Z</time>
      </trkpt>
      <trkpt lat="43.30265" lon="5.70417">
        <ele>649.6</ele>
        <time>2021-03-31T13:37:15Z</time>
      </trkpt>
      <trkpt lat="43.30263" lon="5.7041">
        <ele>648.8</ele>
        <time>2021-03-31T13:37:19Z</time>
      </trkpt>
      <trkpt lat="43.30259" lon="5.70404">
        <ele>647.7</ele>
        <time>2021-03-31T13:37:23Z</time>
      </trkpt>
      <trkpt lat="43.30256" lon="5.70397">
        <ele>646.8</ele>
        <time>2021-03-31T13:37:27Z</time>
      </trkpt>
      <trkpt lat="43.30254" lon="5.7039">
        <ele>646.4</ele>
        <time>2021-03-31T13:37:31Z</time>
      </trkpt>
      <trkpt lat="43.30252" lon="5.70381">
        <ele>646.1</ele>
        <time>2021-03-31T13:37:35Z</time>
      </trkpt>
      <trkpt lat="43.3025" lon="5.70374">
        <ele>645.6</ele>
        <time>2021-03-31T13:37:39Z</time>
      </trkpt>
      <trkpt lat="43.30248" lon="5.70367">
        <ele>645.3</ele>
        <time>2021-03-31T13:37:43Z</time>
      </trkpt>
      <trkpt lat="43.30247" lon="5.7036">
        <ele>645.2</ele>
        <time>2021-03-31T08:34:49Z</time>
      </trkpt>
      <trkpt lat="43.30244" lon="5.70352">
        <ele>644.8</ele>
        <time>2021-03-31T13:37:51Z</time>
      </trkpt>
      <trkpt lat="43.30242" lon="5.70344">
        <ele>644.6</ele>
        <time>2021-03-31T13:37:55Z</time>
      </trkpt>
      <trkpt lat="43.30241" lon="5.70337">
        <ele>644.6</ele>
        <time>2021-03-31T13:37:59Z</time>
      </trkpt>
      <trkpt lat="43.3024" lon="5.7033">
        <ele>644.5</ele>
        <time>2021-03-31T13:38:03Z</time>
      </trkpt>
      <trkpt lat="43.30239" lon="5.70322">
        <ele>644.4</ele>
        <time>2021-03-31T13:38:07Z</time>
      </trkpt>
      <trkpt lat="43.30238" lon="5.70314">
        <ele>644.3</ele>
        <time>2021-03-31T13:38:11Z</time>
      </trkpt>
      <trkpt lat="43.30237" lon="5.70307">
        <ele>644.3</ele>
        <time>2021-03-31T13:38:15Z</time>
      </trkpt>
      <trkpt lat="43.30236" lon="5.703">
        <ele>644.3</ele>
        <time>2021-03-31T13:38:19Z</time>
      </trkpt>
      <trkpt lat="43.30234" lon="5.70294">
        <ele>644.1</ele>
        <time>2021-03-31T13:38:23Z</time>
      </trkpt>
      <trkpt lat="43.30234" lon="5.70287">
        <ele>644</ele>
        <time>2021-03-31T13:38:27Z</time>
      </trkpt>
      <trkpt lat="43.30232" lon="5.70279">
        <ele>643.9</ele>
        <time>2021-03-31T13:38:31Z</time>
      </trkpt>
      <trkpt lat="43.30232" lon="5.70272">
        <ele>644</ele>
        <time>2021-03-31T13:38:35Z</time>
      </trkpt>
      <trkpt lat="43.30233" lon="5.70265">
        <ele>644.4</ele>
        <time>2021-03-31T13:38:39Z</time>
      </trkpt>
      <trkpt lat="43.30233" lon="5.70257">
        <ele>644.7</ele>
        <time>2021-03-31T13:38:43Z</time>
      </trkpt>
      <trkpt lat="43.30232" lon="5.7025">
        <ele>644.7</ele>
        <time>2021-03-31T13:38:47Z</time>
      </trkpt>
      <trkpt lat="43.30232" lon="5.70243">
        <ele>644.6</ele>
        <time>2021-03-31T13:38:51Z</time>
      </trkpt>
      <trkpt lat="43.30231" lon="5.70235">
        <ele>644.4</ele>
        <time>2021-03-31T13:38:55Z</time>
      </trkpt>
      <trkpt lat="43.3023" lon="5.70228">
        <ele>644.3</ele>
        <time>2021-03-31T13:38:59Z</time>
      </trkpt>
      <trkpt lat="43.3023" lon="5.70219">
        <ele>644.4</ele>
        <time>2021-03-31T13:39:03Z</time>
      </trkpt>
      <trkpt lat="43.30229" lon="5.70211">
        <ele>644.4</ele>
        <time>2021-03-31T13:39:07Z</time>
      </trkpt>
      <trkpt lat="43.30228" lon="5.70202">
        <ele>644.2</ele>
        <time>2021-03-31T13:39:11Z</time>
      </trkpt>
      <trkpt lat="43.30228" lon="5.70195">
        <ele>644.2</ele>
        <time>2021-03-31T13:39:15Z</time>
      </trkpt>
      <trkpt lat="43.30227" lon="5.70188">
        <ele>644.2</ele>
        <time>2021-03-31T13:39:19Z</time>
      </trkpt>
      <trkpt lat="43.30227" lon="5.70182">
        <ele>644.2</ele>
        <time>2021-03-31T13:39:23Z</time>
      </trkpt>
      <trkpt lat="43.30226" lon="5.70175">
        <ele>644</ele>
        <time>2021-03-31T13:39:27Z</time>
      </trkpt>
      <trkpt lat="43.30227" lon="5.70168">
        <ele>644.5</ele>
        <time>2021-03-31T13:39:31Z</time>
      </trkpt>
      <trkpt lat="43.30227" lon="5.70161">
        <ele>644.9</ele>
        <time>2021-03-31T13:39:35Z</time>
      </trkpt>
      <trkpt lat="43.30226" lon="5.70154">
        <ele>645.2</ele>
        <time>2021-03-31T13:39:39Z</time>
      </trkpt>
      <trkpt lat="43.30226" lon="5.70146">
        <ele>645.7</ele>
        <time>2021-03-31T13:39:43Z</time>
      </trkpt>
      <trkpt lat="43.30226" lon="5.70138">
        <ele>646.2</ele>
        <time>2021-03-31T13:39:47Z</time>
      </trkpt>
      <trkpt lat="43.30225" lon="5.70131">
        <ele>646.6</ele>
        <time>2021-03-31T13:39:51Z</time>
      </trkpt>
      <trkpt lat="43.30224" lon="5.70124">
        <ele>646.8</ele>
        <time>2021-03-31T13:39:55Z</time>
      </trkpt>
      <trkpt lat="43.30224" lon="5.70117">
        <ele>647.3</ele>
        <time>2021-03-31T13:39:59Z</time>
      </trkpt>
      <trkpt lat="43.30224" lon="5.70109">
        <ele>647.8</ele>
        <time>2021-03-31T13:40:03Z</time>
      </trkpt>
      <trkpt lat="43.30223" lon="5.70102">
        <ele>648</ele>
        <time>2021-03-31T13:40:07Z</time>
      </trkpt>
      <trkpt lat="43.30222" lon="5.70095">
        <ele>648</ele>
        <time>2021-03-31T13:40:11Z</time>
      </trkpt>
      <trkpt lat="43.30219" lon="5.70087">
        <ele>647.9</ele>
        <time>2021-03-31T10:58:13Z</time>
      </trkpt>
      <trkpt lat="43.30218" lon="5.7008">
        <ele>648</ele>
        <time>2021-03-31T13:40:19Z</time>
      </trkpt>
      <trkpt lat="43.30217" lon="5.70074">
        <ele>648.5</ele>
        <time>2021-03-31T13:40:23Z</time>
      </trkpt>
      <trkpt lat="43.30216" lon="5.70067">
        <ele>648.9</ele>
        <time>2021-03-31T13:40:27Z</time>
      </trkpt>
      <trkpt lat="43.30214" lon="5.70059">
        <ele>649.4</ele>
        <time>2021-03-31T13:40:31Z</time>
      </trkpt>
      <trkpt lat="43.30213" lon="5.70052">
        <ele>649.7</ele>
        <time>2021-03-31T13:40:35Z</time>
      </trkpt>
      <trkpt lat="43.30211" lon="5.70045">
        <ele>649.9</ele>
        <time>2021-03-31T13:40:39Z</time>
      </trkpt>
      <trkpt lat="43.30208" lon="5.70036">
        <ele>650.1</ele>
        <time>2021-03-31T13:40:45Z</time>
      </trkpt>
      <trkpt lat="43.30206" lon="5.7003">
        <ele>650.1</ele>
        <time>2021-03-31T13:40:49Z</time>
      </trkpt>
      <trkpt lat="43.30204" lon="5.70023">
        <ele>650.3</ele>
        <time>2021-03-31T13:40:53Z</time>
      </trkpt>
      <trkpt lat="43.30202" lon="5.70016">
        <ele>650.4</ele>
        <time>2021-03-31T13:40:57Z</time>
      </trkpt>
      <trkpt lat="43.302" lon="5.70008">
        <ele>650.5</ele>
        <time>2021-03-31T13:41:01Z</time>
      </trkpt>
      <trkpt lat="43.30198" lon="5.70002">
        <ele>650.7</ele>
        <time>2021-03-31T13:41:05Z</time>
      </trkpt>
      <trkpt lat="43.30198" lon="5.69995">
        <ele>651.6</ele>
        <time>2021-03-31T13:41:09Z</time>
      </trkpt>
      <trkpt lat="43.30198" lon="5.69987">
        <ele>652.5</ele>
        <time>2021-03-31T13:41:13Z</time>
      </trkpt>
      <trkpt lat="43.30198" lon="5.69979">
        <ele>653.3</ele>
        <time>2021-03-31T13:41:17Z</time>
      </trkpt>
      <trkpt lat="43.30197" lon="5.69973">
        <ele>653.9</ele>
        <time>2021-03-31T13:41:21Z</time>
      </trkpt>
      <trkpt lat="43.30196" lon="5.69964">
        <ele>654.8</ele>
        <time>2021-03-31T13:41:25Z</time>
      </trkpt>
      <trkpt lat="43.30195" lon="5.69957">
        <ele>655</ele>
        <time>2021-03-31T13:41:29Z</time>
      </trkpt>
      <trkpt lat="43.3019" lon="5.69952">
        <ele>654.1</ele>
        <time>2021-03-31T13:41:33Z</time>
      </trkpt>
      <trkpt lat="43.30186" lon="5.69947">
        <ele>653.5</ele>
        <time>2021-03-31T13:41:37Z</time>
      </trkpt>
      <trkpt lat="43.3018" lon="5.69944">
        <ele>651.6</ele>
        <time>2021-03-31T13:41:41Z</time>
      </trkpt>
      <trkpt lat="43.30173" lon="5.69946">
        <ele>649</ele>
        <time>2021-03-31T13:41:45Z</time>
      </trkpt>
      <trkpt lat="43.30167" lon="5.69946">
        <ele>647</ele>
        <time>2021-03-31T13:41:49Z</time>
      </trkpt>
      <trkpt lat="43.30162" lon="5.69944">
        <ele>646.2</ele>
        <time>2021-03-31T13:41:53Z</time>
      </trkpt>
      <trkpt lat="43.30157" lon="5.69941">
        <ele>645.8</ele>
        <time>2021-03-31T13:41:57Z</time>
      </trkpt>
      <trkpt lat="43.30153" lon="5.69937">
        <ele>645.5</ele>
        <time>2021-03-31T13:42:01Z</time>
      </trkpt>
      <trkpt lat="43.30148" lon="5.69932">
        <ele>645.2</ele>
        <time>2021-03-31T13:42:05Z</time>
      </trkpt>
      <trkpt lat="43.30144" lon="5.69927">
        <ele>645.1</ele>
        <time>2021-03-31T13:42:09Z</time>
      </trkpt>
      <trkpt lat="43.3014" lon="5.69922">
        <ele>645</ele>
        <time>2021-03-31T13:42:13Z</time>
      </trkpt>
      <trkpt lat="43.30136" lon="5.69917">
        <ele>644.8</ele>
        <time>2021-03-31T13:42:17Z</time>
      </trkpt>
      <trkpt lat="43.30132" lon="5.69912">
        <ele>644.7</ele>
        <time>2021-03-31T13:42:21Z</time>
      </trkpt>
      <trkpt lat="43.30129" lon="5.69907">
        <ele>644.8</ele>
        <time>2021-03-31T13:42:25Z</time>
      </trkpt>
      <trkpt lat="43.30126" lon="5.69901">
        <ele>644.8</ele>
        <time>2021-03-31T13:42:29Z</time>
      </trkpt>
      <trkpt lat="43.30123" lon="5.69896">
        <ele>644.8</ele>
        <time>2021-03-31T13:42:33Z</time>
      </trkpt>
      <trkpt lat="43.3012" lon="5.69889">
        <ele>644.9</ele>
        <time>2021-03-31T13:42:37Z</time>
      </trkpt>
      <trkpt lat="43.30118" lon="5.69883">
        <ele>645</ele>
        <time>2021-03-31T13:42:41Z</time>
      </trkpt>
      <trkpt lat="43.30115" lon="5.69877">
        <ele>645</ele>
        <time>2021-03-31T13:42:45Z</time>
      </trkpt>
      <trkpt lat="43.30112" lon="5.6987">
        <ele>645.1</ele>
        <time>2021-03-31T13:42:49Z</time>
      </trkpt>
      <trkpt lat="43.30109" lon="5.69864">
        <ele>645.1</ele>
        <time>2021-03-31T13:42:53Z</time>
      </trkpt>
      <trkpt lat="43.30106" lon="5.69856">
        <ele>645.2</ele>
        <time>2021-03-31T13:42:57Z</time>
      </trkpt>
      <trkpt lat="43.30103" lon="5.69849">
        <ele>645.1</ele>
        <time>2021-03-31T13:43:01Z</time>
      </trkpt>
      <trkpt lat="43.30101" lon="5.69844">
        <ele>645.2</ele>
        <time>2021-03-31T13:43:05Z</time>
      </trkpt>
      <trkpt lat="43.30099" lon="5.69837">
        <ele>645.2</ele>
        <time>2021-03-31T13:43:09Z</time>
      </trkpt>
      <trkpt lat="43.30097" lon="5.69831">
        <ele>645.1</ele>
        <time>2021-03-31T13:43:13Z</time>
      </trkpt>
      <trkpt lat="43.30096" lon="5.69825">
        <ele>645</ele>
        <time>2021-03-31T13:43:17Z</time>
      </trkpt>
      <trkpt lat="43.30094" lon="5.69819">
        <ele>644.7</ele>
        <time>2021-03-31T13:43:21Z</time>
      </trkpt>
      <trkpt lat="43.30092" lon="5.69811">
        <ele>644.3</ele>
        <time>2021-03-31T13:43:27Z</time>
      </trkpt>
      <trkpt lat="43.30092" lon="5.69804">
        <ele>644.2</ele>
        <time>2021-03-31T13:43:33Z</time>
      </trkpt>
      <trkpt lat="43.30092" lon="5.69797">
        <ele>644.4</ele>
        <time>2021-03-31T13:43:47Z</time>
      </trkpt>
      <trkpt lat="43.30092" lon="5.69788">
        <ele>644.4</ele>
        <time>2021-03-31T13:43:55Z</time>
      </trkpt>
      <trkpt lat="43.30091" lon="5.69782">
        <ele>644.2</ele>
        <time>2021-03-31T13:43:59Z</time>
      </trkpt>
      <trkpt lat="43.3009" lon="5.69774">
        <ele>644.1</ele>
        <time>2021-03-31T13:44:03Z</time>
      </trkpt>
      <trkpt lat="43.3009" lon="5.69767">
        <ele>644</ele>
        <time>2021-03-31T13:44:07Z</time>
      </trkpt>
      <trkpt lat="43.30089" lon="5.69761">
        <ele>643.8</ele>
        <time>2021-03-31T13:44:11Z</time>
      </trkpt>
      <trkpt lat="43.30088" lon="5.69752">
        <ele>643.7</ele>
        <time>2021-03-31T13:44:23Z</time>
      </trkpt>
      <trkpt lat="43.3009" lon="5.69746">
        <ele>644.2</ele>
        <time>2021-03-31T13:44:27Z</time>
      </trkpt>
      <trkpt lat="43.30091" lon="5.69739">
        <ele>644.6</ele>
        <time>2021-03-31T13:44:31Z</time>
      </trkpt>
      <trkpt lat="43.30089" lon="5.69732">
        <ele>644</ele>
        <time>2021-03-31T13:44:35Z</time>
      </trkpt>
      <trkpt lat="43.30088" lon="5.69726">
        <ele>643.7</ele>
        <time>2021-03-31T13:44:39Z</time>
      </trkpt>
      <trkpt lat="43.30088" lon="5.69718">
        <ele>643.8</ele>
        <time>2021-03-31T13:44:43Z</time>
      </trkpt>
      <trkpt lat="43.30089" lon="5.69711">
        <ele>644.2</ele>
        <time>2021-03-31T13:44:47Z</time>
      </trkpt>
      <trkpt lat="43.3009" lon="5.69704">
        <ele>644.4</ele>
        <time>2021-03-31T13:44:51Z</time>
      </trkpt>
      <trkpt lat="43.30091" lon="5.69696">
        <ele>644.6</ele>
        <time>2021-03-31T13:44:55Z</time>
      </trkpt>
      <trkpt lat="43.30091" lon="5.6969">
        <ele>644.8</ele>
        <time>2021-03-31T13:44:59Z</time>
      </trkpt>
      <trkpt lat="43.30092" lon="5.69682">
        <ele>645</ele>
        <time>2021-03-31T13:45:03Z</time>
      </trkpt>
      <trkpt lat="43.30092" lon="5.69675">
        <ele>645</ele>
        <time>2021-03-31T13:45:07Z</time>
      </trkpt>
      <trkpt lat="43.3009" lon="5.69667">
        <ele>644.5</ele>
        <time>2021-03-31T13:45:11Z</time>
      </trkpt>
      <trkpt lat="43.30089" lon="5.69659">
        <ele>644.2</ele>
        <time>2021-03-31T13:45:15Z</time>
      </trkpt>
      <trkpt lat="43.30088" lon="5.69651">
        <ele>644.3</ele>
        <time>2021-03-31T13:45:19Z</time>
      </trkpt>
      <trkpt lat="43.30086" lon="5.69643">
        <ele>644</ele>
        <time>2021-03-31T13:45:23Z</time>
      </trkpt>
      <trkpt lat="43.30084" lon="5.69636">
        <ele>643.5</ele>
        <time>2021-03-31T13:45:27Z</time>
      </trkpt>
      <trkpt lat="43.30083" lon="5.69629">
        <ele>643.2</ele>
        <time>2021-03-31T13:45:31Z</time>
      </trkpt>
      <trkpt lat="43.30081" lon="5.69623">
        <ele>643.1</ele>
        <time>2021-03-31T13:45:35Z</time>
      </trkpt>
      <trkpt lat="43.3008" lon="5.69617">
        <ele>642.8</ele>
        <time>2021-03-31T13:45:39Z</time>
      </trkpt>
      <trkpt lat="43.30078" lon="5.69611">
        <ele>642.6</ele>
        <time>2021-03-31T13:45:43Z</time>
      </trkpt>
      <trkpt lat="43.30076" lon="5.69603">
        <ele>642.3</ele>
        <time>2021-03-31T13:45:49Z</time>
      </trkpt>
      <trkpt lat="43.30073" lon="5.69595">
        <ele>641.7</ele>
        <time>2021-03-31T13:46:19Z</time>
      </trkpt>
      <trkpt lat="43.30073" lon="5.69587">
        <ele>641.9</ele>
        <time>2021-03-31T13:46:23Z</time>
      </trkpt>
      <trkpt lat="43.30072" lon="5.6958">
        <ele>641.9</ele>
        <time>2021-03-31T13:46:27Z</time>
      </trkpt>
      <trkpt lat="43.3007" lon="5.69574">
        <ele>641.4</ele>
        <time>2021-03-31T13:46:33Z</time>
      </trkpt>
      <trkpt lat="43.30069" lon="5.69568">
        <ele>641.3</ele>
        <time>2021-03-31T13:46:37Z</time>
      </trkpt>
      <trkpt lat="43.30067" lon="5.69561">
        <ele>640.9</ele>
        <time>2021-03-31T13:46:43Z</time>
      </trkpt>
      <trkpt lat="43.30067" lon="5.69552">
        <ele>641.2</ele>
        <time>2021-03-31T13:46:49Z</time>
      </trkpt>
      <trkpt lat="43.30066" lon="5.69546">
        <ele>641.1</ele>
        <time>2021-03-31T13:46:53Z</time>
      </trkpt>
      <trkpt lat="43.30064" lon="5.6954">
        <ele>640.6</ele>
        <time>2021-03-31T13:46:57Z</time>
      </trkpt>
      <trkpt lat="43.30062" lon="5.69531">
        <ele>640.4</ele>
        <time>2021-03-31T13:47:03Z</time>
      </trkpt>
      <trkpt lat="43.30062" lon="5.69522">
        <ele>640.7</ele>
        <time>2021-03-31T13:47:09Z</time>
      </trkpt>
      <trkpt lat="43.30062" lon="5.69515">
        <ele>640.7</ele>
        <time>2021-03-31T13:47:13Z</time>
      </trkpt>
      <trkpt lat="43.30061" lon="5.69506">
        <ele>640.6</ele>
        <time>2021-03-31T13:47:19Z</time>
      </trkpt>
      <trkpt lat="43.3006" lon="5.69498">
        <ele>640.5</ele>
        <time>2021-03-31T13:47:25Z</time>
      </trkpt>
      <trkpt lat="43.30058" lon="5.69489">
        <ele>640.5</ele>
        <time>2021-03-31T13:47:31Z</time>
      </trkpt>
      <trkpt lat="43.30059" lon="5.69482">
        <ele>640.7</ele>
        <time>2021-03-31T13:47:35Z</time>
      </trkpt>
      <trkpt lat="43.30058" lon="5.69476">
        <ele>640.8</ele>
        <time>2021-03-31T13:47:39Z</time>
      </trkpt>
      <trkpt lat="43.30056" lon="5.69468">
        <ele>640.5</ele>
        <time>2021-03-31T13:47:45Z</time>
      </trkpt>
      <trkpt lat="43.30053" lon="5.69461">
        <ele>639.8</ele>
        <time>2021-03-31T13:47:51Z</time>
      </trkpt>
      <trkpt lat="43.30049" lon="5.69455">
        <ele>639.2</ele>
        <time>2021-03-31T13:47:55Z</time>
      </trkpt>
      <trkpt lat="43.30046" lon="5.6945">
        <ele>638.5</ele>
        <time>2021-03-31T13:47:59Z</time>
      </trkpt>
      <trkpt lat="43.30043" lon="5.69442">
        <ele>637.9</ele>
        <time>2021-03-31T13:48:05Z</time>
      </trkpt>
      <trkpt lat="43.30041" lon="5.69434">
        <ele>637.6</ele>
        <time>2021-03-31T13:48:11Z</time>
      </trkpt>
      <trkpt lat="43.30039" lon="5.69428">
        <ele>637.4</ele>
        <time>2021-03-31T13:48:15Z</time>
      </trkpt>
      <trkpt lat="43.30036" lon="5.69419">
        <ele>637</ele>
        <time>2021-03-31T13:48:21Z</time>
      </trkpt>
      <trkpt lat="43.30035" lon="5.6941">
        <ele>636.9</ele>
        <time>2021-03-31T13:48:27Z</time>
      </trkpt>
      <trkpt lat="43.30034" lon="5.69403">
        <ele>636.9</ele>
        <time>2021-03-31T13:48:31Z</time>
      </trkpt>
      <trkpt lat="43.30032" lon="5.69397">
        <ele>636.7</ele>
        <time>2021-03-31T13:48:35Z</time>
      </trkpt>
      <trkpt lat="43.30031" lon="5.6939">
        <ele>636.5</ele>
        <time>2021-03-31T13:48:39Z</time>
      </trkpt>
      <trkpt lat="43.30029" lon="5.69384">
        <ele>636.3</ele>
        <time>2021-03-31T13:48:43Z</time>
      </trkpt>
      <trkpt lat="43.30028" lon="5.69377">
        <ele>636.2</ele>
        <time>2021-03-31T13:48:47Z</time>
      </trkpt>
      <trkpt lat="43.30027" lon="5.69371">
        <ele>636</ele>
        <time>2021-03-31T13:48:51Z</time>
      </trkpt>
      <trkpt lat="43.30026" lon="5.69364">
        <ele>635.9</ele>
        <time>2021-03-31T13:48:55Z</time>
      </trkpt>
      <trkpt lat="43.30024" lon="5.69358">
        <ele>635.7</ele>
        <time>2021-03-31T13:48:59Z</time>
      </trkpt>
      <trkpt lat="43.30023" lon="5.69352">
        <ele>635.5</ele>
        <time>2021-03-31T13:49:03Z</time>
      </trkpt>
      <trkpt lat="43.30024" lon="5.69346">
        <ele>635.8</ele>
        <time>2021-03-31T13:49:07Z</time>
      </trkpt>
      <trkpt lat="43.30024" lon="5.69337">
        <ele>636.1</ele>
        <time>2021-03-31T13:49:13Z</time>
      </trkpt>
      <trkpt lat="43.30025" lon="5.6933">
        <ele>636.8</ele>
        <time>2021-03-31T13:49:17Z</time>
      </trkpt>
      <trkpt lat="43.30026" lon="5.69323">
        <ele>637.6</ele>
        <time>2021-03-31T13:49:21Z</time>
      </trkpt>
      <trkpt lat="43.30024" lon="5.69316">
        <ele>637.7</ele>
        <time>2021-03-31T13:49:25Z</time>
      </trkpt>
      <trkpt lat="43.30023" lon="5.69309">
        <ele>637.8</ele>
        <time>2021-03-31T13:49:29Z</time>
      </trkpt>
      <trkpt lat="43.30021" lon="5.69303">
        <ele>637.6</ele>
        <time>2021-03-31T13:49:33Z</time>
      </trkpt>
      <trkpt lat="43.30019" lon="5.69295">
        <ele>637.6</ele>
        <time>2021-03-31T13:49:37Z</time>
      </trkpt>
      <trkpt lat="43.30017" lon="5.69288">
        <ele>637.5</ele>
        <time>2021-03-31T13:49:41Z</time>
      </trkpt>
      <trkpt lat="43.30015" lon="5.69281">
        <ele>637.3</ele>
        <time>2021-03-31T13:49:45Z</time>
      </trkpt>
      <trkpt lat="43.30013" lon="5.69275">
        <ele>637</ele>
        <time>2021-03-31T13:49:49Z</time>
      </trkpt>
      <trkpt lat="43.3001" lon="5.69268">
        <ele>636.4</ele>
        <time>2021-03-31T13:49:53Z</time>
      </trkpt>
      <trkpt lat="43.30008" lon="5.69263">
        <ele>635.9</ele>
        <time>2021-03-31T13:49:57Z</time>
      </trkpt>
      <trkpt lat="43.30005" lon="5.69257">
        <ele>635.3</ele>
        <time>2021-03-31T13:50:01Z</time>
      </trkpt>
      <trkpt lat="43.30002" lon="5.69251">
        <ele>634.7</ele>
        <time>2021-03-31T13:50:05Z</time>
      </trkpt>
      <trkpt lat="43.3" lon="5.69246">
        <ele>634.5</ele>
        <time>2021-03-31T13:50:09Z</time>
      </trkpt>
      <trkpt lat="43.29998" lon="5.6924">
        <ele>634.8</ele>
        <time>2021-03-31T13:50:13Z</time>
      </trkpt>
      <trkpt lat="43.29997" lon="5.69234">
        <ele>635.1</ele>
        <time>2021-03-31T13:50:17Z</time>
      </trkpt>
      <trkpt lat="43.29995" lon="5.69227">
        <ele>635.6</ele>
        <time>2021-03-31T13:50:21Z</time>
      </trkpt>
      <trkpt lat="43.29994" lon="5.6922">
        <ele>636</ele>
        <time>2021-03-31T13:50:25Z</time>
      </trkpt>
      <trkpt lat="43.29993" lon="5.69213">
        <ele>636.5</ele>
        <time>2021-03-31T13:50:29Z</time>
      </trkpt>
      <trkpt lat="43.2999" lon="5.69207">
        <ele>636.6</ele>
        <time>2021-03-31T13:50:33Z</time>
      </trkpt>
      <trkpt lat="43.29988" lon="5.69201">
        <ele>636.6</ele>
        <time>2021-03-31T13:50:37Z</time>
      </trkpt>
      <trkpt lat="43.29985" lon="5.69195">
        <ele>636.5</ele>
        <time>2021-03-31T13:50:41Z</time>
      </trkpt>
      <trkpt lat="43.29982" lon="5.6919">
        <ele>636.2</ele>
        <time>2021-03-31T13:50:45Z</time>
      </trkpt>
      <trkpt lat="43.29978" lon="5.69185">
        <ele>635.8</ele>
        <time>2021-03-31T13:50:49Z</time>
      </trkpt>
      <trkpt lat="43.29975" lon="5.69181">
        <ele>635.2</ele>
        <time>2021-03-31T13:50:53Z</time>
      </trkpt>
      <trkpt lat="43.2997" lon="5.69174">
        <ele>634.7</ele>
        <time>2021-03-31T13:50:59Z</time>
      </trkpt>
      <trkpt lat="43.29967" lon="5.69166">
        <ele>634.6</ele>
        <time>2021-03-31T13:51:05Z</time>
      </trkpt>
      <trkpt lat="43.29966" lon="5.69157">
        <ele>635</ele>
        <time>2021-03-31T13:51:11Z</time>
      </trkpt>
      <trkpt lat="43.29965" lon="5.69148">
        <ele>635.2</ele>
        <time>2021-03-31T13:51:17Z</time>
      </trkpt>
      <trkpt lat="43.29963" lon="5.69141">
        <ele>635.3</ele>
        <time>2021-03-31T13:51:21Z</time>
      </trkpt>
      <trkpt lat="43.29961" lon="5.69132">
        <ele>635.4</ele>
        <time>2021-03-31T13:51:27Z</time>
      </trkpt>
      <trkpt lat="43.29959" lon="5.69126">
        <ele>635.2</ele>
        <time>2021-03-31T13:51:31Z</time>
      </trkpt>
      <trkpt lat="43.29957" lon="5.6912">
        <ele>634.9</ele>
        <time>2021-03-31T13:51:35Z</time>
      </trkpt>
      <trkpt lat="43.29955" lon="5.69113">
        <ele>634.9</ele>
        <time>2021-03-31T13:51:39Z</time>
      </trkpt>
      <trkpt lat="43.29952" lon="5.69107">
        <ele>634.5</ele>
        <time>2021-03-31T13:51:43Z</time>
      </trkpt>
      <trkpt lat="43.29949" lon="5.69101">
        <ele>634</ele>
        <time>2021-03-31T13:51:47Z</time>
      </trkpt>
      <trkpt lat="43.29947" lon="5.69095">
        <ele>633.7</ele>
        <time>2021-03-31T13:51:51Z</time>
      </trkpt>
      <trkpt lat="43.29945" lon="5.69088">
        <ele>633.5</ele>
        <time>2021-03-31T13:51:55Z</time>
      </trkpt>
      <trkpt lat="43.29943" lon="5.69079">
        <ele>633.4</ele>
        <time>2021-03-31T13:52:01Z</time>
      </trkpt>
      <trkpt lat="43.29941" lon="5.69072">
        <ele>633.1</ele>
        <time>2021-03-31T13:52:05Z</time>
      </trkpt>
      <trkpt lat="43.29939" lon="5.69066">
        <ele>633</ele>
        <time>2021-03-31T13:52:09Z</time>
      </trkpt>
      <trkpt lat="43.29937" lon="5.6906">
        <ele>632.8</ele>
        <time>2021-03-31T13:52:13Z</time>
      </trkpt>
      <trkpt lat="43.29936" lon="5.69054">
        <ele>632.7</ele>
        <time>2021-03-31T13:52:17Z</time>
      </trkpt>
      <trkpt lat="43.29934" lon="5.69047">
        <ele>632.5</ele>
        <time>2021-03-31T13:52:21Z</time>
      </trkpt>
      <trkpt lat="43.29933" lon="5.69042">
        <ele>632.2</ele>
        <time>2021-03-31T13:52:25Z</time>
      </trkpt>
      <trkpt lat="43.29932" lon="5.69035">
        <ele>632.2</ele>
        <time>2021-03-31T13:52:29Z</time>
      </trkpt>
      <trkpt lat="43.29929" lon="5.69029">
        <ele>631.9</ele>
        <time>2021-03-31T13:52:33Z</time>
      </trkpt>
      <trkpt lat="43.29928" lon="5.69022">
        <ele>631.8</ele>
        <time>2021-03-31T13:52:37Z</time>
      </trkpt>
      <trkpt lat="43.29926" lon="5.69015">
        <ele>631.6</ele>
        <time>2021-03-31T13:52:41Z</time>
      </trkpt>
      <trkpt lat="43.29925" lon="5.69008">
        <ele>631.5</ele>
        <time>2021-03-31T13:52:45Z</time>
      </trkpt>
      <trkpt lat="43.29924" lon="5.69002">
        <ele>631.6</ele>
        <time>2021-03-31T13:52:49Z</time>
      </trkpt>
      <trkpt lat="43.29924" lon="5.68993">
        <ele>632</ele>
        <time>2021-03-31T13:52:55Z</time>
      </trkpt>
      <trkpt lat="43.29923" lon="5.68986">
        <ele>632.1</ele>
        <time>2021-03-31T13:52:59Z</time>
      </trkpt>
      <trkpt lat="43.29921" lon="5.6898">
        <ele>631.9</ele>
        <time>2021-03-31T13:53:03Z</time>
      </trkpt>
      <trkpt lat="43.29918" lon="5.68974">
        <ele>631.5</ele>
        <time>2021-03-31T13:53:07Z</time>
      </trkpt>
      <trkpt lat="43.29916" lon="5.68968">
        <ele>631.1</ele>
        <time>2021-03-31T13:53:11Z</time>
      </trkpt>
      <trkpt lat="43.29912" lon="5.68963">
        <ele>630.8</ele>
        <time>2021-03-31T13:53:15Z</time>
      </trkpt>
      <trkpt lat="43.29909" lon="5.68959">
        <ele>630.4</ele>
        <time>2021-03-31T13:53:19Z</time>
      </trkpt>
      <trkpt lat="43.29904" lon="5.68955">
        <ele>629.7</ele>
        <time>2021-03-31T13:53:23Z</time>
      </trkpt>
      <trkpt lat="43.299" lon="5.68952">
        <ele>629.1</ele>
        <time>2021-03-31T13:53:27Z</time>
      </trkpt>
      <trkpt lat="43.29896" lon="5.68947">
        <ele>628.5</ele>
        <time>2021-03-31T13:53:31Z</time>
      </trkpt>
      <trkpt lat="43.29891" lon="5.68941">
        <ele>627.9</ele>
        <time>2021-03-31T13:53:37Z</time>
      </trkpt>
      <trkpt lat="43.29886" lon="5.68935">
        <ele>627.3</ele>
        <time>2021-03-31T13:53:43Z</time>
      </trkpt>
      <trkpt lat="43.29883" lon="5.68929">
        <ele>627</ele>
        <time>2021-03-31T13:53:47Z</time>
      </trkpt>
      <trkpt lat="43.2988" lon="5.68922">
        <ele>626.8</ele>
        <time>2021-03-31T13:53:53Z</time>
      </trkpt>
      <trkpt lat="43.29877" lon="5.68917">
        <ele>626.5</ele>
        <time>2021-03-31T13:53:57Z</time>
      </trkpt>
      <trkpt lat="43.29874" lon="5.68911">
        <ele>626.2</ele>
        <time>2021-03-31T13:54:01Z</time>
      </trkpt>
      <trkpt lat="43.29871" lon="5.68905">
        <ele>625.6</ele>
        <time>2021-03-31T13:54:05Z</time>
      </trkpt>
      <trkpt lat="43.29868" lon="5.68899">
        <ele>625.2</ele>
        <time>2021-03-31T13:54:09Z</time>
      </trkpt>
      <trkpt lat="43.29866" lon="5.68894">
        <ele>625</ele>
        <time>2021-03-31T13:54:13Z</time>
      </trkpt>
      <trkpt lat="43.29863" lon="5.68888">
        <ele>624.6</ele>
        <time>2021-03-31T13:54:17Z</time>
      </trkpt>
      <trkpt lat="43.29861" lon="5.68881">
        <ele>624.3</ele>
        <time>2021-03-31T13:54:21Z</time>
      </trkpt>
      <trkpt lat="43.29858" lon="5.68873">
        <ele>624</ele>
        <time>2021-03-31T13:54:27Z</time>
      </trkpt>
      <trkpt lat="43.29856" lon="5.68867">
        <ele>623.8</ele>
        <time>2021-03-31T13:54:31Z</time>
      </trkpt>
      <trkpt lat="43.29856" lon="5.6886">
        <ele>623.9</ele>
        <time>2021-03-31T13:54:37Z</time>
      </trkpt>
      <trkpt lat="43.29853" lon="5.68853">
        <ele>623.4</ele>
        <time>2021-03-31T13:54:53Z</time>
      </trkpt>
      <trkpt lat="43.29852" lon="5.68846">
        <ele>623.5</ele>
        <time>2021-03-31T13:54:57Z</time>
      </trkpt>
      <trkpt lat="43.29851" lon="5.6884">
        <ele>623.5</ele>
        <time>2021-03-31T13:55:01Z</time>
      </trkpt>
      <trkpt lat="43.2985" lon="5.68833">
        <ele>623.3</ele>
        <time>2021-03-31T13:55:05Z</time>
      </trkpt>
      <trkpt lat="43.29849" lon="5.68824">
        <ele>622.7</ele>
        <time>2021-03-31T13:55:11Z</time>
      </trkpt>
      <trkpt lat="43.2985" lon="5.68815">
        <ele>622.7</ele>
        <time>2021-03-31T13:55:17Z</time>
      </trkpt>
      <trkpt lat="43.29853" lon="5.68807">
        <ele>623.4</ele>
        <time>2021-03-31T13:55:21Z</time>
      </trkpt>
      <trkpt lat="43.29854" lon="5.68799">
        <ele>623.4</ele>
        <time>2021-03-31T13:55:25Z</time>
      </trkpt>
      <trkpt lat="43.29854" lon="5.68793">
        <ele>623.2</ele>
        <time>2021-03-31T13:55:29Z</time>
      </trkpt>
      <trkpt lat="43.29854" lon="5.68785">
        <ele>622.8</ele>
        <time>2021-03-31T13:55:33Z</time>
      </trkpt>
      <trkpt lat="43.29854" lon="5.68778">
        <ele>622.7</ele>
        <time>2021-03-31T13:55:37Z</time>
      </trkpt>
      <trkpt lat="43.29855" lon="5.6877">
        <ele>622.6</ele>
        <time>2021-03-31T13:55:43Z</time>
      </trkpt>
      <trkpt lat="43.29853" lon="5.68763">
        <ele>621.9</ele>
        <time>2021-03-31T13:58:35Z</time>
      </trkpt>
      <trkpt lat="43.29854" lon="5.68756">
        <ele>621.7</ele>
        <time>2021-03-31T13:58:41Z</time>
      </trkpt>
      <trkpt lat="43.29854" lon="5.68749">
        <ele>621.6</ele>
        <time>2021-03-31T13:58:47Z</time>
      </trkpt>
      <trkpt lat="43.29852" lon="5.68739">
        <ele>621.1</ele>
        <time>2021-03-31T13:58:53Z</time>
      </trkpt>
      <trkpt lat="43.29852" lon="5.68732">
        <ele>621</ele>
        <time>2021-03-31T13:58:57Z</time>
      </trkpt>
      <trkpt lat="43.29852" lon="5.68724">
        <ele>621</ele>
        <time>2021-03-31T13:59:03Z</time>
      </trkpt>
      <trkpt lat="43.29851" lon="5.68715">
        <ele>620.7</ele>
        <time>2021-03-31T13:59:09Z</time>
      </trkpt>
      <trkpt lat="43.2985" lon="5.68706">
        <ele>620.2</ele>
        <time>2021-03-31T13:59:15Z</time>
      </trkpt>
      <trkpt lat="43.29849" lon="5.68697">
        <ele>620</ele>
        <time>2021-03-31T13:59:21Z</time>
      </trkpt>
      <trkpt lat="43.29848" lon="5.68688">
        <ele>619.6</ele>
        <time>2021-03-31T13:59:27Z</time>
      </trkpt>
      <trkpt lat="43.29847" lon="5.68679">
        <ele>619.1</ele>
        <time>2021-03-31T13:59:33Z</time>
      </trkpt>
      <trkpt lat="43.29846" lon="5.68672">
        <ele>618.8</ele>
        <time>2021-03-31T13:59:37Z</time>
      </trkpt>
      <trkpt lat="43.29845" lon="5.68666">
        <ele>618.6</ele>
        <time>2021-03-31T13:59:41Z</time>
      </trkpt>
      <trkpt lat="43.29845" lon="5.68659">
        <ele>618.4</ele>
        <time>2021-03-31T13:59:45Z</time>
      </trkpt>
      <trkpt lat="43.29845" lon="5.68652">
        <ele>618.3</ele>
        <time>2021-03-31T13:59:49Z</time>
      </trkpt>
      <trkpt lat="43.29845" lon="5.68646">
        <ele>618</ele>
        <time>2021-03-31T13:59:53Z</time>
      </trkpt>
      <trkpt lat="43.29846" lon="5.68637">
        <ele>618.3</ele>
        <time>2021-03-31T13:59:59Z</time>
      </trkpt>
      <trkpt lat="43.29848" lon="5.68631">
        <ele>618.7</ele>
        <time>2021-03-31T14:00:03Z</time>
      </trkpt>
      <trkpt lat="43.2985" lon="5.68625">
        <ele>619.2</ele>
        <time>2021-03-31T14:00:07Z</time>
      </trkpt>
      <trkpt lat="43.29852" lon="5.68619">
        <ele>619.7</ele>
        <time>2021-03-31T14:00:11Z</time>
      </trkpt>
      <trkpt lat="43.29855" lon="5.68613">
        <ele>620.3</ele>
        <time>2021-03-31T14:00:15Z</time>
      </trkpt>
      <trkpt lat="43.29856" lon="5.68606">
        <ele>620.4</ele>
        <time>2021-03-31T14:00:19Z</time>
      </trkpt>
      <trkpt lat="43.29855" lon="5.68599">
        <ele>620</ele>
        <time>2021-03-31T14:00:23Z</time>
      </trkpt>
      <trkpt lat="43.29852" lon="5.68593">
        <ele>619.1</ele>
        <time>2021-03-31T14:00:27Z</time>
      </trkpt>
      <trkpt lat="43.29849" lon="5.68587">
        <ele>618</ele>
        <time>2021-03-31T14:00:31Z</time>
      </trkpt>
      <trkpt lat="43.29846" lon="5.68583">
        <ele>616.9</ele>
        <time>2021-03-31T14:00:35Z</time>
      </trkpt>
      <trkpt lat="43.29842" lon="5.68579">
        <ele>615.6</ele>
        <time>2021-03-31T14:00:39Z</time>
      </trkpt>
      <trkpt lat="43.29837" lon="5.68574">
        <ele>614.3</ele>
        <time>2021-03-31T14:00:43Z</time>
      </trkpt>
      <trkpt lat="43.29834" lon="5.68569">
        <ele>613.4</ele>
        <time>2021-03-31T14:00:47Z</time>
      </trkpt>
      <trkpt lat="43.29831" lon="5.68563">
        <ele>612.8</ele>
        <time>2021-03-31T14:00:51Z</time>
      </trkpt>
      <trkpt lat="43.29829" lon="5.68557">
        <ele>612.5</ele>
        <time>2021-03-31T14:00:55Z</time>
      </trkpt>
      <trkpt lat="43.29828" lon="5.68551">
        <ele>612.2</ele>
        <time>2021-03-31T14:00:59Z</time>
      </trkpt>
      <trkpt lat="43.29826" lon="5.68544">
        <ele>611.8</ele>
        <time>2021-03-31T14:01:03Z</time>
      </trkpt>
      <trkpt lat="43.29824" lon="5.68537">
        <ele>611.4</ele>
        <time>2021-03-31T14:01:07Z</time>
      </trkpt>
      <trkpt lat="43.29821" lon="5.68531">
        <ele>610.8</ele>
        <time>2021-03-31T14:01:11Z</time>
      </trkpt>
      <trkpt lat="43.29818" lon="5.68525">
        <ele>610.3</ele>
        <time>2021-03-31T14:01:15Z</time>
      </trkpt>
      <trkpt lat="43.29817" lon="5.68519">
        <ele>609.9</ele>
        <time>2021-03-31T14:01:19Z</time>
      </trkpt>
      <trkpt lat="43.29815" lon="5.68512">
        <ele>609.5</ele>
        <time>2021-03-31T14:01:23Z</time>
      </trkpt>
      <trkpt lat="43.29814" lon="5.68505">
        <ele>609.3</ele>
        <time>2021-03-31T14:01:27Z</time>
      </trkpt>
      <trkpt lat="43.29814" lon="5.68498">
        <ele>609.3</ele>
        <time>2021-03-31T14:01:31Z</time>
      </trkpt>
      <trkpt lat="43.29815" lon="5.68491">
        <ele>609.6</ele>
        <time>2021-03-31T14:01:35Z</time>
      </trkpt>
      <trkpt lat="43.29815" lon="5.68485">
        <ele>609.9</ele>
        <time>2021-03-31T14:01:39Z</time>
      </trkpt>
      <trkpt lat="43.29817" lon="5.68478">
        <ele>610.2</ele>
        <time>2021-03-31T14:01:43Z</time>
      </trkpt>
      <trkpt lat="43.29818" lon="5.68471">
        <ele>610.8</ele>
        <time>2021-03-31T14:01:47Z</time>
      </trkpt>
      <trkpt lat="43.2982" lon="5.68464">
        <ele>611.2</ele>
        <time>2021-03-31T14:01:51Z</time>
      </trkpt>
      <trkpt lat="43.29821" lon="5.68458">
        <ele>611.6</ele>
        <time>2021-03-31T14:01:55Z</time>
      </trkpt>
      <trkpt lat="43.29823" lon="5.68452">
        <ele>612</ele>
        <time>2021-03-31T14:01:59Z</time>
      </trkpt>
      <trkpt lat="43.29825" lon="5.68446">
        <ele>612.6</ele>
        <time>2021-03-31T14:02:03Z</time>
      </trkpt>
      <trkpt lat="43.29827" lon="5.68439">
        <ele>613.1</ele>
        <time>2021-03-31T14:02:07Z</time>
      </trkpt>
      <trkpt lat="43.29826" lon="5.68432">
        <ele>613</ele>
        <time>2021-03-31T14:02:11Z</time>
      </trkpt>
      <trkpt lat="43.29824" lon="5.68426">
        <ele>612.7</ele>
        <time>2021-03-31T14:02:15Z</time>
      </trkpt>
      <trkpt lat="43.29821" lon="5.68421">
        <ele>611.9</ele>
        <time>2021-03-31T14:02:19Z</time>
      </trkpt>
      <trkpt lat="43.29815" lon="5.68416">
        <ele>610.5</ele>
        <time>2021-03-31T14:02:25Z</time>
      </trkpt>
      <trkpt lat="43.29809" lon="5.68414">
        <ele>609.3</ele>
        <time>2021-03-31T14:02:29Z</time>
      </trkpt>
      <trkpt lat="43.29805" lon="5.68411">
        <ele>608.3</ele>
        <time>2021-03-31T14:02:33Z</time>
      </trkpt>
      <trkpt lat="43.298" lon="5.68408">
        <ele>607.1</ele>
        <time>2021-03-31T14:02:37Z</time>
      </trkpt>
      <trkpt lat="43.29795" lon="5.68404">
        <ele>606.2</ele>
        <time>2021-03-31T14:02:41Z</time>
      </trkpt>
      <trkpt lat="43.29791" lon="5.684">
        <ele>605.2</ele>
        <time>2021-03-31T14:02:45Z</time>
      </trkpt>
      <trkpt lat="43.29787" lon="5.68396">
        <ele>604.3</ele>
        <time>2021-03-31T14:02:49Z</time>
      </trkpt>
      <trkpt lat="43.29784" lon="5.6839">
        <ele>603.8</ele>
        <time>2021-03-31T14:02:53Z</time>
      </trkpt>
      <trkpt lat="43.29781" lon="5.68384">
        <ele>603</ele>
        <time>2021-03-31T14:02:59Z</time>
      </trkpt>
      <trkpt lat="43.29778" lon="5.68378">
        <ele>602.6</ele>
        <time>2021-03-31T14:03:03Z</time>
      </trkpt>
      <trkpt lat="43.29777" lon="5.68372">
        <ele>602.4</ele>
        <time>2021-03-31T14:03:07Z</time>
      </trkpt>
      <trkpt lat="43.29777" lon="5.68365">
        <ele>602.5</ele>
        <time>2021-03-31T14:03:11Z</time>
      </trkpt>
      <trkpt lat="43.29779" lon="5.68356">
        <ele>603.2</ele>
        <time>2021-03-31T14:03:17Z</time>
      </trkpt>
      <trkpt lat="43.29782" lon="5.6835">
        <ele>604</ele>
        <time>2021-03-31T14:03:21Z</time>
      </trkpt>
      <trkpt lat="43.29783" lon="5.68343">
        <ele>604.4</ele>
        <time>2021-03-31T14:03:25Z</time>
      </trkpt>
      <trkpt lat="43.29783" lon="5.68335">
        <ele>604.6</ele>
        <time>2021-03-31T14:03:29Z</time>
      </trkpt>
      <trkpt lat="43.29782" lon="5.68329">
        <ele>604.9</ele>
        <time>2021-03-31T14:03:33Z</time>
      </trkpt>
      <trkpt lat="43.2978" lon="5.68323">
        <ele>605</ele>
        <time>2021-03-31T14:03:37Z</time>
      </trkpt>
      <trkpt lat="43.29776" lon="5.68318">
        <ele>604.5</ele>
        <time>2021-03-31T14:03:41Z</time>
      </trkpt>
      <trkpt lat="43.29772" lon="5.68314">
        <ele>604</ele>
        <time>2021-03-31T14:03:45Z</time>
      </trkpt>
      <trkpt lat="43.29768" lon="5.68311">
        <ele>603.2</ele>
        <time>2021-03-31T14:03:49Z</time>
      </trkpt>
      <trkpt lat="43.29764" lon="5.68309">
        <ele>602.2</ele>
        <time>2021-03-31T14:03:53Z</time>
      </trkpt>
      <trkpt lat="43.29759" lon="5.68307">
        <ele>601.2</ele>
        <time>2021-03-31T14:03:57Z</time>
      </trkpt>
      <trkpt lat="43.29754" lon="5.68304">
        <ele>600.4</ele>
        <time>2021-03-31T14:04:01Z</time>
      </trkpt>
      <trkpt lat="43.29751" lon="5.683">
        <ele>599.8</ele>
        <time>2021-03-31T14:04:05Z</time>
      </trkpt>
      <trkpt lat="43.29748" lon="5.68295">
        <ele>600.1</ele>
        <time>2021-03-31T14:04:09Z</time>
      </trkpt>
      <trkpt lat="43.29745" lon="5.68289">
        <ele>600.6</ele>
        <time>2021-03-31T14:04:13Z</time>
      </trkpt>
      <trkpt lat="43.29744" lon="5.68283">
        <ele>601.3</ele>
        <time>2021-03-31T14:04:17Z</time>
      </trkpt>
      <trkpt lat="43.29743" lon="5.68277">
        <ele>601.9</ele>
        <time>2021-03-31T14:04:21Z</time>
      </trkpt>
      <trkpt lat="43.29742" lon="5.68268">
        <ele>602.8</ele>
        <time>2021-03-31T14:04:27Z</time>
      </trkpt>
      <trkpt lat="43.2974" lon="5.68263">
        <ele>603.5</ele>
        <time>2021-03-31T14:04:31Z</time>
      </trkpt>
      <trkpt lat="43.29738" lon="5.68257">
        <ele>604.1</ele>
        <time>2021-03-31T14:04:35Z</time>
      </trkpt>
      <trkpt lat="43.29736" lon="5.68251">
        <ele>604.8</ele>
        <time>2021-03-31T14:04:39Z</time>
      </trkpt>
      <trkpt lat="43.29734" lon="5.68244">
        <ele>605.4</ele>
        <time>2021-03-31T14:04:43Z</time>
      </trkpt>
      <trkpt lat="43.29731" lon="5.68238">
        <ele>606</ele>
        <time>2021-03-31T14:04:47Z</time>
      </trkpt>
      <trkpt lat="43.29727" lon="5.68234">
        <ele>606.5</ele>
        <time>2021-03-31T14:04:51Z</time>
      </trkpt>
      <trkpt lat="43.2972" lon="5.68235">
        <ele>606.3</ele>
        <time>2021-03-31T14:04:57Z</time>
      </trkpt>
      <trkpt lat="43.29717" lon="5.6824">
        <ele>605.8</ele>
        <time>2021-03-31T14:05:01Z</time>
      </trkpt>
      <trkpt lat="43.29715" lon="5.68246">
        <ele>605.1</ele>
        <time>2021-03-31T14:05:05Z</time>
      </trkpt>
      <trkpt lat="43.29714" lon="5.68253">
        <ele>604.2</ele>
        <time>2021-03-31T14:05:09Z</time>
      </trkpt>
      <trkpt lat="43.29713" lon="5.6826">
        <ele>603.4</ele>
        <time>2021-03-31T14:05:13Z</time>
      </trkpt>
      <trkpt lat="43.29712" lon="5.68266">
        <ele>602.6</ele>
        <time>2021-03-31T14:05:17Z</time>
      </trkpt>
      <trkpt lat="43.2971" lon="5.68272">
        <ele>601.7</ele>
        <time>2021-03-31T14:05:21Z</time>
      </trkpt>
      <trkpt lat="43.29708" lon="5.6828">
        <ele>600.6</ele>
        <time>2021-03-31T14:05:27Z</time>
      </trkpt>
      <trkpt lat="43.29705" lon="5.68286">
        <ele>599.8</ele>
        <time>2021-03-31T14:05:31Z</time>
      </trkpt>
      <trkpt lat="43.29703" lon="5.68292">
        <ele>599</ele>
        <time>2021-03-31T14:05:35Z</time>
      </trkpt>
      <trkpt lat="43.297" lon="5.68298">
        <ele>598.1</ele>
        <time>2021-03-31T14:05:39Z</time>
      </trkpt>
      <trkpt lat="43.29698" lon="5.68305">
        <ele>597.2</ele>
        <time>2021-03-31T14:05:43Z</time>
      </trkpt>
      <trkpt lat="43.29695" lon="5.68311">
        <ele>596.3</ele>
        <time>2021-03-31T14:05:47Z</time>
      </trkpt>
      <trkpt lat="43.29693" lon="5.68318">
        <ele>595.3</ele>
        <time>2021-03-31T14:05:51Z</time>
      </trkpt>
      <trkpt lat="43.29689" lon="5.68325">
        <ele>594.2</ele>
        <time>2021-03-31T14:05:55Z</time>
      </trkpt>
      <trkpt lat="43.29686" lon="5.68331">
        <ele>593.3</ele>
        <time>2021-03-31T14:05:59Z</time>
      </trkpt>
      <trkpt lat="43.29682" lon="5.68337">
        <ele>592.4</ele>
        <time>2021-03-31T14:06:03Z</time>
      </trkpt>
      <trkpt lat="43.29678" lon="5.68343">
        <ele>591.4</ele>
        <time>2021-03-31T14:06:07Z</time>
      </trkpt>
      <trkpt lat="43.29674" lon="5.6835">
        <ele>590.3</ele>
        <time>2021-03-31T14:06:13Z</time>
      </trkpt>
      <trkpt lat="43.29671" lon="5.68356">
        <ele>589.4</ele>
        <time>2021-03-31T14:06:17Z</time>
      </trkpt>
      <trkpt lat="43.29667" lon="5.68363">
        <ele>588.1</ele>
        <time>2021-03-31T14:06:23Z</time>
      </trkpt>
      <trkpt lat="43.29663" lon="5.68368">
        <ele>587.8</ele>
        <time>2021-03-31T14:06:27Z</time>
      </trkpt>
      <trkpt lat="43.29658" lon="5.68374">
        <ele>587.5</ele>
        <time>2021-03-31T14:06:33Z</time>
      </trkpt>
      <trkpt lat="43.29654" lon="5.68379">
        <ele>587</ele>
        <time>2021-03-31T14:06:37Z</time>
      </trkpt>
      <trkpt lat="43.29651" lon="5.68384">
        <ele>586.6</ele>
        <time>2021-03-31T14:06:41Z</time>
      </trkpt>
      <trkpt lat="43.29646" lon="5.68389">
        <ele>586.2</ele>
        <time>2021-03-31T14:06:45Z</time>
      </trkpt>
      <trkpt lat="43.29642" lon="5.68394">
        <ele>585.7</ele>
        <time>2021-03-31T14:06:49Z</time>
      </trkpt>
      <trkpt lat="43.29639" lon="5.68398">
        <ele>585.3</ele>
        <time>2021-03-31T14:06:53Z</time>
      </trkpt>
      <trkpt lat="43.29635" lon="5.68404">
        <ele>584.7</ele>
        <time>2021-03-31T14:06:57Z</time>
      </trkpt>
      <trkpt lat="43.29631" lon="5.68408">
        <ele>584.2</ele>
        <time>2021-03-31T14:07:01Z</time>
      </trkpt>
      <trkpt lat="43.29626" lon="5.68413">
        <ele>583.6</ele>
        <time>2021-03-31T14:07:07Z</time>
      </trkpt>
      <trkpt lat="43.29622" lon="5.68416">
        <ele>583.2</ele>
        <time>2021-03-31T14:07:11Z</time>
      </trkpt>
      <trkpt lat="43.29617" lon="5.68421">
        <ele>583.1</ele>
        <time>2021-03-31T14:07:17Z</time>
      </trkpt>
      <trkpt lat="43.29613" lon="5.68426">
        <ele>582.8</ele>
        <time>2021-03-31T14:07:23Z</time>
      </trkpt>
      <trkpt lat="43.29609" lon="5.68431">
        <ele>582.6</ele>
        <time>2021-03-31T14:07:27Z</time>
      </trkpt>
      <trkpt lat="43.29605" lon="5.68435">
        <ele>582.3</ele>
        <time>2021-03-31T14:07:31Z</time>
      </trkpt>
      <trkpt lat="43.29599" lon="5.68439">
        <ele>581.9</ele>
        <time>2021-03-31T14:07:37Z</time>
      </trkpt>
      <trkpt lat="43.29594" lon="5.68442">
        <ele>581.6</ele>
        <time>2021-03-31T14:07:43Z</time>
      </trkpt>
      <trkpt lat="43.29587" lon="5.68445">
        <ele>581.3</ele>
        <time>2021-03-31T14:07:49Z</time>
      </trkpt>
      <trkpt lat="43.29583" lon="5.68446">
        <ele>581.2</ele>
        <time>2021-03-31T14:07:53Z</time>
      </trkpt>
      <trkpt lat="43.29578" lon="5.68446">
        <ele>581</ele>
        <time>2021-03-31T14:07:57Z</time>
      </trkpt>
      <trkpt lat="43.29573" lon="5.68446">
        <ele>581</ele>
        <time>2021-03-31T14:08:01Z</time>
      </trkpt>
      <trkpt lat="43.29568" lon="5.68447">
        <ele>580.7</ele>
        <time>2021-03-31T14:08:05Z</time>
      </trkpt>
      <trkpt lat="43.29563" lon="5.68449">
        <ele>580.3</ele>
        <time>2021-03-31T14:08:09Z</time>
      </trkpt>
      <trkpt lat="43.29556" lon="5.68451">
        <ele>579.9</ele>
        <time>2021-03-31T14:08:15Z</time>
      </trkpt>
      <trkpt lat="43.29551" lon="5.68453">
        <ele>579.3</ele>
        <time>2021-03-31T14:08:19Z</time>
      </trkpt>
      <trkpt lat="43.29547" lon="5.68456">
        <ele>578.8</ele>
        <time>2021-03-31T14:08:23Z</time>
      </trkpt>
      <trkpt lat="43.29542" lon="5.68459">
        <ele>578.2</ele>
        <time>2021-03-31T14:08:27Z</time>
      </trkpt>
      <trkpt lat="43.29538" lon="5.68462">
        <ele>577.5</ele>
        <time>2021-03-31T14:08:31Z</time>
      </trkpt>
      <trkpt lat="43.29534" lon="5.68464">
        <ele>576.9</ele>
        <time>2021-03-31T14:08:35Z</time>
      </trkpt>
      <trkpt lat="43.29529" lon="5.68467">
        <ele>576.2</ele>
        <time>2021-03-31T14:08:39Z</time>
      </trkpt>
      <trkpt lat="43.29525" lon="5.6847">
        <ele>575.6</ele>
        <time>2021-03-31T14:08:43Z</time>
      </trkpt>
      <trkpt lat="43.29519" lon="5.68473">
        <ele>574.7</ele>
        <time>2021-03-31T14:08:49Z</time>
      </trkpt>
      <trkpt lat="43.29514" lon="5.68475">
        <ele>574.1</ele>
        <time>2021-03-31T14:08:53Z</time>
      </trkpt>
      <trkpt lat="43.2951" lon="5.68478">
        <ele>573.3</ele>
        <time>2021-03-31T14:08:57Z</time>
      </trkpt>
      <trkpt lat="43.29505" lon="5.6848">
        <ele>572.5</ele>
        <time>2021-03-31T14:09:01Z</time>
      </trkpt>
      <trkpt lat="43.295" lon="5.68483">
        <ele>571.6</ele>
        <time>2021-03-31T14:09:05Z</time>
      </trkpt>
      <trkpt lat="43.29494" lon="5.68487">
        <ele>570.1</ele>
        <time>2021-03-31T14:09:09Z</time>
      </trkpt>
      <trkpt lat="43.29489" lon="5.68489">
        <ele>569</ele>
        <time>2021-03-31T14:09:13Z</time>
      </trkpt>
      <trkpt lat="43.29484" lon="5.6849">
        <ele>568.1</ele>
        <time>2021-03-31T14:09:17Z</time>
      </trkpt>
      <trkpt lat="43.29479" lon="5.68491">
        <ele>567.3</ele>
        <time>2021-03-31T14:09:21Z</time>
      </trkpt>
      <trkpt lat="43.29474" lon="5.68491">
        <ele>566.6</ele>
        <time>2021-03-31T14:09:25Z</time>
      </trkpt>
      <trkpt lat="43.29469" lon="5.6849">
        <ele>566.3</ele>
        <time>2021-03-31T14:09:29Z</time>
      </trkpt>
      <trkpt lat="43.29464" lon="5.68488">
        <ele>566</ele>
        <time>2021-03-31T14:09:33Z</time>
      </trkpt>
      <trkpt lat="43.29459" lon="5.68485">
        <ele>566</ele>
        <time>2021-03-31T14:09:37Z</time>
      </trkpt>
      <trkpt lat="43.29454" lon="5.68481">
        <ele>565.9</ele>
        <time>2021-03-31T14:09:41Z</time>
      </trkpt>
      <trkpt lat="43.29449" lon="5.68479">
        <ele>565.5</ele>
        <time>2021-03-31T14:09:45Z</time>
      </trkpt>
      <trkpt lat="43.29445" lon="5.68474">
        <ele>566</ele>
        <time>2021-03-31T14:09:49Z</time>
      </trkpt>
      <trkpt lat="43.29442" lon="5.68469">
        <ele>566.4</ele>
        <time>2021-03-31T14:09:53Z</time>
      </trkpt>
      <trkpt lat="43.29439" lon="5.68464">
        <ele>566.9</ele>
        <time>2021-03-31T14:09:57Z</time>
      </trkpt>
      <trkpt lat="43.29435" lon="5.68457">
        <ele>567.5</ele>
        <time>2021-03-31T14:10:03Z</time>
      </trkpt>
      <trkpt lat="43.29431" lon="5.68453">
        <ele>567.5</ele>
        <time>2021-03-31T14:10:07Z</time>
      </trkpt>
      <trkpt lat="43.29426" lon="5.68449">
        <ele>567.4</ele>
        <time>2021-03-31T14:10:11Z</time>
      </trkpt>
      <trkpt lat="43.29421" lon="5.68445">
        <ele>567.3</ele>
        <time>2021-03-31T14:10:15Z</time>
      </trkpt>
      <trkpt lat="43.29416" lon="5.68442">
        <ele>567</ele>
        <time>2021-03-31T14:10:19Z</time>
      </trkpt>
      <trkpt lat="43.29411" lon="5.68439">
        <ele>566.3</ele>
        <time>2021-03-31T14:10:23Z</time>
      </trkpt>
      <trkpt lat="43.29406" lon="5.68434">
        <ele>565.8</ele>
        <time>2021-03-31T14:10:29Z</time>
      </trkpt>
      <trkpt lat="43.29401" lon="5.68432">
        <ele>565</ele>
        <time>2021-03-31T14:10:33Z</time>
      </trkpt>
      <trkpt lat="43.29395" lon="5.6843">
        <ele>564</ele>
        <time>2021-03-31T14:10:37Z</time>
      </trkpt>
      <trkpt lat="43.2939" lon="5.68428">
        <ele>563</ele>
        <time>2021-03-31T14:10:41Z</time>
      </trkpt>
      <trkpt lat="43.29386" lon="5.68426">
        <ele>562.3</ele>
        <time>2021-03-31T14:10:45Z</time>
      </trkpt>
      <trkpt lat="43.29379" lon="5.68424">
        <ele>561</ele>
        <time>2021-03-31T14:10:49Z</time>
      </trkpt>
      <trkpt lat="43.29373" lon="5.68422">
        <ele>559.8</ele>
        <time>2021-03-31T14:10:53Z</time>
      </trkpt>
      <trkpt lat="43.29368" lon="5.68423">
        <ele>558.5</ele>
        <time>2021-03-31T14:10:57Z</time>
      </trkpt>
      <trkpt lat="43.29363" lon="5.68422">
        <ele>557.4</ele>
        <time>2021-03-31T14:11:01Z</time>
      </trkpt>
      <trkpt lat="43.29357" lon="5.68421">
        <ele>556.2</ele>
        <time>2021-03-31T14:11:07Z</time>
      </trkpt>
      <trkpt lat="43.29351" lon="5.68418">
        <ele>555.1</ele>
        <time>2021-03-31T14:11:13Z</time>
      </trkpt>
      <trkpt lat="43.29345" lon="5.68417">
        <ele>553.9</ele>
        <time>2021-03-31T14:11:19Z</time>
      </trkpt>
      <trkpt lat="43.29341" lon="5.68416">
        <ele>553</ele>
        <time>2021-03-31T14:11:23Z</time>
      </trkpt>
      <trkpt lat="43.29335" lon="5.68414">
        <ele>552.1</ele>
        <time>2021-03-31T14:11:27Z</time>
      </trkpt>
      <trkpt lat="43.2933" lon="5.68412">
        <ele>551.3</ele>
        <time>2021-03-31T14:11:31Z</time>
      </trkpt>
      <trkpt lat="43.29325" lon="5.68409">
        <ele>550.5</ele>
        <time>2021-03-31T14:11:35Z</time>
      </trkpt>
      <trkpt lat="43.29321" lon="5.68404">
        <ele>550.5</ele>
        <time>2021-03-31T14:11:41Z</time>
      </trkpt>
      <trkpt lat="43.29317" lon="5.68395">
        <ele>551.3</ele>
        <time>2021-03-31T14:11:47Z</time>
      </trkpt>
      <trkpt lat="43.29315" lon="5.6839">
        <ele>551.5</ele>
        <time>2021-03-31T14:11:51Z</time>
      </trkpt>
      <trkpt lat="43.29311" lon="5.68382">
        <ele>552.3</ele>
        <time>2021-03-31T14:11:57Z</time>
      </trkpt>
      <trkpt lat="43.2931" lon="5.68375">
        <ele>553.1</ele>
        <time>2021-03-31T14:12:01Z</time>
      </trkpt>
      <trkpt lat="43.2931" lon="5.68368">
        <ele>554.6</ele>
        <time>2021-03-31T14:12:15Z</time>
      </trkpt>
      <trkpt lat="43.29307" lon="5.68364">
        <ele>554.4</ele>
        <time>2021-03-31T14:12:19Z</time>
      </trkpt>
      <trkpt lat="43.29303" lon="5.68359">
        <ele>554.3</ele>
        <time>2021-03-31T14:12:23Z</time>
      </trkpt>
      <trkpt lat="43.29301" lon="5.68352">
        <ele>554.8</ele>
        <time>2021-03-31T14:12:27Z</time>
      </trkpt>
      <trkpt lat="43.29299" lon="5.68346">
        <ele>555.4</ele>
        <time>2021-03-31T14:12:31Z</time>
      </trkpt>
      <trkpt lat="43.29297" lon="5.6834">
        <ele>555.8</ele>
        <time>2021-03-31T14:12:35Z</time>
      </trkpt>
      <trkpt lat="43.29293" lon="5.68332">
        <ele>556.2</ele>
        <time>2021-03-31T14:12:39Z</time>
      </trkpt>
      <trkpt lat="43.29291" lon="5.68324">
        <ele>556.7</ele>
        <time>2021-03-31T14:12:43Z</time>
      </trkpt>
      <trkpt lat="43.29286" lon="5.6832">
        <ele>555.9</ele>
        <time>2021-03-31T14:12:47Z</time>
      </trkpt>
      <trkpt lat="43.29281" lon="5.68315">
        <ele>555.3</ele>
        <time>2021-03-31T14:12:51Z</time>
      </trkpt>
      <trkpt lat="43.29278" lon="5.6831">
        <ele>555.3</ele>
        <time>2021-03-31T14:12:55Z</time>
      </trkpt>
      <trkpt lat="43.29274" lon="5.68304">
        <ele>555.1</ele>
        <time>2021-03-31T14:12:59Z</time>
      </trkpt>
      <trkpt lat="43.2927" lon="5.683">
        <ele>554.4</ele>
        <time>2021-03-31T14:13:03Z</time>
      </trkpt>
      <trkpt lat="43.29266" lon="5.68295">
        <ele>554</ele>
        <time>2021-03-31T14:13:07Z</time>
      </trkpt>
      <trkpt lat="43.29263" lon="5.6829">
        <ele>554.2</ele>
        <time>2021-03-31T14:13:11Z</time>
      </trkpt>
      <trkpt lat="43.29261" lon="5.68282">
        <ele>554.8</ele>
        <time>2021-03-31T14:13:15Z</time>
      </trkpt>
      <trkpt lat="43.29259" lon="5.68275">
        <ele>555.4</ele>
        <time>2021-03-31T14:13:19Z</time>
      </trkpt>
      <trkpt lat="43.29256" lon="5.68268">
        <ele>555.8</ele>
        <time>2021-03-31T14:13:23Z</time>
      </trkpt>
      <trkpt lat="43.29253" lon="5.68262">
        <ele>556</ele>
        <time>2021-03-31T14:13:27Z</time>
      </trkpt>
      <trkpt lat="43.29248" lon="5.68257">
        <ele>555.5</ele>
        <time>2021-03-31T14:13:31Z</time>
      </trkpt>
      <trkpt lat="43.29241" lon="5.68255">
        <ele>554.5</ele>
        <time>2021-03-31T14:13:35Z</time>
      </trkpt>
      <trkpt lat="43.29235" lon="5.68253">
        <ele>553.6</ele>
        <time>2021-03-31T14:13:39Z</time>
      </trkpt>
      <trkpt lat="43.29229" lon="5.68256">
        <ele>552.1</ele>
        <time>2021-03-31T14:13:43Z</time>
      </trkpt>
      <trkpt lat="43.29224" lon="5.6826">
        <ele>550.3</ele>
        <time>2021-03-31T14:13:47Z</time>
      </trkpt>
      <trkpt lat="43.2922" lon="5.68266">
        <ele>548.4</ele>
        <time>2021-03-31T14:13:51Z</time>
      </trkpt>
      <trkpt lat="43.29216" lon="5.68273">
        <ele>546.5</ele>
        <time>2021-03-31T14:13:55Z</time>
      </trkpt>
      <trkpt lat="43.29212" lon="5.68279">
        <ele>544.7</ele>
        <time>2021-03-31T14:13:59Z</time>
      </trkpt>
      <trkpt lat="43.29208" lon="5.68285">
        <ele>543</ele>
        <time>2021-03-31T14:14:03Z</time>
      </trkpt>
      <trkpt lat="43.29204" lon="5.68291">
        <ele>541.1</ele>
        <time>2021-03-31T14:14:07Z</time>
      </trkpt>
      <trkpt lat="43.29201" lon="5.68297">
        <ele>539.3</ele>
        <time>2021-03-31T14:14:11Z</time>
      </trkpt>
      <trkpt lat="43.29197" lon="5.68301">
        <ele>537.8</ele>
        <time>2021-03-31T14:14:15Z</time>
      </trkpt>
      <trkpt lat="43.29191" lon="5.68304">
        <ele>536.3</ele>
        <time>2021-03-31T14:14:19Z</time>
      </trkpt>
      <trkpt lat="43.29186" lon="5.68304">
        <ele>535.1</ele>
        <time>2021-03-31T14:14:23Z</time>
      </trkpt>
      <trkpt lat="43.29181" lon="5.68302">
        <ele>534.4</ele>
        <time>2021-03-31T14:14:27Z</time>
      </trkpt>
      <trkpt lat="43.29176" lon="5.683">
        <ele>533.8</ele>
        <time>2021-03-31T14:14:31Z</time>
      </trkpt>
      <trkpt lat="43.29172" lon="5.68297">
        <ele>533.5</ele>
        <time>2021-03-31T14:14:35Z</time>
      </trkpt>
      <trkpt lat="43.29167" lon="5.68293">
        <ele>533.4</ele>
        <time>2021-03-31T14:14:39Z</time>
      </trkpt>
      <trkpt lat="43.29163" lon="5.68288">
        <ele>532.5</ele>
        <time>2021-03-31T14:14:43Z</time>
      </trkpt>
      <trkpt lat="43.2916" lon="5.68284">
        <ele>531.9</ele>
        <time>2021-03-31T14:14:47Z</time>
      </trkpt>
      <trkpt lat="43.29156" lon="5.68278">
        <ele>531.2</ele>
        <time>2021-03-31T14:14:51Z</time>
      </trkpt>
      <trkpt lat="43.29153" lon="5.68274">
        <ele>530.6</ele>
        <time>2021-03-31T14:14:55Z</time>
      </trkpt>
      <trkpt lat="43.2915" lon="5.68268">
        <ele>530.5</ele>
        <time>2021-03-31T14:14:59Z</time>
      </trkpt>
      <trkpt lat="43.29147" lon="5.68261">
        <ele>530.6</ele>
        <time>2021-03-31T14:15:03Z</time>
      </trkpt>
      <trkpt lat="43.29145" lon="5.68255">
        <ele>530.9</ele>
        <time>2021-03-31T14:15:07Z</time>
      </trkpt>
      <trkpt lat="43.29143" lon="5.68248">
        <ele>531.3</ele>
        <time>2021-03-31T14:15:11Z</time>
      </trkpt>
      <trkpt lat="43.29142" lon="5.68242">
        <ele>531.8</ele>
        <time>2021-03-31T14:15:15Z</time>
      </trkpt>
      <trkpt lat="43.2914" lon="5.68235">
        <ele>532.4</ele>
        <time>2021-03-31T14:15:19Z</time>
      </trkpt>
      <trkpt lat="43.29138" lon="5.68228">
        <ele>532.9</ele>
        <time>2021-03-31T14:15:23Z</time>
      </trkpt>
      <trkpt lat="43.29136" lon="5.68222">
        <ele>533</ele>
        <time>2021-03-31T14:15:27Z</time>
      </trkpt>
      <trkpt lat="43.29134" lon="5.68216">
        <ele>533</ele>
        <time>2021-03-31T14:15:31Z</time>
      </trkpt>
      <trkpt lat="43.2913" lon="5.68211">
        <ele>532.5</ele>
        <time>2021-03-31T14:15:35Z</time>
      </trkpt>
      <trkpt lat="43.29127" lon="5.68206">
        <ele>532</ele>
        <time>2021-03-31T14:15:39Z</time>
      </trkpt>
      <trkpt lat="43.29123" lon="5.682">
        <ele>531.5</ele>
        <time>2021-03-31T14:15:43Z</time>
      </trkpt>
      <trkpt lat="43.29121" lon="5.68194">
        <ele>531.5</ele>
        <time>2021-03-31T14:15:47Z</time>
      </trkpt>
      <trkpt lat="43.29118" lon="5.68189">
        <ele>531.3</ele>
        <time>2021-03-31T14:15:51Z</time>
      </trkpt>
      <trkpt lat="43.29116" lon="5.68182">
        <ele>532</ele>
        <time>2021-03-31T14:15:55Z</time>
      </trkpt>
      <trkpt lat="43.29114" lon="5.68174">
        <ele>532.4</ele>
        <time>2021-03-31T14:16:01Z</time>
      </trkpt>
      <trkpt lat="43.29112" lon="5.68168">
        <ele>532.8</ele>
        <time>2021-03-31T14:16:05Z</time>
      </trkpt>
      <trkpt lat="43.2911" lon="5.68161">
        <ele>533</ele>
        <time>2021-03-31T14:16:09Z</time>
      </trkpt>
      <trkpt lat="43.29109" lon="5.68155">
        <ele>533.1</ele>
        <time>2021-03-31T14:16:13Z</time>
      </trkpt>
      <trkpt lat="43.29108" lon="5.68149">
        <ele>533.6</ele>
        <time>2021-03-31T14:16:17Z</time>
      </trkpt>
      <trkpt lat="43.29108" lon="5.6814">
        <ele>534.5</ele>
        <time>2021-03-31T14:16:23Z</time>
      </trkpt>
      <trkpt lat="43.29108" lon="5.68133">
        <ele>535.3</ele>
        <time>2021-03-31T14:16:27Z</time>
      </trkpt>
      <trkpt lat="43.29107" lon="5.68127">
        <ele>536</ele>
        <time>2021-03-31T14:16:31Z</time>
      </trkpt>
      <trkpt lat="43.29106" lon="5.68118">
        <ele>536.6</ele>
        <time>2021-03-31T14:16:37Z</time>
      </trkpt>
      <trkpt lat="43.29105" lon="5.68111">
        <ele>536.7</ele>
        <time>2021-03-31T14:16:41Z</time>
      </trkpt>
      <trkpt lat="43.29103" lon="5.68105">
        <ele>537</ele>
        <time>2021-03-31T14:16:45Z</time>
      </trkpt>
      <trkpt lat="43.29102" lon="5.68099">
        <ele>537</ele>
        <time>2021-03-31T14:16:49Z</time>
      </trkpt>
      <trkpt lat="43.29099" lon="5.68093">
        <ele>536.6</ele>
        <time>2021-03-31T14:16:53Z</time>
      </trkpt>
      <trkpt lat="43.29096" lon="5.68087">
        <ele>536.2</ele>
        <time>2021-03-31T14:16:57Z</time>
      </trkpt>
      <trkpt lat="43.29093" lon="5.68081">
        <ele>535.2</ele>
        <time>2021-03-31T14:17:01Z</time>
      </trkpt>
      <trkpt lat="43.2909" lon="5.68076">
        <ele>534.1</ele>
        <time>2021-03-31T14:17:05Z</time>
      </trkpt>
      <trkpt lat="43.29086" lon="5.68071">
        <ele>532.9</ele>
        <time>2021-03-31T14:17:09Z</time>
      </trkpt>
      <trkpt lat="43.29083" lon="5.68066">
        <ele>531.7</ele>
        <time>2021-03-31T14:17:13Z</time>
      </trkpt>
      <trkpt lat="43.29081" lon="5.6806">
        <ele>531.2</ele>
        <time>2021-03-31T14:17:17Z</time>
      </trkpt>
      <trkpt lat="43.2908" lon="5.68054">
        <ele>531.4</ele>
        <time>2021-03-31T14:17:21Z</time>
      </trkpt>
      <trkpt lat="43.29081" lon="5.68047">
        <ele>532.1</ele>
        <time>2021-03-31T14:17:25Z</time>
      </trkpt>
      <trkpt lat="43.29082" lon="5.6804">
        <ele>533.1</ele>
        <time>2021-03-31T14:17:29Z</time>
      </trkpt>
      <trkpt lat="43.29083" lon="5.68034">
        <ele>534</ele>
        <time>2021-03-31T14:17:33Z</time>
      </trkpt>
      <trkpt lat="43.29084" lon="5.68027">
        <ele>534.8</ele>
        <time>2021-03-31T14:17:37Z</time>
      </trkpt>
      <trkpt lat="43.29085" lon="5.68018">
        <ele>535.4</ele>
        <time>2021-03-31T14:17:43Z</time>
      </trkpt>
      <trkpt lat="43.29085" lon="5.68011">
        <ele>535.9</ele>
        <time>2021-03-31T14:17:47Z</time>
      </trkpt>
      <trkpt lat="43.29084" lon="5.68005">
        <ele>536</ele>
        <time>2021-03-31T14:17:51Z</time>
      </trkpt>
      <trkpt lat="43.29084" lon="5.67998">
        <ele>536.3</ele>
        <time>2021-03-31T14:17:55Z</time>
      </trkpt>
      <trkpt lat="43.29083" lon="5.6799">
        <ele>536.7</ele>
        <time>2021-03-31T14:17:59Z</time>
      </trkpt>
      <trkpt lat="43.29083" lon="5.67982">
        <ele>537.3</ele>
        <time>2021-03-31T14:18:03Z</time>
      </trkpt>
      <trkpt lat="43.29082" lon="5.67976">
        <ele>537.4</ele>
        <time>2021-03-31T14:18:07Z</time>
      </trkpt>
      <trkpt lat="43.29079" lon="5.67969">
        <ele>536.9</ele>
        <time>2021-03-31T14:18:11Z</time>
      </trkpt>
      <trkpt lat="43.29076" lon="5.67963">
        <ele>536.2</ele>
        <time>2021-03-31T14:18:15Z</time>
      </trkpt>
      <trkpt lat="43.29073" lon="5.67957">
        <ele>535.6</ele>
        <time>2021-03-31T14:18:19Z</time>
      </trkpt>
      <trkpt lat="43.2907" lon="5.67951">
        <ele>534.8</ele>
        <time>2021-03-31T14:18:23Z</time>
      </trkpt>
      <trkpt lat="43.29067" lon="5.67945">
        <ele>534.3</ele>
        <time>2021-03-31T14:18:27Z</time>
      </trkpt>
      <trkpt lat="43.29064" lon="5.6794">
        <ele>533.6</ele>
        <time>2021-03-31T14:18:31Z</time>
      </trkpt>
      <trkpt lat="43.29061" lon="5.67935">
        <ele>533.2</ele>
        <time>2021-03-31T14:18:35Z</time>
      </trkpt>
      <trkpt lat="43.29059" lon="5.6793">
        <ele>532.6</ele>
        <time>2021-03-31T14:18:39Z</time>
      </trkpt>
      <trkpt lat="43.29055" lon="5.67924">
        <ele>531.9</ele>
        <time>2021-03-31T14:18:43Z</time>
      </trkpt>
      <trkpt lat="43.29052" lon="5.67919">
        <ele>531.6</ele>
        <time>2021-03-31T14:18:47Z</time>
      </trkpt>
      <trkpt lat="43.2905" lon="5.67914">
        <ele>531.1</ele>
        <time>2021-03-31T14:18:51Z</time>
      </trkpt>
      <trkpt lat="43.29047" lon="5.67908">
        <ele>530.4</ele>
        <time>2021-03-31T14:18:55Z</time>
      </trkpt>
      <trkpt lat="43.29044" lon="5.67903">
        <ele>529.7</ele>
        <time>2021-03-31T14:18:59Z</time>
      </trkpt>
      <trkpt lat="43.29041" lon="5.67897">
        <ele>529</ele>
        <time>2021-03-31T14:19:03Z</time>
      </trkpt>
      <trkpt lat="43.29037" lon="5.67891">
        <ele>528.2</ele>
        <time>2021-03-31T14:19:07Z</time>
      </trkpt>
      <trkpt lat="43.29035" lon="5.67886">
        <ele>527.5</ele>
        <time>2021-03-31T14:19:11Z</time>
      </trkpt>
      <trkpt lat="43.29031" lon="5.6788">
        <ele>526.7</ele>
        <time>2021-03-31T14:19:15Z</time>
      </trkpt>
      <trkpt lat="43.29028" lon="5.67875">
        <ele>525.8</ele>
        <time>2021-03-31T14:19:19Z</time>
      </trkpt>
      <trkpt lat="43.29025" lon="5.6787">
        <ele>525</ele>
        <time>2021-03-31T14:19:23Z</time>
      </trkpt>
      <trkpt lat="43.29023" lon="5.67864">
        <ele>524.4</ele>
        <time>2021-03-31T14:19:27Z</time>
      </trkpt>
      <trkpt lat="43.29022" lon="5.67857">
        <ele>524.6</ele>
        <time>2021-03-31T14:19:31Z</time>
      </trkpt>
      <trkpt lat="43.29023" lon="5.67848">
        <ele>525.3</ele>
        <time>2021-03-31T14:19:37Z</time>
      </trkpt>
      <trkpt lat="43.29024" lon="5.67842">
        <ele>526.2</ele>
        <time>2021-03-31T14:19:41Z</time>
      </trkpt>
      <trkpt lat="43.29025" lon="5.67835">
        <ele>526.9</ele>
        <time>2021-03-31T14:19:45Z</time>
      </trkpt>
      <trkpt lat="43.29025" lon="5.67827">
        <ele>528</ele>
        <time>2021-03-31T14:19:51Z</time>
      </trkpt>
      <trkpt lat="43.29025" lon="5.6782">
        <ele>528.8</ele>
        <time>2021-03-31T14:19:55Z</time>
      </trkpt>
      <trkpt lat="43.29025" lon="5.67813">
        <ele>529.5</ele>
        <time>2021-03-31T14:19:59Z</time>
      </trkpt>
      <trkpt lat="43.29024" lon="5.67807">
        <ele>529.9</ele>
        <time>2021-03-31T14:20:03Z</time>
      </trkpt>
      <trkpt lat="43.29022" lon="5.678">
        <ele>530</ele>
        <time>2021-03-31T14:20:07Z</time>
      </trkpt>
      <trkpt lat="43.29021" lon="5.67794">
        <ele>530.1</ele>
        <time>2021-03-31T14:20:11Z</time>
      </trkpt>
      <trkpt lat="43.29019" lon="5.67788">
        <ele>530.1</ele>
        <time>2021-03-31T14:20:15Z</time>
      </trkpt>
      <trkpt lat="43.29017" lon="5.67782">
        <ele>530.3</ele>
        <time>2021-03-31T14:20:19Z</time>
      </trkpt>
      <trkpt lat="43.29016" lon="5.67776">
        <ele>530.4</ele>
        <time>2021-03-31T14:20:23Z</time>
      </trkpt>
      <trkpt lat="43.29013" lon="5.67769">
        <ele>530.4</ele>
        <time>2021-03-31T14:20:27Z</time>
      </trkpt>
      <trkpt lat="43.29012" lon="5.67763">
        <ele>530.5</ele>
        <time>2021-03-31T14:20:31Z</time>
      </trkpt>
      <trkpt lat="43.2901" lon="5.67757">
        <ele>530.7</ele>
        <time>2021-03-31T14:20:35Z</time>
      </trkpt>
      <trkpt lat="43.29007" lon="5.6775">
        <ele>530.6</ele>
        <time>2021-03-31T14:20:39Z</time>
      </trkpt>
      <trkpt lat="43.29006" lon="5.67744">
        <ele>530.6</ele>
        <time>2021-03-31T14:20:43Z</time>
      </trkpt>
      <trkpt lat="43.29004" lon="5.67738">
        <ele>530.4</ele>
        <time>2021-03-31T14:20:47Z</time>
      </trkpt>
      <trkpt lat="43.29002" lon="5.67731">
        <ele>530.4</ele>
        <time>2021-03-31T14:20:51Z</time>
      </trkpt>
      <trkpt lat="43.29001" lon="5.67724">
        <ele>530.4</ele>
        <time>2021-03-31T14:20:55Z</time>
      </trkpt>
      <trkpt lat="43.28998" lon="5.67718">
        <ele>530.3</ele>
        <time>2021-03-31T14:20:59Z</time>
      </trkpt>
      <trkpt lat="43.28996" lon="5.67711">
        <ele>530.4</ele>
        <time>2021-03-31T14:21:03Z</time>
      </trkpt>
      <trkpt lat="43.28994" lon="5.67705">
        <ele>530.5</ele>
        <time>2021-03-31T14:21:07Z</time>
      </trkpt>
      <trkpt lat="43.28992" lon="5.67699">
        <ele>530.5</ele>
        <time>2021-03-31T14:21:11Z</time>
      </trkpt>
      <trkpt lat="43.28989" lon="5.67693">
        <ele>530.5</ele>
        <time>2021-03-31T14:21:15Z</time>
      </trkpt>
      <trkpt lat="43.28986" lon="5.67687">
        <ele>530.3</ele>
        <time>2021-03-31T14:21:19Z</time>
      </trkpt>
      <trkpt lat="43.28982" lon="5.67683">
        <ele>529.7</ele>
        <time>2021-03-31T14:21:23Z</time>
      </trkpt>
      <trkpt lat="43.28978" lon="5.67682">
        <ele>528.8</ele>
        <time>2021-03-31T14:21:27Z</time>
      </trkpt>
      <trkpt lat="43.28972" lon="5.67683">
        <ele>527.6</ele>
        <time>2021-03-31T14:21:31Z</time>
      </trkpt>
      <trkpt lat="43.28968" lon="5.67685">
        <ele>526.4</ele>
        <time>2021-03-31T14:21:35Z</time>
      </trkpt>
      <trkpt lat="43.28963" lon="5.67687">
        <ele>525.3</ele>
        <time>2021-03-31T14:21:39Z</time>
      </trkpt>
      <trkpt lat="43.28959" lon="5.6769">
        <ele>524</ele>
        <time>2021-03-31T14:21:43Z</time>
      </trkpt>
      <trkpt lat="43.28953" lon="5.67692">
        <ele>522.6</ele>
        <time>2021-03-31T14:21:49Z</time>
      </trkpt>
      <trkpt lat="43.28947" lon="5.6769">
        <ele>521.3</ele>
        <time>2021-03-31T14:21:55Z</time>
      </trkpt>
      <trkpt lat="43.28941" lon="5.67691">
        <ele>519.9</ele>
        <time>2021-03-31T14:22:13Z</time>
      </trkpt>
      <trkpt lat="43.28935" lon="5.6769">
        <ele>518.6</ele>
        <time>2021-03-31T14:22:19Z</time>
      </trkpt>
      <trkpt lat="43.28928" lon="5.6769">
        <ele>517.3</ele>
        <time>2021-03-31T14:22:25Z</time>
      </trkpt>
      <trkpt lat="43.28924" lon="5.67688">
        <ele>516.4</ele>
        <time>2021-03-31T14:22:29Z</time>
      </trkpt>
      <trkpt lat="43.28917" lon="5.67687">
        <ele>515.1</ele>
        <time>2021-03-31T14:22:35Z</time>
      </trkpt>
      <trkpt lat="43.28911" lon="5.67684">
        <ele>513.7</ele>
        <time>2021-03-31T14:22:41Z</time>
      </trkpt>
      <trkpt lat="43.28907" lon="5.67681">
        <ele>512.9</ele>
        <time>2021-03-31T14:22:45Z</time>
      </trkpt>
      <trkpt lat="43.28903" lon="5.67677">
        <ele>512.1</ele>
        <time>2021-03-31T14:22:49Z</time>
      </trkpt>
      <trkpt lat="43.28899" lon="5.67673">
        <ele>511.5</ele>
        <time>2021-03-31T14:22:53Z</time>
      </trkpt>
      <trkpt lat="43.28895" lon="5.67667">
        <ele>511.3</ele>
        <time>2021-03-31T14:22:57Z</time>
      </trkpt>
      <trkpt lat="43.28891" lon="5.67661">
        <ele>511.4</ele>
        <time>2021-03-31T14:23:03Z</time>
      </trkpt>
      <trkpt lat="43.28888" lon="5.67654">
        <ele>511.8</ele>
        <time>2021-03-31T14:23:09Z</time>
      </trkpt>
      <trkpt lat="43.28885" lon="5.67649">
        <ele>512</ele>
        <time>2021-03-31T14:23:13Z</time>
      </trkpt>
      <trkpt lat="43.28881" lon="5.67644">
        <ele>512.2</ele>
        <time>2021-03-31T14:23:17Z</time>
      </trkpt>
      <trkpt lat="43.28876" lon="5.67637">
        <ele>512.3</ele>
        <time>2021-03-31T14:23:23Z</time>
      </trkpt>
      <trkpt lat="43.28873" lon="5.67633">
        <ele>512.5</ele>
        <time>2021-03-31T14:23:27Z</time>
      </trkpt>
      <trkpt lat="43.28869" lon="5.67626">
        <ele>512.9</ele>
        <time>2021-03-31T14:23:33Z</time>
      </trkpt>
      <trkpt lat="43.28865" lon="5.67622">
        <ele>513</ele>
        <time>2021-03-31T14:23:37Z</time>
      </trkpt>
      <trkpt lat="43.2886" lon="5.67616">
        <ele>513</ele>
        <time>2021-03-31T14:23:43Z</time>
      </trkpt>
      <trkpt lat="43.28856" lon="5.67612">
        <ele>512.9</ele>
        <time>2021-03-31T14:23:47Z</time>
      </trkpt>
      <trkpt lat="43.28851" lon="5.6761">
        <ele>512.6</ele>
        <time>2021-03-31T14:23:51Z</time>
      </trkpt>
      <trkpt lat="43.28847" lon="5.67606">
        <ele>512.5</ele>
        <time>2021-03-31T14:23:55Z</time>
      </trkpt>
      <trkpt lat="43.28843" lon="5.67603">
        <ele>512.4</ele>
        <time>2021-03-31T14:23:59Z</time>
      </trkpt>
      <trkpt lat="43.28839" lon="5.67599">
        <ele>512.4</ele>
        <time>2021-03-31T14:24:03Z</time>
      </trkpt>
      <trkpt lat="43.28834" lon="5.67596">
        <ele>512.1</ele>
        <time>2021-03-31T14:24:07Z</time>
      </trkpt>
      <trkpt lat="43.2883" lon="5.67594">
        <ele>511.9</ele>
        <time>2021-03-31T14:24:11Z</time>
      </trkpt>
      <trkpt lat="43.28826" lon="5.67589">
        <ele>512.3</ele>
        <time>2021-03-31T14:24:15Z</time>
      </trkpt>
      <trkpt lat="43.28822" lon="5.67585">
        <ele>512.6</ele>
        <time>2021-03-31T14:24:19Z</time>
      </trkpt>
      <trkpt lat="43.28818" lon="5.67582">
        <ele>512.6</ele>
        <time>2021-03-31T14:24:23Z</time>
      </trkpt>
      <trkpt lat="43.28814" lon="5.67578">
        <ele>512.4</ele>
        <time>2021-03-31T14:24:27Z</time>
      </trkpt>
      <trkpt lat="43.2881" lon="5.67575">
        <ele>512.2</ele>
        <time>2021-03-31T14:24:31Z</time>
      </trkpt>
      <trkpt lat="43.28805" lon="5.67573">
        <ele>511.7</ele>
        <time>2021-03-31T14:24:35Z</time>
      </trkpt>
      <trkpt lat="43.28801" lon="5.6757">
        <ele>511.4</ele>
        <time>2021-03-31T14:24:39Z</time>
      </trkpt>
      <trkpt lat="43.28797" lon="5.67568">
        <ele>511</ele>
        <time>2021-03-31T14:24:43Z</time>
      </trkpt>
      <trkpt lat="43.28792" lon="5.67564">
        <ele>510.7</ele>
        <time>2021-03-31T14:24:47Z</time>
      </trkpt>
      <trkpt lat="43.28787" lon="5.67563">
        <ele>510.1</ele>
        <time>2021-03-31T14:24:51Z</time>
      </trkpt>
      <trkpt lat="43.28783" lon="5.67562">
        <ele>509.4</ele>
        <time>2021-03-31T14:24:55Z</time>
      </trkpt>
      <trkpt lat="43.28776" lon="5.67561">
        <ele>508.4</ele>
        <time>2021-03-31T14:24:59Z</time>
      </trkpt>
      <trkpt lat="43.28771" lon="5.67562">
        <ele>507.3</ele>
        <time>2021-03-31T14:25:03Z</time>
      </trkpt>
      <trkpt lat="43.28765" lon="5.67563">
        <ele>506.2</ele>
        <time>2021-03-31T14:25:07Z</time>
      </trkpt>
      <trkpt lat="43.2876" lon="5.67564">
        <ele>505.3</ele>
        <time>2021-03-31T14:25:11Z</time>
      </trkpt>
      <trkpt lat="43.28755" lon="5.67565">
        <ele>504.3</ele>
        <time>2021-03-31T14:25:15Z</time>
      </trkpt>
      <trkpt lat="43.28748" lon="5.67568">
        <ele>503</ele>
        <time>2021-03-31T14:25:19Z</time>
      </trkpt>
      <trkpt lat="43.28744" lon="5.67571">
        <ele>502.4</ele>
        <time>2021-03-31T14:25:23Z</time>
      </trkpt>
      <trkpt lat="43.28738" lon="5.67574">
        <ele>501.8</ele>
        <time>2021-03-31T14:25:29Z</time>
      </trkpt>
      <trkpt lat="43.28733" lon="5.6758">
        <ele>501</ele>
        <time>2021-03-31T14:25:35Z</time>
      </trkpt>
      <trkpt lat="43.2873" lon="5.67585">
        <ele>500.1</ele>
        <time>2021-03-31T14:25:39Z</time>
      </trkpt>
      <trkpt lat="43.28726" lon="5.67589">
        <ele>499</ele>
        <time>2021-03-31T14:25:43Z</time>
      </trkpt>
      <trkpt lat="43.28721" lon="5.67595">
        <ele>497.5</ele>
        <time>2021-03-31T14:25:49Z</time>
      </trkpt>
      <trkpt lat="43.28717" lon="5.676">
        <ele>496.3</ele>
        <time>2021-03-31T14:25:53Z</time>
      </trkpt>
      <trkpt lat="43.28713" lon="5.67605">
        <ele>494.9</ele>
        <time>2021-03-31T14:25:57Z</time>
      </trkpt>
      <trkpt lat="43.28709" lon="5.6761">
        <ele>493.7</ele>
        <time>2021-03-31T14:26:01Z</time>
      </trkpt>
      <trkpt lat="43.28704" lon="5.67615">
        <ele>492.6</ele>
        <time>2021-03-31T14:26:07Z</time>
      </trkpt>
      <trkpt lat="43.28698" lon="5.67618">
        <ele>492</ele>
        <time>2021-03-31T14:26:13Z</time>
      </trkpt>
      <trkpt lat="43.28693" lon="5.67619">
        <ele>491.8</ele>
        <time>2021-03-31T14:26:33Z</time>
      </trkpt>
      <trkpt lat="43.28688" lon="5.67619">
        <ele>491.9</ele>
        <time>2021-03-31T14:26:41Z</time>
      </trkpt>
      <trkpt lat="43.28683" lon="5.67621">
        <ele>491.6</ele>
        <time>2021-03-31T14:27:09Z</time>
      </trkpt>
      <trkpt lat="43.28679" lon="5.67625">
        <ele>490.8</ele>
        <time>2021-03-31T14:28:37Z</time>
      </trkpt>
      <trkpt lat="43.28676" lon="5.6763">
        <ele>489.7</ele>
        <time>2021-03-31T14:28:45Z</time>
      </trkpt>
      <trkpt lat="43.28673" lon="5.67637">
        <ele>488.4</ele>
        <time>2021-03-31T14:28:51Z</time>
      </trkpt>
      <trkpt lat="43.28673" lon="5.67644">
        <ele>487</ele>
        <time>2021-03-31T14:28:57Z</time>
      </trkpt>
      <trkpt lat="43.28678" lon="5.67644">
        <ele>486.9</ele>
        <time>2021-03-31T14:29:41Z</time>
      </trkpt>
      <trkpt lat="43.28684" lon="5.67641">
        <ele>487.4</ele>
        <time>2021-03-31T14:29:47Z</time>
      </trkpt>
      <trkpt lat="43.28688" lon="5.67639">
        <ele>487.5</ele>
        <time>2021-03-31T14:29:53Z</time>
      </trkpt>
      <trkpt lat="43.28695" lon="5.67639">
        <ele>487.5</ele>
        <time>2021-03-31T14:30:01Z</time>
      </trkpt>
      <trkpt lat="43.28702" lon="5.6764">
        <ele>487</ele>
        <time>2021-03-31T14:30:07Z</time>
      </trkpt>
      <trkpt lat="43.28706" lon="5.67639">
        <ele>487</ele>
        <time>2021-03-31T14:30:11Z</time>
      </trkpt>
      <trkpt lat="43.28713" lon="5.67637">
        <ele>487.2</ele>
        <time>2021-03-31T14:30:17Z</time>
      </trkpt>
      <trkpt lat="43.28717" lon="5.67635">
        <ele>487.7</ele>
        <time>2021-03-31T14:30:23Z</time>
      </trkpt>
      <trkpt lat="43.28722" lon="5.67632">
        <ele>488.3</ele>
        <time>2021-03-31T14:30:27Z</time>
      </trkpt>
      <trkpt lat="43.28727" lon="5.67628">
        <ele>489.2</ele>
        <time>2021-03-31T14:30:33Z</time>
      </trkpt>
      <trkpt lat="43.28732" lon="5.67625">
        <ele>489.8</ele>
        <time>2021-03-31T14:30:37Z</time>
      </trkpt>
      <trkpt lat="43.28736" lon="5.67623">
        <ele>490.3</ele>
        <time>2021-03-31T14:30:41Z</time>
      </trkpt>
      <trkpt lat="43.28742" lon="5.67621">
        <ele>490.7</ele>
        <time>2021-03-31T14:30:45Z</time>
      </trkpt>
      <trkpt lat="43.28746" lon="5.67619">
        <ele>491.3</ele>
        <time>2021-03-31T14:30:49Z</time>
      </trkpt>
      <trkpt lat="43.28751" lon="5.67615">
        <ele>492.5</ele>
        <time>2021-03-31T14:30:55Z</time>
      </trkpt>
      <trkpt lat="43.28757" lon="5.67614">
        <ele>493.7</ele>
        <time>2021-03-31T14:31:01Z</time>
      </trkpt>
      <trkpt lat="43.28762" lon="5.67614">
        <ele>494.6</ele>
        <time>2021-03-31T14:31:05Z</time>
      </trkpt>
      <trkpt lat="43.28768" lon="5.67616">
        <ele>495.2</ele>
        <time>2021-03-31T14:31:09Z</time>
      </trkpt>
      <trkpt lat="43.28774" lon="5.67619">
        <ele>495.7</ele>
        <time>2021-03-31T14:31:13Z</time>
      </trkpt>
      <trkpt lat="43.28779" lon="5.67621">
        <ele>496.1</ele>
        <time>2021-03-31T14:31:17Z</time>
      </trkpt>
      <trkpt lat="43.28784" lon="5.67622">
        <ele>496.4</ele>
        <time>2021-03-31T14:31:21Z</time>
      </trkpt>
      <trkpt lat="43.2879" lon="5.67625">
        <ele>497</ele>
        <time>2021-03-31T14:31:27Z</time>
      </trkpt>
      <trkpt lat="43.28795" lon="5.67627">
        <ele>497.2</ele>
        <time>2021-03-31T14:31:31Z</time>
      </trkpt>
      <trkpt lat="43.28801" lon="5.6763">
        <ele>497.7</ele>
        <time>2021-03-31T14:31:37Z</time>
      </trkpt>
      <trkpt lat="43.28805" lon="5.67634">
        <ele>497.6</ele>
        <time>2021-03-31T14:31:41Z</time>
      </trkpt>
      <trkpt lat="43.2881" lon="5.67637">
        <ele>497.5</ele>
        <time>2021-03-31T14:31:45Z</time>
      </trkpt>
      <trkpt lat="43.28814" lon="5.67642">
        <ele>497.2</ele>
        <time>2021-03-31T14:31:49Z</time>
      </trkpt>
      <trkpt lat="43.28819" lon="5.67645">
        <ele>497.2</ele>
        <time>2021-03-31T14:31:53Z</time>
      </trkpt>
      <trkpt lat="43.28823" lon="5.6765">
        <ele>496.9</ele>
        <time>2021-03-31T14:31:57Z</time>
      </trkpt>
      <trkpt lat="43.28826" lon="5.67658">
        <ele>495.4</ele>
        <time>2021-03-31T14:32:03Z</time>
      </trkpt>
      <trkpt lat="43.28828" lon="5.67665">
        <ele>494.3</ele>
        <time>2021-03-31T14:32:07Z</time>
      </trkpt>
      <trkpt lat="43.2883" lon="5.67674">
        <ele>492.8</ele>
        <time>2021-03-31T14:32:13Z</time>
      </trkpt>
      <trkpt lat="43.28831" lon="5.6768">
        <ele>491.6</ele>
        <time>2021-03-31T14:32:17Z</time>
      </trkpt>
      <trkpt lat="43.28832" lon="5.67687">
        <ele>490.6</ele>
        <time>2021-03-31T14:32:21Z</time>
      </trkpt>
      <trkpt lat="43.28833" lon="5.67693">
        <ele>489.6</ele>
        <time>2021-03-31T14:32:25Z</time>
      </trkpt>
      <trkpt lat="43.28835" lon="5.67699">
        <ele>488.9</ele>
        <time>2021-03-31T14:32:29Z</time>
      </trkpt>
      <trkpt lat="43.28838" lon="5.67706">
        <ele>488.3</ele>
        <time>2021-03-31T14:32:33Z</time>
      </trkpt>
      <trkpt lat="43.28841" lon="5.67712">
        <ele>488.1</ele>
        <time>2021-03-31T14:32:37Z</time>
      </trkpt>
      <trkpt lat="43.28844" lon="5.67718">
        <ele>488</ele>
        <time>2021-03-31T14:32:41Z</time>
      </trkpt>
      <trkpt lat="43.28847" lon="5.67723">
        <ele>488.1</ele>
        <time>2021-03-31T14:32:45Z</time>
      </trkpt>
      <trkpt lat="43.28852" lon="5.6773">
        <ele>488.5</ele>
        <time>2021-03-31T14:32:51Z</time>
      </trkpt>
      <trkpt lat="43.28855" lon="5.67735">
        <ele>488.7</ele>
        <time>2021-03-31T14:32:55Z</time>
      </trkpt>
      <trkpt lat="43.28857" lon="5.6774">
        <ele>488.5</ele>
        <time>2021-03-31T14:32:59Z</time>
      </trkpt>
      <trkpt lat="43.2886" lon="5.67749">
        <ele>488</ele>
        <time>2021-03-31T14:33:05Z</time>
      </trkpt>
      <trkpt lat="43.28863" lon="5.67755">
        <ele>488.2</ele>
        <time>2021-03-31T14:33:09Z</time>
      </trkpt>
      <trkpt lat="43.28865" lon="5.67761">
        <ele>488.2</ele>
        <time>2021-03-31T14:33:13Z</time>
      </trkpt>
      <trkpt lat="43.28866" lon="5.67767">
        <ele>487.8</ele>
        <time>2021-03-31T14:33:17Z</time>
      </trkpt>
      <trkpt lat="43.28866" lon="5.67774">
        <ele>486.7</ele>
        <time>2021-03-31T14:33:21Z</time>
      </trkpt>
      <trkpt lat="43.28866" lon="5.67781">
        <ele>485.9</ele>
        <time>2021-03-31T14:33:25Z</time>
      </trkpt>
      <trkpt lat="43.28867" lon="5.67788">
        <ele>485.3</ele>
        <time>2021-03-31T14:33:29Z</time>
      </trkpt>
      <trkpt lat="43.28867" lon="5.67795">
        <ele>484.5</ele>
        <time>2021-03-31T14:33:33Z</time>
      </trkpt>
      <trkpt lat="43.28868" lon="5.67803">
        <ele>483.6</ele>
        <time>2021-03-31T14:33:37Z</time>
      </trkpt>
      <trkpt lat="43.28869" lon="5.67809">
        <ele>483.4</ele>
        <time>2021-03-31T14:33:41Z</time>
      </trkpt>
      <trkpt lat="43.28872" lon="5.67815">
        <ele>483.4</ele>
        <time>2021-03-31T14:33:45Z</time>
      </trkpt>
      <trkpt lat="43.28874" lon="5.67821">
        <ele>483.4</ele>
        <time>2021-03-31T14:33:49Z</time>
      </trkpt>
      <trkpt lat="43.28878" lon="5.67827">
        <ele>484</ele>
        <time>2021-03-31T14:33:53Z</time>
      </trkpt>
      <trkpt lat="43.28881" lon="5.67832">
        <ele>484.5</ele>
        <time>2021-03-31T14:33:57Z</time>
      </trkpt>
      <trkpt lat="43.28885" lon="5.67838">
        <ele>484.9</ele>
        <time>2021-03-31T14:34:01Z</time>
      </trkpt>
      <trkpt lat="43.28889" lon="5.67845">
        <ele>485.1</ele>
        <time>2021-03-31T14:34:07Z</time>
      </trkpt>
      <trkpt lat="43.28893" lon="5.67849">
        <ele>485.7</ele>
        <time>2021-03-31T14:34:11Z</time>
      </trkpt>
      <trkpt lat="43.28897" lon="5.67853">
        <ele>486</ele>
        <time>2021-03-31T14:34:15Z</time>
      </trkpt>
      <trkpt lat="43.289" lon="5.67859">
        <ele>485.9</ele>
        <time>2021-03-31T14:34:19Z</time>
      </trkpt>
      <trkpt lat="43.28902" lon="5.67864">
        <ele>485.7</ele>
        <time>2021-03-31T14:34:23Z</time>
      </trkpt>
      <trkpt lat="43.28903" lon="5.67871">
        <ele>484.8</ele>
        <time>2021-03-31T14:34:27Z</time>
      </trkpt>
      <trkpt lat="43.28905" lon="5.67877">
        <ele>484.2</ele>
        <time>2021-03-31T14:34:31Z</time>
      </trkpt>
      <trkpt lat="43.28906" lon="5.67884">
        <ele>483.3</ele>
        <time>2021-03-31T14:34:35Z</time>
      </trkpt>
      <trkpt lat="43.28909" lon="5.6789">
        <ele>482.9</ele>
        <time>2021-03-31T14:34:39Z</time>
      </trkpt>
      <trkpt lat="43.28912" lon="5.67894">
        <ele>483.1</ele>
        <time>2021-03-31T14:34:43Z</time>
      </trkpt>
      <trkpt lat="43.28917" lon="5.67896">
        <ele>484.3</ele>
        <time>2021-03-31T14:34:47Z</time>
      </trkpt>
      <trkpt lat="43.28922" lon="5.67894">
        <ele>486.6</ele>
        <time>2021-03-31T14:34:51Z</time>
      </trkpt>
      <trkpt lat="43.28927" lon="5.67892">
        <ele>488.5</ele>
        <time>2021-03-31T14:34:55Z</time>
      </trkpt>
      <trkpt lat="43.28933" lon="5.67892">
        <ele>490.7</ele>
        <time>2021-03-31T14:35:01Z</time>
      </trkpt>
      <trkpt lat="43.28937" lon="5.67899">
        <ele>491</ele>
        <time>2021-03-31T14:35:07Z</time>
      </trkpt>
      <trkpt lat="43.28939" lon="5.67906">
        <ele>490.5</ele>
        <time>2021-03-31T14:35:11Z</time>
      </trkpt>
      <trkpt lat="43.2894" lon="5.67914">
        <ele>489.6</ele>
        <time>2021-03-31T14:35:17Z</time>
      </trkpt>
      <trkpt lat="43.28941" lon="5.67921">
        <ele>488.8</ele>
        <time>2021-03-31T14:35:21Z</time>
      </trkpt>
      <trkpt lat="43.28941" lon="5.67927">
        <ele>487.3</ele>
        <time>2021-03-31T14:35:25Z</time>
      </trkpt>
      <trkpt lat="43.28943" lon="5.67935">
        <ele>486.2</ele>
        <time>2021-03-31T14:35:29Z</time>
      </trkpt>
      <trkpt lat="43.28945" lon="5.67941">
        <ele>485.7</ele>
        <time>2021-03-31T14:35:33Z</time>
      </trkpt>
      <trkpt lat="43.28948" lon="5.67947">
        <ele>485.5</ele>
        <time>2021-03-31T14:35:37Z</time>
      </trkpt>
      <trkpt lat="43.28951" lon="5.67953">
        <ele>485.4</ele>
        <time>2021-03-31T14:35:41Z</time>
      </trkpt>
      <trkpt lat="43.28954" lon="5.67958">
        <ele>485.7</ele>
        <time>2021-03-31T14:35:45Z</time>
      </trkpt>
      <trkpt lat="43.28958" lon="5.67964">
        <ele>486</ele>
        <time>2021-03-31T14:35:49Z</time>
      </trkpt>
      <trkpt lat="43.28961" lon="5.67969">
        <ele>486.5</ele>
        <time>2021-03-31T14:35:53Z</time>
      </trkpt>
      <trkpt lat="43.28966" lon="5.67973">
        <ele>487.9</ele>
        <time>2021-03-31T14:35:57Z</time>
      </trkpt>
      <trkpt lat="43.28972" lon="5.67975">
        <ele>489.7</ele>
        <time>2021-03-31T14:36:01Z</time>
      </trkpt>
      <trkpt lat="43.28977" lon="5.67978">
        <ele>491.5</ele>
        <time>2021-03-31T14:36:05Z</time>
      </trkpt>
      <trkpt lat="43.28981" lon="5.6798">
        <ele>493.2</ele>
        <time>2021-03-31T14:36:09Z</time>
      </trkpt>
      <trkpt lat="43.28986" lon="5.67983">
        <ele>494.8</ele>
        <time>2021-03-31T14:36:13Z</time>
      </trkpt>
      <trkpt lat="43.2899" lon="5.67986">
        <ele>495.9</ele>
        <time>2021-03-31T14:36:17Z</time>
      </trkpt>
      <trkpt lat="43.28993" lon="5.67991">
        <ele>496.5</ele>
        <time>2021-03-31T14:36:21Z</time>
      </trkpt>
      <trkpt lat="43.28996" lon="5.67995">
        <ele>497</ele>
        <time>2021-03-31T14:36:25Z</time>
      </trkpt>
      <trkpt lat="43.28998" lon="5.68001">
        <ele>497</ele>
        <time>2021-03-31T14:36:29Z</time>
      </trkpt>
      <trkpt lat="43.29" lon="5.68008">
        <ele>497</ele>
        <time>2021-03-31T14:36:33Z</time>
      </trkpt>
      <trkpt lat="43.28999" lon="5.68015">
        <ele>496.2</ele>
        <time>2021-03-31T14:36:39Z</time>
      </trkpt>
      <trkpt lat="43.28996" lon="5.68022">
        <ele>494</ele>
        <time>2021-03-31T14:36:45Z</time>
      </trkpt>
      <trkpt lat="43.28992" lon="5.68029">
        <ele>491.4</ele>
        <time>2021-03-31T14:36:51Z</time>
      </trkpt>
      <trkpt lat="43.28988" lon="5.68036">
        <ele>489.2</ele>
        <time>2021-03-31T14:36:57Z</time>
      </trkpt>
      <trkpt lat="43.28985" lon="5.68044">
        <ele>487.1</ele>
        <time>2021-03-31T14:37:03Z</time>
      </trkpt>
      <trkpt lat="43.28983" lon="5.6805">
        <ele>485.8</ele>
        <time>2021-03-31T14:37:07Z</time>
      </trkpt>
      <trkpt lat="43.2898" lon="5.68056">
        <ele>483.9</ele>
        <time>2021-03-31T14:37:13Z</time>
      </trkpt>
      <trkpt lat="43.28979" lon="5.68065">
        <ele>482.6</ele>
        <time>2021-03-31T14:37:19Z</time>
      </trkpt>
      <trkpt lat="43.28977" lon="5.68071">
        <ele>481.3</ele>
        <time>2021-03-31T14:37:23Z</time>
      </trkpt>
      <trkpt lat="43.28976" lon="5.68079">
        <ele>480.1</ele>
        <time>2021-03-31T14:37:29Z</time>
      </trkpt>
      <trkpt lat="43.28973" lon="5.68086">
        <ele>478</ele>
        <time>2021-03-31T14:37:35Z</time>
      </trkpt>
      <trkpt lat="43.28969" lon="5.68093">
        <ele>475.8</ele>
        <time>2021-03-31T14:37:41Z</time>
      </trkpt>
      <trkpt lat="43.28965" lon="5.68101">
        <ele>474.1</ele>
        <time>2021-03-31T14:37:47Z</time>
      </trkpt>
      <trkpt lat="43.28963" lon="5.68106">
        <ele>472.9</ele>
        <time>2021-03-31T14:37:51Z</time>
      </trkpt>
      <trkpt lat="43.28961" lon="5.68112">
        <ele>471.8</ele>
        <time>2021-03-31T14:37:55Z</time>
      </trkpt>
      <trkpt lat="43.28958" lon="5.68117">
        <ele>470.6</ele>
        <time>2021-03-31T14:37:59Z</time>
      </trkpt>
      <trkpt lat="43.28955" lon="5.68125">
        <ele>469.1</ele>
        <time>2021-03-31T14:38:05Z</time>
      </trkpt>
      <trkpt lat="43.28953" lon="5.68132">
        <ele>468.1</ele>
        <time>2021-03-31T14:38:09Z</time>
      </trkpt>
      <trkpt lat="43.28952" lon="5.68138">
        <ele>467.6</ele>
        <time>2021-03-31T14:38:13Z</time>
      </trkpt>
      <trkpt lat="43.28953" lon="5.68146">
        <ele>467.5</ele>
        <time>2021-03-31T14:38:17Z</time>
      </trkpt>
      <trkpt lat="43.28956" lon="5.68151">
        <ele>468.4</ele>
        <time>2021-03-31T14:38:21Z</time>
      </trkpt>
      <trkpt lat="43.2896" lon="5.68154">
        <ele>469.4</ele>
        <time>2021-03-31T14:38:25Z</time>
      </trkpt>
      <trkpt lat="43.28964" lon="5.68157">
        <ele>470.6</ele>
        <time>2021-03-31T14:38:29Z</time>
      </trkpt>
      <trkpt lat="43.28969" lon="5.68159">
        <ele>471.9</ele>
        <time>2021-03-31T14:38:33Z</time>
      </trkpt>
      <trkpt lat="43.28975" lon="5.68161">
        <ele>473.5</ele>
        <time>2021-03-31T14:38:39Z</time>
      </trkpt>
      <trkpt lat="43.2898" lon="5.68165">
        <ele>474.6</ele>
        <time>2021-03-31T14:38:45Z</time>
      </trkpt>
      <trkpt lat="43.28984" lon="5.68169">
        <ele>475.2</ele>
        <time>2021-03-31T14:38:51Z</time>
      </trkpt>
      <trkpt lat="43.28988" lon="5.68173">
        <ele>475.6</ele>
        <time>2021-03-31T14:38:57Z</time>
      </trkpt>
      <trkpt lat="43.28992" lon="5.68179">
        <ele>475.8</ele>
        <time>2021-03-31T14:39:03Z</time>
      </trkpt>
      <trkpt lat="43.28997" lon="5.68184">
        <ele>476.3</ele>
        <time>2021-03-31T14:39:09Z</time>
      </trkpt>
      <trkpt lat="43.28999" lon="5.68191">
        <ele>475.6</ele>
        <time>2021-03-31T14:39:17Z</time>
      </trkpt>
      <trkpt lat="43.28999" lon="5.68198">
        <ele>474.4</ele>
        <time>2021-03-31T14:39:23Z</time>
      </trkpt>
      <trkpt lat="43.29" lon="5.68205">
        <ele>473.5</ele>
        <time>2021-03-31T14:39:31Z</time>
      </trkpt>
      <trkpt lat="43.28999" lon="5.68212">
        <ele>471.9</ele>
        <time>2021-03-31T14:39:37Z</time>
      </trkpt>
      <trkpt lat="43.28998" lon="5.68219">
        <ele>470.6</ele>
        <time>2021-03-31T14:39:41Z</time>
      </trkpt>
      <trkpt lat="43.28997" lon="5.68227">
        <ele>468.9</ele>
        <time>2021-03-31T14:39:47Z</time>
      </trkpt>
      <trkpt lat="43.28997" lon="5.68234">
        <ele>467.8</ele>
        <time>2021-03-31T14:39:53Z</time>
      </trkpt>
      <trkpt lat="43.28996" lon="5.68243">
        <ele>465.9</ele>
        <time>2021-03-31T14:39:59Z</time>
      </trkpt>
      <trkpt lat="43.28995" lon="5.68252">
        <ele>463.9</ele>
        <time>2021-03-31T14:40:05Z</time>
      </trkpt>
      <trkpt lat="43.28995" lon="5.68258">
        <ele>462.8</ele>
        <time>2021-03-31T14:40:09Z</time>
      </trkpt>
      <trkpt lat="43.28997" lon="5.68268">
        <ele>461.8</ele>
        <time>2021-03-31T14:40:15Z</time>
      </trkpt>
      <trkpt lat="43.28998" lon="5.68274">
        <ele>461.4</ele>
        <time>2021-03-31T14:40:19Z</time>
      </trkpt>
      <trkpt lat="43.29" lon="5.68281">
        <ele>460.9</ele>
        <time>2021-03-31T14:40:23Z</time>
      </trkpt>
      <trkpt lat="43.29001" lon="5.6829">
        <ele>459.8</ele>
        <time>2021-03-31T14:40:29Z</time>
      </trkpt>
      <trkpt lat="43.29001" lon="5.68299">
        <ele>458.3</ele>
        <time>2021-03-31T14:40:35Z</time>
      </trkpt>
      <trkpt lat="43.29001" lon="5.68308">
        <ele>456.8</ele>
        <time>2021-03-31T14:40:41Z</time>
      </trkpt>
      <trkpt lat="43.29002" lon="5.68315">
        <ele>455.8</ele>
        <time>2021-03-31T14:40:45Z</time>
      </trkpt>
      <trkpt lat="43.29002" lon="5.68321">
        <ele>455</ele>
        <time>2021-03-31T14:40:49Z</time>
      </trkpt>
      <trkpt lat="43.29004" lon="5.68327">
        <ele>454.6</ele>
        <time>2021-03-31T14:40:53Z</time>
      </trkpt>
      <trkpt lat="43.29007" lon="5.68333">
        <ele>454.8</ele>
        <time>2021-03-31T14:40:57Z</time>
      </trkpt>
      <trkpt lat="43.29011" lon="5.68338">
        <ele>455.4</ele>
        <time>2021-03-31T14:41:01Z</time>
      </trkpt>
      <trkpt lat="43.29015" lon="5.68342">
        <ele>456.3</ele>
        <time>2021-03-31T14:41:05Z</time>
      </trkpt>
      <trkpt lat="43.29019" lon="5.68346">
        <ele>457</ele>
        <time>2021-03-31T14:41:09Z</time>
      </trkpt>
      <trkpt lat="43.29025" lon="5.68348">
        <ele>458.8</ele>
        <time>2021-03-31T14:41:13Z</time>
      </trkpt>
      <trkpt lat="43.29029" lon="5.68351">
        <ele>459.9</ele>
        <time>2021-03-31T14:41:17Z</time>
      </trkpt>
      <trkpt lat="43.29034" lon="5.68354">
        <ele>461.5</ele>
        <time>2021-03-31T14:41:21Z</time>
      </trkpt>
      <trkpt lat="43.29039" lon="5.68357">
        <ele>462.8</ele>
        <time>2021-03-31T14:41:25Z</time>
      </trkpt>
      <trkpt lat="43.29044" lon="5.68362">
        <ele>463.8</ele>
        <time>2021-03-31T14:41:31Z</time>
      </trkpt>
      <trkpt lat="43.29049" lon="5.68368">
        <ele>464.4</ele>
        <time>2021-03-31T14:41:37Z</time>
      </trkpt>
      <trkpt lat="43.29052" lon="5.68373">
        <ele>464.3</ele>
        <time>2021-03-31T14:41:41Z</time>
      </trkpt>
      <trkpt lat="43.29054" lon="5.68381">
        <ele>463.3</ele>
        <time>2021-03-31T14:41:47Z</time>
      </trkpt>
      <trkpt lat="43.29056" lon="5.6839">
        <ele>462.4</ele>
        <time>2021-03-31T14:41:53Z</time>
      </trkpt>
      <trkpt lat="43.2906" lon="5.68397">
        <ele>462.1</ele>
        <time>2021-03-31T14:41:59Z</time>
      </trkpt>
      <trkpt lat="43.29063" lon="5.68403">
        <ele>462</ele>
        <time>2021-03-31T14:42:03Z</time>
      </trkpt>
      <trkpt lat="43.29066" lon="5.68408">
        <ele>462.1</ele>
        <time>2021-03-31T14:42:07Z</time>
      </trkpt>
      <trkpt lat="43.2907" lon="5.68413">
        <ele>462.4</ele>
        <time>2021-03-31T14:42:11Z</time>
      </trkpt>
      <trkpt lat="43.29074" lon="5.68418">
        <ele>463.4</ele>
        <time>2021-03-31T14:42:15Z</time>
      </trkpt>
      <trkpt lat="43.29079" lon="5.68422">
        <ele>465.2</ele>
        <time>2021-03-31T14:42:19Z</time>
      </trkpt>
      <trkpt lat="43.29085" lon="5.68426">
        <ele>467.5</ele>
        <time>2021-03-31T14:42:23Z</time>
      </trkpt>
      <trkpt lat="43.29089" lon="5.68429">
        <ele>469.6</ele>
        <time>2021-03-31T14:42:27Z</time>
      </trkpt>
      <trkpt lat="43.29094" lon="5.68435">
        <ele>472.2</ele>
        <time>2021-03-31T14:42:33Z</time>
      </trkpt>
      <trkpt lat="43.29098" lon="5.68441">
        <ele>474.2</ele>
        <time>2021-03-31T14:42:39Z</time>
      </trkpt>
      <trkpt lat="43.29097" lon="5.68448">
        <ele>473.5</ele>
        <time>2021-03-31T14:42:45Z</time>
      </trkpt>
      <trkpt lat="43.29093" lon="5.68455">
        <ele>471.6</ele>
        <time>2021-03-31T14:42:51Z</time>
      </trkpt>
      <trkpt lat="43.29089" lon="5.68458">
        <ele>469.2</ele>
        <time>2021-03-31T14:42:55Z</time>
      </trkpt>
      <trkpt lat="43.29084" lon="5.6846">
        <ele>466.9</ele>
        <time>2021-03-31T14:42:59Z</time>
      </trkpt>
      <trkpt lat="43.29079" lon="5.68463">
        <ele>465</ele>
        <time>2021-03-31T14:43:03Z</time>
      </trkpt>
      <trkpt lat="43.29075" lon="5.68467">
        <ele>463.6</ele>
        <time>2021-03-31T14:43:07Z</time>
      </trkpt>
      <trkpt lat="43.29071" lon="5.68471">
        <ele>462.3</ele>
        <time>2021-03-31T14:43:11Z</time>
      </trkpt>
      <trkpt lat="43.29067" lon="5.68476">
        <ele>461</ele>
        <time>2021-03-31T14:43:15Z</time>
      </trkpt>
      <trkpt lat="43.29064" lon="5.68482">
        <ele>460.2</ele>
        <time>2021-03-31T14:43:19Z</time>
      </trkpt>
      <trkpt lat="43.29062" lon="5.68488">
        <ele>459.5</ele>
        <time>2021-03-31T14:43:23Z</time>
      </trkpt>
      <trkpt lat="43.29058" lon="5.68496">
        <ele>458.7</ele>
        <time>2021-03-31T14:43:29Z</time>
      </trkpt>
      <trkpt lat="43.29054" lon="5.68501">
        <ele>457.9</ele>
        <time>2021-03-31T14:43:35Z</time>
      </trkpt>
      <trkpt lat="43.2905" lon="5.68499">
        <ele>456.3</ele>
        <time>2021-03-31T14:43:41Z</time>
      </trkpt>
      <trkpt lat="43.29046" lon="5.68492">
        <ele>454.8</ele>
        <time>2021-03-31T14:43:47Z</time>
      </trkpt>
      <trkpt lat="43.29042" lon="5.68483">
        <ele>453.4</ele>
        <time>2021-03-31T14:43:53Z</time>
      </trkpt>
      <trkpt lat="43.29039" lon="5.68477">
        <ele>452.1</ele>
        <time>2021-03-31T14:43:57Z</time>
      </trkpt>
      <trkpt lat="43.29035" lon="5.68472">
        <ele>450.6</ele>
        <time>2021-03-31T14:44:01Z</time>
      </trkpt>
      <trkpt lat="43.29031" lon="5.68468">
        <ele>449.1</ele>
        <time>2021-03-31T14:44:05Z</time>
      </trkpt>
      <trkpt lat="43.29026" lon="5.68462">
        <ele>447.1</ele>
        <time>2021-03-31T14:44:11Z</time>
      </trkpt>
      <trkpt lat="43.2902" lon="5.68459">
        <ele>444.9</ele>
        <time>2021-03-31T14:44:17Z</time>
      </trkpt>
      <trkpt lat="43.29014" lon="5.68457">
        <ele>442.8</ele>
        <time>2021-03-31T14:44:21Z</time>
      </trkpt>
      <trkpt lat="43.29008" lon="5.68455">
        <ele>440.6</ele>
        <time>2021-03-31T14:44:25Z</time>
      </trkpt>
      <trkpt lat="43.29002" lon="5.68456">
        <ele>438.3</ele>
        <time>2021-03-31T14:44:29Z</time>
      </trkpt>
      <trkpt lat="43.28996" lon="5.68457">
        <ele>437.3</ele>
        <time>2021-03-31T14:44:33Z</time>
      </trkpt>
      <trkpt lat="43.28991" lon="5.6846">
        <ele>437.2</ele>
        <time>2021-03-31T14:44:37Z</time>
      </trkpt>
      <trkpt lat="43.28986" lon="5.68465">
        <ele>437.2</ele>
        <time>2021-03-31T14:44:41Z</time>
      </trkpt>
      <trkpt lat="43.28982" lon="5.68469">
        <ele>437.3</ele>
        <time>2021-03-31T14:44:45Z</time>
      </trkpt>
      <trkpt lat="43.28979" lon="5.68473">
        <ele>437.6</ele>
        <time>2021-03-31T14:44:49Z</time>
      </trkpt>
      <trkpt lat="43.28974" lon="5.68475">
        <ele>437.5</ele>
        <time>2021-03-31T14:44:53Z</time>
      </trkpt>
      <trkpt lat="43.28968" lon="5.68476">
        <ele>437.2</ele>
        <time>2021-03-31T14:44:59Z</time>
      </trkpt>
      <trkpt lat="43.28961" lon="5.68476">
        <ele>436.6</ele>
        <time>2021-03-31T14:45:05Z</time>
      </trkpt>
      <trkpt lat="43.28956" lon="5.68477">
        <ele>436.3</ele>
        <time>2021-03-31T14:45:09Z</time>
      </trkpt>
      <trkpt lat="43.2895" lon="5.68476">
        <ele>435.9</ele>
        <time>2021-03-31T14:45:13Z</time>
      </trkpt>
      <trkpt lat="43.28945" lon="5.68476">
        <ele>435.2</ele>
        <time>2021-03-31T14:45:17Z</time>
      </trkpt>
      <trkpt lat="43.28938" lon="5.68475">
        <ele>434.6</ele>
        <time>2021-03-31T14:45:23Z</time>
      </trkpt>
      <trkpt lat="43.28933" lon="5.68474">
        <ele>434</ele>
        <time>2021-03-31T14:45:27Z</time>
      </trkpt>
      <trkpt lat="43.28928" lon="5.68475">
        <ele>433.6</ele>
        <time>2021-03-31T14:45:31Z</time>
      </trkpt>
      <trkpt lat="43.28922" lon="5.68475">
        <ele>433.2</ele>
        <time>2021-03-31T14:45:35Z</time>
      </trkpt>
      <trkpt lat="43.28917" lon="5.68475">
        <ele>432.8</ele>
        <time>2021-03-31T14:45:39Z</time>
      </trkpt>
      <trkpt lat="43.28912" lon="5.68476">
        <ele>432.3</ele>
        <time>2021-03-31T14:45:43Z</time>
      </trkpt>
      <trkpt lat="43.28907" lon="5.68479">
        <ele>432.3</ele>
        <time>2021-03-31T14:45:47Z</time>
      </trkpt>
      <trkpt lat="43.28903" lon="5.68483">
        <ele>432.8</ele>
        <time>2021-03-31T14:45:51Z</time>
      </trkpt>
      <trkpt lat="43.289" lon="5.68487">
        <ele>433.3</ele>
        <time>2021-03-31T14:45:55Z</time>
      </trkpt>
      <trkpt lat="43.28894" lon="5.68492">
        <ele>433.6</ele>
        <time>2021-03-31T14:46:01Z</time>
      </trkpt>
      <trkpt lat="43.28888" lon="5.68494">
        <ele>433.1</ele>
        <time>2021-03-31T14:46:05Z</time>
      </trkpt>
      <trkpt lat="43.28883" lon="5.68494">
        <ele>432.4</ele>
        <time>2021-03-31T14:46:09Z</time>
      </trkpt>
      <trkpt lat="43.28878" lon="5.68494">
        <ele>431.5</ele>
        <time>2021-03-31T14:46:13Z</time>
      </trkpt>
      <trkpt lat="43.28873" lon="5.68493">
        <ele>430.2</ele>
        <time>2021-03-31T14:46:17Z</time>
      </trkpt>
      <trkpt lat="43.28868" lon="5.68491">
        <ele>428.7</ele>
        <time>2021-03-31T14:46:21Z</time>
      </trkpt>
      <trkpt lat="43.28863" lon="5.68489">
        <ele>427.3</ele>
        <time>2021-03-31T14:46:25Z</time>
      </trkpt>
      <trkpt lat="43.28857" lon="5.68489">
        <ele>426.4</ele>
        <time>2021-03-31T14:46:29Z</time>
      </trkpt>
      <trkpt lat="43.28852" lon="5.68491">
        <ele>426</ele>
        <time>2021-03-31T14:46:33Z</time>
      </trkpt>
      <trkpt lat="43.28848" lon="5.68495">
        <ele>426.2</ele>
        <time>2021-03-31T14:46:37Z</time>
      </trkpt>
      <trkpt lat="43.28843" lon="5.68498">
        <ele>426.2</ele>
        <time>2021-03-31T14:46:41Z</time>
      </trkpt>
      <trkpt lat="43.28839" lon="5.68502">
        <ele>426.6</ele>
        <time>2021-03-31T14:46:45Z</time>
      </trkpt>
      <trkpt lat="43.28834" lon="5.68508">
        <ele>428</ele>
        <time>2021-03-31T14:46:51Z</time>
      </trkpt>
      <trkpt lat="43.28831" lon="5.68513">
        <ele>429.5</ele>
        <time>2021-03-31T14:46:55Z</time>
      </trkpt>
      <trkpt lat="43.28827" lon="5.68519">
        <ele>431</ele>
        <time>2021-03-31T14:46:59Z</time>
      </trkpt>
      <trkpt lat="43.28824" lon="5.68525">
        <ele>432.7</ele>
        <time>2021-03-31T14:47:03Z</time>
      </trkpt>
      <trkpt lat="43.2882" lon="5.68529">
        <ele>433.7</ele>
        <time>2021-03-31T14:47:07Z</time>
      </trkpt>
      <trkpt lat="43.28817" lon="5.68533">
        <ele>434.8</ele>
        <time>2021-03-31T14:47:11Z</time>
      </trkpt>
      <trkpt lat="43.28811" lon="5.68535">
        <ele>435.1</ele>
        <time>2021-03-31T14:47:15Z</time>
      </trkpt>
      <trkpt lat="43.28806" lon="5.68536">
        <ele>434.8</ele>
        <time>2021-03-31T14:47:19Z</time>
      </trkpt>
      <trkpt lat="43.288" lon="5.68536">
        <ele>434.1</ele>
        <time>2021-03-31T14:47:23Z</time>
      </trkpt>
      <trkpt lat="43.28795" lon="5.68534">
        <ele>432.8</ele>
        <time>2021-03-31T14:47:27Z</time>
      </trkpt>
      <trkpt lat="43.2879" lon="5.68535">
        <ele>432.3</ele>
        <time>2021-03-31T14:47:31Z</time>
      </trkpt>
      <trkpt lat="43.28785" lon="5.68535">
        <ele>431.7</ele>
        <time>2021-03-31T14:47:35Z</time>
      </trkpt>
      <trkpt lat="43.2878" lon="5.68536">
        <ele>431.5</ele>
        <time>2021-03-31T14:47:39Z</time>
      </trkpt>
      <trkpt lat="43.28775" lon="5.68536">
        <ele>431.2</ele>
        <time>2021-03-31T14:47:43Z</time>
      </trkpt>
      <trkpt lat="43.28769" lon="5.68539">
        <ele>431.4</ele>
        <time>2021-03-31T14:47:49Z</time>
      </trkpt>
      <trkpt lat="43.28765" lon="5.68542">
        <ele>432.3</ele>
        <time>2021-03-31T14:47:53Z</time>
      </trkpt>
      <trkpt lat="43.2876" lon="5.68544">
        <ele>432.4</ele>
        <time>2021-03-31T14:47:57Z</time>
      </trkpt>
      <trkpt lat="43.28755" lon="5.68545">
        <ele>432.3</ele>
        <time>2021-03-31T14:48:01Z</time>
      </trkpt>
      <trkpt lat="43.2875" lon="5.68544">
        <ele>431.6</ele>
        <time>2021-03-31T14:48:05Z</time>
      </trkpt>
      <trkpt lat="43.28745" lon="5.68545">
        <ele>431.6</ele>
        <time>2021-03-31T14:48:09Z</time>
      </trkpt>
      <trkpt lat="43.2874" lon="5.68544">
        <ele>431.4</ele>
        <time>2021-03-31T14:48:13Z</time>
      </trkpt>
      <trkpt lat="43.28734" lon="5.68546">
        <ele>431.9</ele>
        <time>2021-03-31T14:48:19Z</time>
      </trkpt>
      <trkpt lat="43.28728" lon="5.68547">
        <ele>432.5</ele>
        <time>2021-03-31T14:48:25Z</time>
      </trkpt>
      <trkpt lat="43.28723" lon="5.68546">
        <ele>432.1</ele>
        <time>2021-03-31T14:48:29Z</time>
      </trkpt>
      <trkpt lat="43.28717" lon="5.68546">
        <ele>432</ele>
        <time>2021-03-31T14:48:35Z</time>
      </trkpt>
      <trkpt lat="43.2871" lon="5.68547">
        <ele>432</ele>
        <time>2021-03-31T14:48:41Z</time>
      </trkpt>
      <trkpt lat="43.28706" lon="5.68547">
        <ele>431.9</ele>
        <time>2021-03-31T14:48:45Z</time>
      </trkpt>
      <trkpt lat="43.287" lon="5.68545">
        <ele>431</ele>
        <time>2021-03-31T14:48:51Z</time>
      </trkpt>
      <trkpt lat="43.28696" lon="5.6854">
        <ele>429.3</ele>
        <time>2021-03-31T14:49:03Z</time>
      </trkpt>
      <trkpt lat="43.28691" lon="5.68538">
        <ele>428.3</ele>
        <time>2021-03-31T14:49:09Z</time>
      </trkpt>
      <trkpt lat="43.28685" lon="5.68539">
        <ele>428.6</ele>
        <time>2021-03-31T14:49:15Z</time>
      </trkpt>
      <trkpt lat="43.2868" lon="5.68539">
        <ele>428.6</ele>
        <time>2021-03-31T14:49:19Z</time>
      </trkpt>
      <trkpt lat="43.28676" lon="5.68539">
        <ele>428.4</ele>
        <time>2021-03-31T14:49:23Z</time>
      </trkpt>
      <trkpt lat="43.28671" lon="5.68538">
        <ele>428.2</ele>
        <time>2021-03-31T14:49:27Z</time>
      </trkpt>
      <trkpt lat="43.28666" lon="5.68539">
        <ele>428.5</ele>
        <time>2021-03-31T14:49:31Z</time>
      </trkpt>
      <trkpt lat="43.28661" lon="5.68541">
        <ele>428.1</ele>
        <time>2021-03-31T14:49:37Z</time>
      </trkpt>
      <trkpt lat="43.28655" lon="5.68543">
        <ele>427.9</ele>
        <time>2021-03-31T14:49:43Z</time>
      </trkpt>
      <trkpt lat="43.28649" lon="5.68547">
        <ele>428.5</ele>
        <time>2021-03-31T14:49:49Z</time>
      </trkpt>
      <trkpt lat="43.28646" lon="5.68551">
        <ele>429</ele>
        <time>2021-03-31T14:49:53Z</time>
      </trkpt>
      <trkpt lat="43.28642" lon="5.68556">
        <ele>430.1</ele>
        <time>2021-03-31T14:49:57Z</time>
      </trkpt>
      <trkpt lat="43.28639" lon="5.68562">
        <ele>431.2</ele>
        <time>2021-03-31T14:50:01Z</time>
      </trkpt>
      <trkpt lat="43.28637" lon="5.68567">
        <ele>432.2</ele>
        <time>2021-03-31T14:50:05Z</time>
      </trkpt>
      <trkpt lat="43.28634" lon="5.68572">
        <ele>433.2</ele>
        <time>2021-03-31T14:50:09Z</time>
      </trkpt>
      <trkpt lat="43.28632" lon="5.68578">
        <ele>434.2</ele>
        <time>2021-03-31T14:50:13Z</time>
      </trkpt>
      <trkpt lat="43.28629" lon="5.68584">
        <ele>435.2</ele>
        <time>2021-03-31T14:50:17Z</time>
      </trkpt>
      <trkpt lat="43.28626" lon="5.68592">
        <ele>435.3</ele>
        <time>2021-03-31T14:50:23Z</time>
      </trkpt>
      <trkpt lat="43.28623" lon="5.68598">
        <ele>435.4</ele>
        <time>2021-03-31T14:50:27Z</time>
      </trkpt>
      <trkpt lat="43.2862" lon="5.68603">
        <ele>435.4</ele>
        <time>2021-03-31T14:50:31Z</time>
      </trkpt>
      <trkpt lat="43.28617" lon="5.68608">
        <ele>435.2</ele>
        <time>2021-03-31T14:50:35Z</time>
      </trkpt>
      <trkpt lat="43.28615" lon="5.68613">
        <ele>435.3</ele>
        <time>2021-03-31T14:50:39Z</time>
      </trkpt>
      <trkpt lat="43.28612" lon="5.6862">
        <ele>435.5</ele>
        <time>2021-03-31T14:50:43Z</time>
      </trkpt>
      <trkpt lat="43.2861" lon="5.68625">
        <ele>435.6</ele>
        <time>2021-03-31T14:50:47Z</time>
      </trkpt>
      <trkpt lat="43.28607" lon="5.68631">
        <ele>435.7</ele>
        <time>2021-03-31T14:50:51Z</time>
      </trkpt>
      <trkpt lat="43.28607" lon="5.68637">
        <ele>436.3</ele>
        <time>2021-03-31T14:50:55Z</time>
      </trkpt>
      <trkpt lat="43.28606" lon="5.68644">
        <ele>437.2</ele>
        <time>2021-03-31T14:50:59Z</time>
      </trkpt>
      <trkpt lat="43.28606" lon="5.68651">
        <ele>438</ele>
        <time>2021-03-31T14:51:03Z</time>
      </trkpt>
      <trkpt lat="43.28607" lon="5.68659">
        <ele>439.2</ele>
        <time>2021-03-31T14:51:07Z</time>
      </trkpt>
      <trkpt lat="43.28608" lon="5.68667">
        <ele>440.4</ele>
        <time>2021-03-31T14:51:11Z</time>
      </trkpt>
      <trkpt lat="43.28608" lon="5.68674">
        <ele>440.2</ele>
        <time>2021-03-31T14:51:15Z</time>
      </trkpt>
      <trkpt lat="43.2861" lon="5.68684">
        <ele>440</ele>
        <time>2021-03-31T14:51:21Z</time>
      </trkpt>
      <trkpt lat="43.28611" lon="5.6869">
        <ele>440</ele>
        <time>2021-03-31T14:51:25Z</time>
      </trkpt>
      <trkpt lat="43.28612" lon="5.68696">
        <ele>439.9</ele>
        <time>2021-03-31T14:51:29Z</time>
      </trkpt>
      <trkpt lat="43.28613" lon="5.68703">
        <ele>439.9</ele>
        <time>2021-03-31T14:51:33Z</time>
      </trkpt>
      <trkpt lat="43.28615" lon="5.68712">
        <ele>439.9</ele>
        <time>2021-03-31T14:51:39Z</time>
      </trkpt>
      <trkpt lat="43.28618" lon="5.6872">
        <ele>440.2</ele>
        <time>2021-03-31T14:51:45Z</time>
      </trkpt>
      <trkpt lat="43.28621" lon="5.68729">
        <ele>440.6</ele>
        <time>2021-03-31T14:51:51Z</time>
      </trkpt>
      <trkpt lat="43.28625" lon="5.68736">
        <ele>441.2</ele>
        <time>2021-03-31T14:51:57Z</time>
      </trkpt>
      <trkpt lat="43.28629" lon="5.68743">
        <ele>441.8</ele>
        <time>2021-03-31T14:52:03Z</time>
      </trkpt>
      <trkpt lat="43.28635" lon="5.68748">
        <ele>443.1</ele>
        <time>2021-03-31T14:52:09Z</time>
      </trkpt>
      <trkpt lat="43.2864" lon="5.68751">
        <ele>444.1</ele>
        <time>2021-03-31T14:52:13Z</time>
      </trkpt>
      <trkpt lat="43.28645" lon="5.68753">
        <ele>445.3</ele>
        <time>2021-03-31T14:52:17Z</time>
      </trkpt>
      <trkpt lat="43.28651" lon="5.68754">
        <ele>446.5</ele>
        <time>2021-03-31T14:52:21Z</time>
      </trkpt>
      <trkpt lat="43.28655" lon="5.68756">
        <ele>447.5</ele>
        <time>2021-03-31T14:52:25Z</time>
      </trkpt>
      <trkpt lat="43.28661" lon="5.68759">
        <ele>448.7</ele>
        <time>2021-03-31T14:52:31Z</time>
      </trkpt>
      <trkpt lat="43.28667" lon="5.68762">
        <ele>450.1</ele>
        <time>2021-03-31T14:52:37Z</time>
      </trkpt>
      <trkpt lat="43.28674" lon="5.68765">
        <ele>451.9</ele>
        <time>2021-03-31T14:52:43Z</time>
      </trkpt>
      <trkpt lat="43.28678" lon="5.68768">
        <ele>452.9</ele>
        <time>2021-03-31T14:52:47Z</time>
      </trkpt>
      <trkpt lat="43.28682" lon="5.68773">
        <ele>453.8</ele>
        <time>2021-03-31T14:52:53Z</time>
      </trkpt>
      <trkpt lat="43.28686" lon="5.68779">
        <ele>454.7</ele>
        <time>2021-03-31T14:52:59Z</time>
      </trkpt>
      <trkpt lat="43.28688" lon="5.68786">
        <ele>454.7</ele>
        <time>2021-03-31T14:53:05Z</time>
      </trkpt>
      <trkpt lat="43.28689" lon="5.68792">
        <ele>454.5</ele>
        <time>2021-03-31T14:53:09Z</time>
      </trkpt>
      <trkpt lat="43.28693" lon="5.688">
        <ele>454.7</ele>
        <time>2021-03-31T14:53:15Z</time>
      </trkpt>
      <trkpt lat="43.28695" lon="5.68806">
        <ele>454.8</ele>
        <time>2021-03-31T14:53:19Z</time>
      </trkpt>
      <trkpt lat="43.28697" lon="5.68812">
        <ele>454.9</ele>
        <time>2021-03-31T14:53:23Z</time>
      </trkpt>
      <trkpt lat="43.28698" lon="5.68818">
        <ele>454.7</ele>
        <time>2021-03-31T14:53:27Z</time>
      </trkpt>
      <trkpt lat="43.28699" lon="5.68824">
        <ele>454.4</ele>
        <time>2021-03-31T14:53:31Z</time>
      </trkpt>
      <trkpt lat="43.287" lon="5.68831">
        <ele>454.2</ele>
        <time>2021-03-31T14:53:35Z</time>
      </trkpt>
      <trkpt lat="43.28702" lon="5.68836">
        <ele>454.8</ele>
        <time>2021-03-31T14:53:39Z</time>
      </trkpt>
      <trkpt lat="43.28704" lon="5.68842">
        <ele>456.2</ele>
        <time>2021-03-31T14:53:43Z</time>
      </trkpt>
      <trkpt lat="43.28707" lon="5.68849">
        <ele>457.6</ele>
        <time>2021-03-31T14:53:47Z</time>
      </trkpt>
      <trkpt lat="43.28708" lon="5.68854">
        <ele>458.6</ele>
        <time>2021-03-31T14:53:51Z</time>
      </trkpt>
      <trkpt lat="43.2871" lon="5.6886">
        <ele>459.7</ele>
        <time>2021-03-31T14:53:55Z</time>
      </trkpt>
      <trkpt lat="43.28714" lon="5.68868">
        <ele>461.5</ele>
        <time>2021-03-31T14:54:01Z</time>
      </trkpt>
      <trkpt lat="43.28714" lon="5.68874">
        <ele>462.2</ele>
        <time>2021-03-31T14:54:07Z</time>
      </trkpt>
      <trkpt lat="43.2871" lon="5.68879">
        <ele>461.7</ele>
        <time>2021-03-31T14:54:15Z</time>
      </trkpt>
      <trkpt lat="43.28705" lon="5.6888">
        <ele>460.4</ele>
        <time>2021-03-31T14:55:39Z</time>
      </trkpt>
      <trkpt lat="43.287" lon="5.68879">
        <ele>458.9</ele>
        <time>2021-03-31T14:58:55Z</time>
      </trkpt>
      <trkpt lat="43.28693" lon="5.68879">
        <ele>457.2</ele>
        <time>2021-03-31T14:59:01Z</time>
      </trkpt>
      <trkpt lat="43.28687" lon="5.6888">
        <ele>455.6</ele>
        <time>2021-03-31T14:59:07Z</time>
      </trkpt>
      <trkpt lat="43.28682" lon="5.68883">
        <ele>454.8</ele>
        <time>2021-03-31T14:59:11Z</time>
      </trkpt>
      <trkpt lat="43.28676" lon="5.68883">
        <ele>453.2</ele>
        <time>2021-03-31T14:59:17Z</time>
      </trkpt>
      <trkpt lat="43.28671" lon="5.68884">
        <ele>452</ele>
        <time>2021-03-31T14:59:21Z</time>
      </trkpt>
      <trkpt lat="43.28664" lon="5.68882">
        <ele>450.1</ele>
        <time>2021-03-31T14:59:27Z</time>
      </trkpt>
      <trkpt lat="43.2866" lon="5.68881">
        <ele>448.7</ele>
        <time>2021-03-31T14:59:31Z</time>
      </trkpt>
      <trkpt lat="43.28655" lon="5.6888">
        <ele>447.4</ele>
        <time>2021-03-31T14:59:35Z</time>
      </trkpt>
      <trkpt lat="43.2865" lon="5.68878">
        <ele>445.8</ele>
        <time>2021-03-31T14:59:39Z</time>
      </trkpt>
      <trkpt lat="43.28645" lon="5.68878">
        <ele>444.6</ele>
        <time>2021-03-31T14:59:43Z</time>
      </trkpt>
      <trkpt lat="43.2864" lon="5.6888">
        <ele>443.7</ele>
        <time>2021-03-31T14:59:47Z</time>
      </trkpt>
      <trkpt lat="43.28634" lon="5.68884">
        <ele>442.9</ele>
        <time>2021-03-31T14:59:53Z</time>
      </trkpt>
      <trkpt lat="43.28628" lon="5.68889">
        <ele>442.3</ele>
        <time>2021-03-31T14:59:59Z</time>
      </trkpt>
      <trkpt lat="43.28623" lon="5.68895">
        <ele>442.1</ele>
        <time>2021-03-31T15:00:05Z</time>
      </trkpt>
      <trkpt lat="43.28619" lon="5.68898">
        <ele>441.6</ele>
        <time>2021-03-31T15:00:09Z</time>
      </trkpt>
      <trkpt lat="43.28613" lon="5.68902">
        <ele>440.8</ele>
        <time>2021-03-31T15:00:15Z</time>
      </trkpt>
      <trkpt lat="43.2861" lon="5.68907">
        <ele>440.8</ele>
        <time>2021-03-31T15:00:21Z</time>
      </trkpt>
      <trkpt lat="43.28606" lon="5.68911">
        <ele>440.4</ele>
        <time>2021-03-31T15:00:25Z</time>
      </trkpt>
      <trkpt lat="43.28602" lon="5.68914">
        <ele>440.1</ele>
        <time>2021-03-31T15:00:29Z</time>
      </trkpt>
      <trkpt lat="43.28598" lon="5.68918">
        <ele>439.5</ele>
        <time>2021-03-31T15:00:33Z</time>
      </trkpt>
      <trkpt lat="43.28593" lon="5.68922">
        <ele>438.5</ele>
        <time>2021-03-31T15:00:39Z</time>
      </trkpt>
      <trkpt lat="43.28592" lon="5.68928">
        <ele>438.4</ele>
        <time>2021-03-31T15:01:09Z</time>
      </trkpt>
      <trkpt lat="43.28597" lon="5.6893">
        <ele>439.7</ele>
        <time>2021-03-31T15:01:23Z</time>
      </trkpt>
      <trkpt lat="43.28592" lon="5.68928">
        <ele>438.3</ele>
        <time>2021-03-31T15:01:45Z</time>
      </trkpt>
      <trkpt lat="43.28587" lon="5.68925">
        <ele>437</ele>
        <time>2021-03-31T15:02:07Z</time>
      </trkpt>
      <trkpt lat="43.28588" lon="5.68931">
        <ele>437.4</ele>
        <time>2021-03-31T15:02:29Z</time>
      </trkpt>
      <trkpt lat="43.28585" lon="5.68936">
        <ele>436.7</ele>
        <time>2021-03-31T15:02:45Z</time>
      </trkpt>
      <trkpt lat="43.28581" lon="5.6894">
        <ele>435.7</ele>
        <time>2021-03-31T15:02:59Z</time>
      </trkpt>
      <trkpt lat="43.28579" lon="5.68946">
        <ele>435.3</ele>
        <time>2021-03-31T15:03:05Z</time>
      </trkpt>
      <trkpt lat="43.28578" lon="5.68954">
        <ele>435</ele>
        <time>2021-03-31T15:03:11Z</time>
      </trkpt>
      <trkpt lat="43.28578" lon="5.6896">
        <ele>435</ele>
        <time>2021-03-31T15:03:15Z</time>
      </trkpt>
      <trkpt lat="43.28578" lon="5.68968">
        <ele>435.1</ele>
        <time>2021-03-31T15:03:21Z</time>
      </trkpt>
      <trkpt lat="43.28578" lon="5.68974">
        <ele>435.3</ele>
        <time>2021-03-31T15:03:25Z</time>
      </trkpt>
      <trkpt lat="43.28579" lon="5.68981">
        <ele>435.6</ele>
        <time>2021-03-31T15:03:29Z</time>
      </trkpt>
      <trkpt lat="43.2858" lon="5.6899">
        <ele>436.1</ele>
        <time>2021-03-31T15:03:35Z</time>
      </trkpt>
      <trkpt lat="43.28583" lon="5.68998">
        <ele>436.9</ele>
        <time>2021-03-31T15:03:41Z</time>
      </trkpt>
      <trkpt lat="43.28586" lon="5.69005">
        <ele>436.4</ele>
        <time>2021-03-31T15:03:47Z</time>
      </trkpt>
      <trkpt lat="43.2859" lon="5.69012">
        <ele>435.5</ele>
        <time>2021-03-31T15:03:53Z</time>
      </trkpt>
      <trkpt lat="43.28593" lon="5.69017">
        <ele>435.2</ele>
        <time>2021-03-31T15:03:57Z</time>
      </trkpt>
      <trkpt lat="43.28597" lon="5.6902">
        <ele>435.6</ele>
        <time>2021-03-31T15:04:01Z</time>
      </trkpt>
      <trkpt lat="43.28602" lon="5.69024">
        <ele>436.2</ele>
        <time>2021-03-31T15:04:05Z</time>
      </trkpt>
      <trkpt lat="43.28606" lon="5.69026">
        <ele>436.8</ele>
        <time>2021-03-31T15:04:09Z</time>
      </trkpt>
      <trkpt lat="43.28612" lon="5.69028">
        <ele>437.8</ele>
        <time>2021-03-31T15:04:13Z</time>
      </trkpt>
      <trkpt lat="43.28616" lon="5.6903">
        <ele>438.6</ele>
        <time>2021-03-31T15:04:17Z</time>
      </trkpt>
      <trkpt lat="43.2862" lon="5.69033">
        <ele>439.1</ele>
        <time>2021-03-31T15:04:21Z</time>
      </trkpt>
      <trkpt lat="43.28626" lon="5.69037">
        <ele>439.9</ele>
        <time>2021-03-31T15:04:27Z</time>
      </trkpt>
      <trkpt lat="43.28631" lon="5.69041">
        <ele>440.5</ele>
        <time>2021-03-31T15:04:31Z</time>
      </trkpt>
      <trkpt lat="43.28635" lon="5.69044">
        <ele>440.9</ele>
        <time>2021-03-31T15:04:35Z</time>
      </trkpt>
      <trkpt lat="43.28639" lon="5.69048">
        <ele>440.8</ele>
        <time>2021-03-31T15:04:39Z</time>
      </trkpt>
      <trkpt lat="43.28643" lon="5.69055">
        <ele>440</ele>
        <time>2021-03-31T15:04:45Z</time>
      </trkpt>
      <trkpt lat="43.28647" lon="5.69061">
        <ele>439.4</ele>
        <time>2021-03-31T15:04:49Z</time>
      </trkpt>
      <trkpt lat="43.28649" lon="5.69067">
        <ele>438.3</ele>
        <time>2021-03-31T15:04:53Z</time>
      </trkpt>
      <trkpt lat="43.28652" lon="5.69072">
        <ele>437.8</ele>
        <time>2021-03-31T15:04:57Z</time>
      </trkpt>
      <trkpt lat="43.28657" lon="5.69078">
        <ele>437.7</ele>
        <time>2021-03-31T15:05:03Z</time>
      </trkpt>
      <trkpt lat="43.28661" lon="5.69081">
        <ele>438.1</ele>
        <time>2021-03-31T15:05:07Z</time>
      </trkpt>
      <trkpt lat="43.28666" lon="5.69083">
        <ele>438.7</ele>
        <time>2021-03-31T15:05:11Z</time>
      </trkpt>
      <trkpt lat="43.2867" lon="5.69086">
        <ele>439.4</ele>
        <time>2021-03-31T15:05:15Z</time>
      </trkpt>
      <trkpt lat="43.28674" lon="5.69091">
        <ele>439.7</ele>
        <time>2021-03-31T15:05:19Z</time>
      </trkpt>
      <trkpt lat="43.2868" lon="5.69095">
        <ele>440.5</ele>
        <time>2021-03-31T15:05:25Z</time>
      </trkpt>
      <trkpt lat="43.28685" lon="5.69098">
        <ele>441.8</ele>
        <time>2021-03-31T15:05:29Z</time>
      </trkpt>
      <trkpt lat="43.28691" lon="5.69102">
        <ele>443.2</ele>
        <time>2021-03-31T15:05:35Z</time>
      </trkpt>
      <trkpt lat="43.28696" lon="5.69107">
        <ele>444.1</ele>
        <time>2021-03-31T15:05:41Z</time>
      </trkpt>
      <trkpt lat="43.287" lon="5.69112">
        <ele>444.5</ele>
        <time>2021-03-31T15:05:45Z</time>
      </trkpt>
      <trkpt lat="43.28704" lon="5.69119">
        <ele>444.6</ele>
        <time>2021-03-31T15:05:51Z</time>
      </trkpt>
      <trkpt lat="43.28707" lon="5.69125">
        <ele>444.1</ele>
        <time>2021-03-31T15:05:55Z</time>
      </trkpt>
      <trkpt lat="43.28708" lon="5.69132">
        <ele>442.7</ele>
        <time>2021-03-31T15:05:59Z</time>
      </trkpt>
      <trkpt lat="43.28708" lon="5.69138">
        <ele>441.4</ele>
        <time>2021-03-31T15:06:03Z</time>
      </trkpt>
      <trkpt lat="43.28708" lon="5.69146">
        <ele>439.6</ele>
        <time>2021-03-31T15:06:09Z</time>
      </trkpt>
      <trkpt lat="43.28709" lon="5.69155">
        <ele>437.6</ele>
        <time>2021-03-31T15:06:15Z</time>
      </trkpt>
      <trkpt lat="43.28711" lon="5.69162">
        <ele>436.8</ele>
        <time>2021-03-31T15:06:21Z</time>
      </trkpt>
      <trkpt lat="43.2871" lon="5.69169">
        <ele>435</ele>
        <time>2021-03-31T15:06:25Z</time>
      </trkpt>
      <trkpt lat="43.28709" lon="5.69176">
        <ele>433.1</ele>
        <time>2021-03-31T15:06:29Z</time>
      </trkpt>
      <trkpt lat="43.28709" lon="5.69182">
        <ele>431.5</ele>
        <time>2021-03-31T15:06:33Z</time>
      </trkpt>
      <trkpt lat="43.2871" lon="5.6919">
        <ele>430.4</ele>
        <time>2021-03-31T15:06:39Z</time>
      </trkpt>
      <trkpt lat="43.28712" lon="5.69198">
        <ele>429.9</ele>
        <time>2021-03-31T15:06:45Z</time>
      </trkpt>
      <trkpt lat="43.28715" lon="5.69204">
        <ele>429.8</ele>
        <time>2021-03-31T15:06:49Z</time>
      </trkpt>
      <trkpt lat="43.28718" lon="5.6921">
        <ele>430.2</ele>
        <time>2021-03-31T15:06:53Z</time>
      </trkpt>
      <trkpt lat="43.28722" lon="5.69217">
        <ele>430.4</ele>
        <time>2021-03-31T15:06:59Z</time>
      </trkpt>
      <trkpt lat="43.28726" lon="5.69221">
        <ele>431.2</ele>
        <time>2021-03-31T15:07:03Z</time>
      </trkpt>
      <trkpt lat="43.28729" lon="5.69225">
        <ele>432</ele>
        <time>2021-03-31T15:07:07Z</time>
      </trkpt>
      <trkpt lat="43.28734" lon="5.69229">
        <ele>433.1</ele>
        <time>2021-03-31T15:07:11Z</time>
      </trkpt>
      <trkpt lat="43.28737" lon="5.69234">
        <ele>433.5</ele>
        <time>2021-03-31T15:07:15Z</time>
      </trkpt>
      <trkpt lat="43.28741" lon="5.69242">
        <ele>433.3</ele>
        <time>2021-03-31T15:07:21Z</time>
      </trkpt>
      <trkpt lat="43.28744" lon="5.69246">
        <ele>433.2</ele>
        <time>2021-03-31T15:07:25Z</time>
      </trkpt>
      <trkpt lat="43.28748" lon="5.69252">
        <ele>433.9</ele>
        <time>2021-03-31T15:07:31Z</time>
      </trkpt>
      <trkpt lat="43.28753" lon="5.69256">
        <ele>435.5</ele>
        <time>2021-03-31T15:07:37Z</time>
      </trkpt>
      <trkpt lat="43.28759" lon="5.69259">
        <ele>437.6</ele>
        <time>2021-03-31T15:07:43Z</time>
      </trkpt>
      <trkpt lat="43.28764" lon="5.69264">
        <ele>439</ele>
        <time>2021-03-31T15:07:49Z</time>
      </trkpt>
      <trkpt lat="43.28768" lon="5.6927">
        <ele>439.8</ele>
        <time>2021-03-31T15:07:55Z</time>
      </trkpt>
      <trkpt lat="43.28772" lon="5.69275">
        <ele>440.3</ele>
        <time>2021-03-31T15:07:59Z</time>
      </trkpt>
      <trkpt lat="43.28776" lon="5.69282">
        <ele>440.6</ele>
        <time>2021-03-31T15:08:05Z</time>
      </trkpt>
      <trkpt lat="43.28779" lon="5.69289">
        <ele>440.8</ele>
        <time>2021-03-31T15:08:11Z</time>
      </trkpt>
      <trkpt lat="43.28784" lon="5.69295">
        <ele>441.4</ele>
        <time>2021-03-31T15:08:17Z</time>
      </trkpt>
      <trkpt lat="43.28787" lon="5.69301">
        <ele>441.5</ele>
        <time>2021-03-31T15:08:23Z</time>
      </trkpt>
      <trkpt lat="43.28791" lon="5.69307">
        <ele>441.9</ele>
        <time>2021-03-31T15:08:29Z</time>
      </trkpt>
      <trkpt lat="43.28795" lon="5.69314">
        <ele>441.9</ele>
        <time>2021-03-31T15:08:35Z</time>
      </trkpt>
      <trkpt lat="43.288" lon="5.6932">
        <ele>442.3</ele>
        <time>2021-03-31T15:08:41Z</time>
      </trkpt>
      <trkpt lat="43.28804" lon="5.69326">
        <ele>442.7</ele>
        <time>2021-03-31T15:08:47Z</time>
      </trkpt>
      <trkpt lat="43.28808" lon="5.69332">
        <ele>442.6</ele>
        <time>2021-03-31T15:08:53Z</time>
      </trkpt>
      <trkpt lat="43.28813" lon="5.69337">
        <ele>443.2</ele>
        <time>2021-03-31T15:08:59Z</time>
      </trkpt>
      <trkpt lat="43.28816" lon="5.69343">
        <ele>443.4</ele>
        <time>2021-03-31T15:09:05Z</time>
      </trkpt>
      <trkpt lat="43.2882" lon="5.69348">
        <ele>444</ele>
        <time>2021-03-31T15:09:11Z</time>
      </trkpt>
      <trkpt lat="43.28825" lon="5.69354">
        <ele>444.5</ele>
        <time>2021-03-31T15:09:17Z</time>
      </trkpt>
      <trkpt lat="43.2883" lon="5.69358">
        <ele>445.2</ele>
        <time>2021-03-31T15:09:23Z</time>
      </trkpt>
      <trkpt lat="43.28836" lon="5.69363">
        <ele>445.5</ele>
        <time>2021-03-31T15:09:29Z</time>
      </trkpt>
      <trkpt lat="43.2884" lon="5.69366">
        <ele>445.6</ele>
        <time>2021-03-31T15:09:33Z</time>
      </trkpt>
      <trkpt lat="43.28846" lon="5.6937">
        <ele>445.8</ele>
        <time>2021-03-31T15:09:39Z</time>
      </trkpt>
      <trkpt lat="43.28852" lon="5.69371">
        <ele>446.7</ele>
        <time>2021-03-31T15:09:45Z</time>
      </trkpt>
      <trkpt lat="43.28858" lon="5.69372">
        <ele>447.8</ele>
        <time>2021-03-31T15:09:51Z</time>
      </trkpt>
      <trkpt lat="43.28863" lon="5.69373">
        <ele>448.6</ele>
        <time>2021-03-31T15:09:55Z</time>
      </trkpt>
      <trkpt lat="43.28868" lon="5.69374">
        <ele>449.2</ele>
        <time>2021-03-31T15:09:59Z</time>
      </trkpt>
      <trkpt lat="43.28874" lon="5.69376">
        <ele>449.9</ele>
        <time>2021-03-31T15:10:05Z</time>
      </trkpt>
      <trkpt lat="43.2888" lon="5.69376">
        <ele>450.9</ele>
        <time>2021-03-31T15:10:11Z</time>
      </trkpt>
      <trkpt lat="43.28885" lon="5.69377">
        <ele>451.7</ele>
        <time>2021-03-31T15:10:17Z</time>
      </trkpt>
      <trkpt lat="43.28891" lon="5.69379">
        <ele>452.4</ele>
        <time>2021-03-31T15:10:23Z</time>
      </trkpt>
      <trkpt lat="43.28896" lon="5.69379">
        <ele>453.3</ele>
        <time>2021-03-31T15:10:27Z</time>
      </trkpt>
      <trkpt lat="43.28901" lon="5.69378">
        <ele>454.4</ele>
        <time>2021-03-31T15:10:31Z</time>
      </trkpt>
      <trkpt lat="43.28906" lon="5.69375">
        <ele>455.9</ele>
        <time>2021-03-31T15:10:35Z</time>
      </trkpt>
      <trkpt lat="43.28911" lon="5.69371">
        <ele>457.7</ele>
        <time>2021-03-31T15:10:41Z</time>
      </trkpt>
      <trkpt lat="43.28916" lon="5.69367">
        <ele>459.6</ele>
        <time>2021-03-31T15:10:47Z</time>
      </trkpt>
      <trkpt lat="43.28921" lon="5.69365">
        <ele>461.1</ele>
        <time>2021-03-31T15:10:51Z</time>
      </trkpt>
      <trkpt lat="43.28928" lon="5.69364">
        <ele>462.7</ele>
        <time>2021-03-31T15:10:55Z</time>
      </trkpt>
      <trkpt lat="43.28933" lon="5.69362">
        <ele>464.2</ele>
        <time>2021-03-31T15:10:59Z</time>
      </trkpt>
      <trkpt lat="43.28938" lon="5.69361">
        <ele>465.5</ele>
        <time>2021-03-31T15:11:03Z</time>
      </trkpt>
      <trkpt lat="43.28944" lon="5.69361">
        <ele>466.7</ele>
        <time>2021-03-31T15:11:07Z</time>
      </trkpt>
      <trkpt lat="43.28949" lon="5.69361">
        <ele>467.8</ele>
        <time>2021-03-31T15:11:13Z</time>
      </trkpt>
      <trkpt lat="43.28956" lon="5.69361">
        <ele>469.2</ele>
        <time>2021-03-31T15:11:19Z</time>
      </trkpt>
      <trkpt lat="43.28962" lon="5.69364">
        <ele>470.1</ele>
        <time>2021-03-31T15:11:25Z</time>
      </trkpt>
      <trkpt lat="43.28966" lon="5.69367">
        <ele>470.8</ele>
        <time>2021-03-31T15:11:29Z</time>
      </trkpt>
      <trkpt lat="43.2897" lon="5.69373">
        <ele>471</ele>
        <time>2021-03-31T15:11:35Z</time>
      </trkpt>
      <trkpt lat="43.28969" lon="5.69382">
        <ele>470.1</ele>
        <time>2021-03-31T15:11:41Z</time>
      </trkpt>
      <trkpt lat="43.28966" lon="5.69387">
        <ele>468.7</ele>
        <time>2021-03-31T15:11:45Z</time>
      </trkpt>
      <trkpt lat="43.28962" lon="5.6939">
        <ele>467.1</ele>
        <time>2021-03-31T15:11:51Z</time>
      </trkpt>
      <trkpt lat="43.28958" lon="5.69393">
        <ele>465.6</ele>
        <time>2021-03-31T15:11:55Z</time>
      </trkpt>
      <trkpt lat="43.28953" lon="5.69396">
        <ele>463.9</ele>
        <time>2021-03-31T15:11:59Z</time>
      </trkpt>
      <trkpt lat="43.28949" lon="5.694">
        <ele>462.2</ele>
        <time>2021-03-31T15:12:03Z</time>
      </trkpt>
      <trkpt lat="43.28944" lon="5.69403">
        <ele>460.4</ele>
        <time>2021-03-31T15:12:07Z</time>
      </trkpt>
      <trkpt lat="43.2894" lon="5.69408">
        <ele>458.3</ele>
        <time>2021-03-31T15:12:13Z</time>
      </trkpt>
      <trkpt lat="43.28942" lon="5.69415">
        <ele>457.8</ele>
        <time>2021-03-31T15:12:19Z</time>
      </trkpt>
      <trkpt lat="43.2894" lon="5.69423">
        <ele>457.5</ele>
        <time>2021-03-31T15:12:39Z</time>
      </trkpt>
      <trkpt lat="43.28938" lon="5.69432">
        <ele>457.6</ele>
        <time>2021-03-31T15:12:45Z</time>
      </trkpt>
      <trkpt lat="43.28936" lon="5.6944">
        <ele>457.8</ele>
        <time>2021-03-31T15:12:49Z</time>
      </trkpt>
      <trkpt lat="43.28936" lon="5.69447">
        <ele>458.3</ele>
        <time>2021-03-31T15:12:53Z</time>
      </trkpt>
      <trkpt lat="43.28935" lon="5.69454">
        <ele>458.6</ele>
        <time>2021-03-31T15:12:57Z</time>
      </trkpt>
      <trkpt lat="43.28935" lon="5.6946">
        <ele>458.9</ele>
        <time>2021-03-31T15:13:01Z</time>
      </trkpt>
      <trkpt lat="43.28935" lon="5.69469">
        <ele>459.8</ele>
        <time>2021-03-31T15:13:07Z</time>
      </trkpt>
      <trkpt lat="43.28934" lon="5.69476">
        <ele>460.1</ele>
        <time>2021-03-31T15:13:11Z</time>
      </trkpt>
      <trkpt lat="43.28934" lon="5.69486">
        <ele>460.8</ele>
        <time>2021-03-31T15:13:17Z</time>
      </trkpt>
      <trkpt lat="43.28934" lon="5.69493">
        <ele>461.5</ele>
        <time>2021-03-31T15:13:21Z</time>
      </trkpt>
      <trkpt lat="43.28935" lon="5.695">
        <ele>462.6</ele>
        <time>2021-03-31T15:13:25Z</time>
      </trkpt>
      <trkpt lat="43.28937" lon="5.69505">
        <ele>464.4</ele>
        <time>2021-03-31T15:13:29Z</time>
      </trkpt>
      <trkpt lat="43.28938" lon="5.69512">
        <ele>466.1</ele>
        <time>2021-03-31T15:13:33Z</time>
      </trkpt>
      <trkpt lat="43.28939" lon="5.69518">
        <ele>467.5</ele>
        <time>2021-03-31T15:13:37Z</time>
      </trkpt>
      <trkpt lat="43.28936" lon="5.69526">
        <ele>468</ele>
        <time>2021-03-31T15:13:43Z</time>
      </trkpt>
      <trkpt lat="43.28931" lon="5.6953">
        <ele>467.4</ele>
        <time>2021-03-31T15:13:49Z</time>
      </trkpt>
      <trkpt lat="43.28926" lon="5.6953">
        <ele>465.6</ele>
        <time>2021-03-31T15:13:55Z</time>
      </trkpt>
      <trkpt lat="43.2892" lon="5.69526">
        <ele>462.9</ele>
        <time>2021-03-31T15:14:01Z</time>
      </trkpt>
      <trkpt lat="43.28916" lon="5.69523">
        <ele>460.9</ele>
        <time>2021-03-31T15:14:05Z</time>
      </trkpt>
      <trkpt lat="43.28911" lon="5.69518">
        <ele>459.8</ele>
        <time>2021-03-31T15:14:09Z</time>
      </trkpt>
      <trkpt lat="43.28908" lon="5.69514">
        <ele>458.5</ele>
        <time>2021-03-31T15:14:13Z</time>
      </trkpt>
      <trkpt lat="43.28904" lon="5.6951">
        <ele>456.9</ele>
        <time>2021-03-31T15:14:17Z</time>
      </trkpt>
      <trkpt lat="43.289" lon="5.69505">
        <ele>455.4</ele>
        <time>2021-03-31T15:14:21Z</time>
      </trkpt>
      <trkpt lat="43.28896" lon="5.695">
        <ele>453.6</ele>
        <time>2021-03-31T15:14:25Z</time>
      </trkpt>
      <trkpt lat="43.28892" lon="5.69496">
        <ele>452.8</ele>
        <time>2021-03-31T15:14:29Z</time>
      </trkpt>
      <trkpt lat="43.28888" lon="5.69491">
        <ele>452</ele>
        <time>2021-03-31T15:14:33Z</time>
      </trkpt>
      <trkpt lat="43.28883" lon="5.69489">
        <ele>451.3</ele>
        <time>2021-03-31T15:14:41Z</time>
      </trkpt>
      <trkpt lat="43.28878" lon="5.69486">
        <ele>450.6</ele>
        <time>2021-03-31T15:14:47Z</time>
      </trkpt>
      <trkpt lat="43.28874" lon="5.69486">
        <ele>450.1</ele>
        <time>2021-03-31T15:14:51Z</time>
      </trkpt>
      <trkpt lat="43.28869" lon="5.69486">
        <ele>449.7</ele>
        <time>2021-03-31T15:14:57Z</time>
      </trkpt>
      <trkpt lat="43.28862" lon="5.69486">
        <ele>449.1</ele>
        <time>2021-03-31T15:15:03Z</time>
      </trkpt>
      <trkpt lat="43.28857" lon="5.69487">
        <ele>448.8</ele>
        <time>2021-03-31T15:15:07Z</time>
      </trkpt>
      <trkpt lat="43.28853" lon="5.69488">
        <ele>448.6</ele>
        <time>2021-03-31T15:15:11Z</time>
      </trkpt>
      <trkpt lat="43.28848" lon="5.6949">
        <ele>448.5</ele>
        <time>2021-03-31T15:15:15Z</time>
      </trkpt>
      <trkpt lat="43.28842" lon="5.69491">
        <ele>448.1</ele>
        <time>2021-03-31T15:15:21Z</time>
      </trkpt>
      <trkpt lat="43.28835" lon="5.69492">
        <ele>447.6</ele>
        <time>2021-03-31T15:15:27Z</time>
      </trkpt>
      <trkpt lat="43.28829" lon="5.69492">
        <ele>447.8</ele>
        <time>2021-03-31T15:15:31Z</time>
      </trkpt>
      <trkpt lat="43.28825" lon="5.69492">
        <ele>448.1</ele>
        <time>2021-03-31T15:15:35Z</time>
      </trkpt>
      <trkpt lat="43.28819" lon="5.69492">
        <ele>448.4</ele>
        <time>2021-03-31T15:15:39Z</time>
      </trkpt>
      <trkpt lat="43.28813" lon="5.69494">
        <ele>449.2</ele>
        <time>2021-03-31T15:15:45Z</time>
      </trkpt>
      <trkpt lat="43.28807" lon="5.69496">
        <ele>450.1</ele>
        <time>2021-03-31T15:15:51Z</time>
      </trkpt>
      <trkpt lat="43.28802" lon="5.69498">
        <ele>450.7</ele>
        <time>2021-03-31T15:15:55Z</time>
      </trkpt>
      <trkpt lat="43.28795" lon="5.69496">
        <ele>450.7</ele>
        <time>2021-03-31T15:16:01Z</time>
      </trkpt>
      <trkpt lat="43.2879" lon="5.69492">
        <ele>450</ele>
        <time>2021-03-31T15:16:05Z</time>
      </trkpt>
      <trkpt lat="43.28786" lon="5.69489">
        <ele>449.5</ele>
        <time>2021-03-31T15:16:09Z</time>
      </trkpt>
      <trkpt lat="43.28781" lon="5.69486">
        <ele>449</ele>
        <time>2021-03-31T15:16:15Z</time>
      </trkpt>
      <trkpt lat="43.28775" lon="5.69482">
        <ele>447.9</ele>
        <time>2021-03-31T15:16:21Z</time>
      </trkpt>
      <trkpt lat="43.2877" lon="5.69478">
        <ele>446.9</ele>
        <time>2021-03-31T15:16:27Z</time>
      </trkpt>
      <trkpt lat="43.28765" lon="5.69473">
        <ele>445.6</ele>
        <time>2021-03-31T15:16:33Z</time>
      </trkpt>
      <trkpt lat="43.28761" lon="5.6947">
        <ele>444.7</ele>
        <time>2021-03-31T15:16:37Z</time>
      </trkpt>
      <trkpt lat="43.28756" lon="5.69467">
        <ele>443.9</ele>
        <time>2021-03-31T15:16:41Z</time>
      </trkpt>
      <trkpt lat="43.2875" lon="5.69467">
        <ele>444</ele>
        <time>2021-03-31T15:16:47Z</time>
      </trkpt>
      <trkpt lat="43.28744" lon="5.69468">
        <ele>445.7</ele>
        <time>2021-03-31T15:16:53Z</time>
      </trkpt>
      <trkpt lat="43.28739" lon="5.69466">
        <ele>445.9</ele>
        <time>2021-03-31T15:16:57Z</time>
      </trkpt>
      <trkpt lat="43.28734" lon="5.69462">
        <ele>445.4</ele>
        <time>2021-03-31T15:17:03Z</time>
      </trkpt>
      <trkpt lat="43.2873" lon="5.69458">
        <ele>444.7</ele>
        <time>2021-03-31T15:17:07Z</time>
      </trkpt>
      <trkpt lat="43.28727" lon="5.69453">
        <ele>443.9</ele>
        <time>2021-03-31T15:17:11Z</time>
      </trkpt>
      <trkpt lat="43.28723" lon="5.69449">
        <ele>443.4</ele>
        <time>2021-03-31T15:17:15Z</time>
      </trkpt>
      <trkpt lat="43.28717" lon="5.69444">
        <ele>442.9</ele>
        <time>2021-03-31T15:17:21Z</time>
      </trkpt>
      <trkpt lat="43.28713" lon="5.6944">
        <ele>442.4</ele>
        <time>2021-03-31T15:17:25Z</time>
      </trkpt>
      <trkpt lat="43.28709" lon="5.69437">
        <ele>442.2</ele>
        <time>2021-03-31T15:17:29Z</time>
      </trkpt>
      <trkpt lat="43.28703" lon="5.69432">
        <ele>441.8</ele>
        <time>2021-03-31T15:17:35Z</time>
      </trkpt>
      <trkpt lat="43.28698" lon="5.6943">
        <ele>441.9</ele>
        <time>2021-03-31T15:17:39Z</time>
      </trkpt>
      <trkpt lat="43.28693" lon="5.69428">
        <ele>442.4</ele>
        <time>2021-03-31T15:17:43Z</time>
      </trkpt>
      <trkpt lat="43.28689" lon="5.69426">
        <ele>442.6</ele>
        <time>2021-03-31T15:17:47Z</time>
      </trkpt>
      <trkpt lat="43.28684" lon="5.69423">
        <ele>442.4</ele>
        <time>2021-03-31T15:17:51Z</time>
      </trkpt>
      <trkpt lat="43.2868" lon="5.69419">
        <ele>442</ele>
        <time>2021-03-31T15:17:55Z</time>
      </trkpt>
      <trkpt lat="43.28676" lon="5.69416">
        <ele>441.8</ele>
        <time>2021-03-31T15:17:59Z</time>
      </trkpt>
      <trkpt lat="43.28672" lon="5.69413">
        <ele>441.5</ele>
        <time>2021-03-31T15:18:03Z</time>
      </trkpt>
      <trkpt lat="43.28667" lon="5.69407">
        <ele>440</ele>
        <time>2021-03-31T15:18:09Z</time>
      </trkpt>
      <trkpt lat="43.28663" lon="5.694">
        <ele>437.9</ele>
        <time>2021-03-31T15:18:15Z</time>
      </trkpt>
      <trkpt lat="43.2866" lon="5.69396">
        <ele>436.4</ele>
        <time>2021-03-31T15:18:19Z</time>
      </trkpt>
      <trkpt lat="43.28655" lon="5.69389">
        <ele>434.4</ele>
        <time>2021-03-31T15:18:25Z</time>
      </trkpt>
      <trkpt lat="43.2865" lon="5.69386">
        <ele>433.7</ele>
        <time>2021-03-31T15:18:29Z</time>
      </trkpt>
      <trkpt lat="43.28645" lon="5.69382">
        <ele>432.9</ele>
        <time>2021-03-31T15:18:33Z</time>
      </trkpt>
      <trkpt lat="43.28641" lon="5.69379">
        <ele>432.1</ele>
        <time>2021-03-31T15:18:37Z</time>
      </trkpt>
      <trkpt lat="43.28636" lon="5.69376">
        <ele>431.6</ele>
        <time>2021-03-31T15:18:41Z</time>
      </trkpt>
      <trkpt lat="43.28632" lon="5.69373">
        <ele>431.2</ele>
        <time>2021-03-31T15:18:45Z</time>
      </trkpt>
      <trkpt lat="43.28627" lon="5.6937">
        <ele>430.7</ele>
        <time>2021-03-31T15:18:49Z</time>
      </trkpt>
      <trkpt lat="43.28623" lon="5.69367">
        <ele>430.3</ele>
        <time>2021-03-31T15:18:53Z</time>
      </trkpt>
      <trkpt lat="43.28619" lon="5.69363">
        <ele>429.8</ele>
        <time>2021-03-31T15:18:57Z</time>
      </trkpt>
      <trkpt lat="43.28614" lon="5.69361">
        <ele>429.6</ele>
        <time>2021-03-31T15:19:01Z</time>
      </trkpt>
      <trkpt lat="43.2861" lon="5.69359">
        <ele>429.9</ele>
        <time>2021-03-31T15:19:05Z</time>
      </trkpt>
      <trkpt lat="43.28605" lon="5.69357">
        <ele>430</ele>
        <time>2021-03-31T15:19:09Z</time>
      </trkpt>
      <trkpt lat="43.28598" lon="5.69355">
        <ele>430.4</ele>
        <time>2021-03-31T15:19:15Z</time>
      </trkpt>
      <trkpt lat="43.28594" lon="5.69354">
        <ele>430.9</ele>
        <time>2021-03-31T15:19:19Z</time>
      </trkpt>
      <trkpt lat="43.28589" lon="5.69353">
        <ele>431.3</ele>
        <time>2021-03-31T15:19:23Z</time>
      </trkpt>
      <trkpt lat="43.28582" lon="5.69353">
        <ele>431.9</ele>
        <time>2021-03-31T15:19:29Z</time>
      </trkpt>
      <trkpt lat="43.28578" lon="5.69351">
        <ele>430.5</ele>
        <time>2021-03-31T15:19:33Z</time>
      </trkpt>
      <trkpt lat="43.28573" lon="5.69349">
        <ele>429.1</ele>
        <time>2021-03-31T15:19:37Z</time>
      </trkpt>
      <trkpt lat="43.28568" lon="5.69344">
        <ele>427</ele>
        <time>2021-03-31T15:19:43Z</time>
      </trkpt>
      <trkpt lat="43.28563" lon="5.6934">
        <ele>425.2</ele>
        <time>2021-03-31T15:19:49Z</time>
      </trkpt>
      <trkpt lat="43.28556" lon="5.69338">
        <ele>423.7</ele>
        <time>2021-03-31T15:19:55Z</time>
      </trkpt>
      <trkpt lat="43.28549" lon="5.69338">
        <ele>422.5</ele>
        <time>2021-03-31T15:20:01Z</time>
      </trkpt>
      <trkpt lat="43.28545" lon="5.6934">
        <ele>422.2</ele>
        <time>2021-03-31T15:20:05Z</time>
      </trkpt>
      <trkpt lat="43.2854" lon="5.69344">
        <ele>421.9</ele>
        <time>2021-03-31T15:20:11Z</time>
      </trkpt>
      <trkpt lat="43.28537" lon="5.6935">
        <ele>422.3</ele>
        <time>2021-03-31T15:20:47Z</time>
      </trkpt>
      <trkpt lat="43.28534" lon="5.69357">
        <ele>422.7</ele>
        <time>2021-03-31T15:20:53Z</time>
      </trkpt>
      <trkpt lat="43.28531" lon="5.69363">
        <ele>422.9</ele>
        <time>2021-03-31T15:20:57Z</time>
      </trkpt>
      <trkpt lat="43.28528" lon="5.69371">
        <ele>423.3</ele>
        <time>2021-03-31T15:21:03Z</time>
      </trkpt>
      <trkpt lat="43.28527" lon="5.69378">
        <ele>423.8</ele>
        <time>2021-03-31T15:21:07Z</time>
      </trkpt>
      <trkpt lat="43.28526" lon="5.69384">
        <ele>424.2</ele>
        <time>2021-03-31T15:21:11Z</time>
      </trkpt>
      <trkpt lat="43.28525" lon="5.69393">
        <ele>425</ele>
        <time>2021-03-31T15:21:17Z</time>
      </trkpt>
      <trkpt lat="43.28522" lon="5.69399">
        <ele>425</ele>
        <time>2021-03-31T15:21:21Z</time>
      </trkpt>
      <trkpt lat="43.28516" lon="5.69412">
        <ele>424.4</ele>
        <time>2021-03-31T15:21:29Z</time>
      </trkpt>
      <trkpt lat="43.28518" lon="5.69418">
        <ele>425.7</ele>
        <time>2021-03-31T15:21:37Z</time>
      </trkpt>
      <trkpt lat="43.28518" lon="5.69425">
        <ele>426.1</ele>
        <time>2021-03-31T15:21:43Z</time>
      </trkpt>
      <trkpt lat="43.28517" lon="5.69432">
        <ele>426.4</ele>
        <time>2021-03-31T15:21:49Z</time>
      </trkpt>
      <trkpt lat="43.28515" lon="5.69439">
        <ele>426.5</ele>
        <time>2021-03-31T15:21:55Z</time>
      </trkpt>
      <trkpt lat="43.28515" lon="5.69446">
        <ele>427</ele>
        <time>2021-03-31T15:21:59Z</time>
      </trkpt>
      <trkpt lat="43.28514" lon="5.69455">
        <ele>427.7</ele>
        <time>2021-03-31T15:22:05Z</time>
      </trkpt>
      <trkpt lat="43.28511" lon="5.6946">
        <ele>427</ele>
        <time>2021-03-31T15:22:11Z</time>
      </trkpt>
      <trkpt lat="43.28511" lon="5.69467">
        <ele>427.8</ele>
        <time>2021-03-31T15:22:17Z</time>
      </trkpt>
      <trkpt lat="43.28512" lon="5.69475">
        <ele>428.8</ele>
        <time>2021-03-31T15:22:21Z</time>
      </trkpt>
      <trkpt lat="43.28512" lon="5.69482">
        <ele>429.6</ele>
        <time>2021-03-31T15:22:25Z</time>
      </trkpt>
      <trkpt lat="43.28512" lon="5.6949">
        <ele>430.3</ele>
        <time>2021-03-31T15:22:29Z</time>
      </trkpt>
      <trkpt lat="43.28511" lon="5.69496">
        <ele>430.6</ele>
        <time>2021-03-31T15:22:33Z</time>
      </trkpt>
      <trkpt lat="43.28511" lon="5.69504">
        <ele>432.1</ele>
        <time>2021-03-31T15:22:39Z</time>
      </trkpt>
      <trkpt lat="43.28509" lon="5.6951">
        <ele>432.8</ele>
        <time>2021-03-31T15:22:43Z</time>
      </trkpt>
      <trkpt lat="43.28505" lon="5.69513">
        <ele>432.1</ele>
        <time>2021-03-31T15:22:47Z</time>
      </trkpt>
      <trkpt lat="43.28499" lon="5.69513">
        <ele>430.9</ele>
        <time>2021-03-31T15:22:51Z</time>
      </trkpt>
      <trkpt lat="43.28494" lon="5.69513">
        <ele>431</ele>
        <time>2021-03-31T15:22:55Z</time>
      </trkpt>
      <trkpt lat="43.28489" lon="5.69512">
        <ele>431</ele>
        <time>2021-03-31T15:23:01Z</time>
      </trkpt>
      <trkpt lat="43.28482" lon="5.69509">
        <ele>430.4</ele>
        <time>2021-03-31T15:23:07Z</time>
      </trkpt>
      <trkpt lat="43.28477" lon="5.69506">
        <ele>429.8</ele>
        <time>2021-03-31T15:23:11Z</time>
      </trkpt>
      <trkpt lat="43.28472" lon="5.69503">
        <ele>429.2</ele>
        <time>2021-03-31T15:23:15Z</time>
      </trkpt>
      <trkpt lat="43.28467" lon="5.695">
        <ele>428.7</ele>
        <time>2021-03-31T15:23:19Z</time>
      </trkpt>
      <trkpt lat="43.28463" lon="5.69497">
        <ele>428.1</ele>
        <time>2021-03-31T15:23:23Z</time>
      </trkpt>
      <trkpt lat="43.2846" lon="5.69492">
        <ele>427.2</ele>
        <time>2021-03-31T15:23:27Z</time>
      </trkpt>
      <trkpt lat="43.28457" lon="5.69486">
        <ele>425.9</ele>
        <time>2021-03-31T15:23:31Z</time>
      </trkpt>
      <trkpt lat="43.28454" lon="5.69481">
        <ele>424.6</ele>
        <time>2021-03-31T15:23:35Z</time>
      </trkpt>
      <trkpt lat="43.28449" lon="5.69474">
        <ele>423.1</ele>
        <time>2021-03-31T15:23:41Z</time>
      </trkpt>
      <trkpt lat="43.28445" lon="5.6947">
        <ele>421.8</ele>
        <time>2021-03-31T15:23:45Z</time>
      </trkpt>
      <trkpt lat="43.2844" lon="5.69465">
        <ele>420.2</ele>
        <time>2021-03-31T15:23:51Z</time>
      </trkpt>
      <trkpt lat="43.28435" lon="5.6946">
        <ele>418.5</ele>
        <time>2021-03-31T15:23:55Z</time>
      </trkpt>
      <trkpt lat="43.28431" lon="5.69457">
        <ele>417.1</ele>
        <time>2021-03-31T15:23:59Z</time>
      </trkpt>
      <trkpt lat="43.28425" lon="5.69454">
        <ele>415.6</ele>
        <time>2021-03-31T15:24:03Z</time>
      </trkpt>
      <trkpt lat="43.28421" lon="5.69451">
        <ele>414.3</ele>
        <time>2021-03-31T15:24:07Z</time>
      </trkpt>
      <trkpt lat="43.28415" lon="5.69448">
        <ele>412.9</ele>
        <time>2021-03-31T15:24:13Z</time>
      </trkpt>
      <trkpt lat="43.28409" lon="5.69445">
        <ele>412.1</ele>
        <time>2021-03-31T15:24:17Z</time>
      </trkpt>
      <trkpt lat="43.28403" lon="5.69442">
        <ele>411.2</ele>
        <time>2021-03-31T15:24:21Z</time>
      </trkpt>
      <trkpt lat="43.28398" lon="5.69439">
        <ele>410.5</ele>
        <time>2021-03-31T15:24:25Z</time>
      </trkpt>
      <trkpt lat="43.28394" lon="5.69436">
        <ele>409.6</ele>
        <time>2021-03-31T15:24:29Z</time>
      </trkpt>
      <trkpt lat="43.28389" lon="5.69432">
        <ele>408.6</ele>
        <time>2021-03-31T15:24:33Z</time>
      </trkpt>
      <trkpt lat="43.28385" lon="5.69429">
        <ele>407.8</ele>
        <time>2021-03-31T15:24:37Z</time>
      </trkpt>
      <trkpt lat="43.2838" lon="5.69428">
        <ele>407.6</ele>
        <time>2021-03-31T15:24:41Z</time>
      </trkpt>
      <trkpt lat="43.28374" lon="5.69427">
        <ele>407.5</ele>
        <time>2021-03-31T15:24:45Z</time>
      </trkpt>
      <trkpt lat="43.28368" lon="5.69428">
        <ele>408.1</ele>
        <time>2021-03-31T15:24:49Z</time>
      </trkpt>
      <trkpt lat="43.28364" lon="5.6943">
        <ele>408.8</ele>
        <time>2021-03-31T15:24:53Z</time>
      </trkpt>
      <trkpt lat="43.28359" lon="5.69431">
        <ele>409.3</ele>
        <time>2021-03-31T15:24:57Z</time>
      </trkpt>
      <trkpt lat="43.28353" lon="5.69431">
        <ele>409.6</ele>
        <time>2021-03-31T15:25:01Z</time>
      </trkpt>
      <trkpt lat="43.28348" lon="5.69431">
        <ele>409.9</ele>
        <time>2021-03-31T15:25:05Z</time>
      </trkpt>
      <trkpt lat="43.28343" lon="5.69431">
        <ele>410.2</ele>
        <time>2021-03-31T15:25:09Z</time>
      </trkpt>
      <trkpt lat="43.28336" lon="5.69435">
        <ele>411.5</ele>
        <time>2021-03-31T15:25:15Z</time>
      </trkpt>
      <trkpt lat="43.28331" lon="5.69437">
        <ele>412.2</ele>
        <time>2021-03-31T15:25:19Z</time>
      </trkpt>
      <trkpt lat="43.28325" lon="5.69441">
        <ele>412.8</ele>
        <time>2021-03-31T15:25:25Z</time>
      </trkpt>
      <trkpt lat="43.28321" lon="5.69443">
        <ele>413.1</ele>
        <time>2021-03-31T15:25:31Z</time>
      </trkpt>
      <trkpt lat="43.28317" lon="5.69447">
        <ele>413.8</ele>
        <time>2021-03-31T15:25:45Z</time>
      </trkpt>
      <trkpt lat="43.28312" lon="5.69448">
        <ele>413.6</ele>
        <time>2021-03-31T15:25:49Z</time>
      </trkpt>
      <trkpt lat="43.28307" lon="5.69448">
        <ele>413.2</ele>
        <time>2021-03-31T15:25:53Z</time>
      </trkpt>
      <trkpt lat="43.28301" lon="5.6945">
        <ele>413.3</ele>
        <time>2021-03-31T15:25:59Z</time>
      </trkpt>
      <trkpt lat="43.28297" lon="5.69452">
        <ele>413.2</ele>
        <time>2021-03-31T15:26:03Z</time>
      </trkpt>
      <trkpt lat="43.2829" lon="5.6945">
        <ele>412.1</ele>
        <time>2021-03-31T15:26:07Z</time>
      </trkpt>
      <trkpt lat="43.28284" lon="5.69448">
        <ele>411</ele>
        <time>2021-03-31T15:26:11Z</time>
      </trkpt>
      <trkpt lat="43.28277" lon="5.69446">
        <ele>409.8</ele>
        <time>2021-03-31T15:26:15Z</time>
      </trkpt>
      <trkpt lat="43.28271" lon="5.69445">
        <ele>408.9</ele>
        <time>2021-03-31T15:26:19Z</time>
      </trkpt>
      <trkpt lat="43.28266" lon="5.69445">
        <ele>408.2</ele>
        <time>2021-03-31T15:26:23Z</time>
      </trkpt>
      <trkpt lat="43.28261" lon="5.69444">
        <ele>407.7</ele>
        <time>2021-03-31T15:26:27Z</time>
      </trkpt>
      <trkpt lat="43.28256" lon="5.69443">
        <ele>406.8</ele>
        <time>2021-03-31T15:26:31Z</time>
      </trkpt>
      <trkpt lat="43.28251" lon="5.69443">
        <ele>406.4</ele>
        <time>2021-03-31T15:26:35Z</time>
      </trkpt>
      <trkpt lat="43.28246" lon="5.69445">
        <ele>405.5</ele>
        <time>2021-03-31T15:26:39Z</time>
      </trkpt>
      <trkpt lat="43.28241" lon="5.69446">
        <ele>404.3</ele>
        <time>2021-03-31T15:26:43Z</time>
      </trkpt>
      <trkpt lat="43.28236" lon="5.69448">
        <ele>403.1</ele>
        <time>2021-03-31T15:26:49Z</time>
      </trkpt>
      <trkpt lat="43.2823" lon="5.69448">
        <ele>401.3</ele>
        <time>2021-03-31T15:26:53Z</time>
      </trkpt>
      <trkpt lat="43.28225" lon="5.69449">
        <ele>400.1</ele>
        <time>2021-03-31T15:26:57Z</time>
      </trkpt>
      <trkpt lat="43.28221" lon="5.69449">
        <ele>398.4</ele>
        <time>2021-03-31T15:27:05Z</time>
      </trkpt>
      <trkpt lat="43.28219" lon="5.69456">
        <ele>399.6</ele>
        <time>2021-03-31T15:28:19Z</time>
      </trkpt>
      <trkpt lat="43.28219" lon="5.69463">
        <ele>401.2</ele>
        <time>2021-03-31T15:28:23Z</time>
      </trkpt>
      <trkpt lat="43.28218" lon="5.69472">
        <ele>402.8</ele>
        <time>2021-03-31T15:28:29Z</time>
      </trkpt>
      <trkpt lat="43.28215" lon="5.69477">
        <ele>402.8</ele>
        <time>2021-03-31T15:28:45Z</time>
      </trkpt>
      <trkpt lat="43.28213" lon="5.69485">
        <ele>403.8</ele>
        <time>2021-03-31T15:29:37Z</time>
      </trkpt>
      <trkpt lat="43.28213" lon="5.69491">
        <ele>404.9</ele>
        <time>2021-03-31T15:29:41Z</time>
      </trkpt>
      <trkpt lat="43.28212" lon="5.69498">
        <ele>406.2</ele>
        <time>2021-03-31T15:29:45Z</time>
      </trkpt>
      <trkpt lat="43.28212" lon="5.69505">
        <ele>406.7</ele>
        <time>2021-03-31T15:29:49Z</time>
      </trkpt>
      <trkpt lat="43.28212" lon="5.69511">
        <ele>407.3</ele>
        <time>2021-03-31T15:29:53Z</time>
      </trkpt>
      <trkpt lat="43.28212" lon="5.69519">
        <ele>407.7</ele>
        <time>2021-03-31T15:29:57Z</time>
      </trkpt>
      <trkpt lat="43.28211" lon="5.69525">
        <ele>407.6</ele>
        <time>2021-03-31T15:30:01Z</time>
      </trkpt>
      <trkpt lat="43.28211" lon="5.69532">
        <ele>408.2</ele>
        <time>2021-03-31T15:30:05Z</time>
      </trkpt>
      <trkpt lat="43.2821" lon="5.69539">
        <ele>408.4</ele>
        <time>2021-03-31T15:30:09Z</time>
      </trkpt>
      <trkpt lat="43.28209" lon="5.69546">
        <ele>408.5</ele>
        <time>2021-03-31T15:30:13Z</time>
      </trkpt>
      <trkpt lat="43.28208" lon="5.69552">
        <ele>408.4</ele>
        <time>2021-03-31T15:30:17Z</time>
      </trkpt>
      <trkpt lat="43.28207" lon="5.69561">
        <ele>408.4</ele>
        <time>2021-03-31T15:30:23Z</time>
      </trkpt>
      <trkpt lat="43.28206" lon="5.69571">
        <ele>408.6</ele>
        <time>2021-03-31T15:30:29Z</time>
      </trkpt>
      <trkpt lat="43.28205" lon="5.69579">
        <ele>408.8</ele>
        <time>2021-03-31T15:30:33Z</time>
      </trkpt>
      <trkpt lat="43.28204" lon="5.69586">
        <ele>408.8</ele>
        <time>2021-03-31T15:30:37Z</time>
      </trkpt>
      <trkpt lat="43.28204" lon="5.69593">
        <ele>408.6</ele>
        <time>2021-03-31T15:30:41Z</time>
      </trkpt>
      <trkpt lat="43.28205" lon="5.69601">
        <ele>408.9</ele>
        <time>2021-03-31T15:30:45Z</time>
      </trkpt>
      <trkpt lat="43.28205" lon="5.69607">
        <ele>409</ele>
        <time>2021-03-31T15:30:49Z</time>
      </trkpt>
      <trkpt lat="43.28205" lon="5.69616">
        <ele>408.9</ele>
        <time>2021-03-31T15:30:55Z</time>
      </trkpt>
      <trkpt lat="43.28204" lon="5.69622">
        <ele>408.3</ele>
        <time>2021-03-31T15:30:59Z</time>
      </trkpt>
      <trkpt lat="43.28202" lon="5.69628">
        <ele>407.5</ele>
        <time>2021-03-31T15:31:03Z</time>
      </trkpt>
      <trkpt lat="43.28202" lon="5.69638">
        <ele>407.3</ele>
        <time>2021-03-31T15:31:09Z</time>
      </trkpt>
      <trkpt lat="43.282" lon="5.69647">
        <ele>406.6</ele>
        <time>2021-03-31T15:31:15Z</time>
      </trkpt>
      <trkpt lat="43.28196" lon="5.69651">
        <ele>405.1</ele>
        <time>2021-03-31T15:31:19Z</time>
      </trkpt>
      <trkpt lat="43.28194" lon="5.69644">
        <ele>404.1</ele>
        <time>2021-03-31T15:31:27Z</time>
      </trkpt>
      <trkpt lat="43.28191" lon="5.69636">
        <ele>403.1</ele>
        <time>2021-03-31T15:31:33Z</time>
      </trkpt>
      <trkpt lat="43.2819" lon="5.69629">
        <ele>402.6</ele>
        <time>2021-03-31T15:31:37Z</time>
      </trkpt>
      <trkpt lat="43.28188" lon="5.69624">
        <ele>401.8</ele>
        <time>2021-03-31T15:31:41Z</time>
      </trkpt>
      <trkpt lat="43.28187" lon="5.69616">
        <ele>401.4</ele>
        <time>2021-03-31T15:31:47Z</time>
      </trkpt>
      <trkpt lat="43.28185" lon="5.6961">
        <ele>400.5</ele>
        <time>2021-03-31T15:31:51Z</time>
      </trkpt>
      <trkpt lat="43.2818" lon="5.69607">
        <ele>398.2</ele>
        <time>2021-03-31T15:31:55Z</time>
      </trkpt>
      <trkpt lat="43.28175" lon="5.69614">
        <ele>396.2</ele>
        <time>2021-03-31T15:31:59Z</time>
      </trkpt>
      <trkpt lat="43.28172" lon="5.69623">
        <ele>395.1</ele>
        <time>2021-03-31T15:32:03Z</time>
      </trkpt>
      <trkpt lat="43.2817" lon="5.6963">
        <ele>394.6</ele>
        <time>2021-03-31T15:32:07Z</time>
      </trkpt>
      <trkpt lat="43.28169" lon="5.69637">
        <ele>394.3</ele>
        <time>2021-03-31T15:32:11Z</time>
      </trkpt>
      <trkpt lat="43.28169" lon="5.69645">
        <ele>394.5</ele>
        <time>2021-03-31T15:32:17Z</time>
      </trkpt>
      <trkpt lat="43.28168" lon="5.69653">
        <ele>394.2</ele>
        <time>2021-03-31T15:32:21Z</time>
      </trkpt>
      <trkpt lat="43.28169" lon="5.69659">
        <ele>394.7</ele>
        <time>2021-03-31T15:32:25Z</time>
      </trkpt>
      <trkpt lat="43.2817" lon="5.69669">
        <ele>395.3</ele>
        <time>2021-03-31T15:32:31Z</time>
      </trkpt>
      <trkpt lat="43.28173" lon="5.69675">
        <ele>396.3</ele>
        <time>2021-03-31T15:32:35Z</time>
      </trkpt>
      <trkpt lat="43.28175" lon="5.69681">
        <ele>397.1</ele>
        <time>2021-03-31T15:32:39Z</time>
      </trkpt>
      <trkpt lat="43.28177" lon="5.69689">
        <ele>397.7</ele>
        <time>2021-03-31T15:32:45Z</time>
      </trkpt>
      <trkpt lat="43.28177" lon="5.69696">
        <ele>397.8</ele>
        <time>2021-03-31T15:32:49Z</time>
      </trkpt>
      <trkpt lat="43.28177" lon="5.69704">
        <ele>397.8</ele>
        <time>2021-03-31T15:32:53Z</time>
      </trkpt>
      <trkpt lat="43.28179" lon="5.69712">
        <ele>398.3</ele>
        <time>2021-03-31T15:32:59Z</time>
      </trkpt>
      <trkpt lat="43.28179" lon="5.69719">
        <ele>398.3</ele>
        <time>2021-03-31T15:33:03Z</time>
      </trkpt>
      <trkpt lat="43.28179" lon="5.69726">
        <ele>398.3</ele>
        <time>2021-03-31T15:33:07Z</time>
      </trkpt>
      <trkpt lat="43.28178" lon="5.69733">
        <ele>398.1</ele>
        <time>2021-03-31T15:33:11Z</time>
      </trkpt>
      <trkpt lat="43.28176" lon="5.69738">
        <ele>397.3</ele>
        <time>2021-03-31T15:33:15Z</time>
      </trkpt>
      <trkpt lat="43.28175" lon="5.69745">
        <ele>396.9</ele>
        <time>2021-03-31T15:33:19Z</time>
      </trkpt>
      <trkpt lat="43.28174" lon="5.69752">
        <ele>396.3</ele>
        <time>2021-03-31T15:33:23Z</time>
      </trkpt>
      <trkpt lat="43.2817" lon="5.69757">
        <ele>394.9</ele>
        <time>2021-03-31T15:33:27Z</time>
      </trkpt>
      <trkpt lat="43.28167" lon="5.69765">
        <ele>393.5</ele>
        <time>2021-03-31T15:33:31Z</time>
      </trkpt>
      <trkpt lat="43.28164" lon="5.69769">
        <ele>392.2</ele>
        <time>2021-03-31T15:33:35Z</time>
      </trkpt>
      <trkpt lat="43.28161" lon="5.69774">
        <ele>390.8</ele>
        <time>2021-03-31T15:33:39Z</time>
      </trkpt>
      <trkpt lat="43.28158" lon="5.6978">
        <ele>389.3</ele>
        <time>2021-03-31T15:33:43Z</time>
      </trkpt>
      <trkpt lat="43.28155" lon="5.69786">
        <ele>387.7</ele>
        <time>2021-03-31T15:33:47Z</time>
      </trkpt>
      <trkpt lat="43.28152" lon="5.69793">
        <ele>385.8</ele>
        <time>2021-03-31T15:33:51Z</time>
      </trkpt>
      <trkpt lat="43.28146" lon="5.69796">
        <ele>383.5</ele>
        <time>2021-03-31T15:33:55Z</time>
      </trkpt>
      <trkpt lat="43.28142" lon="5.69793">
        <ele>381.8</ele>
        <time>2021-03-31T15:33:59Z</time>
      </trkpt>
      <trkpt lat="43.2814" lon="5.69784">
        <ele>382.2</ele>
        <time>2021-03-31T15:34:05Z</time>
      </trkpt>
      <trkpt lat="43.28141" lon="5.69776">
        <ele>383.4</ele>
        <time>2021-03-31T15:34:11Z</time>
      </trkpt>
      <trkpt lat="43.28142" lon="5.6977">
        <ele>384.6</ele>
        <time>2021-03-31T15:34:15Z</time>
      </trkpt>
      <trkpt lat="43.28139" lon="5.69763">
        <ele>384.3</ele>
        <time>2021-03-31T15:34:23Z</time>
      </trkpt>
      <trkpt lat="43.28134" lon="5.69758">
        <ele>383.4</ele>
        <time>2021-03-31T15:34:29Z</time>
      </trkpt>
      <trkpt lat="43.28129" lon="5.69756">
        <ele>382</ele>
        <time>2021-03-31T15:34:37Z</time>
      </trkpt>
      <trkpt lat="43.28124" lon="5.69754">
        <ele>380.5</ele>
        <time>2021-03-31T15:34:41Z</time>
      </trkpt>
      <trkpt lat="43.28118" lon="5.69753">
        <ele>378.9</ele>
        <time>2021-03-31T15:34:45Z</time>
      </trkpt>
      <trkpt lat="43.28113" lon="5.69748">
        <ele>377.7</ele>
        <time>2021-03-31T15:34:51Z</time>
      </trkpt>
      <trkpt lat="43.28108" lon="5.69745">
        <ele>376.3</ele>
        <time>2021-03-31T15:34:55Z</time>
      </trkpt>
      <trkpt lat="43.28104" lon="5.69742">
        <ele>374.7</ele>
        <time>2021-03-31T15:34:59Z</time>
      </trkpt>
      <trkpt lat="43.28098" lon="5.69738">
        <ele>372.7</ele>
        <time>2021-03-31T15:35:05Z</time>
      </trkpt>
      <trkpt lat="43.28093" lon="5.69733">
        <ele>370.9</ele>
        <time>2021-03-31T15:35:09Z</time>
      </trkpt>
      <trkpt lat="43.28088" lon="5.69728">
        <ele>369.3</ele>
        <time>2021-03-31T15:35:13Z</time>
      </trkpt>
      <trkpt lat="43.28086" lon="5.6972">
        <ele>368</ele>
        <time>2021-03-31T15:35:19Z</time>
      </trkpt>
      <trkpt lat="43.28083" lon="5.69715">
        <ele>366.8</ele>
        <time>2021-03-31T15:35:23Z</time>
      </trkpt>
      <trkpt lat="43.28079" lon="5.69712">
        <ele>365.1</ele>
        <time>2021-03-31T15:35:27Z</time>
      </trkpt>
      <trkpt lat="43.28074" lon="5.6971">
        <ele>363.2</ele>
        <time>2021-03-31T15:35:31Z</time>
      </trkpt>
      <trkpt lat="43.28066" lon="5.69707">
        <ele>360.1</ele>
        <time>2021-03-31T15:35:35Z</time>
      </trkpt>
      <trkpt lat="43.28058" lon="5.6971">
        <ele>357.6</ele>
        <time>2021-03-31T15:35:39Z</time>
      </trkpt>
      <trkpt lat="43.28056" lon="5.69719">
        <ele>356.9</ele>
        <time>2021-03-31T15:35:43Z</time>
      </trkpt>
      <trkpt lat="43.28053" lon="5.69727">
        <ele>355.8</ele>
        <time>2021-03-31T15:35:47Z</time>
      </trkpt>
      <trkpt lat="43.28052" lon="5.69733">
        <ele>355.7</ele>
        <time>2021-03-31T15:35:53Z</time>
      </trkpt>
      <trkpt lat="43.28056" lon="5.69739">
        <ele>357.2</ele>
        <time>2021-03-31T15:35:57Z</time>
      </trkpt>
      <trkpt lat="43.28057" lon="5.69746">
        <ele>357.9</ele>
        <time>2021-03-31T15:36:01Z</time>
      </trkpt>
      <trkpt lat="43.2806" lon="5.69751">
        <ele>359.1</ele>
        <time>2021-03-31T15:36:05Z</time>
      </trkpt>
      <trkpt lat="43.28065" lon="5.69757">
        <ele>359.8</ele>
        <time>2021-03-31T15:36:11Z</time>
      </trkpt>
      <trkpt lat="43.2807" lon="5.69762">
        <ele>360.3</ele>
        <time>2021-03-31T15:36:15Z</time>
      </trkpt>
      <trkpt lat="43.28074" lon="5.69767">
        <ele>360.9</ele>
        <time>2021-03-31T15:36:19Z</time>
      </trkpt>
      <trkpt lat="43.28078" lon="5.69772">
        <ele>361</ele>
        <time>2021-03-31T15:36:23Z</time>
      </trkpt>
      <trkpt lat="43.28083" lon="5.69777">
        <ele>362.2</ele>
        <time>2021-03-31T15:36:27Z</time>
      </trkpt>
      <trkpt lat="43.2809" lon="5.69781">
        <ele>363.5</ele>
        <time>2021-03-31T15:36:31Z</time>
      </trkpt>
      <trkpt lat="43.28093" lon="5.69787">
        <ele>363.3</ele>
        <time>2021-03-31T15:36:35Z</time>
      </trkpt>
      <trkpt lat="43.28095" lon="5.69794">
        <ele>362.8</ele>
        <time>2021-03-31T15:36:39Z</time>
      </trkpt>
      <trkpt lat="43.28097" lon="5.698">
        <ele>362.3</ele>
        <time>2021-03-31T15:36:43Z</time>
      </trkpt>
      <trkpt lat="43.28101" lon="5.69804">
        <ele>362.8</ele>
        <time>2021-03-31T15:36:47Z</time>
      </trkpt>
      <trkpt lat="43.28105" lon="5.69809">
        <ele>363.6</ele>
        <time>2021-03-31T15:36:51Z</time>
      </trkpt>
      <trkpt lat="43.28106" lon="5.69815">
        <ele>363.2</ele>
        <time>2021-03-31T15:36:55Z</time>
      </trkpt>
      <trkpt lat="43.28109" lon="5.69823">
        <ele>362.6</ele>
        <time>2021-03-31T15:37:01Z</time>
      </trkpt>
      <trkpt lat="43.28111" lon="5.69829">
        <ele>362.4</ele>
        <time>2021-03-31T15:37:05Z</time>
      </trkpt>
      <trkpt lat="43.28112" lon="5.69835">
        <ele>362</ele>
        <time>2021-03-31T15:37:09Z</time>
      </trkpt>
      <trkpt lat="43.28111" lon="5.69844">
        <ele>359.5</ele>
        <time>2021-03-31T15:37:13Z</time>
      </trkpt>
      <trkpt lat="43.28111" lon="5.69851">
        <ele>357.4</ele>
        <time>2021-03-31T15:37:17Z</time>
      </trkpt>
      <trkpt lat="43.28112" lon="5.69858">
        <ele>356.6</ele>
        <time>2021-03-31T15:37:21Z</time>
      </trkpt>
      <trkpt lat="43.28114" lon="5.69865">
        <ele>355.1</ele>
        <time>2021-03-31T15:37:25Z</time>
      </trkpt>
      <trkpt lat="43.28115" lon="5.69874">
        <ele>353.5</ele>
        <time>2021-03-31T15:37:29Z</time>
      </trkpt>
      <trkpt lat="43.28117" lon="5.69882">
        <ele>352.7</ele>
        <time>2021-03-31T15:37:35Z</time>
      </trkpt>
      <trkpt lat="43.28118" lon="5.69891">
        <ele>350.5</ele>
        <time>2021-03-31T15:37:41Z</time>
      </trkpt>
      <trkpt lat="43.28119" lon="5.69898">
        <ele>349.4</ele>
        <time>2021-03-31T15:37:45Z</time>
      </trkpt>
      <trkpt lat="43.28123" lon="5.69904">
        <ele>349.2</ele>
        <time>2021-03-31T15:37:49Z</time>
      </trkpt>
      <trkpt lat="43.28126" lon="5.69909">
        <ele>348.8</ele>
        <time>2021-03-31T15:37:53Z</time>
      </trkpt>
      <trkpt lat="43.28129" lon="5.69915">
        <ele>348.4</ele>
        <time>2021-03-31T15:37:57Z</time>
      </trkpt>
      <trkpt lat="43.28134" lon="5.69919">
        <ele>349.1</ele>
        <time>2021-03-31T15:38:01Z</time>
      </trkpt>
      <trkpt lat="43.28139" lon="5.69923">
        <ele>349.3</ele>
        <time>2021-03-31T15:38:05Z</time>
      </trkpt>
      <trkpt lat="43.28144" lon="5.69928">
        <ele>349.2</ele>
        <time>2021-03-31T15:38:09Z</time>
      </trkpt>
      <trkpt lat="43.28148" lon="5.69931">
        <ele>349.4</ele>
        <time>2021-03-31T15:38:13Z</time>
      </trkpt>
      <trkpt lat="43.28155" lon="5.69934">
        <ele>350.5</ele>
        <time>2021-03-31T15:38:19Z</time>
      </trkpt>
      <trkpt lat="43.28159" lon="5.69937">
        <ele>351</ele>
        <time>2021-03-31T15:38:25Z</time>
      </trkpt>
      <trkpt lat="43.28164" lon="5.69937">
        <ele>352.4</ele>
        <time>2021-03-31T15:38:33Z</time>
      </trkpt>
      <trkpt lat="43.28169" lon="5.69938">
        <ele>353.4</ele>
        <time>2021-03-31T15:38:37Z</time>
      </trkpt>
      <trkpt lat="43.28175" lon="5.69937">
        <ele>354.5</ele>
        <time>2021-03-31T15:38:41Z</time>
      </trkpt>
      <trkpt lat="43.28181" lon="5.69936">
        <ele>355.8</ele>
        <time>2021-03-31T15:38:47Z</time>
      </trkpt>
      <trkpt lat="43.28186" lon="5.69934">
        <ele>357.2</ele>
        <time>2021-03-31T15:38:53Z</time>
      </trkpt>
      <trkpt lat="43.28191" lon="5.69932">
        <ele>358.8</ele>
        <time>2021-03-31T15:38:59Z</time>
      </trkpt>
      <trkpt lat="43.28197" lon="5.69929">
        <ele>360.9</ele>
        <time>2021-03-31T15:39:05Z</time>
      </trkpt>
      <trkpt lat="43.28202" lon="5.69928">
        <ele>361.9</ele>
        <time>2021-03-31T15:39:09Z</time>
      </trkpt>
      <trkpt lat="43.28207" lon="5.69926">
        <ele>363.3</ele>
        <time>2021-03-31T15:39:13Z</time>
      </trkpt>
      <trkpt lat="43.28213" lon="5.69927">
        <ele>363.9</ele>
        <time>2021-03-31T15:39:19Z</time>
      </trkpt>
      <trkpt lat="43.28219" lon="5.6993">
        <ele>363.6</ele>
        <time>2021-03-31T15:39:23Z</time>
      </trkpt>
      <trkpt lat="43.28224" lon="5.69932">
        <ele>363.6</ele>
        <time>2021-03-31T15:39:27Z</time>
      </trkpt>
      <trkpt lat="43.28229" lon="5.69935">
        <ele>363</ele>
        <time>2021-03-31T15:39:31Z</time>
      </trkpt>
      <trkpt lat="43.28233" lon="5.69937">
        <ele>362.8</ele>
        <time>2021-03-31T15:39:35Z</time>
      </trkpt>
      <trkpt lat="43.28238" lon="5.69938">
        <ele>363.1</ele>
        <time>2021-03-31T15:39:41Z</time>
      </trkpt>
      <trkpt lat="43.28245" lon="5.69937">
        <ele>364.2</ele>
        <time>2021-03-31T15:39:47Z</time>
      </trkpt>
      <trkpt lat="43.28249" lon="5.6994">
        <ele>363.8</ele>
        <time>2021-03-31T15:39:51Z</time>
      </trkpt>
      <trkpt lat="43.28254" lon="5.69943">
        <ele>363.9</ele>
        <time>2021-03-31T15:39:55Z</time>
      </trkpt>
      <trkpt lat="43.28259" lon="5.69947">
        <ele>363.6</ele>
        <time>2021-03-31T15:39:59Z</time>
      </trkpt>
      <trkpt lat="43.28262" lon="5.69953">
        <ele>362.4</ele>
        <time>2021-03-31T15:40:05Z</time>
      </trkpt>
      <trkpt lat="43.28265" lon="5.69959">
        <ele>361</ele>
        <time>2021-03-31T15:40:09Z</time>
      </trkpt>
      <trkpt lat="43.28268" lon="5.69965">
        <ele>359.1</ele>
        <time>2021-03-31T15:40:13Z</time>
      </trkpt>
      <trkpt lat="43.2827" lon="5.69973">
        <ele>357.1</ele>
        <time>2021-03-31T15:40:19Z</time>
      </trkpt>
      <trkpt lat="43.28275" lon="5.69979">
        <ele>355.6</ele>
        <time>2021-03-31T15:40:23Z</time>
      </trkpt>
      <trkpt lat="43.28279" lon="5.69982">
        <ele>355.7</ele>
        <time>2021-03-31T15:40:27Z</time>
      </trkpt>
      <trkpt lat="43.28283" lon="5.69987">
        <ele>355.2</ele>
        <time>2021-03-31T15:40:31Z</time>
      </trkpt>
      <trkpt lat="43.28287" lon="5.6999">
        <ele>354.9</ele>
        <time>2021-03-31T15:40:35Z</time>
      </trkpt>
      <trkpt lat="43.28291" lon="5.69995">
        <ele>354.4</ele>
        <time>2021-03-31T15:40:39Z</time>
      </trkpt>
      <trkpt lat="43.28296" lon="5.7">
        <ele>354</ele>
        <time>2021-03-31T15:40:43Z</time>
      </trkpt>
      <trkpt lat="43.283" lon="5.70005">
        <ele>353.6</ele>
        <time>2021-03-31T15:40:47Z</time>
      </trkpt>
      <trkpt lat="43.28303" lon="5.70011">
        <ele>353</ele>
        <time>2021-03-31T15:40:51Z</time>
      </trkpt>
      <trkpt lat="43.28307" lon="5.70016">
        <ele>352.8</ele>
        <time>2021-03-31T15:40:55Z</time>
      </trkpt>
      <trkpt lat="43.28311" lon="5.70021">
        <ele>352.8</ele>
        <time>2021-03-31T15:40:59Z</time>
      </trkpt>
      <trkpt lat="43.28314" lon="5.70026">
        <ele>352.6</ele>
        <time>2021-03-31T15:41:03Z</time>
      </trkpt>
      <trkpt lat="43.28318" lon="5.70033">
        <ele>352</ele>
        <time>2021-03-31T15:41:09Z</time>
      </trkpt>
      <trkpt lat="43.28322" lon="5.70037">
        <ele>352</ele>
        <time>2021-03-31T15:41:13Z</time>
      </trkpt>
      <trkpt lat="43.28325" lon="5.70041">
        <ele>351.9</ele>
        <time>2021-03-31T15:41:17Z</time>
      </trkpt>
      <trkpt lat="43.28329" lon="5.70044">
        <ele>352.1</ele>
        <time>2021-03-31T15:41:21Z</time>
      </trkpt>
      <trkpt lat="43.28334" lon="5.70047">
        <ele>352.8</ele>
        <time>2021-03-31T15:41:25Z</time>
      </trkpt>
      <trkpt lat="43.28339" lon="5.7005">
        <ele>353.3</ele>
        <time>2021-03-31T15:41:29Z</time>
      </trkpt>
      <trkpt lat="43.28343" lon="5.70054">
        <ele>353.5</ele>
        <time>2021-03-31T15:41:33Z</time>
      </trkpt>
      <trkpt lat="43.28346" lon="5.70059">
        <ele>353.2</ele>
        <time>2021-03-31T15:41:37Z</time>
      </trkpt>
      <trkpt lat="43.28349" lon="5.70064">
        <ele>352.7</ele>
        <time>2021-03-31T15:41:47Z</time>
      </trkpt>
      <trkpt lat="43.28353" lon="5.70068">
        <ele>352.5</ele>
        <time>2021-03-31T15:41:51Z</time>
      </trkpt>
      <trkpt lat="43.28356" lon="5.70072">
        <ele>352.2</ele>
        <time>2021-03-31T15:41:55Z</time>
      </trkpt>
      <trkpt lat="43.28358" lon="5.7008">
        <ele>350.7</ele>
        <time>2021-03-31T15:42:01Z</time>
      </trkpt>
      <trkpt lat="43.28359" lon="5.70089">
        <ele>348.9</ele>
        <time>2021-03-31T15:42:07Z</time>
      </trkpt>
      <trkpt lat="43.28359" lon="5.70095">
        <ele>347.4</ele>
        <time>2021-03-31T15:42:11Z</time>
      </trkpt>
      <trkpt lat="43.28358" lon="5.70102">
        <ele>345.6</ele>
        <time>2021-03-31T15:42:15Z</time>
      </trkpt>
      <trkpt lat="43.28357" lon="5.7011">
        <ele>343.7</ele>
        <time>2021-03-31T15:42:19Z</time>
      </trkpt>
      <trkpt lat="43.28358" lon="5.70116">
        <ele>342.4</ele>
        <time>2021-03-31T15:42:23Z</time>
      </trkpt>
      <trkpt lat="43.28359" lon="5.70123">
        <ele>341.3</ele>
        <time>2021-03-31T15:42:27Z</time>
      </trkpt>
      <trkpt lat="43.2836" lon="5.70129">
        <ele>340.4</ele>
        <time>2021-03-31T15:42:31Z</time>
      </trkpt>
      <trkpt lat="43.28362" lon="5.70138">
        <ele>338.7</ele>
        <time>2021-03-31T15:42:37Z</time>
      </trkpt>
      <trkpt lat="43.28362" lon="5.70147">
        <ele>337</ele>
        <time>2021-03-31T15:42:41Z</time>
      </trkpt>
      <trkpt lat="43.28363" lon="5.70156">
        <ele>335.2</ele>
        <time>2021-03-31T15:42:47Z</time>
      </trkpt>
      <trkpt lat="43.28366" lon="5.70163">
        <ele>334.3</ele>
        <time>2021-03-31T15:42:53Z</time>
      </trkpt>
      <trkpt lat="43.28368" lon="5.70172">
        <ele>333.7</ele>
        <time>2021-03-31T15:42:59Z</time>
      </trkpt>
      <trkpt lat="43.28372" lon="5.70179">
        <ele>333.8</ele>
        <time>2021-03-31T15:43:05Z</time>
      </trkpt>
      <trkpt lat="43.28375" lon="5.70185">
        <ele>334</ele>
        <time>2021-03-31T15:43:09Z</time>
      </trkpt>
      <trkpt lat="43.28379" lon="5.7019">
        <ele>334.3</ele>
        <time>2021-03-31T15:43:13Z</time>
      </trkpt>
      <trkpt lat="43.28382" lon="5.70195">
        <ele>334.6</ele>
        <time>2021-03-31T15:43:17Z</time>
      </trkpt>
      <trkpt lat="43.28386" lon="5.70202">
        <ele>334.9</ele>
        <time>2021-03-31T15:43:23Z</time>
      </trkpt>
      <trkpt lat="43.28388" lon="5.70209">
        <ele>334.7</ele>
        <time>2021-03-31T15:43:27Z</time>
      </trkpt>
      <trkpt lat="43.2839" lon="5.70216">
        <ele>334.2</ele>
        <time>2021-03-31T15:43:31Z</time>
      </trkpt>
      <trkpt lat="43.2839" lon="5.70223">
        <ele>333.5</ele>
        <time>2021-03-31T15:43:35Z</time>
      </trkpt>
      <trkpt lat="43.28391" lon="5.70229">
        <ele>333</ele>
        <time>2021-03-31T15:43:39Z</time>
      </trkpt>
      <trkpt lat="43.28392" lon="5.70236">
        <ele>332.4</ele>
        <time>2021-03-31T15:43:43Z</time>
      </trkpt>
      <trkpt lat="43.28391" lon="5.70243">
        <ele>331.4</ele>
        <time>2021-03-31T15:43:47Z</time>
      </trkpt>
      <trkpt lat="43.28391" lon="5.7025">
        <ele>330.6</ele>
        <time>2021-03-31T15:43:51Z</time>
      </trkpt>
      <trkpt lat="43.28392" lon="5.70258">
        <ele>329.9</ele>
        <time>2021-03-31T15:43:55Z</time>
      </trkpt>
      <trkpt lat="43.28392" lon="5.70264">
        <ele>329.3</ele>
        <time>2021-03-31T15:43:59Z</time>
      </trkpt>
      <trkpt lat="43.28393" lon="5.7027">
        <ele>329</ele>
        <time>2021-03-31T15:44:03Z</time>
      </trkpt>
      <trkpt lat="43.28394" lon="5.70278">
        <ele>328.5</ele>
        <time>2021-03-31T15:44:07Z</time>
      </trkpt>
      <trkpt lat="43.28395" lon="5.70285">
        <ele>327.9</ele>
        <time>2021-03-31T15:44:11Z</time>
      </trkpt>
      <trkpt lat="43.28396" lon="5.70292">
        <ele>327.2</ele>
        <time>2021-03-31T15:44:15Z</time>
      </trkpt>
      <trkpt lat="43.28396" lon="5.70299">
        <ele>326.7</ele>
        <time>2021-03-31T15:44:19Z</time>
      </trkpt>
      <trkpt lat="43.28398" lon="5.70306">
        <ele>326.3</ele>
        <time>2021-03-31T15:44:23Z</time>
      </trkpt>
      <trkpt lat="43.284" lon="5.70312">
        <ele>326.3</ele>
        <time>2021-03-31T15:44:27Z</time>
      </trkpt>
      <trkpt lat="43.28404" lon="5.70317">
        <ele>326.6</ele>
        <time>2021-03-31T15:44:31Z</time>
      </trkpt>
      <trkpt lat="43.28406" lon="5.70323">
        <ele>326.5</ele>
        <time>2021-03-31T15:44:35Z</time>
      </trkpt>
      <trkpt lat="43.28404" lon="5.7033">
        <ele>325.2</ele>
        <time>2021-03-31T15:44:41Z</time>
      </trkpt>
      <trkpt lat="43.28398" lon="5.70332">
        <ele>323.6</ele>
        <time>2021-03-31T15:44:47Z</time>
      </trkpt>
      <trkpt lat="43.28393" lon="5.7033">
        <ele>322.8</ele>
        <time>2021-03-31T15:44:51Z</time>
      </trkpt>
      <trkpt lat="43.28389" lon="5.70326">
        <ele>322.2</ele>
        <time>2021-03-31T15:44:55Z</time>
      </trkpt>
      <trkpt lat="43.28386" lon="5.70321">
        <ele>321.8</ele>
        <time>2021-03-31T15:44:59Z</time>
      </trkpt>
      <trkpt lat="43.28382" lon="5.70317">
        <ele>321.4</ele>
        <time>2021-03-31T15:45:03Z</time>
      </trkpt>
      <trkpt lat="43.28377" lon="5.70311">
        <ele>320.8</ele>
        <time>2021-03-31T15:45:07Z</time>
      </trkpt>
      <trkpt lat="43.28373" lon="5.70305">
        <ele>320.4</ele>
        <time>2021-03-31T15:45:11Z</time>
      </trkpt>
      <trkpt lat="43.28368" lon="5.703">
        <ele>319.6</ele>
        <time>2021-03-31T15:45:17Z</time>
      </trkpt>
      <trkpt lat="43.28363" lon="5.70296">
        <ele>318.9</ele>
        <time>2021-03-31T15:45:21Z</time>
      </trkpt>
      <trkpt lat="43.28359" lon="5.70291">
        <ele>318.4</ele>
        <time>2021-03-31T15:45:27Z</time>
      </trkpt>
      <trkpt lat="43.28355" lon="5.70286">
        <ele>317.8</ele>
        <time>2021-03-31T15:45:31Z</time>
      </trkpt>
      <trkpt lat="43.28351" lon="5.70281">
        <ele>317.3</ele>
        <time>2021-03-31T15:45:35Z</time>
      </trkpt>
      <trkpt lat="43.28345" lon="5.70276">
        <ele>316.5</ele>
        <time>2021-03-31T15:45:39Z</time>
      </trkpt>
      <trkpt lat="43.28341" lon="5.70272">
        <ele>315.7</ele>
        <time>2021-03-31T15:45:43Z</time>
      </trkpt>
      <trkpt lat="43.28336" lon="5.70268">
        <ele>315</ele>
        <time>2021-03-31T15:45:47Z</time>
      </trkpt>
      <trkpt lat="43.28331" lon="5.70264">
        <ele>314.2</ele>
        <time>2021-03-31T15:45:51Z</time>
      </trkpt>
      <trkpt lat="43.28327" lon="5.70259">
        <ele>313.8</ele>
        <time>2021-03-31T15:45:57Z</time>
      </trkpt>
      <trkpt lat="43.28323" lon="5.70254">
        <ele>313.1</ele>
        <time>2021-03-31T15:46:01Z</time>
      </trkpt>
      <trkpt lat="43.28318" lon="5.70249">
        <ele>312.4</ele>
        <time>2021-03-31T15:46:07Z</time>
      </trkpt>
      <trkpt lat="43.28313" lon="5.70245">
        <ele>311.7</ele>
        <time>2021-03-31T15:46:11Z</time>
      </trkpt>
      <trkpt lat="43.28309" lon="5.70241">
        <ele>311.1</ele>
        <time>2021-03-31T15:46:15Z</time>
      </trkpt>
      <trkpt lat="43.28304" lon="5.70238">
        <ele>310.1</ele>
        <time>2021-03-31T15:46:19Z</time>
      </trkpt>
      <trkpt lat="43.28298" lon="5.70232">
        <ele>309.5</ele>
        <time>2021-03-31T15:46:25Z</time>
      </trkpt>
      <trkpt lat="43.28293" lon="5.70227">
        <ele>308.7</ele>
        <time>2021-03-31T15:46:29Z</time>
      </trkpt>
      <trkpt lat="43.28289" lon="5.70225">
        <ele>307.9</ele>
        <time>2021-03-31T15:46:33Z</time>
      </trkpt>
      <trkpt lat="43.28283" lon="5.7022">
        <ele>306.9</ele>
        <time>2021-03-31T15:46:39Z</time>
      </trkpt>
      <trkpt lat="43.28277" lon="5.70217">
        <ele>305.9</ele>
        <time>2021-03-31T15:46:45Z</time>
      </trkpt>
      <trkpt lat="43.28273" lon="5.70214">
        <ele>305.1</ele>
        <time>2021-03-31T15:46:53Z</time>
      </trkpt>
      <trkpt lat="43.28277" lon="5.70217">
        <ele>305.8</ele>
        <time>2021-03-31T15:48:19Z</time>
      </trkpt>
      <trkpt lat="43.28282" lon="5.70218">
        <ele>306.8</ele>
        <time>2021-03-31T15:50:07Z</time>
      </trkpt>
      <trkpt lat="43.28276" lon="5.70218">
        <ele>305.5</ele>
        <time>2021-03-31T15:51:31Z</time>
      </trkpt>
      <trkpt lat="43.28271" lon="5.70219">
        <ele>304.2</ele>
        <time>2021-03-31T15:54:07Z</time>
      </trkpt>
      <trkpt lat="43.28267" lon="5.70224">
        <ele>302.7</ele>
        <time>2021-03-31T15:54:17Z</time>
      </trkpt>
      <trkpt lat="43.28264" lon="5.70228">
        <ele>301.5</ele>
        <time>2021-03-31T15:54:21Z</time>
      </trkpt>
      <trkpt lat="43.28261" lon="5.70233">
        <ele>300.3</ele>
        <time>2021-03-31T15:54:25Z</time>
      </trkpt>
      <trkpt lat="43.28257" lon="5.7024">
        <ele>298.5</ele>
        <time>2021-03-31T15:54:29Z</time>
      </trkpt>
      <trkpt lat="43.28254" lon="5.70246">
        <ele>297.3</ele>
        <time>2021-03-31T15:54:33Z</time>
      </trkpt>
      <trkpt lat="43.28252" lon="5.70252">
        <ele>296.3</ele>
        <time>2021-03-31T15:54:37Z</time>
      </trkpt>
      <trkpt lat="43.28248" lon="5.70257">
        <ele>295.1</ele>
        <time>2021-03-31T15:54:43Z</time>
      </trkpt>
      <trkpt lat="43.28245" lon="5.70265">
        <ele>293.9</ele>
        <time>2021-03-31T15:54:49Z</time>
      </trkpt>
      <trkpt lat="43.28241" lon="5.70272">
        <ele>292.7</ele>
        <time>2021-03-31T15:54:55Z</time>
      </trkpt>
      <trkpt lat="43.28237" lon="5.70279">
        <ele>291.6</ele>
        <time>2021-03-31T15:55:01Z</time>
      </trkpt>
      <trkpt lat="43.28235" lon="5.70285">
        <ele>290.8</ele>
        <time>2021-03-31T15:55:07Z</time>
      </trkpt>
      <trkpt lat="43.28231" lon="5.70292">
        <ele>289.6</ele>
        <time>2021-03-31T15:55:13Z</time>
      </trkpt>
      <trkpt lat="43.28227" lon="5.70296">
        <ele>288.7</ele>
        <time>2021-03-31T15:55:17Z</time>
      </trkpt>
      <trkpt lat="43.28224" lon="5.70302">
        <ele>287.8</ele>
        <time>2021-03-31T15:55:21Z</time>
      </trkpt>
      <trkpt lat="43.28219" lon="5.70308">
        <ele>286.7</ele>
        <time>2021-03-31T15:55:25Z</time>
      </trkpt>
      <trkpt lat="43.28214" lon="5.70313">
        <ele>285.6</ele>
        <time>2021-03-31T15:55:29Z</time>
      </trkpt>
      <trkpt lat="43.2821" lon="5.70318">
        <ele>284.6</ele>
        <time>2021-03-31T15:55:33Z</time>
      </trkpt>
      <trkpt lat="43.28208" lon="5.70326">
        <ele>284.1</ele>
        <time>2021-03-31T15:55:39Z</time>
      </trkpt>
      <trkpt lat="43.28205" lon="5.7033">
        <ele>283.5</ele>
        <time>2021-03-31T15:55:43Z</time>
      </trkpt>
      <trkpt lat="43.28201" lon="5.70336">
        <ele>282.6</ele>
        <time>2021-03-31T15:55:49Z</time>
      </trkpt>
      <trkpt lat="43.28195" lon="5.70341">
        <ele>281.3</ele>
        <time>2021-03-31T15:55:55Z</time>
      </trkpt>
      <trkpt lat="43.28189" lon="5.70344">
        <ele>280</ele>
        <time>2021-03-31T15:56:01Z</time>
      </trkpt>
      <trkpt lat="43.28184" lon="5.70349">
        <ele>278.8</ele>
        <time>2021-03-31T15:56:07Z</time>
      </trkpt>
      <trkpt lat="43.28179" lon="5.70353">
        <ele>277.7</ele>
        <time>2021-03-31T15:56:11Z</time>
      </trkpt>
      <trkpt lat="43.28173" lon="5.70357">
        <ele>276.4</ele>
        <time>2021-03-31T15:56:15Z</time>
      </trkpt>
      <trkpt lat="43.28168" lon="5.7036">
        <ele>275.3</ele>
        <time>2021-03-31T15:56:19Z</time>
      </trkpt>
      <trkpt lat="43.28162" lon="5.70362">
        <ele>273.7</ele>
        <time>2021-03-31T15:56:23Z</time>
      </trkpt>
      <trkpt lat="43.28156" lon="5.7036">
        <ele>272.3</ele>
        <time>2021-03-31T15:56:27Z</time>
      </trkpt>
      <trkpt lat="43.28152" lon="5.70355">
        <ele>271.5</ele>
        <time>2021-03-31T15:56:33Z</time>
      </trkpt>
      <trkpt lat="43.28149" lon="5.70348">
        <ele>271.2</ele>
        <time>2021-03-31T15:56:39Z</time>
      </trkpt>
      <trkpt lat="43.28143" lon="5.70348">
        <ele>269.7</ele>
        <time>2021-03-31T15:56:59Z</time>
      </trkpt>
      <trkpt lat="43.28138" lon="5.70348">
        <ele>268.4</ele>
        <time>2021-03-31T15:57:05Z</time>
      </trkpt>
      <trkpt lat="43.28133" lon="5.70349">
        <ele>267</ele>
        <time>2021-03-31T15:57:11Z</time>
      </trkpt>
      <trkpt lat="43.28129" lon="5.70349">
        <ele>265.8</ele>
        <time>2021-03-31T15:57:15Z</time>
      </trkpt>
      <trkpt lat="43.28123" lon="5.70351">
        <ele>264.1</ele>
        <time>2021-03-31T15:57:21Z</time>
      </trkpt>
      <trkpt lat="43.28119" lon="5.70346">
        <ele>263.5</ele>
        <time>2021-03-31T15:57:57Z</time>
      </trkpt>
      <trkpt lat="43.28114" lon="5.70346">
        <ele>262.1</ele>
        <time>2021-03-31T15:58:01Z</time>
      </trkpt>
      <trkpt lat="43.28109" lon="5.70347">
        <ele>260.7</ele>
        <time>2021-03-31T15:58:05Z</time>
      </trkpt>
      <trkpt lat="43.28104" lon="5.70343">
        <ele>259.8</ele>
        <time>2021-03-31T15:59:17Z</time>
      </trkpt>
      <trkpt lat="43.28099" lon="5.70341">
        <ele>258.5</ele>
        <time>2021-03-31T15:59:21Z</time>
      </trkpt>
      <trkpt lat="43.28095" lon="5.7034">
        <ele>257.4</ele>
        <time>2021-03-31T15:59:25Z</time>
      </trkpt>
      <trkpt lat="43.2809" lon="5.70338">
        <ele>256.3</ele>
        <time>2021-03-31T15:59:31Z</time>
      </trkpt>
      <trkpt lat="43.28083" lon="5.70336">
        <ele>254.7</ele>
        <time>2021-03-31T15:59:37Z</time>
      </trkpt>
      <trkpt lat="43.28077" lon="5.70332">
        <ele>253.3</ele>
        <time>2021-03-31T15:59:43Z</time>
      </trkpt>
      <trkpt lat="43.28073" lon="5.70329">
        <ele>252</ele>
        <time>2021-03-31T15:59:47Z</time>
      </trkpt>
      <trkpt lat="43.28068" lon="5.70324">
        <ele>250.7</ele>
        <time>2021-03-31T15:59:53Z</time>
      </trkpt>
      <trkpt lat="43.28062" lon="5.70323">
        <ele>249</ele>
        <time>2021-03-31T15:59:59Z</time>
      </trkpt>
      <trkpt lat="43.28056" lon="5.70323">
        <ele>247.4</ele>
        <time>2021-03-31T16:00:05Z</time>
      </trkpt>
      <trkpt lat="43.28052" lon="5.70317">
        <ele>246</ele>
        <time>2021-03-31T16:00:13Z</time>
      </trkpt>
      <trkpt lat="43.28049" lon="5.70312">
        <ele>245.2</ele>
        <time>2021-03-31T16:00:21Z</time>
      </trkpt>
      <trkpt lat="43.2805" lon="5.70305">
        <ele>245.3</ele>
        <time>2021-03-31T16:00:31Z</time>
      </trkpt>
      <trkpt lat="43.28052" lon="5.70298">
        <ele>245.8</ele>
        <time>2021-03-31T16:00:37Z</time>
      </trkpt>
      <trkpt lat="43.28055" lon="5.7029">
        <ele>246.5</ele>
        <time>2021-03-31T16:00:43Z</time>
      </trkpt>
      <trkpt lat="43.28057" lon="5.70283">
        <ele>246.9</ele>
        <time>2021-03-31T16:00:49Z</time>
      </trkpt>
      <trkpt lat="43.28061" lon="5.70276">
        <ele>247.7</ele>
        <time>2021-03-31T16:00:55Z</time>
      </trkpt>
      <trkpt lat="43.28064" lon="5.70268">
        <ele>248.4</ele>
        <time>2021-03-31T16:01:01Z</time>
      </trkpt>
      <trkpt lat="43.28065" lon="5.70261">
        <ele>248.7</ele>
        <time>2021-03-31T16:01:05Z</time>
      </trkpt>
      <trkpt lat="43.28067" lon="5.70254">
        <ele>249</ele>
        <time>2021-03-31T16:01:09Z</time>
      </trkpt>
      <trkpt lat="43.28069" lon="5.70248">
        <ele>249.4</ele>
        <time>2021-03-31T16:01:13Z</time>
      </trkpt>
      <trkpt lat="43.2807" lon="5.70242">
        <ele>249.9</ele>
        <time>2021-03-31T16:01:17Z</time>
      </trkpt>
      <trkpt lat="43.28072" lon="5.70235">
        <ele>250.5</ele>
        <time>2021-03-31T16:01:21Z</time>
      </trkpt>
      <trkpt lat="43.28073" lon="5.70229">
        <ele>250.9</ele>
        <time>2021-03-31T16:01:25Z</time>
      </trkpt>
      <trkpt lat="43.28073" lon="5.7022">
        <ele>251</ele>
        <time>2021-03-31T16:01:31Z</time>
      </trkpt>
      <trkpt lat="43.28069" lon="5.70214">
        <ele>250.1</ele>
        <time>2021-03-31T16:01:37Z</time>
      </trkpt>
      <trkpt lat="43.28065" lon="5.7021">
        <ele>249.3</ele>
        <time>2021-03-31T16:01:41Z</time>
      </trkpt>
      <trkpt lat="43.28061" lon="5.70207">
        <ele>248.3</ele>
        <time>2021-03-31T16:01:47Z</time>
      </trkpt>
      <trkpt lat="43.28056" lon="5.70203">
        <ele>247</ele>
        <time>2021-03-31T16:01:53Z</time>
      </trkpt>
      <trkpt lat="43.28051" lon="5.70198">
        <ele>245.8</ele>
        <time>2021-03-31T16:01:59Z</time>
      </trkpt>
      <trkpt lat="43.28049" lon="5.7019">
        <ele>245.4</ele>
        <time>2021-03-31T16:02:07Z</time>
      </trkpt>
      <trkpt lat="43.28047" lon="5.70184">
        <ele>245.2</ele>
        <time>2021-03-31T16:02:11Z</time>
      </trkpt>
      <trkpt lat="43.28045" lon="5.70178">
        <ele>244.8</ele>
        <time>2021-03-31T16:02:15Z</time>
      </trkpt>
      <trkpt lat="43.28042" lon="5.70171">
        <ele>243.9</ele>
        <time>2021-03-31T16:02:21Z</time>
      </trkpt>
      <trkpt lat="43.28038" lon="5.70167">
        <ele>242.9</ele>
        <time>2021-03-31T16:02:25Z</time>
      </trkpt>
      <trkpt lat="43.28033" lon="5.70164">
        <ele>242.4</ele>
        <time>2021-03-31T16:02:29Z</time>
      </trkpt>
      <trkpt lat="43.28029" lon="5.7016">
        <ele>242.1</ele>
        <time>2021-03-31T16:02:35Z</time>
      </trkpt>
      <trkpt lat="43.28025" lon="5.70155">
        <ele>242.3</ele>
        <time>2021-03-31T16:02:41Z</time>
      </trkpt>
      <trkpt lat="43.28023" lon="5.70149">
        <ele>243.1</ele>
        <time>2021-03-31T16:02:49Z</time>
      </trkpt>
      <trkpt lat="43.28018" lon="5.70144">
        <ele>243</ele>
        <time>2021-03-31T16:02:53Z</time>
      </trkpt>
      <trkpt lat="43.28014" lon="5.70139">
        <ele>242.8</ele>
        <time>2021-03-31T16:02:59Z</time>
      </trkpt>
      <trkpt lat="43.28008" lon="5.70136">
        <ele>242</ele>
        <time>2021-03-31T16:03:05Z</time>
      </trkpt>
      <trkpt lat="43.28001" lon="5.70134">
        <ele>240.3</ele>
        <time>2021-03-31T16:03:11Z</time>
      </trkpt>
      <trkpt lat="43.27997" lon="5.70133">
        <ele>239.5</ele>
        <time>2021-03-31T16:03:15Z</time>
      </trkpt>
      <trkpt lat="43.27992" lon="5.7013">
        <ele>239</ele>
        <time>2021-03-31T16:03:19Z</time>
      </trkpt>
      <trkpt lat="43.27988" lon="5.70126">
        <ele>238.6</ele>
        <time>2021-03-31T16:03:25Z</time>
      </trkpt>
      <trkpt lat="43.27983" lon="5.70124">
        <ele>237.9</ele>
        <time>2021-03-31T16:03:39Z</time>
      </trkpt>
      <trkpt lat="43.27976" lon="5.7012">
        <ele>236.9</ele>
        <time>2021-03-31T16:03:45Z</time>
      </trkpt>
      <trkpt lat="43.27971" lon="5.70119">
        <ele>235.9</ele>
        <time>2021-03-31T16:03:49Z</time>
      </trkpt>
      <trkpt lat="43.27967" lon="5.70116">
        <ele>235.2</ele>
        <time>2021-03-31T16:03:53Z</time>
      </trkpt>
      <trkpt lat="43.27962" lon="5.70113">
        <ele>234.4</ele>
        <time>2021-03-31T16:03:57Z</time>
      </trkpt>
      <trkpt lat="43.27956" lon="5.70109">
        <ele>233.7</ele>
        <time>2021-03-31T16:04:03Z</time>
      </trkpt>
      <trkpt lat="43.27952" lon="5.70105">
        <ele>233.2</ele>
        <time>2021-03-31T16:04:07Z</time>
      </trkpt>
      <trkpt lat="43.27948" lon="5.70102">
        <ele>232.4</ele>
        <time>2021-03-31T16:04:11Z</time>
      </trkpt>
      <trkpt lat="43.27943" lon="5.70098">
        <ele>231.7</ele>
        <time>2021-03-31T16:04:15Z</time>
      </trkpt>
      <trkpt lat="43.27939" lon="5.70094">
        <ele>231.2</ele>
        <time>2021-03-31T16:04:19Z</time>
      </trkpt>
      <trkpt lat="43.27935" lon="5.7009">
        <ele>230.5</ele>
        <time>2021-03-31T16:04:23Z</time>
      </trkpt>
      <trkpt lat="43.27931" lon="5.70085">
        <ele>229.9</ele>
        <time>2021-03-31T16:04:27Z</time>
      </trkpt>
      <trkpt lat="43.27927" lon="5.70082">
        <ele>229.2</ele>
        <time>2021-03-31T16:04:31Z</time>
      </trkpt>
      <trkpt lat="43.27922" lon="5.70078">
        <ele>228.3</ele>
        <time>2021-03-31T16:04:35Z</time>
      </trkpt>
      <trkpt lat="43.27915" lon="5.70076">
        <ele>226.5</ele>
        <time>2021-03-31T16:04:41Z</time>
      </trkpt>
      <trkpt lat="43.2791" lon="5.70072">
        <ele>225.9</ele>
        <time>2021-03-31T16:04:45Z</time>
      </trkpt>
      <trkpt lat="43.27907" lon="5.70068">
        <ele>225.5</ele>
        <time>2021-03-31T16:04:59Z</time>
      </trkpt>
      <trkpt lat="43.27902" lon="5.70063">
        <ele>225.1</ele>
        <time>2021-03-31T16:05:07Z</time>
      </trkpt>
      <trkpt lat="43.27899" lon="5.70057">
        <ele>224.8</ele>
        <time>2021-03-31T16:05:11Z</time>
      </trkpt>
      <trkpt lat="43.27894" lon="5.70052">
        <ele>224.3</ele>
        <time>2021-03-31T16:05:17Z</time>
      </trkpt>
      <trkpt lat="43.2789" lon="5.70045">
        <ele>223.9</ele>
        <time>2021-03-31T16:05:23Z</time>
      </trkpt>
      <trkpt lat="43.27887" lon="5.7004">
        <ele>223.6</ele>
        <time>2021-03-31T16:05:27Z</time>
      </trkpt>
      <trkpt lat="43.27884" lon="5.70034">
        <ele>223.2</ele>
        <time>2021-03-31T16:05:31Z</time>
      </trkpt>
      <trkpt lat="43.27881" lon="5.70028">
        <ele>222.8</ele>
        <time>2021-03-31T16:05:35Z</time>
      </trkpt>
      <trkpt lat="43.27877" lon="5.70023">
        <ele>222.2</ele>
        <time>2021-03-31T16:05:39Z</time>
      </trkpt>
      <trkpt lat="43.27873" lon="5.70017">
        <ele>221.4</ele>
        <time>2021-03-31T16:05:43Z</time>
      </trkpt>
      <trkpt lat="43.27869" lon="5.70012">
        <ele>220.7</ele>
        <time>2021-03-31T16:05:47Z</time>
      </trkpt>
      <trkpt lat="43.27865" lon="5.70008">
        <ele>219.8</ele>
        <time>2021-03-31T16:05:51Z</time>
      </trkpt>
      <trkpt lat="43.27861" lon="5.70004">
        <ele>218.9</ele>
        <time>2021-03-31T16:05:55Z</time>
      </trkpt>
      <trkpt lat="43.27857" lon="5.70002">
        <ele>217.8</ele>
        <time>2021-03-31T16:05:59Z</time>
      </trkpt>
      <trkpt lat="43.27852" lon="5.70005">
        <ele>216.3</ele>
        <time>2021-03-31T16:06:05Z</time>
      </trkpt>
      <trkpt lat="43.27855" lon="5.70011">
        <ele>216.9</ele>
        <time>2021-03-31T16:06:35Z</time>
      </trkpt>
      <trkpt lat="43.27858" lon="5.70017">
        <ele>217.4</ele>
        <time>2021-03-31T16:06:41Z</time>
      </trkpt>
      <trkpt lat="43.27859" lon="5.70023">
        <ele>217.4</ele>
        <time>2021-03-31T16:06:47Z</time>
      </trkpt>
      <trkpt lat="43.2786" lon="5.70029">
        <ele>217.4</ele>
        <time>2021-03-31T16:06:53Z</time>
      </trkpt>
      <trkpt lat="43.27859" lon="5.70038">
        <ele>216.9</ele>
        <time>2021-03-31T16:06:59Z</time>
      </trkpt>
      <trkpt lat="43.27859" lon="5.70046">
        <ele>216.5</ele>
        <time>2021-03-31T16:07:05Z</time>
      </trkpt>
      <trkpt lat="43.27859" lon="5.70054">
        <ele>216.1</ele>
        <time>2021-03-31T16:07:11Z</time>
      </trkpt>
      <trkpt lat="43.27855" lon="5.70061">
        <ele>215</ele>
        <time>2021-03-31T16:07:17Z</time>
      </trkpt>
      <trkpt lat="43.27851" lon="5.70067">
        <ele>213.9</ele>
        <time>2021-03-31T16:07:23Z</time>
      </trkpt>
      <trkpt lat="43.27846" lon="5.70073">
        <ele>212.7</ele>
        <time>2021-03-31T16:07:29Z</time>
      </trkpt>
      <trkpt lat="43.27841" lon="5.70078">
        <ele>211.7</ele>
        <time>2021-03-31T16:07:35Z</time>
      </trkpt>
      <trkpt lat="43.27838" lon="5.70081">
        <ele>210.9</ele>
        <time>2021-03-31T16:07:39Z</time>
      </trkpt>
      <trkpt lat="43.27834" lon="5.70085">
        <ele>210</ele>
        <time>2021-03-31T16:07:43Z</time>
      </trkpt>
      <trkpt lat="43.27829" lon="5.70089">
        <ele>209.7</ele>
        <time>2021-03-31T16:07:47Z</time>
      </trkpt>
      <trkpt lat="43.27825" lon="5.70093">
        <ele>209.5</ele>
        <time>2021-03-31T16:07:51Z</time>
      </trkpt>
      <trkpt lat="43.2782" lon="5.70096">
        <ele>209.3</ele>
        <time>2021-03-31T16:07:57Z</time>
      </trkpt>
      <trkpt lat="43.27814" lon="5.70097">
        <ele>209</ele>
        <time>2021-03-31T16:08:03Z</time>
      </trkpt>
      <trkpt lat="43.27808" lon="5.70095">
        <ele>208.8</ele>
        <time>2021-03-31T16:08:09Z</time>
      </trkpt>
      <trkpt lat="43.27804" lon="5.70093">
        <ele>208.6</ele>
        <time>2021-03-31T16:08:13Z</time>
      </trkpt>
      <trkpt lat="43.27798" lon="5.70093">
        <ele>208.3</ele>
        <time>2021-03-31T16:08:55Z</time>
      </trkpt>
      <trkpt lat="43.27792" lon="5.70092">
        <ele>208.1</ele>
        <time>2021-03-31T16:09:01Z</time>
      </trkpt>
      <trkpt lat="43.27787" lon="5.70091">
        <ele>207.9</ele>
        <time>2021-03-31T16:09:05Z</time>
      </trkpt>
      <trkpt lat="43.27782" lon="5.7009">
        <ele>207.6</ele>
        <time>2021-03-31T16:09:11Z</time>
      </trkpt>
      <trkpt lat="43.27777" lon="5.70088">
        <ele>207.4</ele>
        <time>2021-03-31T16:09:15Z</time>
      </trkpt>
      <trkpt lat="43.27771" lon="5.70085">
        <ele>207</ele>
        <time>2021-03-31T16:09:21Z</time>
      </trkpt>
      <trkpt lat="43.27766" lon="5.70086">
        <ele>206.8</ele>
        <time>2021-03-31T16:09:25Z</time>
      </trkpt>
      <trkpt lat="43.27762" lon="5.70089">
        <ele>206.7</ele>
        <time>2021-03-31T16:09:29Z</time>
      </trkpt>
      <trkpt lat="43.27755" lon="5.70091">
        <ele>206.4</ele>
        <time>2021-03-31T16:09:35Z</time>
      </trkpt>
      <trkpt lat="43.2775" lon="5.70093">
        <ele>206.2</ele>
        <time>2021-03-31T16:09:41Z</time>
      </trkpt>
      <trkpt lat="43.27744" lon="5.70094">
        <ele>206.1</ele>
        <time>2021-03-31T16:09:47Z</time>
      </trkpt>
      <trkpt lat="43.27739" lon="5.70096">
        <ele>205.9</ele>
        <time>2021-03-31T16:10:01Z</time>
      </trkpt>
      <trkpt lat="43.27738" lon="5.70101">
        <ele>206.1</ele>
        <time>2021-03-31T16:10:27Z</time>
      </trkpt>
    </trkseg>
  </trk>
</gpx>